<?xml version="1.0" encoding="UTF-8" standalone="no" ?>
<gpx xmlns="http://www.topografix.com/GPX/1/1" xmlns:xsi="http://www.w3.org/2001/XMLSchema-instance" xsi:schemaLocation="http://www.topografix.com/GPX/1/1 http://www.topografix.com/GPX/1/1/gpx.xsd" version="1.1" creator="VisuGPX - https://www.visugpx.com">
  <metadata>
    <name>Sun Trip 2019</name>
    <desc><![CDATA[Le parcours du Sun Trip 2019]]></desc>
  </metadata>
  <trk>
    <name><![CDATA[J1J2]]></name>
    <trkseg>
      <trkpt lat="45.04292" lon="3.88435">
        <ele>635</ele>
        <time>2019-04-16T10:53:44Z</time>
      </trkpt>
      <trkpt lat="45.04289" lon="3.88398">
        <ele>636</ele>
        <time>2019-04-16T10:54:44Z</time>
      </trkpt>
      <trkpt lat="45.04292" lon="3.8836">
        <ele>637</ele>
        <time>2019-04-16T10:55:44Z</time>
      </trkpt>
      <trkpt lat="45.04307" lon="3.88276">
        <ele>640</ele>
        <time>2019-04-16T10:56:44Z</time>
      </trkpt>
      <trkpt lat="45.04311" lon="3.8827">
        <ele>641</ele>
        <time>2019-04-16T10:57:44Z</time>
      </trkpt>
      <trkpt lat="45.04316" lon="3.88243">
        <ele>642</ele>
        <time>2019-04-16T10:58:44Z</time>
      </trkpt>
      <trkpt lat="45.0432" lon="3.88245">
        <ele>642</ele>
        <time>2019-04-16T10:59:44Z</time>
      </trkpt>
      <trkpt lat="45.0432" lon="3.88239">
        <ele>642</ele>
        <time>2019-04-16T11:00:44Z</time>
      </trkpt>
      <trkpt lat="45.04319" lon="3.88222">
        <ele>642</ele>
        <time>2019-04-16T11:01:44Z</time>
      </trkpt>
      <trkpt lat="45.04309" lon="3.88166">
        <ele>642</ele>
        <time>2019-04-16T11:02:44Z</time>
      </trkpt>
      <trkpt lat="45.04294" lon="3.88045">
        <ele>644</ele>
        <time>2019-04-16T11:03:44Z</time>
      </trkpt>
      <trkpt lat="45.04303" lon="3.88041">
        <ele>644</ele>
        <time>2019-04-16T11:04:44Z</time>
      </trkpt>
      <trkpt lat="45.04339" lon="3.88032">
        <ele>644</ele>
        <time>2019-04-16T11:05:44Z</time>
      </trkpt>
      <trkpt lat="45.04347" lon="3.88028">
        <ele>644</ele>
        <time>2019-04-16T11:06:44Z</time>
      </trkpt>
      <trkpt lat="45.04412" lon="3.88014">
        <ele>644</ele>
        <time>2019-04-16T11:07:44Z</time>
      </trkpt>
      <trkpt lat="45.04421" lon="3.8801">
        <ele>644</ele>
        <time>2019-04-16T11:08:44Z</time>
      </trkpt>
      <trkpt lat="45.04429" lon="3.88002">
        <ele>644</ele>
        <time>2019-04-16T11:09:44Z</time>
      </trkpt>
      <trkpt lat="45.04432" lon="3.87993">
        <ele>644</ele>
        <time>2019-04-16T11:10:44Z</time>
      </trkpt>
      <trkpt lat="45.04433" lon="3.8797">
        <ele>644</ele>
        <time>2019-04-16T11:11:44Z</time>
      </trkpt>
      <trkpt lat="45.04443" lon="3.87929">
        <ele>643</ele>
        <time>2019-04-16T11:12:44Z</time>
      </trkpt>
      <trkpt lat="45.04444" lon="3.87916">
        <ele>643</ele>
        <time>2019-04-16T11:13:44Z</time>
      </trkpt>
      <trkpt lat="45.04492" lon="3.87738">
        <ele>644</ele>
        <time>2019-04-16T11:14:44Z</time>
      </trkpt>
      <trkpt lat="45.04534" lon="3.87567">
        <ele>644</ele>
        <time>2019-04-16T11:15:44Z</time>
      </trkpt>
      <trkpt lat="45.04534" lon="3.87529">
        <ele>645</ele>
        <time>2019-04-16T11:16:44Z</time>
      </trkpt>
      <trkpt lat="45.04537" lon="3.87529">
        <ele>644</ele>
        <time>2019-04-16T11:17:44Z</time>
      </trkpt>
      <trkpt lat="45.04543" lon="3.8752">
        <ele>643</ele>
        <time>2019-04-16T11:18:44Z</time>
      </trkpt>
      <trkpt lat="45.04543" lon="3.87516">
        <ele>643</ele>
        <time>2019-04-16T11:19:44Z</time>
      </trkpt>
      <trkpt lat="45.04541" lon="3.87509">
        <ele>643</ele>
        <time>2019-04-16T11:20:44Z</time>
      </trkpt>
      <trkpt lat="45.04537" lon="3.87506">
        <ele>645</ele>
        <time>2019-04-16T11:21:44Z</time>
      </trkpt>
      <trkpt lat="45.0454" lon="3.87488">
        <ele>644</ele>
        <time>2019-04-16T11:22:44Z</time>
      </trkpt>
      <trkpt lat="45.04539" lon="3.87443">
        <ele>643</ele>
        <time>2019-04-16T11:23:44Z</time>
      </trkpt>
      <trkpt lat="45.04531" lon="3.87363">
        <ele>645</ele>
        <time>2019-04-16T11:24:44Z</time>
      </trkpt>
      <trkpt lat="45.04504" lon="3.87192">
        <ele>647</ele>
        <time>2019-04-16T11:25:44Z</time>
      </trkpt>
      <trkpt lat="45.04487" lon="3.87062">
        <ele>648</ele>
        <time>2019-04-16T11:26:44Z</time>
      </trkpt>
      <trkpt lat="45.04488" lon="3.87042">
        <ele>648</ele>
        <time>2019-04-16T11:27:44Z</time>
      </trkpt>
      <trkpt lat="45.04498" lon="3.87007">
        <ele>646</ele>
        <time>2019-04-16T11:28:44Z</time>
      </trkpt>
      <trkpt lat="45.04591" lon="3.86727">
        <ele>648</ele>
        <time>2019-04-16T11:29:44Z</time>
      </trkpt>
      <trkpt lat="45.0465" lon="3.86555">
        <ele>649</ele>
        <time>2019-04-16T11:30:44Z</time>
      </trkpt>
      <trkpt lat="45.04689" lon="3.8643">
        <ele>646</ele>
        <time>2019-04-16T11:31:44Z</time>
      </trkpt>
      <trkpt lat="45.04691" lon="3.86403">
        <ele>646</ele>
        <time>2019-04-16T11:32:44Z</time>
      </trkpt>
      <trkpt lat="45.04689" lon="3.86375">
        <ele>645</ele>
        <time>2019-04-16T11:33:44Z</time>
      </trkpt>
      <trkpt lat="45.04654" lon="3.86232">
        <ele>643</ele>
        <time>2019-04-16T11:34:44Z</time>
      </trkpt>
      <trkpt lat="45.04655" lon="3.86189">
        <ele>644</ele>
        <time>2019-04-16T11:35:44Z</time>
      </trkpt>
      <trkpt lat="45.0466" lon="3.86174">
        <ele>643</ele>
        <time>2019-04-16T11:36:44Z</time>
      </trkpt>
      <trkpt lat="45.04663" lon="3.86171">
        <ele>643</ele>
        <time>2019-04-16T11:37:44Z</time>
      </trkpt>
      <trkpt lat="45.04669" lon="3.86156">
        <ele>643</ele>
        <time>2019-04-16T11:38:44Z</time>
      </trkpt>
      <trkpt lat="45.04673" lon="3.86142">
        <ele>644</ele>
        <time>2019-04-16T11:39:44Z</time>
      </trkpt>
      <trkpt lat="45.04674" lon="3.86128">
        <ele>644</ele>
        <time>2019-04-16T11:40:44Z</time>
      </trkpt>
      <trkpt lat="45.04671" lon="3.86111">
        <ele>643</ele>
        <time>2019-04-16T11:41:44Z</time>
      </trkpt>
      <trkpt lat="45.04665" lon="3.86093">
        <ele>643</ele>
        <time>2019-04-16T11:42:44Z</time>
      </trkpt>
      <trkpt lat="45.04651" lon="3.8607">
        <ele>644</ele>
        <time>2019-04-16T11:43:44Z</time>
      </trkpt>
      <trkpt lat="45.04643" lon="3.86065">
        <ele>644</ele>
        <time>2019-04-16T11:44:44Z</time>
      </trkpt>
      <trkpt lat="45.04639" lon="3.86047">
        <ele>645</ele>
        <time>2019-04-16T11:45:44Z</time>
      </trkpt>
      <trkpt lat="45.04634" lon="3.86022">
        <ele>646</ele>
        <time>2019-04-16T11:46:44Z</time>
      </trkpt>
      <trkpt lat="45.04646" lon="3.85968">
        <ele>648</ele>
        <time>2019-04-16T11:47:44Z</time>
      </trkpt>
      <trkpt lat="45.04652" lon="3.85946">
        <ele>649</ele>
        <time>2019-04-16T11:48:44Z</time>
      </trkpt>
      <trkpt lat="45.04678" lon="3.85887">
        <ele>652</ele>
        <time>2019-04-16T11:49:44Z</time>
      </trkpt>
      <trkpt lat="45.04689" lon="3.85867">
        <ele>653</ele>
        <time>2019-04-16T11:50:44Z</time>
      </trkpt>
      <trkpt lat="45.04701" lon="3.8585">
        <ele>653</ele>
        <time>2019-04-16T11:51:44Z</time>
      </trkpt>
      <trkpt lat="45.04756" lon="3.85805">
        <ele>651</ele>
        <time>2019-04-16T11:52:44Z</time>
      </trkpt>
      <trkpt lat="45.04767" lon="3.85787">
        <ele>650</ele>
        <time>2019-04-16T11:53:44Z</time>
      </trkpt>
      <trkpt lat="45.04774" lon="3.85772">
        <ele>649</ele>
        <time>2019-04-16T11:54:44Z</time>
      </trkpt>
      <trkpt lat="45.04778" lon="3.85755">
        <ele>648</ele>
        <time>2019-04-16T11:55:44Z</time>
      </trkpt>
      <trkpt lat="45.0478" lon="3.85724">
        <ele>647</ele>
        <time>2019-04-16T11:56:44Z</time>
      </trkpt>
      <trkpt lat="45.04771" lon="3.85457">
        <ele>647</ele>
        <time>2019-04-16T11:57:44Z</time>
      </trkpt>
      <trkpt lat="45.04774" lon="3.85392">
        <ele>649</ele>
        <time>2019-04-16T11:58:44Z</time>
      </trkpt>
      <trkpt lat="45.04777" lon="3.85366">
        <ele>649</ele>
        <time>2019-04-16T11:59:44Z</time>
      </trkpt>
      <trkpt lat="45.0479" lon="3.85326">
        <ele>649</ele>
        <time>2019-04-16T12:00:44Z</time>
      </trkpt>
      <trkpt lat="45.04814" lon="3.85274">
        <ele>647</ele>
        <time>2019-04-16T12:01:44Z</time>
      </trkpt>
      <trkpt lat="45.04854" lon="3.8521">
        <ele>645</ele>
        <time>2019-04-16T12:02:44Z</time>
      </trkpt>
      <trkpt lat="45.04865" lon="3.85189">
        <ele>645</ele>
        <time>2019-04-16T12:03:44Z</time>
      </trkpt>
      <trkpt lat="45.04881" lon="3.85149">
        <ele>645</ele>
        <time>2019-04-16T12:04:44Z</time>
      </trkpt>
      <trkpt lat="45.0493" lon="3.8499">
        <ele>640</ele>
        <time>2019-04-16T12:05:44Z</time>
      </trkpt>
      <trkpt lat="45.0494" lon="3.84941">
        <ele>641</ele>
        <time>2019-04-16T12:06:44Z</time>
      </trkpt>
      <trkpt lat="45.04955" lon="3.84835">
        <ele>644</ele>
        <time>2019-04-16T12:07:44Z</time>
      </trkpt>
      <trkpt lat="45.04968" lon="3.84792">
        <ele>644</ele>
        <time>2019-04-16T12:08:44Z</time>
      </trkpt>
      <trkpt lat="45.05006" lon="3.84687">
        <ele>644</ele>
        <time>2019-04-16T12:09:44Z</time>
      </trkpt>
      <trkpt lat="45.05018" lon="3.84663">
        <ele>645</ele>
        <time>2019-04-16T12:10:44Z</time>
      </trkpt>
      <trkpt lat="45.05038" lon="3.8464">
        <ele>646</ele>
        <time>2019-04-16T12:11:44Z</time>
      </trkpt>
      <trkpt lat="45.0507" lon="3.84616">
        <ele>647</ele>
        <time>2019-04-16T12:12:44Z</time>
      </trkpt>
      <trkpt lat="45.05094" lon="3.84593">
        <ele>648</ele>
        <time>2019-04-16T12:13:44Z</time>
      </trkpt>
      <trkpt lat="45.05104" lon="3.84578">
        <ele>648</ele>
        <time>2019-04-16T12:14:44Z</time>
      </trkpt>
      <trkpt lat="45.05128" lon="3.84527">
        <ele>652</ele>
        <time>2019-04-16T12:15:44Z</time>
      </trkpt>
      <trkpt lat="45.05149" lon="3.84498">
        <ele>653</ele>
        <time>2019-04-16T12:16:44Z</time>
      </trkpt>
      <trkpt lat="45.052" lon="3.84438">
        <ele>655</ele>
        <time>2019-04-16T12:17:44Z</time>
      </trkpt>
      <trkpt lat="45.05243" lon="3.84391">
        <ele>653</ele>
        <time>2019-04-16T12:18:44Z</time>
      </trkpt>
      <trkpt lat="45.05312" lon="3.84325">
        <ele>653</ele>
        <time>2019-04-16T12:19:44Z</time>
      </trkpt>
      <trkpt lat="45.05467" lon="3.84194">
        <ele>658</ele>
        <time>2019-04-16T12:20:44Z</time>
      </trkpt>
      <trkpt lat="45.05598" lon="3.84101">
        <ele>651</ele>
        <time>2019-04-16T12:21:44Z</time>
      </trkpt>
      <trkpt lat="45.05647" lon="3.8407">
        <ele>652</ele>
        <time>2019-04-16T12:22:44Z</time>
      </trkpt>
      <trkpt lat="45.05782" lon="3.83989">
        <ele>656</ele>
        <time>2019-04-16T12:23:44Z</time>
      </trkpt>
      <trkpt lat="45.0581" lon="3.83965">
        <ele>657</ele>
        <time>2019-04-16T12:24:44Z</time>
      </trkpt>
      <trkpt lat="45.05832" lon="3.83935">
        <ele>658</ele>
        <time>2019-04-16T12:25:44Z</time>
      </trkpt>
      <trkpt lat="45.0585" lon="3.83897">
        <ele>661</ele>
        <time>2019-04-16T12:26:44Z</time>
      </trkpt>
      <trkpt lat="45.05856" lon="3.83877">
        <ele>662</ele>
        <time>2019-04-16T12:27:44Z</time>
      </trkpt>
      <trkpt lat="45.05863" lon="3.83851">
        <ele>664</ele>
        <time>2019-04-16T12:28:44Z</time>
      </trkpt>
      <trkpt lat="45.05887" lon="3.83683">
        <ele>679</ele>
        <time>2019-04-16T12:29:44Z</time>
      </trkpt>
      <trkpt lat="45.0589" lon="3.83648">
        <ele>680</ele>
        <time>2019-04-16T12:30:44Z</time>
      </trkpt>
      <trkpt lat="45.05891" lon="3.83612">
        <ele>681</ele>
        <time>2019-04-16T12:31:44Z</time>
      </trkpt>
      <trkpt lat="45.05889" lon="3.83581">
        <ele>682</ele>
        <time>2019-04-16T12:32:44Z</time>
      </trkpt>
      <trkpt lat="45.05885" lon="3.83547">
        <ele>683</ele>
        <time>2019-04-16T12:33:44Z</time>
      </trkpt>
      <trkpt lat="45.05878" lon="3.83518">
        <ele>684</ele>
        <time>2019-04-16T12:34:44Z</time>
      </trkpt>
      <trkpt lat="45.0587" lon="3.83488">
        <ele>686</ele>
        <time>2019-04-16T12:35:44Z</time>
      </trkpt>
      <trkpt lat="45.05681" lon="3.83023">
        <ele>702</ele>
        <time>2019-04-16T12:36:44Z</time>
      </trkpt>
      <trkpt lat="45.05667" lon="3.82986">
        <ele>699</ele>
        <time>2019-04-16T12:37:44Z</time>
      </trkpt>
      <trkpt lat="45.05659" lon="3.82952">
        <ele>700</ele>
        <time>2019-04-16T12:38:44Z</time>
      </trkpt>
      <trkpt lat="45.05654" lon="3.82927">
        <ele>699</ele>
        <time>2019-04-16T12:39:44Z</time>
      </trkpt>
      <trkpt lat="45.05649" lon="3.82882">
        <ele>701</ele>
        <time>2019-04-16T12:40:44Z</time>
      </trkpt>
      <trkpt lat="45.05648" lon="3.82851">
        <ele>702</ele>
        <time>2019-04-16T12:41:44Z</time>
      </trkpt>
      <trkpt lat="45.05651" lon="3.8281">
        <ele>702</ele>
        <time>2019-04-16T12:42:44Z</time>
      </trkpt>
      <trkpt lat="45.0566" lon="3.8273">
        <ele>701</ele>
        <time>2019-04-16T12:43:44Z</time>
      </trkpt>
      <trkpt lat="45.05673" lon="3.82639">
        <ele>702</ele>
        <time>2019-04-16T12:44:44Z</time>
      </trkpt>
      <trkpt lat="45.05696" lon="3.82543">
        <ele>707</ele>
        <time>2019-04-16T12:45:44Z</time>
      </trkpt>
      <trkpt lat="45.0581" lon="3.82158">
        <ele>718</ele>
        <time>2019-04-16T12:46:44Z</time>
      </trkpt>
      <trkpt lat="45.05869" lon="3.81946">
        <ele>729</ele>
        <time>2019-04-16T12:47:44Z</time>
      </trkpt>
      <trkpt lat="45.05883" lon="3.81887">
        <ele>731</ele>
        <time>2019-04-16T12:48:44Z</time>
      </trkpt>
      <trkpt lat="45.05888" lon="3.81854">
        <ele>732</ele>
        <time>2019-04-16T12:49:44Z</time>
      </trkpt>
      <trkpt lat="45.05894" lon="3.81782">
        <ele>734</ele>
        <time>2019-04-16T12:50:44Z</time>
      </trkpt>
      <trkpt lat="45.05894" lon="3.81738">
        <ele>735</ele>
        <time>2019-04-16T12:51:44Z</time>
      </trkpt>
      <trkpt lat="45.05867" lon="3.81199">
        <ele>743</ele>
        <time>2019-04-16T12:52:44Z</time>
      </trkpt>
      <trkpt lat="45.05861" lon="3.81136">
        <ele>747</ele>
        <time>2019-04-16T12:53:44Z</time>
      </trkpt>
      <trkpt lat="45.05846" lon="3.81071">
        <ele>748</ele>
        <time>2019-04-16T12:54:44Z</time>
      </trkpt>
      <trkpt lat="45.05775" lon="3.80867">
        <ele>752</ele>
        <time>2019-04-16T12:55:44Z</time>
      </trkpt>
      <trkpt lat="45.05751" lon="3.80801">
        <ele>753</ele>
        <time>2019-04-16T12:56:44Z</time>
      </trkpt>
      <trkpt lat="45.05675" lon="3.80607">
        <ele>758</ele>
        <time>2019-04-16T12:57:44Z</time>
      </trkpt>
      <trkpt lat="45.0566" lon="3.80559">
        <ele>757</ele>
        <time>2019-04-16T12:58:44Z</time>
      </trkpt>
      <trkpt lat="45.0565" lon="3.80491">
        <ele>758</ele>
        <time>2019-04-16T12:59:44Z</time>
      </trkpt>
      <trkpt lat="45.05648" lon="3.80421">
        <ele>761</ele>
        <time>2019-04-16T13:00:44Z</time>
      </trkpt>
      <trkpt lat="45.05645" lon="3.79929">
        <ele>792</ele>
        <time>2019-04-16T13:01:44Z</time>
      </trkpt>
      <trkpt lat="45.05644" lon="3.79896">
        <ele>793</ele>
        <time>2019-04-16T13:02:44Z</time>
      </trkpt>
      <trkpt lat="45.05616" lon="3.79616">
        <ele>806</ele>
        <time>2019-04-16T13:03:44Z</time>
      </trkpt>
      <trkpt lat="45.05615" lon="3.79582">
        <ele>808</ele>
        <time>2019-04-16T13:04:44Z</time>
      </trkpt>
      <trkpt lat="45.05618" lon="3.79533">
        <ele>810</ele>
        <time>2019-04-16T13:05:44Z</time>
      </trkpt>
      <trkpt lat="45.05621" lon="3.79504">
        <ele>811</ele>
        <time>2019-04-16T13:06:44Z</time>
      </trkpt>
      <trkpt lat="45.05628" lon="3.79469">
        <ele>812</ele>
        <time>2019-04-16T13:07:44Z</time>
      </trkpt>
      <trkpt lat="45.05636" lon="3.79437">
        <ele>813</ele>
        <time>2019-04-16T13:08:44Z</time>
      </trkpt>
      <trkpt lat="45.05659" lon="3.79374">
        <ele>814</ele>
        <time>2019-04-16T13:09:44Z</time>
      </trkpt>
      <trkpt lat="45.05745" lon="3.79166">
        <ele>816</ele>
        <time>2019-04-16T13:10:44Z</time>
      </trkpt>
      <trkpt lat="45.05759" lon="3.79136">
        <ele>816</ele>
        <time>2019-04-16T13:11:44Z</time>
      </trkpt>
      <trkpt lat="45.05769" lon="3.79118">
        <ele>816</ele>
        <time>2019-04-16T13:12:44Z</time>
      </trkpt>
      <trkpt lat="45.06113" lon="3.78591">
        <ele>826</ele>
        <time>2019-04-16T13:13:44Z</time>
      </trkpt>
      <trkpt lat="45.0614" lon="3.78554">
        <ele>826</ele>
        <time>2019-04-16T13:14:44Z</time>
      </trkpt>
      <trkpt lat="45.06164" lon="3.78526">
        <ele>825</ele>
        <time>2019-04-16T13:15:44Z</time>
      </trkpt>
      <trkpt lat="45.06186" lon="3.78503">
        <ele>825</ele>
        <time>2019-04-16T13:16:44Z</time>
      </trkpt>
      <trkpt lat="45.06376" lon="3.7833">
        <ele>837</ele>
        <time>2019-04-16T13:17:44Z</time>
      </trkpt>
      <trkpt lat="45.06391" lon="3.78313">
        <ele>838</ele>
        <time>2019-04-16T13:18:44Z</time>
      </trkpt>
      <trkpt lat="45.06428" lon="3.78267">
        <ele>838</ele>
        <time>2019-04-16T13:19:44Z</time>
      </trkpt>
      <trkpt lat="45.0644" lon="3.78247">
        <ele>838</ele>
        <time>2019-04-16T13:20:44Z</time>
      </trkpt>
      <trkpt lat="45.06464" lon="3.78204">
        <ele>839</ele>
        <time>2019-04-16T13:21:44Z</time>
      </trkpt>
      <trkpt lat="45.06636" lon="3.77849">
        <ele>846</ele>
        <time>2019-04-16T13:22:44Z</time>
      </trkpt>
      <trkpt lat="45.06657" lon="3.77801">
        <ele>847</ele>
        <time>2019-04-16T13:23:44Z</time>
      </trkpt>
      <trkpt lat="45.06672" lon="3.77751">
        <ele>846</ele>
        <time>2019-04-16T13:24:44Z</time>
      </trkpt>
      <trkpt lat="45.06679" lon="3.77722">
        <ele>846</ele>
        <time>2019-04-16T13:25:44Z</time>
      </trkpt>
      <trkpt lat="45.06683" lon="3.7769">
        <ele>845</ele>
        <time>2019-04-16T13:26:44Z</time>
      </trkpt>
      <trkpt lat="45.06686" lon="3.77657">
        <ele>845</ele>
        <time>2019-04-16T13:27:44Z</time>
      </trkpt>
      <trkpt lat="45.06686" lon="3.77592">
        <ele>844</ele>
        <time>2019-04-16T13:28:44Z</time>
      </trkpt>
      <trkpt lat="45.06682" lon="3.77556">
        <ele>844</ele>
        <time>2019-04-16T13:29:44Z</time>
      </trkpt>
      <trkpt lat="45.06676" lon="3.77517">
        <ele>845</ele>
        <time>2019-04-16T13:30:44Z</time>
      </trkpt>
      <trkpt lat="45.06642" lon="3.77331">
        <ele>844</ele>
        <time>2019-04-16T13:31:44Z</time>
      </trkpt>
      <trkpt lat="45.06639" lon="3.77298">
        <ele>844</ele>
        <time>2019-04-16T13:32:44Z</time>
      </trkpt>
      <trkpt lat="45.06638" lon="3.77269">
        <ele>843</ele>
        <time>2019-04-16T13:33:44Z</time>
      </trkpt>
      <trkpt lat="45.06639" lon="3.77234">
        <ele>843</ele>
        <time>2019-04-16T13:34:44Z</time>
      </trkpt>
      <trkpt lat="45.06685" lon="3.76747">
        <ele>848</ele>
        <time>2019-04-16T13:35:44Z</time>
      </trkpt>
      <trkpt lat="45.06692" lon="3.76711">
        <ele>849</ele>
        <time>2019-04-16T13:36:44Z</time>
      </trkpt>
      <trkpt lat="45.06698" lon="3.76688">
        <ele>849</ele>
        <time>2019-04-16T13:37:44Z</time>
      </trkpt>
      <trkpt lat="45.06708" lon="3.76663">
        <ele>850</ele>
        <time>2019-04-16T13:38:44Z</time>
      </trkpt>
      <trkpt lat="45.06733" lon="3.76618">
        <ele>852</ele>
        <time>2019-04-16T13:39:44Z</time>
      </trkpt>
      <trkpt lat="45.06753" lon="3.76592">
        <ele>853</ele>
        <time>2019-04-16T13:40:44Z</time>
      </trkpt>
      <trkpt lat="45.06881" lon="3.76462">
        <ele>854</ele>
        <time>2019-04-16T13:41:44Z</time>
      </trkpt>
      <trkpt lat="45.06914" lon="3.76428">
        <ele>853</ele>
        <time>2019-04-16T13:42:44Z</time>
      </trkpt>
      <trkpt lat="45.06929" lon="3.7641">
        <ele>853</ele>
        <time>2019-04-16T13:43:44Z</time>
      </trkpt>
      <trkpt lat="45.06943" lon="3.76388">
        <ele>853</ele>
        <time>2019-04-16T13:44:44Z</time>
      </trkpt>
      <trkpt lat="45.06954" lon="3.76365">
        <ele>853</ele>
        <time>2019-04-16T13:45:44Z</time>
      </trkpt>
      <trkpt lat="45.06961" lon="3.76344">
        <ele>854</ele>
        <time>2019-04-16T13:46:44Z</time>
      </trkpt>
      <trkpt lat="45.06967" lon="3.76319">
        <ele>853</ele>
        <time>2019-04-16T13:47:44Z</time>
      </trkpt>
      <trkpt lat="45.06969" lon="3.76295">
        <ele>853</ele>
        <time>2019-04-16T13:48:44Z</time>
      </trkpt>
      <trkpt lat="45.0697" lon="3.76266">
        <ele>852</ele>
        <time>2019-04-16T13:49:44Z</time>
      </trkpt>
      <trkpt lat="45.06966" lon="3.76238">
        <ele>851</ele>
        <time>2019-04-16T13:50:44Z</time>
      </trkpt>
      <trkpt lat="45.06961" lon="3.76214">
        <ele>851</ele>
        <time>2019-04-16T13:51:44Z</time>
      </trkpt>
      <trkpt lat="45.06954" lon="3.76197">
        <ele>850</ele>
        <time>2019-04-16T13:52:44Z</time>
      </trkpt>
      <trkpt lat="45.06951" lon="3.7618">
        <ele>850</ele>
        <time>2019-04-16T13:53:44Z</time>
      </trkpt>
      <trkpt lat="45.06949" lon="3.76158">
        <ele>849</ele>
        <time>2019-04-16T13:54:44Z</time>
      </trkpt>
      <trkpt lat="45.06952" lon="3.76147">
        <ele>848</ele>
        <time>2019-04-16T13:55:44Z</time>
      </trkpt>
      <trkpt lat="45.06952" lon="3.76139">
        <ele>847</ele>
        <time>2019-04-16T13:56:44Z</time>
      </trkpt>
      <trkpt lat="45.0695" lon="3.76132">
        <ele>847</ele>
        <time>2019-04-16T13:57:44Z</time>
      </trkpt>
      <trkpt lat="45.06947" lon="3.76127">
        <ele>847</ele>
        <time>2019-04-16T13:58:44Z</time>
      </trkpt>
      <trkpt lat="45.0694" lon="3.76121">
        <ele>847</ele>
        <time>2019-04-16T13:59:44Z</time>
      </trkpt>
      <trkpt lat="45.06936" lon="3.7612">
        <ele>847</ele>
        <time>2019-04-16T14:00:44Z</time>
      </trkpt>
      <trkpt lat="45.06927" lon="3.7611">
        <ele>847</ele>
        <time>2019-04-16T14:01:44Z</time>
      </trkpt>
      <trkpt lat="45.06911" lon="3.76076">
        <ele>846</ele>
        <time>2019-04-16T14:02:44Z</time>
      </trkpt>
      <trkpt lat="45.0684" lon="3.75906">
        <ele>848</ele>
        <time>2019-04-16T14:03:44Z</time>
      </trkpt>
      <trkpt lat="45.06791" lon="3.75786">
        <ele>850</ele>
        <time>2019-04-16T14:04:44Z</time>
      </trkpt>
      <trkpt lat="45.06788" lon="3.75767">
        <ele>850</ele>
        <time>2019-04-16T14:05:44Z</time>
      </trkpt>
      <trkpt lat="45.06789" lon="3.75745">
        <ele>850</ele>
        <time>2019-04-16T14:06:44Z</time>
      </trkpt>
      <trkpt lat="45.06794" lon="3.7571">
        <ele>851</ele>
        <time>2019-04-16T14:07:44Z</time>
      </trkpt>
      <trkpt lat="45.06873" lon="3.74961">
        <ele>867</ele>
        <time>2019-04-16T14:08:44Z</time>
      </trkpt>
      <trkpt lat="45.06873" lon="3.74942">
        <ele>867</ele>
        <time>2019-04-16T14:09:44Z</time>
      </trkpt>
      <trkpt lat="45.06869" lon="3.74903">
        <ele>867</ele>
        <time>2019-04-16T14:10:44Z</time>
      </trkpt>
      <trkpt lat="45.0687" lon="3.74863">
        <ele>866</ele>
        <time>2019-04-16T14:11:44Z</time>
      </trkpt>
      <trkpt lat="45.0685" lon="3.74837">
        <ele>867</ele>
        <time>2019-04-16T14:12:44Z</time>
      </trkpt>
      <trkpt lat="45.06758" lon="3.74646">
        <ele>874</ele>
        <time>2019-04-16T14:13:44Z</time>
      </trkpt>
      <trkpt lat="45.06726" lon="3.74568">
        <ele>875</ele>
        <time>2019-04-16T14:14:44Z</time>
      </trkpt>
      <trkpt lat="45.06716" lon="3.74517">
        <ele>876</ele>
        <time>2019-04-16T14:15:44Z</time>
      </trkpt>
      <trkpt lat="45.06698" lon="3.74031">
        <ele>882</ele>
        <time>2019-04-16T14:16:44Z</time>
      </trkpt>
      <trkpt lat="45.06707" lon="3.73986">
        <ele>882</ele>
        <time>2019-04-16T14:17:44Z</time>
      </trkpt>
      <trkpt lat="45.06762" lon="3.7382">
        <ele>883</ele>
        <time>2019-04-16T14:18:44Z</time>
      </trkpt>
      <trkpt lat="45.06775" lon="3.73743">
        <ele>885</ele>
        <time>2019-04-16T14:19:44Z</time>
      </trkpt>
      <trkpt lat="45.06779" lon="3.73654">
        <ele>887</ele>
        <time>2019-04-16T14:20:44Z</time>
      </trkpt>
      <trkpt lat="45.06758" lon="3.73494">
        <ele>894</ele>
        <time>2019-04-16T14:21:44Z</time>
      </trkpt>
      <trkpt lat="45.06767" lon="3.73309">
        <ele>897</ele>
        <time>2019-04-16T14:22:44Z</time>
      </trkpt>
      <trkpt lat="45.06778" lon="3.73253">
        <ele>899</ele>
        <time>2019-04-16T14:23:44Z</time>
      </trkpt>
      <trkpt lat="45.06804" lon="3.732">
        <ele>899</ele>
        <time>2019-04-16T14:24:44Z</time>
      </trkpt>
      <trkpt lat="45.06857" lon="3.73125">
        <ele>898</ele>
        <time>2019-04-16T14:25:44Z</time>
      </trkpt>
      <trkpt lat="45.06873" lon="3.73088">
        <ele>896</ele>
        <time>2019-04-16T14:26:44Z</time>
      </trkpt>
      <trkpt lat="45.06878" lon="3.73042">
        <ele>898</ele>
        <time>2019-04-16T14:27:44Z</time>
      </trkpt>
      <trkpt lat="45.06877" lon="3.72969">
        <ele>900</ele>
        <time>2019-04-16T14:28:44Z</time>
      </trkpt>
      <trkpt lat="45.06867" lon="3.72894">
        <ele>903</ele>
        <time>2019-04-16T14:29:44Z</time>
      </trkpt>
      <trkpt lat="45.06814" lon="3.72718">
        <ele>905</ele>
        <time>2019-04-16T14:30:44Z</time>
      </trkpt>
      <trkpt lat="45.06773" lon="3.72653">
        <ele>910</ele>
        <time>2019-04-16T14:31:44Z</time>
      </trkpt>
      <trkpt lat="45.06751" lon="3.72606">
        <ele>911</ele>
        <time>2019-04-16T14:32:44Z</time>
      </trkpt>
      <trkpt lat="45.06682" lon="3.72396">
        <ele>911</ele>
        <time>2019-04-16T14:33:44Z</time>
      </trkpt>
      <trkpt lat="45.06673" lon="3.72333">
        <ele>914</ele>
        <time>2019-04-16T14:34:44Z</time>
      </trkpt>
      <trkpt lat="45.0668" lon="3.72209">
        <ele>913</ele>
        <time>2019-04-16T14:35:44Z</time>
      </trkpt>
      <trkpt lat="45.06679" lon="3.72157">
        <ele>914</ele>
        <time>2019-04-16T14:36:44Z</time>
      </trkpt>
      <trkpt lat="45.06667" lon="3.72108">
        <ele>914</ele>
        <time>2019-04-16T14:37:44Z</time>
      </trkpt>
      <trkpt lat="45.06616" lon="3.7201">
        <ele>913</ele>
        <time>2019-04-16T14:38:44Z</time>
      </trkpt>
      <trkpt lat="45.066" lon="3.71971">
        <ele>912</ele>
        <time>2019-04-16T14:39:44Z</time>
      </trkpt>
      <trkpt lat="45.06593" lon="3.71933">
        <ele>908</ele>
        <time>2019-04-16T14:40:44Z</time>
      </trkpt>
      <trkpt lat="45.0659" lon="3.71878">
        <ele>907</ele>
        <time>2019-04-16T14:41:44Z</time>
      </trkpt>
      <trkpt lat="45.06599" lon="3.71833">
        <ele>909</ele>
        <time>2019-04-16T14:42:44Z</time>
      </trkpt>
      <trkpt lat="45.06627" lon="3.71755">
        <ele>915</ele>
        <time>2019-04-16T14:43:44Z</time>
      </trkpt>
      <trkpt lat="45.06636" lon="3.71707">
        <ele>915</ele>
        <time>2019-04-16T14:44:44Z</time>
      </trkpt>
      <trkpt lat="45.06647" lon="3.71526">
        <ele>920</ele>
        <time>2019-04-16T14:45:44Z</time>
      </trkpt>
      <trkpt lat="45.06652" lon="3.71493">
        <ele>921</ele>
        <time>2019-04-16T14:46:44Z</time>
      </trkpt>
      <trkpt lat="45.06676" lon="3.71407">
        <ele>923</ele>
        <time>2019-04-16T14:47:44Z</time>
      </trkpt>
      <trkpt lat="45.06724" lon="3.71161">
        <ele>928</ele>
        <time>2019-04-16T14:48:44Z</time>
      </trkpt>
      <trkpt lat="45.06749" lon="3.71071">
        <ele>930</ele>
        <time>2019-04-16T14:49:44Z</time>
      </trkpt>
      <trkpt lat="45.06894" lon="3.70715">
        <ele>941</ele>
        <time>2019-04-16T14:50:44Z</time>
      </trkpt>
      <trkpt lat="45.06951" lon="3.70446">
        <ele>953</ele>
        <time>2019-04-16T14:51:44Z</time>
      </trkpt>
      <trkpt lat="45.06956" lon="3.70405">
        <ele>956</ele>
        <time>2019-04-16T14:52:44Z</time>
      </trkpt>
      <trkpt lat="45.06957" lon="3.70355">
        <ele>960</ele>
        <time>2019-04-16T14:53:44Z</time>
      </trkpt>
      <trkpt lat="45.0694" lon="3.7024">
        <ele>963</ele>
        <time>2019-04-16T14:54:44Z</time>
      </trkpt>
      <trkpt lat="45.06935" lon="3.70217">
        <ele>962</ele>
        <time>2019-04-16T14:55:44Z</time>
      </trkpt>
      <trkpt lat="45.06917" lon="3.702">
        <ele>960</ele>
        <time>2019-04-16T14:56:44Z</time>
      </trkpt>
      <trkpt lat="45.06831" lon="3.70197">
        <ele>959</ele>
        <time>2019-04-16T14:57:44Z</time>
      </trkpt>
      <trkpt lat="45.0679" lon="3.70181">
        <ele>959</ele>
        <time>2019-04-16T14:58:44Z</time>
      </trkpt>
      <trkpt lat="45.06596" lon="3.70044">
        <ele>956</ele>
        <time>2019-04-16T14:59:44Z</time>
      </trkpt>
      <trkpt lat="45.06572" lon="3.70021">
        <ele>956</ele>
        <time>2019-04-16T15:00:44Z</time>
      </trkpt>
      <trkpt lat="45.06555" lon="3.69989">
        <ele>956</ele>
        <time>2019-04-16T15:01:44Z</time>
      </trkpt>
      <trkpt lat="45.06548" lon="3.69947">
        <ele>956</ele>
        <time>2019-04-16T15:02:44Z</time>
      </trkpt>
      <trkpt lat="45.06552" lon="3.69691">
        <ele>958</ele>
        <time>2019-04-16T15:03:44Z</time>
      </trkpt>
      <trkpt lat="45.06557" lon="3.69666">
        <ele>958</ele>
        <time>2019-04-16T15:04:44Z</time>
      </trkpt>
      <trkpt lat="45.06566" lon="3.69645">
        <ele>957</ele>
        <time>2019-04-16T15:05:44Z</time>
      </trkpt>
      <trkpt lat="45.0658" lon="3.69635">
        <ele>954</ele>
        <time>2019-04-16T15:06:44Z</time>
      </trkpt>
      <trkpt lat="45.066" lon="3.69628">
        <ele>955</ele>
        <time>2019-04-16T15:07:44Z</time>
      </trkpt>
      <trkpt lat="45.06619" lon="3.69631">
        <ele>956</ele>
        <time>2019-04-16T15:08:44Z</time>
      </trkpt>
      <trkpt lat="45.06682" lon="3.69654">
        <ele>954</ele>
        <time>2019-04-16T15:09:44Z</time>
      </trkpt>
      <trkpt lat="45.06719" lon="3.69655">
        <ele>956</ele>
        <time>2019-04-16T15:10:44Z</time>
      </trkpt>
      <trkpt lat="45.06745" lon="3.69642">
        <ele>959</ele>
        <time>2019-04-16T15:11:44Z</time>
      </trkpt>
      <trkpt lat="45.06776" lon="3.69623">
        <ele>960</ele>
        <time>2019-04-16T15:12:44Z</time>
      </trkpt>
      <trkpt lat="45.06806" lon="3.69596">
        <ele>961</ele>
        <time>2019-04-16T15:13:44Z</time>
      </trkpt>
      <trkpt lat="45.06834" lon="3.69563">
        <ele>962</ele>
        <time>2019-04-16T15:14:44Z</time>
      </trkpt>
      <trkpt lat="45.06854" lon="3.69523">
        <ele>966</ele>
        <time>2019-04-16T15:15:44Z</time>
      </trkpt>
      <trkpt lat="45.06912" lon="3.69348">
        <ele>977</ele>
        <time>2019-04-16T15:16:44Z</time>
      </trkpt>
      <trkpt lat="45.0701" lon="3.69167">
        <ele>988</ele>
        <time>2019-04-16T15:17:44Z</time>
      </trkpt>
      <trkpt lat="45.07064" lon="3.69111">
        <ele>993</ele>
        <time>2019-04-16T15:18:44Z</time>
      </trkpt>
      <trkpt lat="45.07093" lon="3.6909">
        <ele>995</ele>
        <time>2019-04-16T15:19:44Z</time>
      </trkpt>
      <trkpt lat="45.07131" lon="3.69073">
        <ele>995</ele>
        <time>2019-04-16T15:20:44Z</time>
      </trkpt>
      <trkpt lat="45.07255" lon="3.69041">
        <ele>995</ele>
        <time>2019-04-16T15:21:44Z</time>
      </trkpt>
      <trkpt lat="45.0731" lon="3.69034">
        <ele>996</ele>
        <time>2019-04-16T15:22:44Z</time>
      </trkpt>
      <trkpt lat="45.07321" lon="3.69025">
        <ele>997</ele>
        <time>2019-04-16T15:23:44Z</time>
      </trkpt>
      <trkpt lat="45.07326" lon="3.69005">
        <ele>1000</ele>
        <time>2019-04-16T15:24:44Z</time>
      </trkpt>
      <trkpt lat="45.07325" lon="3.68986">
        <ele>1000</ele>
        <time>2019-04-16T15:25:44Z</time>
      </trkpt>
      <trkpt lat="45.07312" lon="3.68952">
        <ele>1001</ele>
        <time>2019-04-16T15:26:44Z</time>
      </trkpt>
      <trkpt lat="45.07303" lon="3.68922">
        <ele>1002</ele>
        <time>2019-04-16T15:27:44Z</time>
      </trkpt>
      <trkpt lat="45.07297" lon="3.68895">
        <ele>1002</ele>
        <time>2019-04-16T15:28:44Z</time>
      </trkpt>
      <trkpt lat="45.07284" lon="3.68859">
        <ele>1003</ele>
        <time>2019-04-16T15:29:44Z</time>
      </trkpt>
      <trkpt lat="45.07274" lon="3.68842">
        <ele>1004</ele>
        <time>2019-04-16T15:30:44Z</time>
      </trkpt>
      <trkpt lat="45.0719" lon="3.68801">
        <ele>1013</ele>
        <time>2019-04-16T15:31:44Z</time>
      </trkpt>
      <trkpt lat="45.07153" lon="3.68763">
        <ele>1016</ele>
        <time>2019-04-16T15:32:44Z</time>
      </trkpt>
      <trkpt lat="45.07131" lon="3.68728">
        <ele>1019</ele>
        <time>2019-04-16T15:33:44Z</time>
      </trkpt>
      <trkpt lat="45.07125" lon="3.68691">
        <ele>1021</ele>
        <time>2019-04-16T15:34:44Z</time>
      </trkpt>
      <trkpt lat="45.07125" lon="3.68671">
        <ele>1021</ele>
        <time>2019-04-16T15:35:44Z</time>
      </trkpt>
      <trkpt lat="45.07135" lon="3.68649">
        <ele>1022</ele>
        <time>2019-04-16T15:36:44Z</time>
      </trkpt>
      <trkpt lat="45.07146" lon="3.68635">
        <ele>1023</ele>
        <time>2019-04-16T15:37:44Z</time>
      </trkpt>
      <trkpt lat="45.07257" lon="3.68579">
        <ele>1026</ele>
        <time>2019-04-16T15:38:44Z</time>
      </trkpt>
      <trkpt lat="45.07276" lon="3.68567">
        <ele>1028</ele>
        <time>2019-04-16T15:39:44Z</time>
      </trkpt>
      <trkpt lat="45.07301" lon="3.68537">
        <ele>1031</ele>
        <time>2019-04-16T15:40:44Z</time>
      </trkpt>
      <trkpt lat="45.07323" lon="3.68477">
        <ele>1039</ele>
        <time>2019-04-16T15:41:44Z</time>
      </trkpt>
      <trkpt lat="45.07337" lon="3.68459">
        <ele>1041</ele>
        <time>2019-04-16T15:42:44Z</time>
      </trkpt>
      <trkpt lat="45.07367" lon="3.68437">
        <ele>1042</ele>
        <time>2019-04-16T15:43:44Z</time>
      </trkpt>
      <trkpt lat="45.07474" lon="3.68354">
        <ele>1049</ele>
        <time>2019-04-16T15:44:44Z</time>
      </trkpt>
      <trkpt lat="45.07492" lon="3.68333">
        <ele>1051</ele>
        <time>2019-04-16T15:45:44Z</time>
      </trkpt>
      <trkpt lat="45.07509" lon="3.68301">
        <ele>1056</ele>
        <time>2019-04-16T15:46:44Z</time>
      </trkpt>
      <trkpt lat="45.07526" lon="3.68281">
        <ele>1058</ele>
        <time>2019-04-16T15:47:44Z</time>
      </trkpt>
      <trkpt lat="45.07546" lon="3.68269">
        <ele>1057</ele>
        <time>2019-04-16T15:48:44Z</time>
      </trkpt>
      <trkpt lat="45.07581" lon="3.68264">
        <ele>1053</ele>
        <time>2019-04-16T15:49:44Z</time>
      </trkpt>
      <trkpt lat="45.076" lon="3.68254">
        <ele>1054</ele>
        <time>2019-04-16T15:50:44Z</time>
      </trkpt>
      <trkpt lat="45.07615" lon="3.68231">
        <ele>1056</ele>
        <time>2019-04-16T15:51:44Z</time>
      </trkpt>
      <trkpt lat="45.07619" lon="3.682">
        <ele>1059</ele>
        <time>2019-04-16T15:52:44Z</time>
      </trkpt>
      <trkpt lat="45.07612" lon="3.68138">
        <ele>1069</ele>
        <time>2019-04-16T15:53:44Z</time>
      </trkpt>
      <trkpt lat="45.07619" lon="3.68099">
        <ele>1073</ele>
        <time>2019-04-16T15:54:44Z</time>
      </trkpt>
      <trkpt lat="45.07686" lon="3.67937">
        <ele>1076</ele>
        <time>2019-04-16T15:55:44Z</time>
      </trkpt>
      <trkpt lat="45.07745" lon="3.67859">
        <ele>1080</ele>
        <time>2019-04-16T15:56:44Z</time>
      </trkpt>
      <trkpt lat="45.07764" lon="3.67853">
        <ele>1081</ele>
        <time>2019-04-16T15:57:44Z</time>
      </trkpt>
      <trkpt lat="45.07801" lon="3.67866">
        <ele>1083</ele>
        <time>2019-04-16T15:58:44Z</time>
      </trkpt>
      <trkpt lat="45.07848" lon="3.67888">
        <ele>1085</ele>
        <time>2019-04-16T15:59:44Z</time>
      </trkpt>
      <trkpt lat="45.07867" lon="3.67891">
        <ele>1084</ele>
        <time>2019-04-16T16:00:44Z</time>
      </trkpt>
      <trkpt lat="45.07881" lon="3.67888">
        <ele>1085</ele>
        <time>2019-04-16T16:01:44Z</time>
      </trkpt>
      <trkpt lat="45.07907" lon="3.6786">
        <ele>1086</ele>
        <time>2019-04-16T16:02:44Z</time>
      </trkpt>
      <trkpt lat="45.0794" lon="3.67789">
        <ele>1085</ele>
        <time>2019-04-16T16:03:44Z</time>
      </trkpt>
      <trkpt lat="45.08008" lon="3.67632">
        <ele>1082</ele>
        <time>2019-04-16T16:04:44Z</time>
      </trkpt>
      <trkpt lat="45.0803" lon="3.67574">
        <ele>1081</ele>
        <time>2019-04-16T16:05:44Z</time>
      </trkpt>
      <trkpt lat="45.08035" lon="3.67547">
        <ele>1081</ele>
        <time>2019-04-16T16:06:44Z</time>
      </trkpt>
      <trkpt lat="45.08032" lon="3.67518">
        <ele>1081</ele>
        <time>2019-04-16T16:07:44Z</time>
      </trkpt>
      <trkpt lat="45.08004" lon="3.67438">
        <ele>1079</ele>
        <time>2019-04-16T16:08:44Z</time>
      </trkpt>
      <trkpt lat="45.07979" lon="3.67392">
        <ele>1076</ele>
        <time>2019-04-16T16:09:44Z</time>
      </trkpt>
      <trkpt lat="45.07886" lon="3.6731">
        <ele>1070</ele>
        <time>2019-04-16T16:10:44Z</time>
      </trkpt>
      <trkpt lat="45.07856" lon="3.67278">
        <ele>1066</ele>
        <time>2019-04-16T16:11:44Z</time>
      </trkpt>
      <trkpt lat="45.0782" lon="3.67232">
        <ele>1058</ele>
        <time>2019-04-16T16:12:44Z</time>
      </trkpt>
      <trkpt lat="45.07803" lon="3.67222">
        <ele>1056</ele>
        <time>2019-04-16T16:13:44Z</time>
      </trkpt>
      <trkpt lat="45.07762" lon="3.67223">
        <ele>1055</ele>
        <time>2019-04-16T16:14:44Z</time>
      </trkpt>
      <trkpt lat="45.07748" lon="3.67218">
        <ele>1054</ele>
        <time>2019-04-16T16:15:44Z</time>
      </trkpt>
      <trkpt lat="45.07725" lon="3.67197">
        <ele>1052</ele>
        <time>2019-04-16T16:16:44Z</time>
      </trkpt>
      <trkpt lat="45.07682" lon="3.67172">
        <ele>1050</ele>
        <time>2019-04-16T16:17:44Z</time>
      </trkpt>
      <trkpt lat="45.07634" lon="3.67163">
        <ele>1053</ele>
        <time>2019-04-16T16:18:44Z</time>
      </trkpt>
      <trkpt lat="45.07616" lon="3.67152">
        <ele>1054</ele>
        <time>2019-04-16T16:19:44Z</time>
      </trkpt>
      <trkpt lat="45.07603" lon="3.67135">
        <ele>1055</ele>
        <time>2019-04-16T16:20:44Z</time>
      </trkpt>
      <trkpt lat="45.07598" lon="3.67116">
        <ele>1055</ele>
        <time>2019-04-16T16:21:44Z</time>
      </trkpt>
      <trkpt lat="45.07601" lon="3.67099">
        <ele>1054</ele>
        <time>2019-04-16T16:22:44Z</time>
      </trkpt>
      <trkpt lat="45.07608" lon="3.67084">
        <ele>1052</ele>
        <time>2019-04-16T16:23:44Z</time>
      </trkpt>
      <trkpt lat="45.07755" lon="3.67011">
        <ele>1051</ele>
        <time>2019-04-16T16:24:44Z</time>
      </trkpt>
      <trkpt lat="45.0778" lon="3.66989">
        <ele>1050</ele>
        <time>2019-04-16T16:25:44Z</time>
      </trkpt>
      <trkpt lat="45.07801" lon="3.66946">
        <ele>1052</ele>
        <time>2019-04-16T16:26:44Z</time>
      </trkpt>
      <trkpt lat="45.07819" lon="3.66916">
        <ele>1052</ele>
        <time>2019-04-16T16:27:44Z</time>
      </trkpt>
      <trkpt lat="45.0785" lon="3.66885">
        <ele>1048</ele>
        <time>2019-04-16T16:28:44Z</time>
      </trkpt>
      <trkpt lat="45.07868" lon="3.66854">
        <ele>1046</ele>
        <time>2019-04-16T16:29:44Z</time>
      </trkpt>
      <trkpt lat="45.07891" lon="3.6682">
        <ele>1043</ele>
        <time>2019-04-16T16:30:44Z</time>
      </trkpt>
      <trkpt lat="45.07906" lon="3.66795">
        <ele>1041</ele>
        <time>2019-04-16T16:31:44Z</time>
      </trkpt>
      <trkpt lat="45.0793" lon="3.66716">
        <ele>1042</ele>
        <time>2019-04-16T16:32:44Z</time>
      </trkpt>
      <trkpt lat="45.07942" lon="3.66687">
        <ele>1042</ele>
        <time>2019-04-16T16:33:44Z</time>
      </trkpt>
      <trkpt lat="45.07969" lon="3.66654">
        <ele>1040</ele>
        <time>2019-04-16T16:34:44Z</time>
      </trkpt>
      <trkpt lat="45.08018" lon="3.66585">
        <ele>1038</ele>
        <time>2019-04-16T16:35:44Z</time>
      </trkpt>
      <trkpt lat="45.08067" lon="3.66533">
        <ele>1035</ele>
        <time>2019-04-16T16:36:44Z</time>
      </trkpt>
      <trkpt lat="45.08193" lon="3.66417">
        <ele>1033</ele>
        <time>2019-04-16T16:37:44Z</time>
      </trkpt>
      <trkpt lat="45.08246" lon="3.66365">
        <ele>1034</ele>
        <time>2019-04-16T16:38:44Z</time>
      </trkpt>
      <trkpt lat="45.08278" lon="3.66328">
        <ele>1035</ele>
        <time>2019-04-16T16:39:44Z</time>
      </trkpt>
      <trkpt lat="45.08415" lon="3.66091">
        <ele>1026</ele>
        <time>2019-04-16T16:40:44Z</time>
      </trkpt>
      <trkpt lat="45.08502" lon="3.66014">
        <ele>1022</ele>
        <time>2019-04-16T16:41:44Z</time>
      </trkpt>
      <trkpt lat="45.0852" lon="3.66005">
        <ele>1022</ele>
        <time>2019-04-16T16:42:44Z</time>
      </trkpt>
      <trkpt lat="45.08583" lon="3.65981">
        <ele>1021</ele>
        <time>2019-04-16T16:43:44Z</time>
      </trkpt>
      <trkpt lat="45.086" lon="3.65966">
        <ele>1021</ele>
        <time>2019-04-16T16:44:44Z</time>
      </trkpt>
      <trkpt lat="45.08627" lon="3.65929">
        <ele>1023</ele>
        <time>2019-04-16T16:45:44Z</time>
      </trkpt>
      <trkpt lat="45.08677" lon="3.65828">
        <ele>1025</ele>
        <time>2019-04-16T16:46:44Z</time>
      </trkpt>
      <trkpt lat="45.08731" lon="3.65711">
        <ele>1024</ele>
        <time>2019-04-16T16:47:44Z</time>
      </trkpt>
      <trkpt lat="45.08747" lon="3.65663">
        <ele>1023</ele>
        <time>2019-04-16T16:48:44Z</time>
      </trkpt>
      <trkpt lat="45.08796" lon="3.65441">
        <ele>1020</ele>
        <time>2019-04-16T16:49:44Z</time>
      </trkpt>
      <trkpt lat="45.08807" lon="3.65337">
        <ele>1020</ele>
        <time>2019-04-16T16:50:44Z</time>
      </trkpt>
      <trkpt lat="45.08812" lon="3.65302">
        <ele>1020</ele>
        <time>2019-04-16T16:51:44Z</time>
      </trkpt>
      <trkpt lat="45.08828" lon="3.65258">
        <ele>1020</ele>
        <time>2019-04-16T16:52:44Z</time>
      </trkpt>
      <trkpt lat="45.08858" lon="3.65208">
        <ele>1019</ele>
        <time>2019-04-16T16:53:44Z</time>
      </trkpt>
      <trkpt lat="45.08946" lon="3.65136">
        <ele>1015</ele>
        <time>2019-04-16T16:54:44Z</time>
      </trkpt>
      <trkpt lat="45.08999" lon="3.65068">
        <ele>1015</ele>
        <time>2019-04-16T16:55:44Z</time>
      </trkpt>
      <trkpt lat="45.09063" lon="3.64994">
        <ele>1010</ele>
        <time>2019-04-16T16:56:44Z</time>
      </trkpt>
      <trkpt lat="45.09151" lon="3.64901">
        <ele>1003</ele>
        <time>2019-04-16T16:57:44Z</time>
      </trkpt>
      <trkpt lat="45.09162" lon="3.64878">
        <ele>1002</ele>
        <time>2019-04-16T16:58:44Z</time>
      </trkpt>
      <trkpt lat="45.09169" lon="3.64823">
        <ele>1000</ele>
        <time>2019-04-16T16:59:44Z</time>
      </trkpt>
      <trkpt lat="45.09204" lon="3.647">
        <ele>992</ele>
        <time>2019-04-16T17:00:44Z</time>
      </trkpt>
      <trkpt lat="45.0922" lon="3.64672">
        <ele>990</ele>
        <time>2019-04-16T17:01:44Z</time>
      </trkpt>
      <trkpt lat="45.09333" lon="3.64553">
        <ele>981</ele>
        <time>2019-04-16T17:02:44Z</time>
      </trkpt>
      <trkpt lat="45.0935" lon="3.64524">
        <ele>980</ele>
        <time>2019-04-16T17:03:44Z</time>
      </trkpt>
      <trkpt lat="45.09364" lon="3.64465">
        <ele>978</ele>
        <time>2019-04-16T17:04:44Z</time>
      </trkpt>
      <trkpt lat="45.0937" lon="3.64408">
        <ele>975</ele>
        <time>2019-04-16T17:05:44Z</time>
      </trkpt>
      <trkpt lat="45.09367" lon="3.64377">
        <ele>973</ele>
        <time>2019-04-16T17:06:44Z</time>
      </trkpt>
      <trkpt lat="45.09355" lon="3.64342">
        <ele>972</ele>
        <time>2019-04-16T17:07:44Z</time>
      </trkpt>
      <trkpt lat="45.09334" lon="3.64318">
        <ele>970</ele>
        <time>2019-04-16T17:08:44Z</time>
      </trkpt>
      <trkpt lat="45.09245" lon="3.64279">
        <ele>965</ele>
        <time>2019-04-16T17:09:44Z</time>
      </trkpt>
      <trkpt lat="45.09213" lon="3.64256">
        <ele>963</ele>
        <time>2019-04-16T17:10:44Z</time>
      </trkpt>
      <trkpt lat="45.09188" lon="3.64211">
        <ele>962</ele>
        <time>2019-04-16T17:11:44Z</time>
      </trkpt>
      <trkpt lat="45.09179" lon="3.64153">
        <ele>959</ele>
        <time>2019-04-16T17:12:44Z</time>
      </trkpt>
      <trkpt lat="45.092" lon="3.63956">
        <ele>949</ele>
        <time>2019-04-16T17:13:44Z</time>
      </trkpt>
      <trkpt lat="45.09217" lon="3.63899">
        <ele>944</ele>
        <time>2019-04-16T17:14:44Z</time>
      </trkpt>
      <trkpt lat="45.0922" lon="3.63866">
        <ele>943</ele>
        <time>2019-04-16T17:15:44Z</time>
      </trkpt>
      <trkpt lat="45.0922" lon="3.63822">
        <ele>942</ele>
        <time>2019-04-16T17:16:44Z</time>
      </trkpt>
      <trkpt lat="45.09203" lon="3.63719">
        <ele>939</ele>
        <time>2019-04-16T17:17:44Z</time>
      </trkpt>
      <trkpt lat="45.09203" lon="3.63573">
        <ele>933</ele>
        <time>2019-04-16T17:18:44Z</time>
      </trkpt>
      <trkpt lat="45.09205" lon="3.63526">
        <ele>932</ele>
        <time>2019-04-16T17:19:44Z</time>
      </trkpt>
      <trkpt lat="45.09215" lon="3.63489">
        <ele>930</ele>
        <time>2019-04-16T17:20:44Z</time>
      </trkpt>
      <trkpt lat="45.09232" lon="3.63468">
        <ele>928</ele>
        <time>2019-04-16T17:21:44Z</time>
      </trkpt>
      <trkpt lat="45.09258" lon="3.6345">
        <ele>926</ele>
        <time>2019-04-16T17:22:44Z</time>
      </trkpt>
      <trkpt lat="45.09288" lon="3.63432">
        <ele>923</ele>
        <time>2019-04-16T17:23:44Z</time>
      </trkpt>
      <trkpt lat="45.09343" lon="3.63412">
        <ele>919</ele>
        <time>2019-04-16T17:24:44Z</time>
      </trkpt>
      <trkpt lat="45.09362" lon="3.63384">
        <ele>917</ele>
        <time>2019-04-16T17:25:44Z</time>
      </trkpt>
      <trkpt lat="45.09371" lon="3.63339">
        <ele>916</ele>
        <time>2019-04-16T17:26:44Z</time>
      </trkpt>
      <trkpt lat="45.09373" lon="3.63281">
        <ele>914</ele>
        <time>2019-04-16T17:27:44Z</time>
      </trkpt>
      <trkpt lat="45.09371" lon="3.63243">
        <ele>913</ele>
        <time>2019-04-16T17:28:44Z</time>
      </trkpt>
      <trkpt lat="45.09348" lon="3.63144">
        <ele>910</ele>
        <time>2019-04-16T17:29:44Z</time>
      </trkpt>
      <trkpt lat="45.09315" lon="3.63022">
        <ele>903</ele>
        <time>2019-04-16T17:30:44Z</time>
      </trkpt>
      <trkpt lat="45.09311" lon="3.62993">
        <ele>902</ele>
        <time>2019-04-16T17:31:44Z</time>
      </trkpt>
      <trkpt lat="45.09304" lon="3.62757">
        <ele>889</ele>
        <time>2019-04-16T17:32:44Z</time>
      </trkpt>
      <trkpt lat="45.09304" lon="3.62705">
        <ele>888</ele>
        <time>2019-04-16T17:33:44Z</time>
      </trkpt>
      <trkpt lat="45.09289" lon="3.62523">
        <ele>884</ele>
        <time>2019-04-16T17:34:44Z</time>
      </trkpt>
      <trkpt lat="45.09288" lon="3.62472">
        <ele>883</ele>
        <time>2019-04-16T17:35:44Z</time>
      </trkpt>
      <trkpt lat="45.09301" lon="3.62373">
        <ele>880</ele>
        <time>2019-04-16T17:36:44Z</time>
      </trkpt>
      <trkpt lat="45.09316" lon="3.62308">
        <ele>877</ele>
        <time>2019-04-16T17:37:44Z</time>
      </trkpt>
      <trkpt lat="45.09334" lon="3.62265">
        <ele>876</ele>
        <time>2019-04-16T17:38:44Z</time>
      </trkpt>
      <trkpt lat="45.0939" lon="3.622">
        <ele>871</ele>
        <time>2019-04-16T17:39:44Z</time>
      </trkpt>
      <trkpt lat="45.09531" lon="3.61946">
        <ele>866</ele>
        <time>2019-04-16T17:40:44Z</time>
      </trkpt>
      <trkpt lat="45.09552" lon="3.61904">
        <ele>869</ele>
        <time>2019-04-16T17:41:44Z</time>
      </trkpt>
      <trkpt lat="45.0956" lon="3.61881">
        <ele>869</ele>
        <time>2019-04-16T17:42:44Z</time>
      </trkpt>
      <trkpt lat="45.09561" lon="3.61854">
        <ele>869</ele>
        <time>2019-04-16T17:43:44Z</time>
      </trkpt>
      <trkpt lat="45.09541" lon="3.61723">
        <ele>866</ele>
        <time>2019-04-16T17:44:44Z</time>
      </trkpt>
      <trkpt lat="45.09543" lon="3.6169">
        <ele>866</ele>
        <time>2019-04-16T17:45:44Z</time>
      </trkpt>
      <trkpt lat="45.09551" lon="3.61648">
        <ele>867</ele>
        <time>2019-04-16T17:46:44Z</time>
      </trkpt>
      <trkpt lat="45.09563" lon="3.61606">
        <ele>868</ele>
        <time>2019-04-16T17:47:44Z</time>
      </trkpt>
      <trkpt lat="45.09576" lon="3.61507">
        <ele>868</ele>
        <time>2019-04-16T17:48:44Z</time>
      </trkpt>
      <trkpt lat="45.09575" lon="3.6147">
        <ele>867</ele>
        <time>2019-04-16T17:49:44Z</time>
      </trkpt>
      <trkpt lat="45.0956" lon="3.61341">
        <ele>866</ele>
        <time>2019-04-16T17:50:44Z</time>
      </trkpt>
      <trkpt lat="45.09559" lon="3.61288">
        <ele>865</ele>
        <time>2019-04-16T17:51:44Z</time>
      </trkpt>
      <trkpt lat="45.09567" lon="3.6123">
        <ele>864</ele>
        <time>2019-04-16T17:52:44Z</time>
      </trkpt>
      <trkpt lat="45.09579" lon="3.61183">
        <ele>862</ele>
        <time>2019-04-16T17:53:44Z</time>
      </trkpt>
      <trkpt lat="45.09647" lon="3.61027">
        <ele>853</ele>
        <time>2019-04-16T17:54:44Z</time>
      </trkpt>
      <trkpt lat="45.09665" lon="3.60978">
        <ele>851</ele>
        <time>2019-04-16T17:55:44Z</time>
      </trkpt>
      <trkpt lat="45.09678" lon="3.60918">
        <ele>849</ele>
        <time>2019-04-16T17:56:44Z</time>
      </trkpt>
      <trkpt lat="45.09685" lon="3.60864">
        <ele>848</ele>
        <time>2019-04-16T17:57:44Z</time>
      </trkpt>
      <trkpt lat="45.09686" lon="3.60814">
        <ele>846</ele>
        <time>2019-04-16T17:58:44Z</time>
      </trkpt>
      <trkpt lat="45.0968" lon="3.60774">
        <ele>845</ele>
        <time>2019-04-16T17:59:44Z</time>
      </trkpt>
      <trkpt lat="45.09672" lon="3.60738">
        <ele>844</ele>
        <time>2019-04-16T18:00:44Z</time>
      </trkpt>
      <trkpt lat="45.09501" lon="3.60388">
        <ele>841</ele>
        <time>2019-04-16T18:01:44Z</time>
      </trkpt>
      <trkpt lat="45.09359" lon="3.6001">
        <ele>830</ele>
        <time>2019-04-16T18:02:44Z</time>
      </trkpt>
      <trkpt lat="45.09342" lon="3.59944">
        <ele>826</ele>
        <time>2019-04-16T18:03:44Z</time>
      </trkpt>
      <trkpt lat="45.09336" lon="3.59885">
        <ele>823</ele>
        <time>2019-04-16T18:04:44Z</time>
      </trkpt>
      <trkpt lat="45.09338" lon="3.59842">
        <ele>821</ele>
        <time>2019-04-16T18:05:44Z</time>
      </trkpt>
      <trkpt lat="45.09346" lon="3.59808">
        <ele>818</ele>
        <time>2019-04-16T18:06:44Z</time>
      </trkpt>
      <trkpt lat="45.09369" lon="3.59767">
        <ele>816</ele>
        <time>2019-04-16T18:07:44Z</time>
      </trkpt>
      <trkpt lat="45.09404" lon="3.59711">
        <ele>810</ele>
        <time>2019-04-16T18:08:44Z</time>
      </trkpt>
      <trkpt lat="45.09426" lon="3.59689">
        <ele>808</ele>
        <time>2019-04-16T18:09:44Z</time>
      </trkpt>
      <trkpt lat="45.09456" lon="3.59679">
        <ele>806</ele>
        <time>2019-04-16T18:10:44Z</time>
      </trkpt>
      <trkpt lat="45.09491" lon="3.59675">
        <ele>804</ele>
        <time>2019-04-16T18:11:44Z</time>
      </trkpt>
      <trkpt lat="45.09567" lon="3.59689">
        <ele>807</ele>
        <time>2019-04-16T18:12:44Z</time>
      </trkpt>
      <trkpt lat="45.09604" lon="3.59688">
        <ele>806</ele>
        <time>2019-04-16T18:13:44Z</time>
      </trkpt>
      <trkpt lat="45.09683" lon="3.59676">
        <ele>798</ele>
        <time>2019-04-16T18:14:44Z</time>
      </trkpt>
      <trkpt lat="45.09716" lon="3.59677">
        <ele>793</ele>
        <time>2019-04-16T18:15:44Z</time>
      </trkpt>
      <trkpt lat="45.09746" lon="3.59692">
        <ele>792</ele>
        <time>2019-04-16T18:16:44Z</time>
      </trkpt>
      <trkpt lat="45.09771" lon="3.59723">
        <ele>794</ele>
        <time>2019-04-16T18:17:44Z</time>
      </trkpt>
      <trkpt lat="45.09858" lon="3.59866">
        <ele>791</ele>
        <time>2019-04-16T18:18:44Z</time>
      </trkpt>
      <trkpt lat="45.09895" lon="3.59918">
        <ele>787</ele>
        <time>2019-04-16T18:19:44Z</time>
      </trkpt>
      <trkpt lat="45.09917" lon="3.5993">
        <ele>782</ele>
        <time>2019-04-16T18:20:44Z</time>
      </trkpt>
      <trkpt lat="45.09972" lon="3.59944">
        <ele>782</ele>
        <time>2019-04-16T18:21:44Z</time>
      </trkpt>
      <trkpt lat="45.10016" lon="3.59957">
        <ele>783</ele>
        <time>2019-04-16T18:22:44Z</time>
      </trkpt>
      <trkpt lat="45.10098" lon="3.5994">
        <ele>772</ele>
        <time>2019-04-16T18:23:44Z</time>
      </trkpt>
      <trkpt lat="45.10109" lon="3.59928">
        <ele>771</ele>
        <time>2019-04-16T18:24:44Z</time>
      </trkpt>
      <trkpt lat="45.10113" lon="3.59903">
        <ele>773</ele>
        <time>2019-04-16T18:25:44Z</time>
      </trkpt>
      <trkpt lat="45.10112" lon="3.59886">
        <ele>776</ele>
        <time>2019-04-16T18:26:44Z</time>
      </trkpt>
      <trkpt lat="45.10107" lon="3.59878">
        <ele>777</ele>
        <time>2019-04-16T18:27:44Z</time>
      </trkpt>
      <trkpt lat="45.10025" lon="3.59837">
        <ele>775</ele>
        <time>2019-04-16T18:28:44Z</time>
      </trkpt>
      <trkpt lat="45.09999" lon="3.59812">
        <ele>775</ele>
        <time>2019-04-16T18:29:44Z</time>
      </trkpt>
      <trkpt lat="45.09986" lon="3.5978">
        <ele>779</ele>
        <time>2019-04-16T18:30:44Z</time>
      </trkpt>
      <trkpt lat="45.09983" lon="3.59739">
        <ele>786</ele>
        <time>2019-04-16T18:31:44Z</time>
      </trkpt>
      <trkpt lat="45.09976" lon="3.59717">
        <ele>789</ele>
        <time>2019-04-16T18:32:44Z</time>
      </trkpt>
      <trkpt lat="45.09933" lon="3.59653">
        <ele>785</ele>
        <time>2019-04-16T18:33:44Z</time>
      </trkpt>
      <trkpt lat="45.09909" lon="3.59569">
        <ele>793</ele>
        <time>2019-04-16T18:34:44Z</time>
      </trkpt>
      <trkpt lat="45.09882" lon="3.595">
        <ele>798</ele>
        <time>2019-04-16T18:35:44Z</time>
      </trkpt>
      <trkpt lat="45.09838" lon="3.59422">
        <ele>803</ele>
        <time>2019-04-16T18:36:44Z</time>
      </trkpt>
      <trkpt lat="45.09799" lon="3.59378">
        <ele>807</ele>
        <time>2019-04-16T18:37:44Z</time>
      </trkpt>
      <trkpt lat="45.09753" lon="3.59343">
        <ele>811</ele>
        <time>2019-04-16T18:38:44Z</time>
      </trkpt>
      <trkpt lat="45.09723" lon="3.59324">
        <ele>814</ele>
        <time>2019-04-16T18:39:44Z</time>
      </trkpt>
      <trkpt lat="45.09686" lon="3.59324">
        <ele>810</ele>
        <time>2019-04-16T18:40:44Z</time>
      </trkpt>
      <trkpt lat="45.0965" lon="3.59318">
        <ele>808</ele>
        <time>2019-04-16T18:41:44Z</time>
      </trkpt>
      <trkpt lat="45.09579" lon="3.59282">
        <ele>812</ele>
        <time>2019-04-16T18:42:44Z</time>
      </trkpt>
      <trkpt lat="45.09539" lon="3.59267">
        <ele>816</ele>
        <time>2019-04-16T18:43:44Z</time>
      </trkpt>
      <trkpt lat="45.09478" lon="3.59266">
        <ele>816</ele>
        <time>2019-04-16T18:44:44Z</time>
      </trkpt>
      <trkpt lat="45.09462" lon="3.59261">
        <ele>817</ele>
        <time>2019-04-16T18:45:44Z</time>
      </trkpt>
      <trkpt lat="45.0945" lon="3.59249">
        <ele>820</ele>
        <time>2019-04-16T18:46:44Z</time>
      </trkpt>
      <trkpt lat="45.09443" lon="3.59229">
        <ele>820</ele>
        <time>2019-04-16T18:47:44Z</time>
      </trkpt>
      <trkpt lat="45.09441" lon="3.59209">
        <ele>821</ele>
        <time>2019-04-16T18:48:44Z</time>
      </trkpt>
      <trkpt lat="45.09447" lon="3.59187">
        <ele>822</ele>
        <time>2019-04-16T18:49:44Z</time>
      </trkpt>
      <trkpt lat="45.09517" lon="3.59077">
        <ele>826</ele>
        <time>2019-04-16T18:50:44Z</time>
      </trkpt>
      <trkpt lat="45.09555" lon="3.58993">
        <ele>829</ele>
        <time>2019-04-16T18:51:44Z</time>
      </trkpt>
      <trkpt lat="45.09579" lon="3.58963">
        <ele>829</ele>
        <time>2019-04-16T18:52:44Z</time>
      </trkpt>
      <trkpt lat="45.09648" lon="3.58906">
        <ele>831</ele>
        <time>2019-04-16T18:53:44Z</time>
      </trkpt>
      <trkpt lat="45.09681" lon="3.58895">
        <ele>832</ele>
        <time>2019-04-16T18:54:44Z</time>
      </trkpt>
      <trkpt lat="45.09807" lon="3.58866">
        <ele>835</ele>
        <time>2019-04-16T18:55:44Z</time>
      </trkpt>
      <trkpt lat="45.09822" lon="3.58859">
        <ele>836</ele>
        <time>2019-04-16T18:56:44Z</time>
      </trkpt>
      <trkpt lat="45.09831" lon="3.58842">
        <ele>836</ele>
        <time>2019-04-16T18:57:44Z</time>
      </trkpt>
      <trkpt lat="45.09833" lon="3.58822">
        <ele>836</ele>
        <time>2019-04-16T18:58:44Z</time>
      </trkpt>
      <trkpt lat="45.0983" lon="3.58799">
        <ele>836</ele>
        <time>2019-04-16T18:59:44Z</time>
      </trkpt>
      <trkpt lat="45.09816" lon="3.5875">
        <ele>835</ele>
        <time>2019-04-16T19:00:44Z</time>
      </trkpt>
      <trkpt lat="45.09814" lon="3.5872">
        <ele>835</ele>
        <time>2019-04-16T19:01:44Z</time>
      </trkpt>
      <trkpt lat="45.09827" lon="3.58632">
        <ele>836</ele>
        <time>2019-04-16T19:02:44Z</time>
      </trkpt>
      <trkpt lat="45.09829" lon="3.58604">
        <ele>837</ele>
        <time>2019-04-16T19:03:44Z</time>
      </trkpt>
      <trkpt lat="45.09829" lon="3.58565">
        <ele>837</ele>
        <time>2019-04-16T19:04:44Z</time>
      </trkpt>
      <trkpt lat="45.09821" lon="3.58537">
        <ele>837</ele>
        <time>2019-04-16T19:05:44Z</time>
      </trkpt>
      <trkpt lat="45.09806" lon="3.58509">
        <ele>837</ele>
        <time>2019-04-16T19:06:44Z</time>
      </trkpt>
      <trkpt lat="45.09784" lon="3.58475">
        <ele>838</ele>
        <time>2019-04-16T19:07:44Z</time>
      </trkpt>
      <trkpt lat="45.09773" lon="3.58465">
        <ele>838</ele>
        <time>2019-04-16T19:08:44Z</time>
      </trkpt>
      <trkpt lat="45.09754" lon="3.58456">
        <ele>838</ele>
        <time>2019-04-16T19:09:44Z</time>
      </trkpt>
      <trkpt lat="45.09718" lon="3.58445">
        <ele>839</ele>
        <time>2019-04-16T19:10:44Z</time>
      </trkpt>
      <trkpt lat="45.09671" lon="3.58443">
        <ele>838</ele>
        <time>2019-04-16T19:11:44Z</time>
      </trkpt>
      <trkpt lat="45.09648" lon="3.5844">
        <ele>837</ele>
        <time>2019-04-16T19:12:44Z</time>
      </trkpt>
      <trkpt lat="45.09621" lon="3.58424">
        <ele>838</ele>
        <time>2019-04-16T19:13:44Z</time>
      </trkpt>
      <trkpt lat="45.09592" lon="3.58394">
        <ele>840</ele>
        <time>2019-04-16T19:14:44Z</time>
      </trkpt>
      <trkpt lat="45.09571" lon="3.58351">
        <ele>842</ele>
        <time>2019-04-16T19:15:44Z</time>
      </trkpt>
      <trkpt lat="45.09534" lon="3.58207">
        <ele>844</ele>
        <time>2019-04-16T19:16:44Z</time>
      </trkpt>
      <trkpt lat="45.09487" lon="3.58092">
        <ele>845</ele>
        <time>2019-04-16T19:17:44Z</time>
      </trkpt>
      <trkpt lat="45.09375" lon="3.57862">
        <ele>841</ele>
        <time>2019-04-16T19:18:44Z</time>
      </trkpt>
      <trkpt lat="45.09323" lon="3.57748">
        <ele>842</ele>
        <time>2019-04-16T19:19:44Z</time>
      </trkpt>
      <trkpt lat="45.09265" lon="3.57615">
        <ele>841</ele>
        <time>2019-04-16T19:20:44Z</time>
      </trkpt>
      <trkpt lat="45.09254" lon="3.57569">
        <ele>841</ele>
        <time>2019-04-16T19:21:44Z</time>
      </trkpt>
      <trkpt lat="45.09251" lon="3.57535">
        <ele>841</ele>
        <time>2019-04-16T19:22:44Z</time>
      </trkpt>
      <trkpt lat="45.09253" lon="3.57253">
        <ele>834</ele>
        <time>2019-04-16T19:23:44Z</time>
      </trkpt>
      <trkpt lat="45.09248" lon="3.57202">
        <ele>834</ele>
        <time>2019-04-16T19:24:44Z</time>
      </trkpt>
      <trkpt lat="45.09239" lon="3.57159">
        <ele>834</ele>
        <time>2019-04-16T19:25:44Z</time>
      </trkpt>
      <trkpt lat="45.09228" lon="3.5712">
        <ele>833</ele>
        <time>2019-04-16T19:26:44Z</time>
      </trkpt>
      <trkpt lat="45.09176" lon="3.56989">
        <ele>830</ele>
        <time>2019-04-16T19:27:44Z</time>
      </trkpt>
      <trkpt lat="45.09167" lon="3.56957">
        <ele>829</ele>
        <time>2019-04-16T19:28:44Z</time>
      </trkpt>
      <trkpt lat="45.09167" lon="3.56938">
        <ele>829</ele>
        <time>2019-04-16T19:29:44Z</time>
      </trkpt>
      <trkpt lat="45.09175" lon="3.56915">
        <ele>828</ele>
        <time>2019-04-16T19:30:44Z</time>
      </trkpt>
      <trkpt lat="45.09208" lon="3.56858">
        <ele>824</ele>
        <time>2019-04-16T19:31:44Z</time>
      </trkpt>
      <trkpt lat="45.09244" lon="3.56778">
        <ele>817</ele>
        <time>2019-04-16T19:32:44Z</time>
      </trkpt>
      <trkpt lat="45.09266" lon="3.5674">
        <ele>812</ele>
        <time>2019-04-16T19:33:44Z</time>
      </trkpt>
      <trkpt lat="45.09283" lon="3.56726">
        <ele>810</ele>
        <time>2019-04-16T19:34:44Z</time>
      </trkpt>
      <trkpt lat="45.09309" lon="3.56713">
        <ele>807</ele>
        <time>2019-04-16T19:35:44Z</time>
      </trkpt>
      <trkpt lat="45.09335" lon="3.56714">
        <ele>807</ele>
        <time>2019-04-16T19:36:44Z</time>
      </trkpt>
      <trkpt lat="45.09369" lon="3.56729">
        <ele>807</ele>
        <time>2019-04-16T19:37:44Z</time>
      </trkpt>
      <trkpt lat="45.09398" lon="3.56736">
        <ele>805</ele>
        <time>2019-04-16T19:38:44Z</time>
      </trkpt>
      <trkpt lat="45.09451" lon="3.56744">
        <ele>801</ele>
        <time>2019-04-16T19:39:44Z</time>
      </trkpt>
      <trkpt lat="45.09487" lon="3.56769">
        <ele>801</ele>
        <time>2019-04-16T19:40:44Z</time>
      </trkpt>
      <trkpt lat="45.09515" lon="3.56792">
        <ele>805</ele>
        <time>2019-04-16T19:41:44Z</time>
      </trkpt>
      <trkpt lat="45.0953" lon="3.56792">
        <ele>806</ele>
        <time>2019-04-16T19:42:44Z</time>
      </trkpt>
      <trkpt lat="45.09539" lon="3.56785">
        <ele>806</ele>
        <time>2019-04-16T19:43:44Z</time>
      </trkpt>
      <trkpt lat="45.09546" lon="3.56772">
        <ele>804</ele>
        <time>2019-04-16T19:44:44Z</time>
      </trkpt>
      <trkpt lat="45.09578" lon="3.56679">
        <ele>793</ele>
        <time>2019-04-16T19:45:44Z</time>
      </trkpt>
      <trkpt lat="45.09622" lon="3.56587">
        <ele>785</ele>
        <time>2019-04-16T19:46:44Z</time>
      </trkpt>
      <trkpt lat="45.09633" lon="3.56574">
        <ele>784</ele>
        <time>2019-04-16T19:47:44Z</time>
      </trkpt>
      <trkpt lat="45.09812" lon="3.56418">
        <ele>771</ele>
        <time>2019-04-16T19:48:44Z</time>
      </trkpt>
      <trkpt lat="45.09819" lon="3.56407">
        <ele>770</ele>
        <time>2019-04-16T19:49:44Z</time>
      </trkpt>
      <trkpt lat="45.09828" lon="3.56382">
        <ele>765</ele>
        <time>2019-04-16T19:50:44Z</time>
      </trkpt>
      <trkpt lat="45.0984" lon="3.56372">
        <ele>764</ele>
        <time>2019-04-16T19:51:44Z</time>
      </trkpt>
      <trkpt lat="45.09926" lon="3.56334">
        <ele>761</ele>
        <time>2019-04-16T19:52:44Z</time>
      </trkpt>
      <trkpt lat="45.10005" lon="3.56292">
        <ele>757</ele>
        <time>2019-04-16T19:53:44Z</time>
      </trkpt>
      <trkpt lat="45.1019" lon="3.56152">
        <ele>740</ele>
        <time>2019-04-16T19:54:44Z</time>
      </trkpt>
      <trkpt lat="45.1021" lon="3.56148">
        <ele>739</ele>
        <time>2019-04-16T19:55:44Z</time>
      </trkpt>
      <trkpt lat="45.10236" lon="3.56161">
        <ele>739</ele>
        <time>2019-04-16T19:56:44Z</time>
      </trkpt>
      <trkpt lat="45.10292" lon="3.56198">
        <ele>738</ele>
        <time>2019-04-16T19:57:44Z</time>
      </trkpt>
      <trkpt lat="45.10305" lon="3.562">
        <ele>736</ele>
        <time>2019-04-16T19:58:44Z</time>
      </trkpt>
      <trkpt lat="45.10318" lon="3.56198">
        <ele>735</ele>
        <time>2019-04-16T19:59:44Z</time>
      </trkpt>
      <trkpt lat="45.1033" lon="3.56181">
        <ele>731</ele>
        <time>2019-04-16T20:00:44Z</time>
      </trkpt>
      <trkpt lat="45.10333" lon="3.5617">
        <ele>729</ele>
        <time>2019-04-16T20:01:44Z</time>
      </trkpt>
      <trkpt lat="45.10333" lon="3.56158">
        <ele>728</ele>
        <time>2019-04-16T20:02:44Z</time>
      </trkpt>
      <trkpt lat="45.10325" lon="3.56137">
        <ele>727</ele>
        <time>2019-04-16T20:03:44Z</time>
      </trkpt>
      <trkpt lat="45.10309" lon="3.56107">
        <ele>727</ele>
        <time>2019-04-16T20:04:44Z</time>
      </trkpt>
      <trkpt lat="45.10302" lon="3.5609">
        <ele>726</ele>
        <time>2019-04-16T20:05:44Z</time>
      </trkpt>
      <trkpt lat="45.10296" lon="3.56059">
        <ele>724</ele>
        <time>2019-04-16T20:06:44Z</time>
      </trkpt>
      <trkpt lat="45.10297" lon="3.56039">
        <ele>723</ele>
        <time>2019-04-16T20:07:44Z</time>
      </trkpt>
      <trkpt lat="45.103" lon="3.56018">
        <ele>721</ele>
        <time>2019-04-16T20:08:44Z</time>
      </trkpt>
      <trkpt lat="45.10311" lon="3.55972">
        <ele>717</ele>
        <time>2019-04-16T20:09:44Z</time>
      </trkpt>
      <trkpt lat="45.10312" lon="3.55957">
        <ele>716</ele>
        <time>2019-04-16T20:10:44Z</time>
      </trkpt>
      <trkpt lat="45.10307" lon="3.55933">
        <ele>715</ele>
        <time>2019-04-16T20:11:44Z</time>
      </trkpt>
      <trkpt lat="45.10292" lon="3.55897">
        <ele>715</ele>
        <time>2019-04-16T20:12:44Z</time>
      </trkpt>
      <trkpt lat="45.10203" lon="3.55736">
        <ele>705</ele>
        <time>2019-04-16T20:13:44Z</time>
      </trkpt>
      <trkpt lat="45.10173" lon="3.55696">
        <ele>702</ele>
        <time>2019-04-16T20:14:44Z</time>
      </trkpt>
      <trkpt lat="45.09952" lon="3.55427">
        <ele>684</ele>
        <time>2019-04-16T20:15:44Z</time>
      </trkpt>
      <trkpt lat="45.09931" lon="3.55392">
        <ele>681</ele>
        <time>2019-04-16T20:16:44Z</time>
      </trkpt>
      <trkpt lat="45.09921" lon="3.55359">
        <ele>678</ele>
        <time>2019-04-16T20:17:44Z</time>
      </trkpt>
      <trkpt lat="45.09917" lon="3.55324">
        <ele>675</ele>
        <time>2019-04-16T20:18:44Z</time>
      </trkpt>
      <trkpt lat="45.09921" lon="3.5529">
        <ele>673</ele>
        <time>2019-04-16T20:19:44Z</time>
      </trkpt>
      <trkpt lat="45.09932" lon="3.55267">
        <ele>673</ele>
        <time>2019-04-16T20:20:44Z</time>
      </trkpt>
      <trkpt lat="45.09956" lon="3.55231">
        <ele>672</ele>
        <time>2019-04-16T20:21:44Z</time>
      </trkpt>
      <trkpt lat="45.10086" lon="3.55094">
        <ele>663</ele>
        <time>2019-04-16T20:22:44Z</time>
      </trkpt>
      <trkpt lat="45.1011" lon="3.55057">
        <ele>659</ele>
        <time>2019-04-16T20:23:44Z</time>
      </trkpt>
      <trkpt lat="45.10134" lon="3.55004">
        <ele>655</ele>
        <time>2019-04-16T20:24:44Z</time>
      </trkpt>
      <trkpt lat="45.10158" lon="3.54936">
        <ele>651</ele>
        <time>2019-04-16T20:25:44Z</time>
      </trkpt>
      <trkpt lat="45.10186" lon="3.5487">
        <ele>648</ele>
        <time>2019-04-16T20:26:44Z</time>
      </trkpt>
      <trkpt lat="45.10303" lon="3.54647">
        <ele>636</ele>
        <time>2019-04-16T20:27:44Z</time>
      </trkpt>
      <trkpt lat="45.1032" lon="3.5462">
        <ele>634</ele>
        <time>2019-04-16T20:28:44Z</time>
      </trkpt>
      <trkpt lat="45.10339" lon="3.54603">
        <ele>633</ele>
        <time>2019-04-16T20:29:44Z</time>
      </trkpt>
      <trkpt lat="45.10357" lon="3.54595">
        <ele>632</ele>
        <time>2019-04-16T20:30:44Z</time>
      </trkpt>
      <trkpt lat="45.10393" lon="3.54584">
        <ele>630</ele>
        <time>2019-04-16T20:31:44Z</time>
      </trkpt>
      <trkpt lat="45.10414" lon="3.54573">
        <ele>629</ele>
        <time>2019-04-16T20:32:44Z</time>
      </trkpt>
      <trkpt lat="45.10436" lon="3.54552">
        <ele>628</ele>
        <time>2019-04-16T20:33:44Z</time>
      </trkpt>
      <trkpt lat="45.10454" lon="3.54528">
        <ele>626</ele>
        <time>2019-04-16T20:34:44Z</time>
      </trkpt>
      <trkpt lat="45.10496" lon="3.54452">
        <ele>621</ele>
        <time>2019-04-16T20:35:44Z</time>
      </trkpt>
      <trkpt lat="45.10501" lon="3.54439">
        <ele>620</ele>
        <time>2019-04-16T20:36:44Z</time>
      </trkpt>
      <trkpt lat="45.10507" lon="3.54419">
        <ele>618</ele>
        <time>2019-04-16T20:37:44Z</time>
      </trkpt>
      <trkpt lat="45.10509" lon="3.54403">
        <ele>617</ele>
        <time>2019-04-16T20:38:44Z</time>
      </trkpt>
      <trkpt lat="45.10509" lon="3.54389">
        <ele>616</ele>
        <time>2019-04-16T20:39:44Z</time>
      </trkpt>
      <trkpt lat="45.10502" lon="3.54306">
        <ele>611</ele>
        <time>2019-04-16T20:40:44Z</time>
      </trkpt>
      <trkpt lat="45.10516" lon="3.54077">
        <ele>600</ele>
        <time>2019-04-16T20:41:44Z</time>
      </trkpt>
      <trkpt lat="45.10529" lon="3.53996">
        <ele>597</ele>
        <time>2019-04-16T20:42:44Z</time>
      </trkpt>
      <trkpt lat="45.10531" lon="3.53967">
        <ele>596</ele>
        <time>2019-04-16T20:43:44Z</time>
      </trkpt>
      <trkpt lat="45.10532" lon="3.53893">
        <ele>592</ele>
        <time>2019-04-16T20:44:44Z</time>
      </trkpt>
      <trkpt lat="45.10538" lon="3.53857">
        <ele>590</ele>
        <time>2019-04-16T20:45:44Z</time>
      </trkpt>
      <trkpt lat="45.10607" lon="3.53554">
        <ele>582</ele>
        <time>2019-04-16T20:46:44Z</time>
      </trkpt>
      <trkpt lat="45.1062" lon="3.53529">
        <ele>580</ele>
        <time>2019-04-16T20:47:44Z</time>
      </trkpt>
      <trkpt lat="45.10636" lon="3.53522">
        <ele>579</ele>
        <time>2019-04-16T20:48:44Z</time>
      </trkpt>
      <trkpt lat="45.10655" lon="3.53525">
        <ele>579</ele>
        <time>2019-04-16T20:49:44Z</time>
      </trkpt>
      <trkpt lat="45.10738" lon="3.53549">
        <ele>574</ele>
        <time>2019-04-16T20:50:44Z</time>
      </trkpt>
      <trkpt lat="45.10764" lon="3.53551">
        <ele>572</ele>
        <time>2019-04-16T20:51:44Z</time>
      </trkpt>
      <trkpt lat="45.10793" lon="3.53544">
        <ele>570</ele>
        <time>2019-04-16T20:52:44Z</time>
      </trkpt>
      <trkpt lat="45.10848" lon="3.53527">
        <ele>565</ele>
        <time>2019-04-16T20:53:44Z</time>
      </trkpt>
      <trkpt lat="45.10853" lon="3.53529">
        <ele>565</ele>
        <time>2019-04-16T20:54:44Z</time>
      </trkpt>
      <trkpt lat="45.10859" lon="3.53527">
        <ele>564</ele>
        <time>2019-04-16T20:55:44Z</time>
      </trkpt>
      <trkpt lat="45.10848" lon="3.53468">
        <ele>563</ele>
        <time>2019-04-16T20:56:44Z</time>
      </trkpt>
      <trkpt lat="45.10838" lon="3.53388">
        <ele>561</ele>
        <time>2019-04-16T20:57:44Z</time>
      </trkpt>
      <trkpt lat="45.10834" lon="3.53309">
        <ele>559</ele>
        <time>2019-04-16T20:58:44Z</time>
      </trkpt>
      <trkpt lat="45.10836" lon="3.53253">
        <ele>558</ele>
        <time>2019-04-16T20:59:44Z</time>
      </trkpt>
      <trkpt lat="45.1084" lon="3.53202">
        <ele>559</ele>
        <time>2019-04-16T21:00:44Z</time>
      </trkpt>
      <trkpt lat="45.1084" lon="3.53167">
        <ele>560</ele>
        <time>2019-04-16T21:01:44Z</time>
      </trkpt>
      <trkpt lat="45.10835" lon="3.53131">
        <ele>560</ele>
        <time>2019-04-16T21:02:44Z</time>
      </trkpt>
      <trkpt lat="45.10828" lon="3.53096">
        <ele>560</ele>
        <time>2019-04-16T21:03:44Z</time>
      </trkpt>
      <trkpt lat="45.10818" lon="3.53067">
        <ele>559</ele>
        <time>2019-04-16T21:04:44Z</time>
      </trkpt>
      <trkpt lat="45.10805" lon="3.5304">
        <ele>557</ele>
        <time>2019-04-16T21:05:44Z</time>
      </trkpt>
      <trkpt lat="45.10764" lon="3.52965">
        <ele>554</ele>
        <time>2019-04-16T21:06:44Z</time>
      </trkpt>
      <trkpt lat="45.10744" lon="3.52916">
        <ele>553</ele>
        <time>2019-04-16T21:07:44Z</time>
      </trkpt>
      <trkpt lat="45.10733" lon="3.52882">
        <ele>553</ele>
        <time>2019-04-16T21:08:44Z</time>
      </trkpt>
      <trkpt lat="45.10721" lon="3.52831">
        <ele>552</ele>
        <time>2019-04-16T21:09:44Z</time>
      </trkpt>
      <trkpt lat="45.10692" lon="3.52612">
        <ele>547</ele>
        <time>2019-04-16T21:10:44Z</time>
      </trkpt>
      <trkpt lat="45.10682" lon="3.52556">
        <ele>546</ele>
        <time>2019-04-16T21:11:44Z</time>
      </trkpt>
      <trkpt lat="45.10669" lon="3.52502">
        <ele>546</ele>
        <time>2019-04-16T21:12:44Z</time>
      </trkpt>
      <trkpt lat="45.10518" lon="3.5193">
        <ele>531</ele>
        <time>2019-04-16T21:13:44Z</time>
      </trkpt>
      <trkpt lat="45.10496" lon="3.5186">
        <ele>531</ele>
        <time>2019-04-16T21:14:44Z</time>
      </trkpt>
      <trkpt lat="45.10466" lon="3.5178">
        <ele>530</ele>
        <time>2019-04-16T21:15:44Z</time>
      </trkpt>
      <trkpt lat="45.10425" lon="3.51691">
        <ele>529</ele>
        <time>2019-04-16T21:16:44Z</time>
      </trkpt>
      <trkpt lat="45.10373" lon="3.51592">
        <ele>527</ele>
        <time>2019-04-16T21:17:44Z</time>
      </trkpt>
      <trkpt lat="45.10363" lon="3.51568">
        <ele>526</ele>
        <time>2019-04-16T21:18:44Z</time>
      </trkpt>
      <trkpt lat="45.10355" lon="3.51541">
        <ele>526</ele>
        <time>2019-04-16T21:19:44Z</time>
      </trkpt>
      <trkpt lat="45.10348" lon="3.5151">
        <ele>525</ele>
        <time>2019-04-16T21:20:44Z</time>
      </trkpt>
      <trkpt lat="45.10287" lon="3.51138">
        <ele>525</ele>
        <time>2019-04-16T21:21:44Z</time>
      </trkpt>
      <trkpt lat="45.10235" lon="3.50892">
        <ele>521</ele>
        <time>2019-04-16T21:22:44Z</time>
      </trkpt>
      <trkpt lat="45.10229" lon="3.5088">
        <ele>520</ele>
        <time>2019-04-16T21:23:44Z</time>
      </trkpt>
      <trkpt lat="45.10218" lon="3.50866">
        <ele>518</ele>
        <time>2019-04-16T21:24:44Z</time>
      </trkpt>
      <trkpt lat="45.10194" lon="3.50856">
        <ele>514</ele>
        <time>2019-04-16T21:25:44Z</time>
      </trkpt>
      <trkpt lat="45.10181" lon="3.50859">
        <ele>513</ele>
        <time>2019-04-16T21:26:44Z</time>
      </trkpt>
      <trkpt lat="45.10133" lon="3.5089">
        <ele>515</ele>
        <time>2019-04-16T21:27:44Z</time>
      </trkpt>
      <trkpt lat="45.10084" lon="3.509">
        <ele>513</ele>
        <time>2019-04-16T21:28:44Z</time>
      </trkpt>
      <trkpt lat="45.10056" lon="3.50903">
        <ele>513</ele>
        <time>2019-04-16T21:29:44Z</time>
      </trkpt>
      <trkpt lat="45.10018" lon="3.509">
        <ele>510</ele>
        <time>2019-04-16T21:30:44Z</time>
      </trkpt>
      <trkpt lat="45.09996" lon="3.50892">
        <ele>508</ele>
        <time>2019-04-16T21:31:44Z</time>
      </trkpt>
      <trkpt lat="45.09981" lon="3.50883">
        <ele>507</ele>
        <time>2019-04-16T21:32:44Z</time>
      </trkpt>
      <trkpt lat="45.09968" lon="3.5087">
        <ele>505</ele>
        <time>2019-04-16T21:33:44Z</time>
      </trkpt>
      <trkpt lat="45.09963" lon="3.50855">
        <ele>503</ele>
        <time>2019-04-16T21:34:44Z</time>
      </trkpt>
      <trkpt lat="45.09961" lon="3.50844">
        <ele>502</ele>
        <time>2019-04-16T21:35:44Z</time>
      </trkpt>
      <trkpt lat="45.09963" lon="3.50818">
        <ele>499</ele>
        <time>2019-04-16T21:36:44Z</time>
      </trkpt>
      <trkpt lat="45.09986" lon="3.50731">
        <ele>496</ele>
        <time>2019-04-16T21:37:44Z</time>
      </trkpt>
      <trkpt lat="45.09999" lon="3.50704">
        <ele>495</ele>
        <time>2019-04-16T21:38:44Z</time>
      </trkpt>
      <trkpt lat="45.10018" lon="3.50671">
        <ele>495</ele>
        <time>2019-04-16T21:39:44Z</time>
      </trkpt>
      <trkpt lat="45.10063" lon="3.50605">
        <ele>497</ele>
        <time>2019-04-16T21:40:44Z</time>
      </trkpt>
      <trkpt lat="45.1007" lon="3.50591">
        <ele>498</ele>
        <time>2019-04-16T21:41:44Z</time>
      </trkpt>
      <trkpt lat="45.10077" lon="3.5057">
        <ele>498</ele>
        <time>2019-04-16T21:42:44Z</time>
      </trkpt>
      <trkpt lat="45.10118" lon="3.50411">
        <ele>495</ele>
        <time>2019-04-16T21:43:44Z</time>
      </trkpt>
      <trkpt lat="45.10137" lon="3.50351">
        <ele>496</ele>
        <time>2019-04-16T21:44:44Z</time>
      </trkpt>
      <trkpt lat="45.1014" lon="3.50328">
        <ele>496</ele>
        <time>2019-04-16T21:45:44Z</time>
      </trkpt>
      <trkpt lat="45.10141" lon="3.50299">
        <ele>496</ele>
        <time>2019-04-16T21:46:44Z</time>
      </trkpt>
      <trkpt lat="45.10138" lon="3.50267">
        <ele>496</ele>
        <time>2019-04-16T21:47:44Z</time>
      </trkpt>
      <trkpt lat="45.10129" lon="3.50227">
        <ele>496</ele>
        <time>2019-04-16T21:48:44Z</time>
      </trkpt>
      <trkpt lat="45.10077" lon="3.50033">
        <ele>495</ele>
        <time>2019-04-16T21:49:44Z</time>
      </trkpt>
      <trkpt lat="45.10074" lon="3.5001">
        <ele>495</ele>
        <time>2019-04-16T21:50:44Z</time>
      </trkpt>
      <trkpt lat="45.10076" lon="3.49813">
        <ele>496</ele>
        <time>2019-04-16T21:51:44Z</time>
      </trkpt>
      <trkpt lat="45.10072" lon="3.49742">
        <ele>498</ele>
        <time>2019-04-16T21:52:44Z</time>
      </trkpt>
      <trkpt lat="45.10078" lon="3.49735">
        <ele>499</ele>
        <time>2019-04-16T21:53:44Z</time>
      </trkpt>
      <trkpt lat="45.10085" lon="3.49731">
        <ele>499</ele>
        <time>2019-04-16T21:54:44Z</time>
      </trkpt>
      <trkpt lat="45.10098" lon="3.49724">
        <ele>500</ele>
        <time>2019-04-16T21:55:44Z</time>
      </trkpt>
      <trkpt lat="45.10105" lon="3.49723">
        <ele>500</ele>
        <time>2019-04-16T21:56:44Z</time>
      </trkpt>
      <trkpt lat="45.10126" lon="3.49725">
        <ele>500</ele>
        <time>2019-04-16T21:57:44Z</time>
      </trkpt>
      <trkpt lat="45.10191" lon="3.49738">
        <ele>500</ele>
        <time>2019-04-16T21:58:44Z</time>
      </trkpt>
      <trkpt lat="45.10195" lon="3.49747">
        <ele>500</ele>
        <time>2019-04-16T21:59:44Z</time>
      </trkpt>
      <trkpt lat="45.10201" lon="3.49751">
        <ele>499</ele>
        <time>2019-04-16T22:00:44Z</time>
      </trkpt>
      <trkpt lat="45.10205" lon="3.49751">
        <ele>499</ele>
        <time>2019-04-16T22:01:44Z</time>
      </trkpt>
      <trkpt lat="45.10212" lon="3.49747">
        <ele>499</ele>
        <time>2019-04-16T22:02:44Z</time>
      </trkpt>
      <trkpt lat="45.10214" lon="3.49743">
        <ele>499</ele>
        <time>2019-04-16T22:03:44Z</time>
      </trkpt>
      <trkpt lat="45.10238" lon="3.4974">
        <ele>498</ele>
        <time>2019-04-16T22:04:44Z</time>
      </trkpt>
      <trkpt lat="45.10362" lon="3.49746">
        <ele>496</ele>
        <time>2019-04-16T22:05:44Z</time>
      </trkpt>
      <trkpt lat="45.10401" lon="3.49742">
        <ele>497</ele>
        <time>2019-04-16T22:06:44Z</time>
      </trkpt>
      <trkpt lat="45.10709" lon="3.49688">
        <ele>496</ele>
        <time>2019-04-16T22:07:44Z</time>
      </trkpt>
      <trkpt lat="45.10717" lon="3.49689">
        <ele>496</ele>
        <time>2019-04-16T22:08:44Z</time>
      </trkpt>
      <trkpt lat="45.1072" lon="3.49696">
        <ele>496</ele>
        <time>2019-04-16T22:09:44Z</time>
      </trkpt>
      <trkpt lat="45.10724" lon="3.497">
        <ele>495</ele>
        <time>2019-04-16T22:10:44Z</time>
      </trkpt>
      <trkpt lat="45.1073" lon="3.49701">
        <ele>495</ele>
        <time>2019-04-16T22:11:44Z</time>
      </trkpt>
      <trkpt lat="45.10734" lon="3.49699">
        <ele>495</ele>
        <time>2019-04-16T22:12:44Z</time>
      </trkpt>
      <trkpt lat="45.10738" lon="3.49695">
        <ele>495</ele>
        <time>2019-04-16T22:13:44Z</time>
      </trkpt>
      <trkpt lat="45.10741" lon="3.49684">
        <ele>495</ele>
        <time>2019-04-16T22:14:44Z</time>
      </trkpt>
      <trkpt lat="45.10741" lon="3.49676">
        <ele>495</ele>
        <time>2019-04-16T22:15:44Z</time>
      </trkpt>
      <trkpt lat="45.10817" lon="3.49639">
        <ele>494</ele>
        <time>2019-04-16T22:16:44Z</time>
      </trkpt>
      <trkpt lat="45.1087" lon="3.49602">
        <ele>493</ele>
        <time>2019-04-16T22:17:44Z</time>
      </trkpt>
      <trkpt lat="45.11203" lon="3.49292">
        <ele>493</ele>
        <time>2019-04-16T22:18:44Z</time>
      </trkpt>
      <trkpt lat="45.11282" lon="3.49231">
        <ele>495</ele>
        <time>2019-04-16T22:19:44Z</time>
      </trkpt>
      <trkpt lat="45.11291" lon="3.49226">
        <ele>495</ele>
        <time>2019-04-16T22:20:44Z</time>
      </trkpt>
      <trkpt lat="45.11296" lon="3.49228">
        <ele>495</ele>
        <time>2019-04-16T22:21:44Z</time>
      </trkpt>
      <trkpt lat="45.11305" lon="3.49226">
        <ele>495</ele>
        <time>2019-04-16T22:22:44Z</time>
      </trkpt>
      <trkpt lat="45.11312" lon="3.49216">
        <ele>495</ele>
        <time>2019-04-16T22:23:44Z</time>
      </trkpt>
      <trkpt lat="45.11318" lon="3.49197">
        <ele>496</ele>
        <time>2019-04-16T22:24:44Z</time>
      </trkpt>
      <trkpt lat="45.1133" lon="3.49184">
        <ele>496</ele>
        <time>2019-04-16T22:25:44Z</time>
      </trkpt>
      <trkpt lat="45.11347" lon="3.49168">
        <ele>495</ele>
        <time>2019-04-16T22:26:44Z</time>
      </trkpt>
      <trkpt lat="45.11406" lon="3.49107">
        <ele>496</ele>
        <time>2019-04-16T22:27:44Z</time>
      </trkpt>
      <trkpt lat="45.11449" lon="3.49066">
        <ele>501</ele>
        <time>2019-04-16T22:28:44Z</time>
      </trkpt>
      <trkpt lat="45.11475" lon="3.49044">
        <ele>506</ele>
        <time>2019-04-16T22:29:44Z</time>
      </trkpt>
      <trkpt lat="45.1151" lon="3.49032">
        <ele>506</ele>
        <time>2019-04-16T22:30:44Z</time>
      </trkpt>
      <trkpt lat="45.11611" lon="3.49028">
        <ele>499</ele>
        <time>2019-04-16T22:31:44Z</time>
      </trkpt>
      <trkpt lat="45.11623" lon="3.49031">
        <ele>498</ele>
        <time>2019-04-16T22:32:44Z</time>
      </trkpt>
      <trkpt lat="45.11639" lon="3.4902">
        <ele>498</ele>
        <time>2019-04-16T22:33:44Z</time>
      </trkpt>
      <trkpt lat="45.11707" lon="3.48996">
        <ele>496</ele>
        <time>2019-04-16T22:34:44Z</time>
      </trkpt>
      <trkpt lat="45.11903" lon="3.48933">
        <ele>492</ele>
        <time>2019-04-16T22:35:44Z</time>
      </trkpt>
      <trkpt lat="45.12153" lon="3.48824">
        <ele>498</ele>
        <time>2019-04-16T22:36:44Z</time>
      </trkpt>
      <trkpt lat="45.12236" lon="3.48772">
        <ele>499</ele>
        <time>2019-04-16T22:37:44Z</time>
      </trkpt>
      <trkpt lat="45.12303" lon="3.48726">
        <ele>495</ele>
        <time>2019-04-16T22:38:44Z</time>
      </trkpt>
      <trkpt lat="45.1236" lon="3.48684">
        <ele>494</ele>
        <time>2019-04-16T22:39:44Z</time>
      </trkpt>
      <trkpt lat="45.12451" lon="3.48589">
        <ele>494</ele>
        <time>2019-04-16T22:40:44Z</time>
      </trkpt>
      <trkpt lat="45.12433" lon="3.48578">
        <ele>494</ele>
        <time>2019-04-16T22:41:44Z</time>
      </trkpt>
      <trkpt lat="45.12413" lon="3.48553">
        <ele>496</ele>
        <time>2019-04-16T22:42:44Z</time>
      </trkpt>
      <trkpt lat="45.12402" lon="3.48527">
        <ele>498</ele>
        <time>2019-04-16T22:43:44Z</time>
      </trkpt>
      <trkpt lat="45.1239" lon="3.48479">
        <ele>501</ele>
        <time>2019-04-16T22:44:44Z</time>
      </trkpt>
      <trkpt lat="45.12354" lon="3.48487">
        <ele>502</ele>
        <time>2019-04-16T22:45:44Z</time>
      </trkpt>
      <trkpt lat="45.12319" lon="3.48479">
        <ele>504</ele>
        <time>2019-04-16T22:46:44Z</time>
      </trkpt>
      <trkpt lat="45.12281" lon="3.48466">
        <ele>506</ele>
        <time>2019-04-16T22:47:44Z</time>
      </trkpt>
      <trkpt lat="45.12262" lon="3.48464">
        <ele>506</ele>
        <time>2019-04-16T22:48:44Z</time>
      </trkpt>
      <trkpt lat="45.12253" lon="3.48477">
        <ele>506</ele>
        <time>2019-04-16T22:49:44Z</time>
      </trkpt>
      <trkpt lat="45.12252" lon="3.4849">
        <ele>505</ele>
        <time>2019-04-16T22:50:44Z</time>
      </trkpt>
      <trkpt lat="45.12235" lon="3.48501">
        <ele>507</ele>
        <time>2019-04-16T22:51:44Z</time>
      </trkpt>
      <trkpt lat="45.12217" lon="3.48517">
        <ele>509</ele>
        <time>2019-04-16T22:52:44Z</time>
      </trkpt>
      <trkpt lat="45.12205" lon="3.48536">
        <ele>511</ele>
        <time>2019-04-16T22:53:44Z</time>
      </trkpt>
      <trkpt lat="45.12199" lon="3.48554">
        <ele>513</ele>
        <time>2019-04-16T22:54:44Z</time>
      </trkpt>
      <trkpt lat="45.12196" lon="3.486">
        <ele>515</ele>
        <time>2019-04-16T22:55:44Z</time>
      </trkpt>
      <trkpt lat="45.12191" lon="3.48619">
        <ele>517</ele>
        <time>2019-04-16T22:56:44Z</time>
      </trkpt>
      <trkpt lat="45.12174" lon="3.48648">
        <ele>522</ele>
        <time>2019-04-16T22:57:44Z</time>
      </trkpt>
      <trkpt lat="45.12171" lon="3.48658">
        <ele>523</ele>
        <time>2019-04-16T22:58:44Z</time>
      </trkpt>
      <trkpt lat="45.12175" lon="3.48684">
        <ele>521</ele>
        <time>2019-04-16T22:59:44Z</time>
      </trkpt>
      <trkpt lat="45.12174" lon="3.48697">
        <ele>520</ele>
        <time>2019-04-16T23:00:44Z</time>
      </trkpt>
      <trkpt lat="45.12168" lon="3.4871">
        <ele>520</ele>
        <time>2019-04-16T23:01:44Z</time>
      </trkpt>
      <trkpt lat="45.12155" lon="3.48717">
        <ele>521</ele>
        <time>2019-04-16T23:02:44Z</time>
      </trkpt>
      <trkpt lat="45.12168" lon="3.4871">
        <ele>520</ele>
        <time>2019-04-16T23:03:44Z</time>
      </trkpt>
      <trkpt lat="45.12174" lon="3.48697">
        <ele>520</ele>
        <time>2019-04-16T23:04:44Z</time>
      </trkpt>
      <trkpt lat="45.12175" lon="3.48684">
        <ele>521</ele>
        <time>2019-04-16T23:05:44Z</time>
      </trkpt>
      <trkpt lat="45.12171" lon="3.48658">
        <ele>523</ele>
        <time>2019-04-16T23:06:44Z</time>
      </trkpt>
      <trkpt lat="45.12174" lon="3.48648">
        <ele>522</ele>
        <time>2019-04-16T23:07:44Z</time>
      </trkpt>
      <trkpt lat="45.12191" lon="3.48619">
        <ele>517</ele>
        <time>2019-04-16T23:08:44Z</time>
      </trkpt>
      <trkpt lat="45.12196" lon="3.486">
        <ele>515</ele>
        <time>2019-04-16T23:09:44Z</time>
      </trkpt>
      <trkpt lat="45.12199" lon="3.48554">
        <ele>513</ele>
        <time>2019-04-16T23:10:44Z</time>
      </trkpt>
      <trkpt lat="45.12205" lon="3.48536">
        <ele>511</ele>
        <time>2019-04-16T23:11:44Z</time>
      </trkpt>
      <trkpt lat="45.12217" lon="3.48517">
        <ele>509</ele>
        <time>2019-04-16T23:12:44Z</time>
      </trkpt>
      <trkpt lat="45.12235" lon="3.48501">
        <ele>507</ele>
        <time>2019-04-16T23:13:44Z</time>
      </trkpt>
      <trkpt lat="45.12252" lon="3.4849">
        <ele>505</ele>
        <time>2019-04-16T23:14:44Z</time>
      </trkpt>
      <trkpt lat="45.12253" lon="3.48477">
        <ele>506</ele>
        <time>2019-04-16T23:15:44Z</time>
      </trkpt>
      <trkpt lat="45.12262" lon="3.48464">
        <ele>506</ele>
        <time>2019-04-16T23:16:44Z</time>
      </trkpt>
      <trkpt lat="45.12281" lon="3.48466">
        <ele>506</ele>
        <time>2019-04-16T23:17:44Z</time>
      </trkpt>
      <trkpt lat="45.12319" lon="3.48479">
        <ele>504</ele>
        <time>2019-04-16T23:18:44Z</time>
      </trkpt>
      <trkpt lat="45.12354" lon="3.48487">
        <ele>502</ele>
        <time>2019-04-16T23:19:44Z</time>
      </trkpt>
      <trkpt lat="45.1239" lon="3.48479">
        <ele>501</ele>
        <time>2019-04-16T23:20:44Z</time>
      </trkpt>
      <trkpt lat="45.12402" lon="3.48527">
        <ele>498</ele>
        <time>2019-04-16T23:21:44Z</time>
      </trkpt>
      <trkpt lat="45.12413" lon="3.48553">
        <ele>496</ele>
        <time>2019-04-16T23:22:44Z</time>
      </trkpt>
      <trkpt lat="45.12433" lon="3.48578">
        <ele>494</ele>
        <time>2019-04-16T23:23:44Z</time>
      </trkpt>
      <trkpt lat="45.12451" lon="3.48589">
        <ele>494</ele>
        <time>2019-04-16T23:24:44Z</time>
      </trkpt>
      <trkpt lat="45.12517" lon="3.48525">
        <ele>495</ele>
        <time>2019-04-16T23:25:44Z</time>
      </trkpt>
      <trkpt lat="45.1256" lon="3.48497">
        <ele>494</ele>
        <time>2019-04-16T23:26:44Z</time>
      </trkpt>
      <trkpt lat="45.12717" lon="3.48423">
        <ele>488</ele>
        <time>2019-04-16T23:27:44Z</time>
      </trkpt>
      <trkpt lat="45.12761" lon="3.48411">
        <ele>489</ele>
        <time>2019-04-16T23:28:44Z</time>
      </trkpt>
      <trkpt lat="45.12776" lon="3.48411">
        <ele>489</ele>
        <time>2019-04-16T23:29:44Z</time>
      </trkpt>
      <trkpt lat="45.12891" lon="3.48443">
        <ele>487</ele>
        <time>2019-04-16T23:30:44Z</time>
      </trkpt>
      <trkpt lat="45.12909" lon="3.48446">
        <ele>487</ele>
        <time>2019-04-16T23:31:44Z</time>
      </trkpt>
      <trkpt lat="45.12946" lon="3.48443">
        <ele>486</ele>
        <time>2019-04-16T23:32:44Z</time>
      </trkpt>
      <trkpt lat="45.13103" lon="3.48416">
        <ele>486</ele>
        <time>2019-04-16T23:33:44Z</time>
      </trkpt>
      <trkpt lat="45.13127" lon="3.48415">
        <ele>487</ele>
        <time>2019-04-16T23:34:44Z</time>
      </trkpt>
      <trkpt lat="45.1319" lon="3.4842">
        <ele>487</ele>
        <time>2019-04-16T23:35:44Z</time>
      </trkpt>
      <trkpt lat="45.13212" lon="3.48416">
        <ele>486</ele>
        <time>2019-04-16T23:36:44Z</time>
      </trkpt>
      <trkpt lat="45.13237" lon="3.48404">
        <ele>485</ele>
        <time>2019-04-16T23:37:44Z</time>
      </trkpt>
      <trkpt lat="45.13274" lon="3.48381">
        <ele>485</ele>
        <time>2019-04-16T23:38:44Z</time>
      </trkpt>
      <trkpt lat="45.1334" lon="3.48336">
        <ele>485</ele>
        <time>2019-04-16T23:39:44Z</time>
      </trkpt>
      <trkpt lat="45.13372" lon="3.48309">
        <ele>485</ele>
        <time>2019-04-16T23:40:44Z</time>
      </trkpt>
      <trkpt lat="45.13411" lon="3.4827">
        <ele>484</ele>
        <time>2019-04-16T23:41:44Z</time>
      </trkpt>
      <trkpt lat="45.1343" lon="3.48256">
        <ele>484</ele>
        <time>2019-04-16T23:42:44Z</time>
      </trkpt>
      <trkpt lat="45.13472" lon="3.48237">
        <ele>483</ele>
        <time>2019-04-16T23:43:44Z</time>
      </trkpt>
      <trkpt lat="45.13501" lon="3.48219">
        <ele>483</ele>
        <time>2019-04-16T23:44:44Z</time>
      </trkpt>
      <trkpt lat="45.13538" lon="3.48192">
        <ele>484</ele>
        <time>2019-04-16T23:45:44Z</time>
      </trkpt>
      <trkpt lat="45.13574" lon="3.48173">
        <ele>484</ele>
        <time>2019-04-16T23:46:44Z</time>
      </trkpt>
      <trkpt lat="45.13587" lon="3.48168">
        <ele>484</ele>
        <time>2019-04-16T23:47:44Z</time>
      </trkpt>
      <trkpt lat="45.13617" lon="3.48162">
        <ele>484</ele>
        <time>2019-04-16T23:48:44Z</time>
      </trkpt>
      <trkpt lat="45.13644" lon="3.48149">
        <ele>484</ele>
        <time>2019-04-16T23:49:44Z</time>
      </trkpt>
      <trkpt lat="45.13678" lon="3.48129">
        <ele>485</ele>
        <time>2019-04-16T23:50:44Z</time>
      </trkpt>
      <trkpt lat="45.13694" lon="3.48122">
        <ele>485</ele>
        <time>2019-04-16T23:51:44Z</time>
      </trkpt>
      <trkpt lat="45.13724" lon="3.48121">
        <ele>484</ele>
        <time>2019-04-16T23:52:44Z</time>
      </trkpt>
      <trkpt lat="45.13791" lon="3.48145">
        <ele>484</ele>
        <time>2019-04-16T23:53:44Z</time>
      </trkpt>
      <trkpt lat="45.13841" lon="3.48146">
        <ele>483</ele>
        <time>2019-04-16T23:54:44Z</time>
      </trkpt>
      <trkpt lat="45.13928" lon="3.48119">
        <ele>486</ele>
        <time>2019-04-16T23:55:44Z</time>
      </trkpt>
      <trkpt lat="45.14045" lon="3.48063">
        <ele>495</ele>
        <time>2019-04-16T23:56:44Z</time>
      </trkpt>
      <trkpt lat="45.14069" lon="3.48047">
        <ele>496</ele>
        <time>2019-04-16T23:57:44Z</time>
      </trkpt>
      <trkpt lat="45.14129" lon="3.4798">
        <ele>497</ele>
        <time>2019-04-16T23:58:44Z</time>
      </trkpt>
      <trkpt lat="45.14148" lon="3.47956">
        <ele>496</ele>
        <time>2019-04-16T23:59:44Z</time>
      </trkpt>
      <trkpt lat="45.14163" lon="3.47926">
        <ele>494</ele>
        <time>2019-04-17T00:00:44Z</time>
      </trkpt>
      <trkpt lat="45.14176" lon="3.47885">
        <ele>496</ele>
        <time>2019-04-17T00:01:44Z</time>
      </trkpt>
      <trkpt lat="45.14184" lon="3.47854">
        <ele>497</ele>
        <time>2019-04-17T00:02:44Z</time>
      </trkpt>
      <trkpt lat="45.14187" lon="3.4782">
        <ele>499</ele>
        <time>2019-04-17T00:03:44Z</time>
      </trkpt>
      <trkpt lat="45.14189" lon="3.47777">
        <ele>501</ele>
        <time>2019-04-17T00:04:44Z</time>
      </trkpt>
      <trkpt lat="45.14185" lon="3.47677">
        <ele>501</ele>
        <time>2019-04-17T00:05:44Z</time>
      </trkpt>
      <trkpt lat="45.14181" lon="3.47646">
        <ele>499</ele>
        <time>2019-04-17T00:06:44Z</time>
      </trkpt>
      <trkpt lat="45.14173" lon="3.47617">
        <ele>495</ele>
        <time>2019-04-17T00:07:44Z</time>
      </trkpt>
      <trkpt lat="45.14107" lon="3.47459">
        <ele>497</ele>
        <time>2019-04-17T00:08:44Z</time>
      </trkpt>
      <trkpt lat="45.14096" lon="3.47417">
        <ele>496</ele>
        <time>2019-04-17T00:09:44Z</time>
      </trkpt>
      <trkpt lat="45.14086" lon="3.47366">
        <ele>493</ele>
        <time>2019-04-17T00:10:44Z</time>
      </trkpt>
      <trkpt lat="45.14074" lon="3.4733">
        <ele>492</ele>
        <time>2019-04-17T00:11:44Z</time>
      </trkpt>
      <trkpt lat="45.14058" lon="3.47306">
        <ele>493</ele>
        <time>2019-04-17T00:12:44Z</time>
      </trkpt>
      <trkpt lat="45.1401" lon="3.47248">
        <ele>494</ele>
        <time>2019-04-17T00:13:44Z</time>
      </trkpt>
      <trkpt lat="45.13995" lon="3.47214">
        <ele>495</ele>
        <time>2019-04-17T00:14:44Z</time>
      </trkpt>
      <trkpt lat="45.13988" lon="3.47166">
        <ele>495</ele>
        <time>2019-04-17T00:15:44Z</time>
      </trkpt>
      <trkpt lat="45.13975" lon="3.47125">
        <ele>493</ele>
        <time>2019-04-17T00:16:44Z</time>
      </trkpt>
      <trkpt lat="45.13934" lon="3.47">
        <ele>493</ele>
        <time>2019-04-17T00:17:44Z</time>
      </trkpt>
      <trkpt lat="45.13918" lon="3.46972">
        <ele>491</ele>
        <time>2019-04-17T00:18:44Z</time>
      </trkpt>
      <trkpt lat="45.13881" lon="3.46915">
        <ele>490</ele>
        <time>2019-04-17T00:19:44Z</time>
      </trkpt>
      <trkpt lat="45.1387" lon="3.46881">
        <ele>492</ele>
        <time>2019-04-17T00:20:44Z</time>
      </trkpt>
      <trkpt lat="45.13872" lon="3.46809">
        <ele>490</ele>
        <time>2019-04-17T00:21:44Z</time>
      </trkpt>
      <trkpt lat="45.1386" lon="3.46713">
        <ele>490</ele>
        <time>2019-04-17T00:22:44Z</time>
      </trkpt>
      <trkpt lat="45.13835" lon="3.46623">
        <ele>489</ele>
        <time>2019-04-17T00:23:44Z</time>
      </trkpt>
      <trkpt lat="45.13796" lon="3.46565">
        <ele>490</ele>
        <time>2019-04-17T00:24:44Z</time>
      </trkpt>
      <trkpt lat="45.13772" lon="3.46539">
        <ele>491</ele>
        <time>2019-04-17T00:25:44Z</time>
      </trkpt>
      <trkpt lat="45.13762" lon="3.46525">
        <ele>491</ele>
        <time>2019-04-17T00:26:44Z</time>
      </trkpt>
      <trkpt lat="45.13755" lon="3.46502">
        <ele>490</ele>
        <time>2019-04-17T00:27:44Z</time>
      </trkpt>
      <trkpt lat="45.13755" lon="3.46495">
        <ele>490</ele>
        <time>2019-04-17T00:28:44Z</time>
      </trkpt>
      <trkpt lat="45.13755" lon="3.46488">
        <ele>490</ele>
        <time>2019-04-17T00:29:44Z</time>
      </trkpt>
      <trkpt lat="45.13759" lon="3.46472">
        <ele>489</ele>
        <time>2019-04-17T00:30:44Z</time>
      </trkpt>
      <trkpt lat="45.13778" lon="3.46424">
        <ele>490</ele>
        <time>2019-04-17T00:31:44Z</time>
      </trkpt>
      <trkpt lat="45.13794" lon="3.46408">
        <ele>492</ele>
        <time>2019-04-17T00:32:44Z</time>
      </trkpt>
      <trkpt lat="45.13802" lon="3.46406">
        <ele>492</ele>
        <time>2019-04-17T00:33:44Z</time>
      </trkpt>
      <trkpt lat="45.1381" lon="3.46407">
        <ele>492</ele>
        <time>2019-04-17T00:34:44Z</time>
      </trkpt>
      <trkpt lat="45.13836" lon="3.46426">
        <ele>491</ele>
        <time>2019-04-17T00:35:44Z</time>
      </trkpt>
      <trkpt lat="45.13861" lon="3.46435">
        <ele>492</ele>
        <time>2019-04-17T00:36:44Z</time>
      </trkpt>
      <trkpt lat="45.13913" lon="3.46444">
        <ele>494</ele>
        <time>2019-04-17T00:37:44Z</time>
      </trkpt>
      <trkpt lat="45.13939" lon="3.46455">
        <ele>494</ele>
        <time>2019-04-17T00:38:44Z</time>
      </trkpt>
      <trkpt lat="45.13961" lon="3.46458">
        <ele>495</ele>
        <time>2019-04-17T00:39:44Z</time>
      </trkpt>
      <trkpt lat="45.13974" lon="3.46452">
        <ele>496</ele>
        <time>2019-04-17T00:40:44Z</time>
      </trkpt>
      <trkpt lat="45.13986" lon="3.46441">
        <ele>498</ele>
        <time>2019-04-17T00:41:44Z</time>
      </trkpt>
      <trkpt lat="45.13997" lon="3.4642">
        <ele>500</ele>
        <time>2019-04-17T00:42:44Z</time>
      </trkpt>
      <trkpt lat="45.14007" lon="3.46393">
        <ele>501</ele>
        <time>2019-04-17T00:43:44Z</time>
      </trkpt>
      <trkpt lat="45.14065" lon="3.46202">
        <ele>508</ele>
        <time>2019-04-17T00:44:44Z</time>
      </trkpt>
      <trkpt lat="45.14113" lon="3.46035">
        <ele>512</ele>
        <time>2019-04-17T00:45:44Z</time>
      </trkpt>
      <trkpt lat="45.14124" lon="3.45981">
        <ele>513</ele>
        <time>2019-04-17T00:46:44Z</time>
      </trkpt>
      <trkpt lat="45.14124" lon="3.45808">
        <ele>525</ele>
        <time>2019-04-17T00:47:44Z</time>
      </trkpt>
      <trkpt lat="45.14136" lon="3.45712">
        <ele>528</ele>
        <time>2019-04-17T00:48:44Z</time>
      </trkpt>
      <trkpt lat="45.14147" lon="3.45641">
        <ele>528</ele>
        <time>2019-04-17T00:49:44Z</time>
      </trkpt>
      <trkpt lat="45.14159" lon="3.45549">
        <ele>528</ele>
        <time>2019-04-17T00:50:44Z</time>
      </trkpt>
      <trkpt lat="45.14177" lon="3.45478">
        <ele>529</ele>
        <time>2019-04-17T00:51:44Z</time>
      </trkpt>
      <trkpt lat="45.14197" lon="3.45441">
        <ele>529</ele>
        <time>2019-04-17T00:52:44Z</time>
      </trkpt>
      <trkpt lat="45.14222" lon="3.45415">
        <ele>527</ele>
        <time>2019-04-17T00:53:44Z</time>
      </trkpt>
      <trkpt lat="45.14249" lon="3.45363">
        <ele>530</ele>
        <time>2019-04-17T00:54:44Z</time>
      </trkpt>
      <trkpt lat="45.14341" lon="3.45284">
        <ele>522</ele>
        <time>2019-04-17T00:55:44Z</time>
      </trkpt>
      <trkpt lat="45.14374" lon="3.45253">
        <ele>518</ele>
        <time>2019-04-17T00:56:44Z</time>
      </trkpt>
      <trkpt lat="45.14396" lon="3.45214">
        <ele>514</ele>
        <time>2019-04-17T00:57:44Z</time>
      </trkpt>
      <trkpt lat="45.144" lon="3.45167">
        <ele>516</ele>
        <time>2019-04-17T00:58:44Z</time>
      </trkpt>
      <trkpt lat="45.14387" lon="3.45111">
        <ele>515</ele>
        <time>2019-04-17T00:59:44Z</time>
      </trkpt>
      <trkpt lat="45.14358" lon="3.45061">
        <ele>516</ele>
        <time>2019-04-17T01:00:44Z</time>
      </trkpt>
      <trkpt lat="45.14299" lon="3.44987">
        <ele>515</ele>
        <time>2019-04-17T01:01:44Z</time>
      </trkpt>
      <trkpt lat="45.14279" lon="3.44949">
        <ele>515</ele>
        <time>2019-04-17T01:02:44Z</time>
      </trkpt>
      <trkpt lat="45.1422" lon="3.44619">
        <ele>510</ele>
        <time>2019-04-17T01:03:44Z</time>
      </trkpt>
      <trkpt lat="45.14182" lon="3.4442">
        <ele>511</ele>
        <time>2019-04-17T01:04:44Z</time>
      </trkpt>
      <trkpt lat="45.14163" lon="3.44359">
        <ele>510</ele>
        <time>2019-04-17T01:05:44Z</time>
      </trkpt>
      <trkpt lat="45.14118" lon="3.44259">
        <ele>512</ele>
        <time>2019-04-17T01:06:44Z</time>
      </trkpt>
      <trkpt lat="45.14094" lon="3.44198">
        <ele>512</ele>
        <time>2019-04-17T01:07:44Z</time>
      </trkpt>
      <trkpt lat="45.14089" lon="3.44171">
        <ele>511</ele>
        <time>2019-04-17T01:08:44Z</time>
      </trkpt>
      <trkpt lat="45.14087" lon="3.44141">
        <ele>509</ele>
        <time>2019-04-17T01:09:44Z</time>
      </trkpt>
      <trkpt lat="45.14092" lon="3.44101">
        <ele>508</ele>
        <time>2019-04-17T01:10:44Z</time>
      </trkpt>
      <trkpt lat="45.14102" lon="3.4407">
        <ele>508</ele>
        <time>2019-04-17T01:11:44Z</time>
      </trkpt>
      <trkpt lat="45.1415" lon="3.43984">
        <ele>509</ele>
        <time>2019-04-17T01:12:44Z</time>
      </trkpt>
      <trkpt lat="45.14229" lon="3.43886">
        <ele>511</ele>
        <time>2019-04-17T01:13:44Z</time>
      </trkpt>
      <trkpt lat="45.14268" lon="3.43825">
        <ele>510</ele>
        <time>2019-04-17T01:14:44Z</time>
      </trkpt>
      <trkpt lat="45.14296" lon="3.43776">
        <ele>508</ele>
        <time>2019-04-17T01:15:44Z</time>
      </trkpt>
      <trkpt lat="45.1431" lon="3.43746">
        <ele>508</ele>
        <time>2019-04-17T01:16:44Z</time>
      </trkpt>
      <trkpt lat="45.14371" lon="3.43597">
        <ele>505</ele>
        <time>2019-04-17T01:17:44Z</time>
      </trkpt>
      <trkpt lat="45.14539" lon="3.43173">
        <ele>499</ele>
        <time>2019-04-17T01:18:44Z</time>
      </trkpt>
      <trkpt lat="45.14552" lon="3.43149">
        <ele>497</ele>
        <time>2019-04-17T01:19:44Z</time>
      </trkpt>
      <trkpt lat="45.14645" lon="3.43073">
        <ele>497</ele>
        <time>2019-04-17T01:20:44Z</time>
      </trkpt>
      <trkpt lat="45.14662" lon="3.4304">
        <ele>495</ele>
        <time>2019-04-17T01:21:44Z</time>
      </trkpt>
      <trkpt lat="45.14668" lon="3.43017">
        <ele>494</ele>
        <time>2019-04-17T01:22:44Z</time>
      </trkpt>
      <trkpt lat="45.14669" lon="3.42976">
        <ele>491</ele>
        <time>2019-04-17T01:23:44Z</time>
      </trkpt>
      <trkpt lat="45.14674" lon="3.42894">
        <ele>487</ele>
        <time>2019-04-17T01:24:44Z</time>
      </trkpt>
      <trkpt lat="45.14683" lon="3.4287">
        <ele>486</ele>
        <time>2019-04-17T01:25:44Z</time>
      </trkpt>
      <trkpt lat="45.14709" lon="3.42831">
        <ele>485</ele>
        <time>2019-04-17T01:26:44Z</time>
      </trkpt>
      <trkpt lat="45.14754" lon="3.42772">
        <ele>484</ele>
        <time>2019-04-17T01:27:44Z</time>
      </trkpt>
      <trkpt lat="45.14764" lon="3.42748">
        <ele>483</ele>
        <time>2019-04-17T01:28:44Z</time>
      </trkpt>
      <trkpt lat="45.14771" lon="3.42715">
        <ele>482</ele>
        <time>2019-04-17T01:29:44Z</time>
      </trkpt>
      <trkpt lat="45.1478" lon="3.42653">
        <ele>480</ele>
        <time>2019-04-17T01:30:44Z</time>
      </trkpt>
      <trkpt lat="45.14784" lon="3.42602">
        <ele>479</ele>
        <time>2019-04-17T01:31:44Z</time>
      </trkpt>
      <trkpt lat="45.14777" lon="3.42558">
        <ele>477</ele>
        <time>2019-04-17T01:32:44Z</time>
      </trkpt>
      <trkpt lat="45.14764" lon="3.4252">
        <ele>475</ele>
        <time>2019-04-17T01:33:44Z</time>
      </trkpt>
      <trkpt lat="45.14725" lon="3.42473">
        <ele>473</ele>
        <time>2019-04-17T01:34:44Z</time>
      </trkpt>
      <trkpt lat="45.14711" lon="3.42459">
        <ele>474</ele>
        <time>2019-04-17T01:35:44Z</time>
      </trkpt>
      <trkpt lat="45.14688" lon="3.4243">
        <ele>475</ele>
        <time>2019-04-17T01:36:44Z</time>
      </trkpt>
      <trkpt lat="45.14679" lon="3.42405">
        <ele>477</ele>
        <time>2019-04-17T01:37:44Z</time>
      </trkpt>
      <trkpt lat="45.14671" lon="3.42359">
        <ele>479</ele>
        <time>2019-04-17T01:38:44Z</time>
      </trkpt>
      <trkpt lat="45.14672" lon="3.42251">
        <ele>477</ele>
        <time>2019-04-17T01:39:44Z</time>
      </trkpt>
      <trkpt lat="45.14668" lon="3.42233">
        <ele>476</ele>
        <time>2019-04-17T01:40:44Z</time>
      </trkpt>
      <trkpt lat="45.14656" lon="3.42204">
        <ele>476</ele>
        <time>2019-04-17T01:41:44Z</time>
      </trkpt>
      <trkpt lat="45.14641" lon="3.42176">
        <ele>476</ele>
        <time>2019-04-17T01:42:44Z</time>
      </trkpt>
      <trkpt lat="45.1462" lon="3.42149">
        <ele>478</ele>
        <time>2019-04-17T01:43:44Z</time>
      </trkpt>
      <trkpt lat="45.14601" lon="3.42139">
        <ele>480</ele>
        <time>2019-04-17T01:44:44Z</time>
      </trkpt>
      <trkpt lat="45.14552" lon="3.42102">
        <ele>491</ele>
        <time>2019-04-17T01:45:44Z</time>
      </trkpt>
      <trkpt lat="45.14513" lon="3.42025">
        <ele>494</ele>
        <time>2019-04-17T01:46:44Z</time>
      </trkpt>
      <trkpt lat="45.14472" lon="3.41833">
        <ele>492</ele>
        <time>2019-04-17T01:47:44Z</time>
      </trkpt>
      <trkpt lat="45.14436" lon="3.41637">
        <ele>485</ele>
        <time>2019-04-17T01:48:44Z</time>
      </trkpt>
      <trkpt lat="45.14427" lon="3.41505">
        <ele>477</ele>
        <time>2019-04-17T01:49:44Z</time>
      </trkpt>
      <trkpt lat="45.14415" lon="3.4138">
        <ele>482</ele>
        <time>2019-04-17T01:50:44Z</time>
      </trkpt>
      <trkpt lat="45.14418" lon="3.41311">
        <ele>484</ele>
        <time>2019-04-17T01:51:44Z</time>
      </trkpt>
      <trkpt lat="45.14424" lon="3.41254">
        <ele>484</ele>
        <time>2019-04-17T01:52:44Z</time>
      </trkpt>
      <trkpt lat="45.14433" lon="3.41219">
        <ele>483</ele>
        <time>2019-04-17T01:53:44Z</time>
      </trkpt>
      <trkpt lat="45.14442" lon="3.41194">
        <ele>482</ele>
        <time>2019-04-17T01:54:44Z</time>
      </trkpt>
      <trkpt lat="45.14454" lon="3.41173">
        <ele>480</ele>
        <time>2019-04-17T01:55:44Z</time>
      </trkpt>
      <trkpt lat="45.14532" lon="3.41086">
        <ele>476</ele>
        <time>2019-04-17T01:56:44Z</time>
      </trkpt>
      <trkpt lat="45.14543" lon="3.41065">
        <ele>476</ele>
        <time>2019-04-17T01:57:44Z</time>
      </trkpt>
      <trkpt lat="45.14553" lon="3.41037">
        <ele>477</ele>
        <time>2019-04-17T01:58:44Z</time>
      </trkpt>
      <trkpt lat="45.14559" lon="3.41007">
        <ele>478</ele>
        <time>2019-04-17T01:59:44Z</time>
      </trkpt>
      <trkpt lat="45.14563" lon="3.40968">
        <ele>478</ele>
        <time>2019-04-17T02:00:44Z</time>
      </trkpt>
      <trkpt lat="45.14562" lon="3.409">
        <ele>477</ele>
        <time>2019-04-17T02:01:44Z</time>
      </trkpt>
      <trkpt lat="45.14564" lon="3.40814">
        <ele>477</ele>
        <time>2019-04-17T02:02:44Z</time>
      </trkpt>
      <trkpt lat="45.14564" lon="3.40765">
        <ele>478</ele>
        <time>2019-04-17T02:03:44Z</time>
      </trkpt>
      <trkpt lat="45.14561" lon="3.4074">
        <ele>478</ele>
        <time>2019-04-17T02:04:44Z</time>
      </trkpt>
      <trkpt lat="45.14555" lon="3.40712">
        <ele>477</ele>
        <time>2019-04-17T02:05:44Z</time>
      </trkpt>
      <trkpt lat="45.1454" lon="3.40679">
        <ele>477</ele>
        <time>2019-04-17T02:06:44Z</time>
      </trkpt>
      <trkpt lat="45.14527" lon="3.40666">
        <ele>477</ele>
        <time>2019-04-17T02:07:44Z</time>
      </trkpt>
      <trkpt lat="45.14505" lon="3.40657">
        <ele>478</ele>
        <time>2019-04-17T02:08:44Z</time>
      </trkpt>
      <trkpt lat="45.1447" lon="3.40647">
        <ele>478</ele>
        <time>2019-04-17T02:09:44Z</time>
      </trkpt>
      <trkpt lat="45.14448" lon="3.40629">
        <ele>477</ele>
        <time>2019-04-17T02:10:44Z</time>
      </trkpt>
      <trkpt lat="45.14441" lon="3.40613">
        <ele>476</ele>
        <time>2019-04-17T02:11:44Z</time>
      </trkpt>
      <trkpt lat="45.14426" lon="3.40615">
        <ele>476</ele>
        <time>2019-04-17T02:12:44Z</time>
      </trkpt>
      <trkpt lat="45.1441" lon="3.40611">
        <ele>476</ele>
        <time>2019-04-17T02:13:44Z</time>
      </trkpt>
      <trkpt lat="45.14335" lon="3.40529">
        <ele>477</ele>
        <time>2019-04-17T02:14:44Z</time>
      </trkpt>
      <trkpt lat="45.14297" lon="3.40498">
        <ele>482</ele>
        <time>2019-04-17T02:15:44Z</time>
      </trkpt>
      <trkpt lat="45.14204" lon="3.40433">
        <ele>486</ele>
        <time>2019-04-17T02:16:44Z</time>
      </trkpt>
      <trkpt lat="45.14193" lon="3.40421">
        <ele>486</ele>
        <time>2019-04-17T02:17:44Z</time>
      </trkpt>
      <trkpt lat="45.14176" lon="3.40392">
        <ele>485</ele>
        <time>2019-04-17T02:18:44Z</time>
      </trkpt>
      <trkpt lat="45.14168" lon="3.40385">
        <ele>485</ele>
        <time>2019-04-17T02:19:44Z</time>
      </trkpt>
      <trkpt lat="45.1415" lon="3.40385">
        <ele>488</ele>
        <time>2019-04-17T02:20:44Z</time>
      </trkpt>
      <trkpt lat="45.14119" lon="3.40391">
        <ele>493</ele>
        <time>2019-04-17T02:21:44Z</time>
      </trkpt>
      <trkpt lat="45.14105" lon="3.4039">
        <ele>495</ele>
        <time>2019-04-17T02:22:44Z</time>
      </trkpt>
      <trkpt lat="45.14089" lon="3.40385">
        <ele>496</ele>
        <time>2019-04-17T02:23:44Z</time>
      </trkpt>
      <trkpt lat="45.14071" lon="3.40372">
        <ele>496</ele>
        <time>2019-04-17T02:24:44Z</time>
      </trkpt>
      <trkpt lat="45.14025" lon="3.40351">
        <ele>497</ele>
        <time>2019-04-17T02:25:44Z</time>
      </trkpt>
      <trkpt lat="45.13976" lon="3.40331">
        <ele>500</ele>
        <time>2019-04-17T02:26:44Z</time>
      </trkpt>
      <trkpt lat="45.13951" lon="3.40314">
        <ele>504</ele>
        <time>2019-04-17T02:27:44Z</time>
      </trkpt>
      <trkpt lat="45.1394" lon="3.40288">
        <ele>504</ele>
        <time>2019-04-17T02:28:44Z</time>
      </trkpt>
      <trkpt lat="45.13937" lon="3.40246">
        <ele>502</ele>
        <time>2019-04-17T02:29:44Z</time>
      </trkpt>
      <trkpt lat="45.13922" lon="3.40206">
        <ele>504</ele>
        <time>2019-04-17T02:30:44Z</time>
      </trkpt>
      <trkpt lat="45.13904" lon="3.40182">
        <ele>507</ele>
        <time>2019-04-17T02:31:44Z</time>
      </trkpt>
      <trkpt lat="45.13872" lon="3.40156">
        <ele>515</ele>
        <time>2019-04-17T02:32:44Z</time>
      </trkpt>
      <trkpt lat="45.1386" lon="3.40124">
        <ele>518</ele>
        <time>2019-04-17T02:33:44Z</time>
      </trkpt>
      <trkpt lat="45.13857" lon="3.40103">
        <ele>519</ele>
        <time>2019-04-17T02:34:44Z</time>
      </trkpt>
      <trkpt lat="45.13861" lon="3.40061">
        <ele>518</ele>
        <time>2019-04-17T02:35:44Z</time>
      </trkpt>
      <trkpt lat="45.13852" lon="3.40017">
        <ele>520</ele>
        <time>2019-04-17T02:36:44Z</time>
      </trkpt>
      <trkpt lat="45.13834" lon="3.3997">
        <ele>522</ele>
        <time>2019-04-17T02:37:44Z</time>
      </trkpt>
      <trkpt lat="45.13786" lon="3.39893">
        <ele>528</ele>
        <time>2019-04-17T02:38:44Z</time>
      </trkpt>
      <trkpt lat="45.13766" lon="3.39847">
        <ele>529</ele>
        <time>2019-04-17T02:39:44Z</time>
      </trkpt>
      <trkpt lat="45.13755" lon="3.39793">
        <ele>529</ele>
        <time>2019-04-17T02:40:44Z</time>
      </trkpt>
      <trkpt lat="45.13749" lon="3.39749">
        <ele>529</ele>
        <time>2019-04-17T02:41:44Z</time>
      </trkpt>
      <trkpt lat="45.13729" lon="3.39713">
        <ele>529</ele>
        <time>2019-04-17T02:42:44Z</time>
      </trkpt>
      <trkpt lat="45.13704" lon="3.39699">
        <ele>532</ele>
        <time>2019-04-17T02:43:44Z</time>
      </trkpt>
      <trkpt lat="45.13602" lon="3.39687">
        <ele>543</ele>
        <time>2019-04-17T02:44:44Z</time>
      </trkpt>
      <trkpt lat="45.13578" lon="3.397">
        <ele>548</ele>
        <time>2019-04-17T02:45:44Z</time>
      </trkpt>
      <trkpt lat="45.13559" lon="3.39696">
        <ele>551</ele>
        <time>2019-04-17T02:46:44Z</time>
      </trkpt>
      <trkpt lat="45.13551" lon="3.39672">
        <ele>550</ele>
        <time>2019-04-17T02:47:44Z</time>
      </trkpt>
      <trkpt lat="45.13556" lon="3.39639">
        <ele>549</ele>
        <time>2019-04-17T02:48:44Z</time>
      </trkpt>
      <trkpt lat="45.13567" lon="3.39609">
        <ele>547</ele>
        <time>2019-04-17T02:49:44Z</time>
      </trkpt>
      <trkpt lat="45.13569" lon="3.39575">
        <ele>548</ele>
        <time>2019-04-17T02:50:44Z</time>
      </trkpt>
      <trkpt lat="45.13556" lon="3.39519">
        <ele>550</ele>
        <time>2019-04-17T02:51:44Z</time>
      </trkpt>
      <trkpt lat="45.13542" lon="3.39476">
        <ele>550</ele>
        <time>2019-04-17T02:52:44Z</time>
      </trkpt>
      <trkpt lat="45.13518" lon="3.3944">
        <ele>553</ele>
        <time>2019-04-17T02:53:44Z</time>
      </trkpt>
      <trkpt lat="45.13474" lon="3.39399">
        <ele>562</ele>
        <time>2019-04-17T02:54:44Z</time>
      </trkpt>
      <trkpt lat="45.13466" lon="3.39373">
        <ele>563</ele>
        <time>2019-04-17T02:55:44Z</time>
      </trkpt>
      <trkpt lat="45.13463" lon="3.39326">
        <ele>560</ele>
        <time>2019-04-17T02:56:44Z</time>
      </trkpt>
      <trkpt lat="45.13441" lon="3.39265">
        <ele>565</ele>
        <time>2019-04-17T02:57:44Z</time>
      </trkpt>
      <trkpt lat="45.13412" lon="3.39198">
        <ele>567</ele>
        <time>2019-04-17T02:58:44Z</time>
      </trkpt>
      <trkpt lat="45.13387" lon="3.39133">
        <ele>564</ele>
        <time>2019-04-17T02:59:44Z</time>
      </trkpt>
      <trkpt lat="45.13359" lon="3.39107">
        <ele>567</ele>
        <time>2019-04-17T03:00:44Z</time>
      </trkpt>
      <trkpt lat="45.1332" lon="3.39094">
        <ele>571</ele>
        <time>2019-04-17T03:01:44Z</time>
      </trkpt>
      <trkpt lat="45.13295" lon="3.39099">
        <ele>571</ele>
        <time>2019-04-17T03:02:44Z</time>
      </trkpt>
      <trkpt lat="45.13261" lon="3.39158">
        <ele>579</ele>
        <time>2019-04-17T03:03:44Z</time>
      </trkpt>
      <trkpt lat="45.13235" lon="3.39206">
        <ele>590</ele>
        <time>2019-04-17T03:04:44Z</time>
      </trkpt>
      <trkpt lat="45.13183" lon="3.39248">
        <ele>594</ele>
        <time>2019-04-17T03:05:44Z</time>
      </trkpt>
      <trkpt lat="45.13165" lon="3.39245">
        <ele>594</ele>
        <time>2019-04-17T03:06:44Z</time>
      </trkpt>
      <trkpt lat="45.13152" lon="3.39224">
        <ele>599</ele>
        <time>2019-04-17T03:07:44Z</time>
      </trkpt>
      <trkpt lat="45.13152" lon="3.39194">
        <ele>599</ele>
        <time>2019-04-17T03:08:44Z</time>
      </trkpt>
      <trkpt lat="45.13166" lon="3.39151">
        <ele>592</ele>
        <time>2019-04-17T03:09:44Z</time>
      </trkpt>
      <trkpt lat="45.13171" lon="3.39125">
        <ele>589</ele>
        <time>2019-04-17T03:10:44Z</time>
      </trkpt>
      <trkpt lat="45.13167" lon="3.39098">
        <ele>589</ele>
        <time>2019-04-17T03:11:44Z</time>
      </trkpt>
      <trkpt lat="45.13157" lon="3.3908">
        <ele>590</ele>
        <time>2019-04-17T03:12:44Z</time>
      </trkpt>
      <trkpt lat="45.13148" lon="3.39071">
        <ele>590</ele>
        <time>2019-04-17T03:13:44Z</time>
      </trkpt>
      <trkpt lat="45.1312" lon="3.39049">
        <ele>591</ele>
        <time>2019-04-17T03:14:44Z</time>
      </trkpt>
      <trkpt lat="45.13096" lon="3.3904">
        <ele>593</ele>
        <time>2019-04-17T03:15:44Z</time>
      </trkpt>
      <trkpt lat="45.13048" lon="3.39038">
        <ele>597</ele>
        <time>2019-04-17T03:16:44Z</time>
      </trkpt>
      <trkpt lat="45.13013" lon="3.39048">
        <ele>602</ele>
        <time>2019-04-17T03:17:44Z</time>
      </trkpt>
      <trkpt lat="45.12869" lon="3.39125">
        <ele>622</ele>
        <time>2019-04-17T03:18:44Z</time>
      </trkpt>
      <trkpt lat="45.12852" lon="3.39128">
        <ele>623</ele>
        <time>2019-04-17T03:19:44Z</time>
      </trkpt>
      <trkpt lat="45.12821" lon="3.39118">
        <ele>624</ele>
        <time>2019-04-17T03:20:44Z</time>
      </trkpt>
      <trkpt lat="45.12791" lon="3.39091">
        <ele>623</ele>
        <time>2019-04-17T03:21:44Z</time>
      </trkpt>
      <trkpt lat="45.12775" lon="3.39069">
        <ele>625</ele>
        <time>2019-04-17T03:22:44Z</time>
      </trkpt>
      <trkpt lat="45.12772" lon="3.39036">
        <ele>629</ele>
        <time>2019-04-17T03:23:44Z</time>
      </trkpt>
      <trkpt lat="45.12782" lon="3.39015">
        <ele>628</ele>
        <time>2019-04-17T03:24:44Z</time>
      </trkpt>
      <trkpt lat="45.12806" lon="3.39004">
        <ele>624</ele>
        <time>2019-04-17T03:25:44Z</time>
      </trkpt>
      <trkpt lat="45.12829" lon="3.38986">
        <ele>621</ele>
        <time>2019-04-17T03:26:44Z</time>
      </trkpt>
      <trkpt lat="45.12836" lon="3.38952">
        <ele>623</ele>
        <time>2019-04-17T03:27:44Z</time>
      </trkpt>
      <trkpt lat="45.12829" lon="3.38909">
        <ele>628</ele>
        <time>2019-04-17T03:28:44Z</time>
      </trkpt>
      <trkpt lat="45.12803" lon="3.38841">
        <ele>629</ele>
        <time>2019-04-17T03:29:44Z</time>
      </trkpt>
      <trkpt lat="45.12772" lon="3.38803">
        <ele>631</ele>
        <time>2019-04-17T03:30:44Z</time>
      </trkpt>
      <trkpt lat="45.12722" lon="3.38781">
        <ele>634</ele>
        <time>2019-04-17T03:31:44Z</time>
      </trkpt>
      <trkpt lat="45.12635" lon="3.38773">
        <ele>641</ele>
        <time>2019-04-17T03:32:44Z</time>
      </trkpt>
      <trkpt lat="45.12601" lon="3.38777">
        <ele>643</ele>
        <time>2019-04-17T03:33:44Z</time>
      </trkpt>
      <trkpt lat="45.12496" lon="3.38842">
        <ele>653</ele>
        <time>2019-04-17T03:34:44Z</time>
      </trkpt>
      <trkpt lat="45.12433" lon="3.38879">
        <ele>664</ele>
        <time>2019-04-17T03:35:44Z</time>
      </trkpt>
      <trkpt lat="45.12412" lon="3.38874">
        <ele>666</ele>
        <time>2019-04-17T03:36:44Z</time>
      </trkpt>
      <trkpt lat="45.12401" lon="3.38859">
        <ele>666</ele>
        <time>2019-04-17T03:37:44Z</time>
      </trkpt>
      <trkpt lat="45.124" lon="3.38823">
        <ele>661</ele>
        <time>2019-04-17T03:38:44Z</time>
      </trkpt>
      <trkpt lat="45.12389" lon="3.38794">
        <ele>659</ele>
        <time>2019-04-17T03:39:44Z</time>
      </trkpt>
      <trkpt lat="45.12366" lon="3.38777">
        <ele>660</ele>
        <time>2019-04-17T03:40:44Z</time>
      </trkpt>
      <trkpt lat="45.12333" lon="3.3877">
        <ele>663</ele>
        <time>2019-04-17T03:41:44Z</time>
      </trkpt>
      <trkpt lat="45.12289" lon="3.38785">
        <ele>671</ele>
        <time>2019-04-17T03:42:44Z</time>
      </trkpt>
      <trkpt lat="45.12248" lon="3.38804">
        <ele>679</ele>
        <time>2019-04-17T03:43:44Z</time>
      </trkpt>
      <trkpt lat="45.12226" lon="3.38806">
        <ele>686</ele>
        <time>2019-04-17T03:44:44Z</time>
      </trkpt>
      <trkpt lat="45.12208" lon="3.38797">
        <ele>689</ele>
        <time>2019-04-17T03:45:44Z</time>
      </trkpt>
      <trkpt lat="45.12201" lon="3.38785">
        <ele>688</ele>
        <time>2019-04-17T03:46:44Z</time>
      </trkpt>
      <trkpt lat="45.12193" lon="3.38751">
        <ele>684</ele>
        <time>2019-04-17T03:47:44Z</time>
      </trkpt>
      <trkpt lat="45.12178" lon="3.38716">
        <ele>679</ele>
        <time>2019-04-17T03:48:44Z</time>
      </trkpt>
      <trkpt lat="45.12121" lon="3.38678">
        <ele>678</ele>
        <time>2019-04-17T03:49:44Z</time>
      </trkpt>
      <trkpt lat="45.12076" lon="3.38673">
        <ele>684</ele>
        <time>2019-04-17T03:50:44Z</time>
      </trkpt>
      <trkpt lat="45.12036" lon="3.38674">
        <ele>695</ele>
        <time>2019-04-17T03:51:44Z</time>
      </trkpt>
      <trkpt lat="45.12025" lon="3.38665">
        <ele>696</ele>
        <time>2019-04-17T03:52:44Z</time>
      </trkpt>
      <trkpt lat="45.12015" lon="3.38624">
        <ele>694</ele>
        <time>2019-04-17T03:53:44Z</time>
      </trkpt>
      <trkpt lat="45.11992" lon="3.38579">
        <ele>697</ele>
        <time>2019-04-17T03:54:44Z</time>
      </trkpt>
      <trkpt lat="45.11945" lon="3.38482">
        <ele>701</ele>
        <time>2019-04-17T03:55:44Z</time>
      </trkpt>
      <trkpt lat="45.11923" lon="3.38412">
        <ele>702</ele>
        <time>2019-04-17T03:56:44Z</time>
      </trkpt>
      <trkpt lat="45.11903" lon="3.38364">
        <ele>704</ele>
        <time>2019-04-17T03:57:44Z</time>
      </trkpt>
      <trkpt lat="45.11875" lon="3.38337">
        <ele>708</ele>
        <time>2019-04-17T03:58:44Z</time>
      </trkpt>
      <trkpt lat="45.11864" lon="3.38317">
        <ele>712</ele>
        <time>2019-04-17T03:59:44Z</time>
      </trkpt>
      <trkpt lat="45.11864" lon="3.38294">
        <ele>715</ele>
        <time>2019-04-17T04:00:44Z</time>
      </trkpt>
      <trkpt lat="45.11871" lon="3.38276">
        <ele>715</ele>
        <time>2019-04-17T04:01:44Z</time>
      </trkpt>
      <trkpt lat="45.11903" lon="3.38255">
        <ele>712</ele>
        <time>2019-04-17T04:02:44Z</time>
      </trkpt>
      <trkpt lat="45.1191" lon="3.38242">
        <ele>712</ele>
        <time>2019-04-17T04:03:44Z</time>
      </trkpt>
      <trkpt lat="45.11914" lon="3.38223">
        <ele>711</ele>
        <time>2019-04-17T04:04:44Z</time>
      </trkpt>
      <trkpt lat="45.1191" lon="3.38202">
        <ele>712</ele>
        <time>2019-04-17T04:05:44Z</time>
      </trkpt>
      <trkpt lat="45.11888" lon="3.38164">
        <ele>717</ele>
        <time>2019-04-17T04:06:44Z</time>
      </trkpt>
      <trkpt lat="45.11885" lon="3.38143">
        <ele>716</ele>
        <time>2019-04-17T04:07:44Z</time>
      </trkpt>
      <trkpt lat="45.11889" lon="3.38126">
        <ele>715</ele>
        <time>2019-04-17T04:08:44Z</time>
      </trkpt>
      <trkpt lat="45.11906" lon="3.38095">
        <ele>710</ele>
        <time>2019-04-17T04:09:44Z</time>
      </trkpt>
      <trkpt lat="45.11907" lon="3.38074">
        <ele>710</ele>
        <time>2019-04-17T04:10:44Z</time>
      </trkpt>
      <trkpt lat="45.11892" lon="3.37979">
        <ele>711</ele>
        <time>2019-04-17T04:11:44Z</time>
      </trkpt>
      <trkpt lat="45.11883" lon="3.37958">
        <ele>712</ele>
        <time>2019-04-17T04:12:44Z</time>
      </trkpt>
      <trkpt lat="45.11867" lon="3.37946">
        <ele>713</ele>
        <time>2019-04-17T04:13:44Z</time>
      </trkpt>
      <trkpt lat="45.1185" lon="3.37947">
        <ele>714</ele>
        <time>2019-04-17T04:14:44Z</time>
      </trkpt>
      <trkpt lat="45.11836" lon="3.37957">
        <ele>716</ele>
        <time>2019-04-17T04:15:44Z</time>
      </trkpt>
      <trkpt lat="45.11826" lon="3.37976">
        <ele>717</ele>
        <time>2019-04-17T04:16:44Z</time>
      </trkpt>
      <trkpt lat="45.11818" lon="3.3802">
        <ele>720</ele>
        <time>2019-04-17T04:17:44Z</time>
      </trkpt>
      <trkpt lat="45.11807" lon="3.38042">
        <ele>722</ele>
        <time>2019-04-17T04:18:44Z</time>
      </trkpt>
      <trkpt lat="45.11792" lon="3.38055">
        <ele>724</ele>
        <time>2019-04-17T04:19:44Z</time>
      </trkpt>
      <trkpt lat="45.11771" lon="3.38058">
        <ele>726</ele>
        <time>2019-04-17T04:20:44Z</time>
      </trkpt>
      <trkpt lat="45.11722" lon="3.38051">
        <ele>728</ele>
        <time>2019-04-17T04:21:44Z</time>
      </trkpt>
      <trkpt lat="45.11636" lon="3.38032">
        <ele>727</ele>
        <time>2019-04-17T04:22:44Z</time>
      </trkpt>
      <trkpt lat="45.11607" lon="3.38031">
        <ele>727</ele>
        <time>2019-04-17T04:23:44Z</time>
      </trkpt>
      <trkpt lat="45.11593" lon="3.3804">
        <ele>729</ele>
        <time>2019-04-17T04:24:44Z</time>
      </trkpt>
      <trkpt lat="45.11585" lon="3.38061">
        <ele>733</ele>
        <time>2019-04-17T04:25:44Z</time>
      </trkpt>
      <trkpt lat="45.11574" lon="3.38082">
        <ele>738</ele>
        <time>2019-04-17T04:26:44Z</time>
      </trkpt>
      <trkpt lat="45.11555" lon="3.381">
        <ele>741</ele>
        <time>2019-04-17T04:27:44Z</time>
      </trkpt>
      <trkpt lat="45.11534" lon="3.38111">
        <ele>743</ele>
        <time>2019-04-17T04:28:44Z</time>
      </trkpt>
      <trkpt lat="45.11504" lon="3.38117">
        <ele>745</ele>
        <time>2019-04-17T04:29:44Z</time>
      </trkpt>
      <trkpt lat="45.11478" lon="3.38113">
        <ele>748</ele>
        <time>2019-04-17T04:30:44Z</time>
      </trkpt>
      <trkpt lat="45.11394" lon="3.38046">
        <ele>749</ele>
        <time>2019-04-17T04:31:44Z</time>
      </trkpt>
      <trkpt lat="45.11368" lon="3.38031">
        <ele>749</ele>
        <time>2019-04-17T04:32:44Z</time>
      </trkpt>
      <trkpt lat="45.11332" lon="3.38022">
        <ele>753</ele>
        <time>2019-04-17T04:33:44Z</time>
      </trkpt>
      <trkpt lat="45.11314" lon="3.38004">
        <ele>753</ele>
        <time>2019-04-17T04:34:44Z</time>
      </trkpt>
      <trkpt lat="45.11297" lon="3.37979">
        <ele>753</ele>
        <time>2019-04-17T04:35:44Z</time>
      </trkpt>
      <trkpt lat="45.11276" lon="3.37958">
        <ele>753</ele>
        <time>2019-04-17T04:36:44Z</time>
      </trkpt>
      <trkpt lat="45.11243" lon="3.37935">
        <ele>756</ele>
        <time>2019-04-17T04:37:44Z</time>
      </trkpt>
      <trkpt lat="45.11177" lon="3.37908">
        <ele>765</ele>
        <time>2019-04-17T04:38:44Z</time>
      </trkpt>
      <trkpt lat="45.11164" lon="3.37892">
        <ele>765</ele>
        <time>2019-04-17T04:39:44Z</time>
      </trkpt>
      <trkpt lat="45.11159" lon="3.37867">
        <ele>761</ele>
        <time>2019-04-17T04:40:44Z</time>
      </trkpt>
      <trkpt lat="45.11148" lon="3.37845">
        <ele>759</ele>
        <time>2019-04-17T04:41:44Z</time>
      </trkpt>
      <trkpt lat="45.11125" lon="3.37826">
        <ele>760</ele>
        <time>2019-04-17T04:42:44Z</time>
      </trkpt>
      <trkpt lat="45.11103" lon="3.37814">
        <ele>763</ele>
        <time>2019-04-17T04:43:44Z</time>
      </trkpt>
      <trkpt lat="45.11071" lon="3.37806">
        <ele>769</ele>
        <time>2019-04-17T04:44:44Z</time>
      </trkpt>
      <trkpt lat="45.11058" lon="3.37786">
        <ele>770</ele>
        <time>2019-04-17T04:45:44Z</time>
      </trkpt>
      <trkpt lat="45.11052" lon="3.37733">
        <ele>770</ele>
        <time>2019-04-17T04:46:44Z</time>
      </trkpt>
      <trkpt lat="45.11047" lon="3.37677">
        <ele>770</ele>
        <time>2019-04-17T04:47:44Z</time>
      </trkpt>
      <trkpt lat="45.11038" lon="3.37645">
        <ele>771</ele>
        <time>2019-04-17T04:48:44Z</time>
      </trkpt>
      <trkpt lat="45.11006" lon="3.3762">
        <ele>779</ele>
        <time>2019-04-17T04:49:44Z</time>
      </trkpt>
      <trkpt lat="45.10969" lon="3.3758">
        <ele>783</ele>
        <time>2019-04-17T04:50:44Z</time>
      </trkpt>
      <trkpt lat="45.10924" lon="3.37514">
        <ele>785</ele>
        <time>2019-04-17T04:51:44Z</time>
      </trkpt>
      <trkpt lat="45.10892" lon="3.37452">
        <ele>784</ele>
        <time>2019-04-17T04:52:44Z</time>
      </trkpt>
      <trkpt lat="45.10873" lon="3.37403">
        <ele>784</ele>
        <time>2019-04-17T04:53:44Z</time>
      </trkpt>
      <trkpt lat="45.10889" lon="3.37385">
        <ele>785</ele>
        <time>2019-04-17T04:54:44Z</time>
      </trkpt>
      <trkpt lat="45.10898" lon="3.37369">
        <ele>786</ele>
        <time>2019-04-17T04:55:44Z</time>
      </trkpt>
      <trkpt lat="45.10901" lon="3.37355">
        <ele>788</ele>
        <time>2019-04-17T04:56:44Z</time>
      </trkpt>
      <trkpt lat="45.10898" lon="3.37339">
        <ele>788</ele>
        <time>2019-04-17T04:57:44Z</time>
      </trkpt>
      <trkpt lat="45.1088" lon="3.37303">
        <ele>794</ele>
        <time>2019-04-17T04:58:44Z</time>
      </trkpt>
      <trkpt lat="45.10831" lon="3.37219">
        <ele>807</ele>
        <time>2019-04-17T04:59:44Z</time>
      </trkpt>
      <trkpt lat="45.10797" lon="3.3718">
        <ele>809</ele>
        <time>2019-04-17T05:00:44Z</time>
      </trkpt>
      <trkpt lat="45.1077" lon="3.37155">
        <ele>808</ele>
        <time>2019-04-17T05:01:44Z</time>
      </trkpt>
      <trkpt lat="45.10757" lon="3.37138">
        <ele>808</ele>
        <time>2019-04-17T05:02:44Z</time>
      </trkpt>
      <trkpt lat="45.10748" lon="3.37116">
        <ele>809</ele>
        <time>2019-04-17T05:03:44Z</time>
      </trkpt>
      <trkpt lat="45.10751" lon="3.37084">
        <ele>814</ele>
        <time>2019-04-17T05:04:44Z</time>
      </trkpt>
      <trkpt lat="45.10771" lon="3.37032">
        <ele>822</ele>
        <time>2019-04-17T05:05:44Z</time>
      </trkpt>
      <trkpt lat="45.10792" lon="3.36992">
        <ele>829</ele>
        <time>2019-04-17T05:06:44Z</time>
      </trkpt>
      <trkpt lat="45.10797" lon="3.36961">
        <ele>833</ele>
        <time>2019-04-17T05:07:44Z</time>
      </trkpt>
      <trkpt lat="45.10787" lon="3.36927">
        <ele>835</ele>
        <time>2019-04-17T05:08:44Z</time>
      </trkpt>
      <trkpt lat="45.10763" lon="3.36889">
        <ele>836</ele>
        <time>2019-04-17T05:09:44Z</time>
      </trkpt>
      <trkpt lat="45.10744" lon="3.36848">
        <ele>839</ele>
        <time>2019-04-17T05:10:44Z</time>
      </trkpt>
      <trkpt lat="45.10722" lon="3.36746">
        <ele>852</ele>
        <time>2019-04-17T05:11:44Z</time>
      </trkpt>
      <trkpt lat="45.1071" lon="3.36726">
        <ele>854</ele>
        <time>2019-04-17T05:12:44Z</time>
      </trkpt>
      <trkpt lat="45.10698" lon="3.36708">
        <ele>856</ele>
        <time>2019-04-17T05:13:44Z</time>
      </trkpt>
      <trkpt lat="45.10667" lon="3.367">
        <ele>852</ele>
        <time>2019-04-17T05:14:44Z</time>
      </trkpt>
      <trkpt lat="45.10564" lon="3.36602">
        <ele>862</ele>
        <time>2019-04-17T05:15:44Z</time>
      </trkpt>
      <trkpt lat="45.10537" lon="3.36554">
        <ele>865</ele>
        <time>2019-04-17T05:16:44Z</time>
      </trkpt>
      <trkpt lat="45.10522" lon="3.36484">
        <ele>874</ele>
        <time>2019-04-17T05:17:44Z</time>
      </trkpt>
      <trkpt lat="45.10485" lon="3.36426">
        <ele>881</ele>
        <time>2019-04-17T05:18:44Z</time>
      </trkpt>
      <trkpt lat="45.10449" lon="3.36383">
        <ele>884</ele>
        <time>2019-04-17T05:19:44Z</time>
      </trkpt>
      <trkpt lat="45.10429" lon="3.36308">
        <ele>890</ele>
        <time>2019-04-17T05:20:44Z</time>
      </trkpt>
      <trkpt lat="45.1042" lon="3.36247">
        <ele>892</ele>
        <time>2019-04-17T05:21:44Z</time>
      </trkpt>
      <trkpt lat="45.10418" lon="3.36197">
        <ele>899</ele>
        <time>2019-04-17T05:22:44Z</time>
      </trkpt>
      <trkpt lat="45.10427" lon="3.36156">
        <ele>903</ele>
        <time>2019-04-17T05:23:44Z</time>
      </trkpt>
      <trkpt lat="45.10458" lon="3.36079">
        <ele>906</ele>
        <time>2019-04-17T05:24:44Z</time>
      </trkpt>
      <trkpt lat="45.10462" lon="3.36057">
        <ele>907</ele>
        <time>2019-04-17T05:25:44Z</time>
      </trkpt>
      <trkpt lat="45.10462" lon="3.36031">
        <ele>908</ele>
        <time>2019-04-17T05:26:44Z</time>
      </trkpt>
      <trkpt lat="45.10456" lon="3.35993">
        <ele>910</ele>
        <time>2019-04-17T05:27:44Z</time>
      </trkpt>
      <trkpt lat="45.10398" lon="3.35857">
        <ele>918</ele>
        <time>2019-04-17T05:28:44Z</time>
      </trkpt>
      <trkpt lat="45.10369" lon="3.35815">
        <ele>920</ele>
        <time>2019-04-17T05:29:44Z</time>
      </trkpt>
      <trkpt lat="45.10336" lon="3.3578">
        <ele>923</ele>
        <time>2019-04-17T05:30:44Z</time>
      </trkpt>
      <trkpt lat="45.10315" lon="3.35752">
        <ele>925</ele>
        <time>2019-04-17T05:31:44Z</time>
      </trkpt>
      <trkpt lat="45.10304" lon="3.35723">
        <ele>928</ele>
        <time>2019-04-17T05:32:44Z</time>
      </trkpt>
      <trkpt lat="45.103" lon="3.35545">
        <ele>939</ele>
        <time>2019-04-17T05:33:44Z</time>
      </trkpt>
      <trkpt lat="45.10294" lon="3.35476">
        <ele>939</ele>
        <time>2019-04-17T05:34:44Z</time>
      </trkpt>
      <trkpt lat="45.10283" lon="3.3541">
        <ele>936</ele>
        <time>2019-04-17T05:35:44Z</time>
      </trkpt>
      <trkpt lat="45.1027" lon="3.35356">
        <ele>933</ele>
        <time>2019-04-17T05:36:44Z</time>
      </trkpt>
      <trkpt lat="45.10257" lon="3.35331">
        <ele>931</ele>
        <time>2019-04-17T05:37:44Z</time>
      </trkpt>
      <trkpt lat="45.10228" lon="3.35315">
        <ele>932</ele>
        <time>2019-04-17T05:38:44Z</time>
      </trkpt>
      <trkpt lat="45.1021" lon="3.353">
        <ele>934</ele>
        <time>2019-04-17T05:39:44Z</time>
      </trkpt>
      <trkpt lat="45.10202" lon="3.35289">
        <ele>934</ele>
        <time>2019-04-17T05:40:44Z</time>
      </trkpt>
      <trkpt lat="45.10198" lon="3.35273">
        <ele>935</ele>
        <time>2019-04-17T05:41:44Z</time>
      </trkpt>
      <trkpt lat="45.10196" lon="3.35243">
        <ele>936</ele>
        <time>2019-04-17T05:42:44Z</time>
      </trkpt>
      <trkpt lat="45.10198" lon="3.3518">
        <ele>936</ele>
        <time>2019-04-17T05:43:44Z</time>
      </trkpt>
      <trkpt lat="45.10204" lon="3.35105">
        <ele>935</ele>
        <time>2019-04-17T05:44:44Z</time>
      </trkpt>
      <trkpt lat="45.10219" lon="3.3503">
        <ele>936</ele>
        <time>2019-04-17T05:45:44Z</time>
      </trkpt>
      <trkpt lat="45.10253" lon="3.34921">
        <ele>939</ele>
        <time>2019-04-17T05:46:44Z</time>
      </trkpt>
      <trkpt lat="45.10396" lon="3.34545">
        <ele>949</ele>
        <time>2019-04-17T05:47:44Z</time>
      </trkpt>
      <trkpt lat="45.10401" lon="3.34513">
        <ele>949</ele>
        <time>2019-04-17T05:48:44Z</time>
      </trkpt>
      <trkpt lat="45.10417" lon="3.34362">
        <ele>952</ele>
        <time>2019-04-17T05:49:44Z</time>
      </trkpt>
      <trkpt lat="45.10419" lon="3.3431">
        <ele>953</ele>
        <time>2019-04-17T05:50:44Z</time>
      </trkpt>
      <trkpt lat="45.10411" lon="3.34264">
        <ele>955</ele>
        <time>2019-04-17T05:51:44Z</time>
      </trkpt>
      <trkpt lat="45.10385" lon="3.34152">
        <ele>961</ele>
        <time>2019-04-17T05:52:44Z</time>
      </trkpt>
      <trkpt lat="45.10352" lon="3.3403">
        <ele>961</ele>
        <time>2019-04-17T05:53:44Z</time>
      </trkpt>
      <trkpt lat="45.10325" lon="3.33946">
        <ele>962</ele>
        <time>2019-04-17T05:54:44Z</time>
      </trkpt>
      <trkpt lat="45.10273" lon="3.33829">
        <ele>965</ele>
        <time>2019-04-17T05:55:44Z</time>
      </trkpt>
      <trkpt lat="45.10272" lon="3.33806">
        <ele>966</ele>
        <time>2019-04-17T05:56:44Z</time>
      </trkpt>
      <trkpt lat="45.1028" lon="3.33779">
        <ele>968</ele>
        <time>2019-04-17T05:57:44Z</time>
      </trkpt>
      <trkpt lat="45.10316" lon="3.33744">
        <ele>970</ele>
        <time>2019-04-17T05:58:44Z</time>
      </trkpt>
      <trkpt lat="45.10354" lon="3.33713">
        <ele>970</ele>
        <time>2019-04-17T05:59:44Z</time>
      </trkpt>
      <trkpt lat="45.10376" lon="3.33682">
        <ele>971</ele>
        <time>2019-04-17T06:00:44Z</time>
      </trkpt>
      <trkpt lat="45.10399" lon="3.33636">
        <ele>973</ele>
        <time>2019-04-17T06:01:44Z</time>
      </trkpt>
      <trkpt lat="45.10414" lon="3.33616">
        <ele>974</ele>
        <time>2019-04-17T06:02:44Z</time>
      </trkpt>
      <trkpt lat="45.10436" lon="3.33593">
        <ele>973</ele>
        <time>2019-04-17T06:03:44Z</time>
      </trkpt>
      <trkpt lat="45.10441" lon="3.33562">
        <ele>975</ele>
        <time>2019-04-17T06:04:44Z</time>
      </trkpt>
      <trkpt lat="45.10444" lon="3.33536">
        <ele>976</ele>
        <time>2019-04-17T06:05:44Z</time>
      </trkpt>
      <trkpt lat="45.10452" lon="3.33488">
        <ele>977</ele>
        <time>2019-04-17T06:06:44Z</time>
      </trkpt>
      <trkpt lat="45.10469" lon="3.33442">
        <ele>977</ele>
        <time>2019-04-17T06:07:44Z</time>
      </trkpt>
      <trkpt lat="45.10491" lon="3.33415">
        <ele>977</ele>
        <time>2019-04-17T06:08:44Z</time>
      </trkpt>
      <trkpt lat="45.10512" lon="3.33371">
        <ele>980</ele>
        <time>2019-04-17T06:09:44Z</time>
      </trkpt>
      <trkpt lat="45.10529" lon="3.33315">
        <ele>985</ele>
        <time>2019-04-17T06:10:44Z</time>
      </trkpt>
      <trkpt lat="45.1053" lon="3.33273">
        <ele>989</ele>
        <time>2019-04-17T06:11:44Z</time>
      </trkpt>
      <trkpt lat="45.10522" lon="3.33157">
        <ele>998</ele>
        <time>2019-04-17T06:12:44Z</time>
      </trkpt>
      <trkpt lat="45.10515" lon="3.33114">
        <ele>1000</ele>
        <time>2019-04-17T06:13:44Z</time>
      </trkpt>
      <trkpt lat="45.10482" lon="3.32957">
        <ele>1006</ele>
        <time>2019-04-17T06:14:44Z</time>
      </trkpt>
      <trkpt lat="45.10477" lon="3.3292">
        <ele>1007</ele>
        <time>2019-04-17T06:15:44Z</time>
      </trkpt>
      <trkpt lat="45.10468" lon="3.32564">
        <ele>1011</ele>
        <time>2019-04-17T06:16:44Z</time>
      </trkpt>
      <trkpt lat="45.10468" lon="3.32498">
        <ele>1010</ele>
        <time>2019-04-17T06:17:44Z</time>
      </trkpt>
      <trkpt lat="45.10473" lon="3.3244">
        <ele>1010</ele>
        <time>2019-04-17T06:18:44Z</time>
      </trkpt>
      <trkpt lat="45.10516" lon="3.32046">
        <ele>1000</ele>
        <time>2019-04-17T06:19:44Z</time>
      </trkpt>
      <trkpt lat="45.10529" lon="3.31997">
        <ele>999</ele>
        <time>2019-04-17T06:20:44Z</time>
      </trkpt>
      <trkpt lat="45.1056" lon="3.31831">
        <ele>995</ele>
        <time>2019-04-17T06:21:44Z</time>
      </trkpt>
      <trkpt lat="45.10568" lon="3.31794">
        <ele>996</ele>
        <time>2019-04-17T06:22:44Z</time>
      </trkpt>
      <trkpt lat="45.10582" lon="3.31771">
        <ele>998</ele>
        <time>2019-04-17T06:23:44Z</time>
      </trkpt>
      <trkpt lat="45.10609" lon="3.31757">
        <ele>1001</ele>
        <time>2019-04-17T06:24:44Z</time>
      </trkpt>
      <trkpt lat="45.10703" lon="3.31733">
        <ele>1008</ele>
        <time>2019-04-17T06:25:44Z</time>
      </trkpt>
      <trkpt lat="45.10718" lon="3.31726">
        <ele>1009</ele>
        <time>2019-04-17T06:26:44Z</time>
      </trkpt>
      <trkpt lat="45.10758" lon="3.31701">
        <ele>1012</ele>
        <time>2019-04-17T06:27:44Z</time>
      </trkpt>
      <trkpt lat="45.10847" lon="3.31615">
        <ele>1014</ele>
        <time>2019-04-17T06:28:44Z</time>
      </trkpt>
      <trkpt lat="45.1087" lon="3.31601">
        <ele>1015</ele>
        <time>2019-04-17T06:29:44Z</time>
      </trkpt>
      <trkpt lat="45.10926" lon="3.31586">
        <ele>1016</ele>
        <time>2019-04-17T06:30:44Z</time>
      </trkpt>
      <trkpt lat="45.10936" lon="3.31578">
        <ele>1016</ele>
        <time>2019-04-17T06:31:44Z</time>
      </trkpt>
      <trkpt lat="45.10945" lon="3.31564">
        <ele>1017</ele>
        <time>2019-04-17T06:32:44Z</time>
      </trkpt>
      <trkpt lat="45.10955" lon="3.31531">
        <ele>1020</ele>
        <time>2019-04-17T06:33:44Z</time>
      </trkpt>
      <trkpt lat="45.10957" lon="3.31506">
        <ele>1022</ele>
        <time>2019-04-17T06:34:44Z</time>
      </trkpt>
      <trkpt lat="45.10955" lon="3.31459">
        <ele>1025</ele>
        <time>2019-04-17T06:35:44Z</time>
      </trkpt>
      <trkpt lat="45.1095" lon="3.31437">
        <ele>1026</ele>
        <time>2019-04-17T06:36:44Z</time>
      </trkpt>
      <trkpt lat="45.10879" lon="3.31257">
        <ele>1037</ele>
        <time>2019-04-17T06:37:44Z</time>
      </trkpt>
      <trkpt lat="45.1087" lon="3.31218">
        <ele>1040</ele>
        <time>2019-04-17T06:38:44Z</time>
      </trkpt>
      <trkpt lat="45.10856" lon="3.31061">
        <ele>1048</ele>
        <time>2019-04-17T06:39:44Z</time>
      </trkpt>
      <trkpt lat="45.10856" lon="3.31011">
        <ele>1050</ele>
        <time>2019-04-17T06:40:44Z</time>
      </trkpt>
      <trkpt lat="45.10861" lon="3.30949">
        <ele>1052</ele>
        <time>2019-04-17T06:41:44Z</time>
      </trkpt>
      <trkpt lat="45.10869" lon="3.30902">
        <ele>1053</ele>
        <time>2019-04-17T06:42:44Z</time>
      </trkpt>
      <trkpt lat="45.10877" lon="3.30868">
        <ele>1053</ele>
        <time>2019-04-17T06:43:44Z</time>
      </trkpt>
      <trkpt lat="45.10886" lon="3.308">
        <ele>1053</ele>
        <time>2019-04-17T06:44:44Z</time>
      </trkpt>
      <trkpt lat="45.1088" lon="3.30761">
        <ele>1054</ele>
        <time>2019-04-17T06:45:44Z</time>
      </trkpt>
      <trkpt lat="45.10854" lon="3.30695">
        <ele>1056</ele>
        <time>2019-04-17T06:46:44Z</time>
      </trkpt>
      <trkpt lat="45.10851" lon="3.30681">
        <ele>1057</ele>
        <time>2019-04-17T06:47:44Z</time>
      </trkpt>
      <trkpt lat="45.1085" lon="3.3066">
        <ele>1057</ele>
        <time>2019-04-17T06:48:44Z</time>
      </trkpt>
      <trkpt lat="45.10855" lon="3.30611">
        <ele>1057</ele>
        <time>2019-04-17T06:49:44Z</time>
      </trkpt>
      <trkpt lat="45.10861" lon="3.30575">
        <ele>1057</ele>
        <time>2019-04-17T06:50:44Z</time>
      </trkpt>
      <trkpt lat="45.10879" lon="3.30524">
        <ele>1058</ele>
        <time>2019-04-17T06:51:44Z</time>
      </trkpt>
      <trkpt lat="45.10901" lon="3.3048">
        <ele>1058</ele>
        <time>2019-04-17T06:52:44Z</time>
      </trkpt>
      <trkpt lat="45.10951" lon="3.30391">
        <ele>1064</ele>
        <time>2019-04-17T06:53:44Z</time>
      </trkpt>
      <trkpt lat="45.10989" lon="3.30314">
        <ele>1069</ele>
        <time>2019-04-17T06:54:44Z</time>
      </trkpt>
      <trkpt lat="45.11001" lon="3.30268">
        <ele>1070</ele>
        <time>2019-04-17T06:55:44Z</time>
      </trkpt>
      <trkpt lat="45.11012" lon="3.30217">
        <ele>1070</ele>
        <time>2019-04-17T06:56:44Z</time>
      </trkpt>
      <trkpt lat="45.11024" lon="3.30148">
        <ele>1070</ele>
        <time>2019-04-17T06:57:44Z</time>
      </trkpt>
      <trkpt lat="45.11031" lon="3.3008">
        <ele>1072</ele>
        <time>2019-04-17T06:58:44Z</time>
      </trkpt>
      <trkpt lat="45.11036" lon="3.29883">
        <ele>1073</ele>
        <time>2019-04-17T06:59:44Z</time>
      </trkpt>
      <trkpt lat="45.11037" lon="3.29574">
        <ele>1077</ele>
        <time>2019-04-17T07:00:44Z</time>
      </trkpt>
      <trkpt lat="45.11043" lon="3.2955">
        <ele>1078</ele>
        <time>2019-04-17T07:01:44Z</time>
      </trkpt>
      <trkpt lat="45.11064" lon="3.29522">
        <ele>1078</ele>
        <time>2019-04-17T07:02:44Z</time>
      </trkpt>
      <trkpt lat="45.11084" lon="3.29487">
        <ele>1079</ele>
        <time>2019-04-17T07:03:44Z</time>
      </trkpt>
      <trkpt lat="45.11128" lon="3.2932">
        <ele>1082</ele>
        <time>2019-04-17T07:04:44Z</time>
      </trkpt>
      <trkpt lat="45.11267" lon="3.28917">
        <ele>1077</ele>
        <time>2019-04-17T07:05:44Z</time>
      </trkpt>
      <trkpt lat="45.11296" lon="3.28824">
        <ele>1074</ele>
        <time>2019-04-17T07:06:44Z</time>
      </trkpt>
      <trkpt lat="45.11332" lon="3.28641">
        <ele>1071</ele>
        <time>2019-04-17T07:07:44Z</time>
      </trkpt>
      <trkpt lat="45.11339" lon="3.28548">
        <ele>1068</ele>
        <time>2019-04-17T07:08:44Z</time>
      </trkpt>
      <trkpt lat="45.11332" lon="3.28487">
        <ele>1067</ele>
        <time>2019-04-17T07:09:44Z</time>
      </trkpt>
      <trkpt lat="45.11306" lon="3.28387">
        <ele>1063</ele>
        <time>2019-04-17T07:10:44Z</time>
      </trkpt>
      <trkpt lat="45.11299" lon="3.28352">
        <ele>1063</ele>
        <time>2019-04-17T07:11:44Z</time>
      </trkpt>
      <trkpt lat="45.11299" lon="3.28302">
        <ele>1061</ele>
        <time>2019-04-17T07:12:44Z</time>
      </trkpt>
      <trkpt lat="45.113" lon="3.28246">
        <ele>1058</ele>
        <time>2019-04-17T07:13:44Z</time>
      </trkpt>
      <trkpt lat="45.11305" lon="3.28206">
        <ele>1055</ele>
        <time>2019-04-17T07:14:44Z</time>
      </trkpt>
      <trkpt lat="45.11328" lon="3.28073">
        <ele>1048</ele>
        <time>2019-04-17T07:15:44Z</time>
      </trkpt>
      <trkpt lat="45.11339" lon="3.2802">
        <ele>1047</ele>
        <time>2019-04-17T07:16:44Z</time>
      </trkpt>
      <trkpt lat="45.11351" lon="3.27996">
        <ele>1046</ele>
        <time>2019-04-17T07:17:44Z</time>
      </trkpt>
      <trkpt lat="45.1137" lon="3.27975">
        <ele>1044</ele>
        <time>2019-04-17T07:18:44Z</time>
      </trkpt>
      <trkpt lat="45.11399" lon="3.27958">
        <ele>1043</ele>
        <time>2019-04-17T07:19:44Z</time>
      </trkpt>
      <trkpt lat="45.11421" lon="3.27957">
        <ele>1042</ele>
        <time>2019-04-17T07:20:44Z</time>
      </trkpt>
      <trkpt lat="45.11436" lon="3.27966">
        <ele>1040</ele>
        <time>2019-04-17T07:21:44Z</time>
      </trkpt>
      <trkpt lat="45.11448" lon="3.27984">
        <ele>1040</ele>
        <time>2019-04-17T07:22:44Z</time>
      </trkpt>
      <trkpt lat="45.1146" lon="3.28015">
        <ele>1040</ele>
        <time>2019-04-17T07:23:44Z</time>
      </trkpt>
      <trkpt lat="45.11471" lon="3.28038">
        <ele>1039</ele>
        <time>2019-04-17T07:24:44Z</time>
      </trkpt>
      <trkpt lat="45.1152" lon="3.28111">
        <ele>1037</ele>
        <time>2019-04-17T07:25:44Z</time>
      </trkpt>
      <trkpt lat="45.11537" lon="3.2813">
        <ele>1036</ele>
        <time>2019-04-17T07:26:44Z</time>
      </trkpt>
      <trkpt lat="45.11556" lon="3.28143">
        <ele>1035</ele>
        <time>2019-04-17T07:27:44Z</time>
      </trkpt>
      <trkpt lat="45.11577" lon="3.28144">
        <ele>1032</ele>
        <time>2019-04-17T07:28:44Z</time>
      </trkpt>
      <trkpt lat="45.11594" lon="3.28134">
        <ele>1032</ele>
        <time>2019-04-17T07:29:44Z</time>
      </trkpt>
      <trkpt lat="45.11606" lon="3.28118">
        <ele>1031</ele>
        <time>2019-04-17T07:30:44Z</time>
      </trkpt>
      <trkpt lat="45.11611" lon="3.28088">
        <ele>1030</ele>
        <time>2019-04-17T07:31:44Z</time>
      </trkpt>
      <trkpt lat="45.11611" lon="3.28046">
        <ele>1030</ele>
        <time>2019-04-17T07:32:44Z</time>
      </trkpt>
      <trkpt lat="45.11571" lon="3.27621">
        <ele>1046</ele>
        <time>2019-04-17T07:33:44Z</time>
      </trkpt>
      <trkpt lat="45.11561" lon="3.27537">
        <ele>1048</ele>
        <time>2019-04-17T07:34:44Z</time>
      </trkpt>
      <trkpt lat="45.11542" lon="3.2746">
        <ele>1050</ele>
        <time>2019-04-17T07:35:44Z</time>
      </trkpt>
      <trkpt lat="45.11494" lon="3.27365">
        <ele>1056</ele>
        <time>2019-04-17T07:36:44Z</time>
      </trkpt>
      <trkpt lat="45.11428" lon="3.27295">
        <ele>1058</ele>
        <time>2019-04-17T07:37:44Z</time>
      </trkpt>
      <trkpt lat="45.11361" lon="3.27234">
        <ele>1056</ele>
        <time>2019-04-17T07:38:44Z</time>
      </trkpt>
      <trkpt lat="45.11301" lon="3.27206">
        <ele>1054</ele>
        <time>2019-04-17T07:39:44Z</time>
      </trkpt>
      <trkpt lat="45.1123" lon="3.27181">
        <ele>1052</ele>
        <time>2019-04-17T07:40:44Z</time>
      </trkpt>
      <trkpt lat="45.10983" lon="3.26962">
        <ele>1038</ele>
        <time>2019-04-17T07:41:44Z</time>
      </trkpt>
      <trkpt lat="45.10922" lon="3.26896">
        <ele>1036</ele>
        <time>2019-04-17T07:42:44Z</time>
      </trkpt>
      <trkpt lat="45.11119" lon="3.26764">
        <ele>1045</ele>
        <time>2019-04-17T07:43:44Z</time>
      </trkpt>
      <trkpt lat="45.11197" lon="3.26704">
        <ele>1047</ele>
        <time>2019-04-17T07:44:44Z</time>
      </trkpt>
      <trkpt lat="45.113" lon="3.26639">
        <ele>1052</ele>
        <time>2019-04-17T07:45:44Z</time>
      </trkpt>
      <trkpt lat="45.11432" lon="3.26515">
        <ele>1056</ele>
        <time>2019-04-17T07:46:44Z</time>
      </trkpt>
      <trkpt lat="45.11454" lon="3.26472">
        <ele>1057</ele>
        <time>2019-04-17T07:47:44Z</time>
      </trkpt>
      <trkpt lat="45.11466" lon="3.26438">
        <ele>1058</ele>
        <time>2019-04-17T07:48:44Z</time>
      </trkpt>
      <trkpt lat="45.11503" lon="3.26293">
        <ele>1064</ele>
        <time>2019-04-17T07:49:44Z</time>
      </trkpt>
      <trkpt lat="45.11543" lon="3.26196">
        <ele>1067</ele>
        <time>2019-04-17T07:50:44Z</time>
      </trkpt>
      <trkpt lat="45.11571" lon="3.2612">
        <ele>1068</ele>
        <time>2019-04-17T07:51:44Z</time>
      </trkpt>
      <trkpt lat="45.11586" lon="3.26094">
        <ele>1068</ele>
        <time>2019-04-17T07:52:44Z</time>
      </trkpt>
      <trkpt lat="45.11646" lon="3.2602">
        <ele>1069</ele>
        <time>2019-04-17T07:53:44Z</time>
      </trkpt>
      <trkpt lat="45.1166" lon="3.2601">
        <ele>1069</ele>
        <time>2019-04-17T07:54:44Z</time>
      </trkpt>
      <trkpt lat="45.11758" lon="3.25994">
        <ele>1071</ele>
        <time>2019-04-17T07:55:44Z</time>
      </trkpt>
      <trkpt lat="45.11818" lon="3.25974">
        <ele>1070</ele>
        <time>2019-04-17T07:56:44Z</time>
      </trkpt>
      <trkpt lat="45.11879" lon="3.25937">
        <ele>1069</ele>
        <time>2019-04-17T07:57:44Z</time>
      </trkpt>
      <trkpt lat="45.11909" lon="3.25926">
        <ele>1069</ele>
        <time>2019-04-17T07:58:44Z</time>
      </trkpt>
      <trkpt lat="45.11927" lon="3.25916">
        <ele>1069</ele>
        <time>2019-04-17T07:59:44Z</time>
      </trkpt>
      <trkpt lat="45.11931" lon="3.25906">
        <ele>1069</ele>
        <time>2019-04-17T08:00:44Z</time>
      </trkpt>
      <trkpt lat="45.11929" lon="3.2589">
        <ele>1069</ele>
        <time>2019-04-17T08:01:44Z</time>
      </trkpt>
      <trkpt lat="45.1189" lon="3.2583">
        <ele>1066</ele>
        <time>2019-04-17T08:02:44Z</time>
      </trkpt>
      <trkpt lat="45.11862" lon="3.25766">
        <ele>1065</ele>
        <time>2019-04-17T08:03:44Z</time>
      </trkpt>
      <trkpt lat="45.11868" lon="3.25749">
        <ele>1065</ele>
        <time>2019-04-17T08:04:44Z</time>
      </trkpt>
      <trkpt lat="45.1193" lon="3.2569">
        <ele>1066</ele>
        <time>2019-04-17T08:05:44Z</time>
      </trkpt>
      <trkpt lat="45.1195" lon="3.25662">
        <ele>1066</ele>
        <time>2019-04-17T08:06:44Z</time>
      </trkpt>
      <trkpt lat="45.11973" lon="3.25653">
        <ele>1067</ele>
        <time>2019-04-17T08:07:44Z</time>
      </trkpt>
      <trkpt lat="45.12034" lon="3.25652">
        <ele>1069</ele>
        <time>2019-04-17T08:08:44Z</time>
      </trkpt>
      <trkpt lat="45.12075" lon="3.25643">
        <ele>1070</ele>
        <time>2019-04-17T08:09:44Z</time>
      </trkpt>
      <trkpt lat="45.12113" lon="3.25644">
        <ele>1072</ele>
        <time>2019-04-17T08:10:44Z</time>
      </trkpt>
      <trkpt lat="45.1216" lon="3.25621">
        <ele>1073</ele>
        <time>2019-04-17T08:11:44Z</time>
      </trkpt>
      <trkpt lat="45.12175" lon="3.25601">
        <ele>1073</ele>
        <time>2019-04-17T08:12:44Z</time>
      </trkpt>
      <trkpt lat="45.12172" lon="3.25563">
        <ele>1073</ele>
        <time>2019-04-17T08:13:44Z</time>
      </trkpt>
      <trkpt lat="45.12168" lon="3.25534">
        <ele>1073</ele>
        <time>2019-04-17T08:14:44Z</time>
      </trkpt>
      <trkpt lat="45.12183" lon="3.25482">
        <ele>1072</ele>
        <time>2019-04-17T08:15:44Z</time>
      </trkpt>
      <trkpt lat="45.1223" lon="3.25349">
        <ele>1070</ele>
        <time>2019-04-17T08:16:44Z</time>
      </trkpt>
      <trkpt lat="45.12315" lon="3.25267">
        <ele>1066</ele>
        <time>2019-04-17T08:17:44Z</time>
      </trkpt>
      <trkpt lat="45.12345" lon="3.25167">
        <ele>1061</ele>
        <time>2019-04-17T08:18:44Z</time>
      </trkpt>
      <trkpt lat="45.12349" lon="3.25127">
        <ele>1058</ele>
        <time>2019-04-17T08:19:44Z</time>
      </trkpt>
      <trkpt lat="45.12335" lon="3.25088">
        <ele>1057</ele>
        <time>2019-04-17T08:20:44Z</time>
      </trkpt>
      <trkpt lat="45.12331" lon="3.25058">
        <ele>1056</ele>
        <time>2019-04-17T08:21:44Z</time>
      </trkpt>
      <trkpt lat="45.12338" lon="3.25013">
        <ele>1053</ele>
        <time>2019-04-17T08:22:44Z</time>
      </trkpt>
      <trkpt lat="45.1236" lon="3.24972">
        <ele>1049</ele>
        <time>2019-04-17T08:23:44Z</time>
      </trkpt>
      <trkpt lat="45.12397" lon="3.24928">
        <ele>1044</ele>
        <time>2019-04-17T08:24:44Z</time>
      </trkpt>
      <trkpt lat="45.12409" lon="3.24926">
        <ele>1043</ele>
        <time>2019-04-17T08:25:44Z</time>
      </trkpt>
      <trkpt lat="45.12442" lon="3.24941">
        <ele>1040</ele>
        <time>2019-04-17T08:26:44Z</time>
      </trkpt>
      <trkpt lat="45.12513" lon="3.24958">
        <ele>1032</ele>
        <time>2019-04-17T08:27:44Z</time>
      </trkpt>
      <trkpt lat="45.12527" lon="3.24954">
        <ele>1030</ele>
        <time>2019-04-17T08:28:44Z</time>
      </trkpt>
      <trkpt lat="45.12538" lon="3.2494">
        <ele>1028</ele>
        <time>2019-04-17T08:29:44Z</time>
      </trkpt>
      <trkpt lat="45.12552" lon="3.24806">
        <ele>1015</ele>
        <time>2019-04-17T08:30:44Z</time>
      </trkpt>
      <trkpt lat="45.12543" lon="3.24574">
        <ele>1002</ele>
        <time>2019-04-17T08:31:44Z</time>
      </trkpt>
      <trkpt lat="45.12556" lon="3.24547">
        <ele>1001</ele>
        <time>2019-04-17T08:32:44Z</time>
      </trkpt>
      <trkpt lat="45.12617" lon="3.24496">
        <ele>1003</ele>
        <time>2019-04-17T08:33:44Z</time>
      </trkpt>
      <trkpt lat="45.12627" lon="3.2449">
        <ele>1004</ele>
        <time>2019-04-17T08:34:44Z</time>
      </trkpt>
      <trkpt lat="45.12638" lon="3.2449">
        <ele>1004</ele>
        <time>2019-04-17T08:35:44Z</time>
      </trkpt>
      <trkpt lat="45.12646" lon="3.24494">
        <ele>1005</ele>
        <time>2019-04-17T08:36:44Z</time>
      </trkpt>
      <trkpt lat="45.12654" lon="3.24508">
        <ele>1005</ele>
        <time>2019-04-17T08:37:44Z</time>
      </trkpt>
      <trkpt lat="45.1266" lon="3.24523">
        <ele>1005</ele>
        <time>2019-04-17T08:38:44Z</time>
      </trkpt>
      <trkpt lat="45.12682" lon="3.246">
        <ele>1006</ele>
        <time>2019-04-17T08:39:44Z</time>
      </trkpt>
      <trkpt lat="45.12697" lon="3.24617">
        <ele>1007</ele>
        <time>2019-04-17T08:40:44Z</time>
      </trkpt>
      <trkpt lat="45.12715" lon="3.24616">
        <ele>1009</ele>
        <time>2019-04-17T08:41:44Z</time>
      </trkpt>
      <trkpt lat="45.12734" lon="3.24593">
        <ele>1012</ele>
        <time>2019-04-17T08:42:44Z</time>
      </trkpt>
      <trkpt lat="45.12772" lon="3.24491">
        <ele>1018</ele>
        <time>2019-04-17T08:43:44Z</time>
      </trkpt>
      <trkpt lat="45.12779" lon="3.24471">
        <ele>1019</ele>
        <time>2019-04-17T08:44:44Z</time>
      </trkpt>
      <trkpt lat="45.12783" lon="3.24452">
        <ele>1020</ele>
        <time>2019-04-17T08:45:44Z</time>
      </trkpt>
      <trkpt lat="45.12771" lon="3.24349">
        <ele>1021</ele>
        <time>2019-04-17T08:46:44Z</time>
      </trkpt>
      <trkpt lat="45.1277" lon="3.24323">
        <ele>1021</ele>
        <time>2019-04-17T08:47:44Z</time>
      </trkpt>
      <trkpt lat="45.12773" lon="3.24295">
        <ele>1022</ele>
        <time>2019-04-17T08:48:44Z</time>
      </trkpt>
      <trkpt lat="45.12789" lon="3.2425">
        <ele>1023</ele>
        <time>2019-04-17T08:49:44Z</time>
      </trkpt>
      <trkpt lat="45.12811" lon="3.24204">
        <ele>1022</ele>
        <time>2019-04-17T08:50:44Z</time>
      </trkpt>
      <trkpt lat="45.12825" lon="3.2418">
        <ele>1022</ele>
        <time>2019-04-17T08:51:44Z</time>
      </trkpt>
      <trkpt lat="45.12836" lon="3.24167">
        <ele>1022</ele>
        <time>2019-04-17T08:52:44Z</time>
      </trkpt>
      <trkpt lat="45.13059" lon="3.2392">
        <ele>1024</ele>
        <time>2019-04-17T08:53:44Z</time>
      </trkpt>
      <trkpt lat="45.13078" lon="3.23897">
        <ele>1024</ele>
        <time>2019-04-17T08:54:44Z</time>
      </trkpt>
      <trkpt lat="45.13092" lon="3.23872">
        <ele>1024</ele>
        <time>2019-04-17T08:55:44Z</time>
      </trkpt>
      <trkpt lat="45.13098" lon="3.2385">
        <ele>1025</ele>
        <time>2019-04-17T08:56:44Z</time>
      </trkpt>
      <trkpt lat="45.13181" lon="3.23417">
        <ele>1028</ele>
        <time>2019-04-17T08:57:44Z</time>
      </trkpt>
      <trkpt lat="45.13182" lon="3.23405">
        <ele>1028</ele>
        <time>2019-04-17T08:58:44Z</time>
      </trkpt>
      <trkpt lat="45.13193" lon="3.23346">
        <ele>1026</ele>
        <time>2019-04-17T08:59:44Z</time>
      </trkpt>
      <trkpt lat="45.13194" lon="3.23308">
        <ele>1024</ele>
        <time>2019-04-17T09:00:44Z</time>
      </trkpt>
      <trkpt lat="45.13188" lon="3.23276">
        <ele>1022</ele>
        <time>2019-04-17T09:01:44Z</time>
      </trkpt>
      <trkpt lat="45.13111" lon="3.23141">
        <ele>1018</ele>
        <time>2019-04-17T09:02:44Z</time>
      </trkpt>
      <trkpt lat="45.13101" lon="3.23114">
        <ele>1018</ele>
        <time>2019-04-17T09:03:44Z</time>
      </trkpt>
      <trkpt lat="45.13084" lon="3.22965">
        <ele>1012</ele>
        <time>2019-04-17T09:04:44Z</time>
      </trkpt>
      <trkpt lat="45.13084" lon="3.22924">
        <ele>1011</ele>
        <time>2019-04-17T09:05:44Z</time>
      </trkpt>
      <trkpt lat="45.13104" lon="3.22846">
        <ele>1010</ele>
        <time>2019-04-17T09:06:44Z</time>
      </trkpt>
      <trkpt lat="45.13131" lon="3.22755">
        <ele>1010</ele>
        <time>2019-04-17T09:07:44Z</time>
      </trkpt>
      <trkpt lat="45.13165" lon="3.22636">
        <ele>1007</ele>
        <time>2019-04-17T09:08:44Z</time>
      </trkpt>
      <trkpt lat="45.13177" lon="3.22599">
        <ele>1007</ele>
        <time>2019-04-17T09:09:44Z</time>
      </trkpt>
      <trkpt lat="45.13236" lon="3.22495">
        <ele>1008</ele>
        <time>2019-04-17T09:10:44Z</time>
      </trkpt>
      <trkpt lat="45.13253" lon="3.22455">
        <ele>1007</ele>
        <time>2019-04-17T09:11:44Z</time>
      </trkpt>
      <trkpt lat="45.13306" lon="3.22202">
        <ele>1006</ele>
        <time>2019-04-17T09:12:44Z</time>
      </trkpt>
      <trkpt lat="45.13335" lon="3.22053">
        <ele>1005</ele>
        <time>2019-04-17T09:13:44Z</time>
      </trkpt>
      <trkpt lat="45.13344" lon="3.2202">
        <ele>1004</ele>
        <time>2019-04-17T09:14:44Z</time>
      </trkpt>
      <trkpt lat="45.13359" lon="3.2199">
        <ele>1003</ele>
        <time>2019-04-17T09:15:44Z</time>
      </trkpt>
      <trkpt lat="45.1339" lon="3.2195">
        <ele>1000</ele>
        <time>2019-04-17T09:16:44Z</time>
      </trkpt>
      <trkpt lat="45.13406" lon="3.21917">
        <ele>999</ele>
        <time>2019-04-17T09:17:44Z</time>
      </trkpt>
      <trkpt lat="45.13434" lon="3.21811">
        <ele>995</ele>
        <time>2019-04-17T09:18:44Z</time>
      </trkpt>
      <trkpt lat="45.13475" lon="3.21723">
        <ele>992</ele>
        <time>2019-04-17T09:19:44Z</time>
      </trkpt>
      <trkpt lat="45.13535" lon="3.21608">
        <ele>987</ele>
        <time>2019-04-17T09:20:44Z</time>
      </trkpt>
      <trkpt lat="45.13555" lon="3.21585">
        <ele>986</ele>
        <time>2019-04-17T09:21:44Z</time>
      </trkpt>
      <trkpt lat="45.13592" lon="3.21571">
        <ele>985</ele>
        <time>2019-04-17T09:22:44Z</time>
      </trkpt>
      <trkpt lat="45.13619" lon="3.21556">
        <ele>982</ele>
        <time>2019-04-17T09:23:44Z</time>
      </trkpt>
      <trkpt lat="45.13647" lon="3.2152">
        <ele>980</ele>
        <time>2019-04-17T09:24:44Z</time>
      </trkpt>
      <trkpt lat="45.13676" lon="3.21434">
        <ele>976</ele>
        <time>2019-04-17T09:25:44Z</time>
      </trkpt>
      <trkpt lat="45.13678" lon="3.2141">
        <ele>976</ele>
        <time>2019-04-17T09:26:44Z</time>
      </trkpt>
      <trkpt lat="45.13672" lon="3.21379">
        <ele>975</ele>
        <time>2019-04-17T09:27:44Z</time>
      </trkpt>
      <trkpt lat="45.13659" lon="3.21341">
        <ele>974</ele>
        <time>2019-04-17T09:28:44Z</time>
      </trkpt>
      <trkpt lat="45.13638" lon="3.21325">
        <ele>974</ele>
        <time>2019-04-17T09:29:44Z</time>
      </trkpt>
      <trkpt lat="45.13595" lon="3.21305">
        <ele>972</ele>
        <time>2019-04-17T09:30:44Z</time>
      </trkpt>
      <trkpt lat="45.13582" lon="3.21289">
        <ele>971</ele>
        <time>2019-04-17T09:31:44Z</time>
      </trkpt>
      <trkpt lat="45.13582" lon="3.21264">
        <ele>969</ele>
        <time>2019-04-17T09:32:44Z</time>
      </trkpt>
      <trkpt lat="45.13606" lon="3.21219">
        <ele>965</ele>
        <time>2019-04-17T09:33:44Z</time>
      </trkpt>
      <trkpt lat="45.13605" lon="3.21193">
        <ele>962</ele>
        <time>2019-04-17T09:34:44Z</time>
      </trkpt>
      <trkpt lat="45.13596" lon="3.21176">
        <ele>960</ele>
        <time>2019-04-17T09:35:44Z</time>
      </trkpt>
      <trkpt lat="45.13574" lon="3.21174">
        <ele>958</ele>
        <time>2019-04-17T09:36:44Z</time>
      </trkpt>
      <trkpt lat="45.13536" lon="3.21185">
        <ele>956</ele>
        <time>2019-04-17T09:37:44Z</time>
      </trkpt>
      <trkpt lat="45.13465" lon="3.2119">
        <ele>949</ele>
        <time>2019-04-17T09:38:44Z</time>
      </trkpt>
      <trkpt lat="45.13427" lon="3.21211">
        <ele>948</ele>
        <time>2019-04-17T09:39:44Z</time>
      </trkpt>
      <trkpt lat="45.13399" lon="3.21217">
        <ele>946</ele>
        <time>2019-04-17T09:40:44Z</time>
      </trkpt>
      <trkpt lat="45.13344" lon="3.21224">
        <ele>942</ele>
        <time>2019-04-17T09:41:44Z</time>
      </trkpt>
      <trkpt lat="45.13243" lon="3.21306">
        <ele>938</ele>
        <time>2019-04-17T09:42:44Z</time>
      </trkpt>
      <trkpt lat="45.13232" lon="3.21309">
        <ele>938</ele>
        <time>2019-04-17T09:43:44Z</time>
      </trkpt>
      <trkpt lat="45.1322" lon="3.21307">
        <ele>937</ele>
        <time>2019-04-17T09:44:44Z</time>
      </trkpt>
      <trkpt lat="45.13203" lon="3.21283">
        <ele>936</ele>
        <time>2019-04-17T09:45:44Z</time>
      </trkpt>
      <trkpt lat="45.13198" lon="3.2127">
        <ele>936</ele>
        <time>2019-04-17T09:46:44Z</time>
      </trkpt>
      <trkpt lat="45.13196" lon="3.21257">
        <ele>937</ele>
        <time>2019-04-17T09:47:44Z</time>
      </trkpt>
      <trkpt lat="45.13197" lon="3.21243">
        <ele>937</ele>
        <time>2019-04-17T09:48:44Z</time>
      </trkpt>
      <trkpt lat="45.13201" lon="3.21232">
        <ele>938</ele>
        <time>2019-04-17T09:49:44Z</time>
      </trkpt>
      <trkpt lat="45.1324" lon="3.21184">
        <ele>941</ele>
        <time>2019-04-17T09:50:44Z</time>
      </trkpt>
      <trkpt lat="45.13276" lon="3.21141">
        <ele>941</ele>
        <time>2019-04-17T09:51:44Z</time>
      </trkpt>
      <trkpt lat="45.13294" lon="3.21095">
        <ele>945</ele>
        <time>2019-04-17T09:52:44Z</time>
      </trkpt>
      <trkpt lat="45.13327" lon="3.21072">
        <ele>944</ele>
        <time>2019-04-17T09:53:44Z</time>
      </trkpt>
      <trkpt lat="45.13395" lon="3.21018">
        <ele>949</ele>
        <time>2019-04-17T09:54:44Z</time>
      </trkpt>
      <trkpt lat="45.13451" lon="3.20988">
        <ele>952</ele>
        <time>2019-04-17T09:55:44Z</time>
      </trkpt>
      <trkpt lat="45.13495" lon="3.20936">
        <ele>955</ele>
        <time>2019-04-17T09:56:44Z</time>
      </trkpt>
      <trkpt lat="45.13519" lon="3.20895">
        <ele>955</ele>
        <time>2019-04-17T09:57:44Z</time>
      </trkpt>
      <trkpt lat="45.13528" lon="3.20796">
        <ele>956</ele>
        <time>2019-04-17T09:58:44Z</time>
      </trkpt>
      <trkpt lat="45.13519" lon="3.20746">
        <ele>956</ele>
        <time>2019-04-17T09:59:44Z</time>
      </trkpt>
      <trkpt lat="45.13488" lon="3.20702">
        <ele>957</ele>
        <time>2019-04-17T10:00:44Z</time>
      </trkpt>
      <trkpt lat="45.13447" lon="3.20663">
        <ele>961</ele>
        <time>2019-04-17T10:01:44Z</time>
      </trkpt>
      <trkpt lat="45.13437" lon="3.20648">
        <ele>961</ele>
        <time>2019-04-17T10:02:44Z</time>
      </trkpt>
      <trkpt lat="45.13423" lon="3.20613">
        <ele>962</ele>
        <time>2019-04-17T10:03:44Z</time>
      </trkpt>
      <trkpt lat="45.1338" lon="3.20561">
        <ele>964</ele>
        <time>2019-04-17T10:04:44Z</time>
      </trkpt>
      <trkpt lat="45.13359" lon="3.20524">
        <ele>966</ele>
        <time>2019-04-17T10:05:44Z</time>
      </trkpt>
      <trkpt lat="45.13334" lon="3.20449">
        <ele>969</ele>
        <time>2019-04-17T10:06:44Z</time>
      </trkpt>
      <trkpt lat="45.1332" lon="3.20438">
        <ele>970</ele>
        <time>2019-04-17T10:07:44Z</time>
      </trkpt>
      <trkpt lat="45.13223" lon="3.20391">
        <ele>973</ele>
        <time>2019-04-17T10:08:44Z</time>
      </trkpt>
      <trkpt lat="45.13191" lon="3.20361">
        <ele>975</ele>
        <time>2019-04-17T10:09:44Z</time>
      </trkpt>
      <trkpt lat="45.13178" lon="3.20333">
        <ele>976</ele>
        <time>2019-04-17T10:10:44Z</time>
      </trkpt>
      <trkpt lat="45.13169" lon="3.20265">
        <ele>977</ele>
        <time>2019-04-17T10:11:44Z</time>
      </trkpt>
      <trkpt lat="45.13168" lon="3.20138">
        <ele>981</ele>
        <time>2019-04-17T10:12:44Z</time>
      </trkpt>
      <trkpt lat="45.13172" lon="3.20051">
        <ele>984</ele>
        <time>2019-04-17T10:13:44Z</time>
      </trkpt>
      <trkpt lat="45.13176" lon="3.2">
        <ele>986</ele>
        <time>2019-04-17T10:14:44Z</time>
      </trkpt>
      <trkpt lat="45.13171" lon="3.19961">
        <ele>987</ele>
        <time>2019-04-17T10:15:44Z</time>
      </trkpt>
      <trkpt lat="45.13154" lon="3.19902">
        <ele>989</ele>
        <time>2019-04-17T10:16:44Z</time>
      </trkpt>
      <trkpt lat="45.1312" lon="3.1981">
        <ele>991</ele>
        <time>2019-04-17T10:17:44Z</time>
      </trkpt>
      <trkpt lat="45.13091" lon="3.19714">
        <ele>988</ele>
        <time>2019-04-17T10:18:44Z</time>
      </trkpt>
      <trkpt lat="45.13078" lon="3.19678">
        <ele>986</ele>
        <time>2019-04-17T10:19:44Z</time>
      </trkpt>
      <trkpt lat="45.13054" lon="3.19646">
        <ele>984</ele>
        <time>2019-04-17T10:20:44Z</time>
      </trkpt>
      <trkpt lat="45.12973" lon="3.19598">
        <ele>984</ele>
        <time>2019-04-17T10:21:44Z</time>
      </trkpt>
      <trkpt lat="45.12938" lon="3.19568">
        <ele>985</ele>
        <time>2019-04-17T10:22:44Z</time>
      </trkpt>
      <trkpt lat="45.12879" lon="3.19532">
        <ele>985</ele>
        <time>2019-04-17T10:23:44Z</time>
      </trkpt>
      <trkpt lat="45.12827" lon="3.19508">
        <ele>985</ele>
        <time>2019-04-17T10:24:44Z</time>
      </trkpt>
      <trkpt lat="45.12805" lon="3.19493">
        <ele>985</ele>
        <time>2019-04-17T10:25:44Z</time>
      </trkpt>
      <trkpt lat="45.12798" lon="3.19477">
        <ele>986</ele>
        <time>2019-04-17T10:26:44Z</time>
      </trkpt>
      <trkpt lat="45.12801" lon="3.19436">
        <ele>986</ele>
        <time>2019-04-17T10:27:44Z</time>
      </trkpt>
      <trkpt lat="45.12809" lon="3.19402">
        <ele>986</ele>
        <time>2019-04-17T10:28:44Z</time>
      </trkpt>
      <trkpt lat="45.12873" lon="3.19319">
        <ele>987</ele>
        <time>2019-04-17T10:29:44Z</time>
      </trkpt>
      <trkpt lat="45.1289" lon="3.19292">
        <ele>988</ele>
        <time>2019-04-17T10:30:44Z</time>
      </trkpt>
      <trkpt lat="45.12896" lon="3.19271">
        <ele>989</ele>
        <time>2019-04-17T10:31:44Z</time>
      </trkpt>
      <trkpt lat="45.12891" lon="3.19241">
        <ele>991</ele>
        <time>2019-04-17T10:32:44Z</time>
      </trkpt>
      <trkpt lat="45.12862" lon="3.19176">
        <ele>994</ele>
        <time>2019-04-17T10:33:44Z</time>
      </trkpt>
      <trkpt lat="45.12855" lon="3.19152">
        <ele>995</ele>
        <time>2019-04-17T10:34:44Z</time>
      </trkpt>
      <trkpt lat="45.12857" lon="3.1913">
        <ele>995</ele>
        <time>2019-04-17T10:35:44Z</time>
      </trkpt>
      <trkpt lat="45.12926" lon="3.18744">
        <ele>993</ele>
        <time>2019-04-17T10:36:44Z</time>
      </trkpt>
      <trkpt lat="45.12962" lon="3.18574">
        <ele>989</ele>
        <time>2019-04-17T10:37:44Z</time>
      </trkpt>
      <trkpt lat="45.12992" lon="3.18425">
        <ele>985</ele>
        <time>2019-04-17T10:38:44Z</time>
      </trkpt>
      <trkpt lat="45.13002" lon="3.18365">
        <ele>983</ele>
        <time>2019-04-17T10:39:44Z</time>
      </trkpt>
      <trkpt lat="45.13004" lon="3.18328">
        <ele>982</ele>
        <time>2019-04-17T10:40:44Z</time>
      </trkpt>
      <trkpt lat="45.12931" lon="3.17802">
        <ele>994</ele>
        <time>2019-04-17T10:41:44Z</time>
      </trkpt>
      <trkpt lat="45.12933" lon="3.17748">
        <ele>994</ele>
        <time>2019-04-17T10:42:44Z</time>
      </trkpt>
      <trkpt lat="45.12955" lon="3.17516">
        <ele>988</ele>
        <time>2019-04-17T10:43:44Z</time>
      </trkpt>
      <trkpt lat="45.12953" lon="3.17467">
        <ele>988</ele>
        <time>2019-04-17T10:44:44Z</time>
      </trkpt>
      <trkpt lat="45.12947" lon="3.17431">
        <ele>987</ele>
        <time>2019-04-17T10:45:44Z</time>
      </trkpt>
      <trkpt lat="45.1283" lon="3.17044">
        <ele>981</ele>
        <time>2019-04-17T10:46:44Z</time>
      </trkpt>
      <trkpt lat="45.12817" lon="3.16995">
        <ele>981</ele>
        <time>2019-04-17T10:47:44Z</time>
      </trkpt>
      <trkpt lat="45.12814" lon="3.16961">
        <ele>980</ele>
        <time>2019-04-17T10:48:44Z</time>
      </trkpt>
      <trkpt lat="45.12816" lon="3.16932">
        <ele>980</ele>
        <time>2019-04-17T10:49:44Z</time>
      </trkpt>
      <trkpt lat="45.12821" lon="3.16914">
        <ele>980</ele>
        <time>2019-04-17T10:50:44Z</time>
      </trkpt>
      <trkpt lat="45.1283" lon="3.16893">
        <ele>979</ele>
        <time>2019-04-17T10:51:44Z</time>
      </trkpt>
      <trkpt lat="45.12868" lon="3.16831">
        <ele>979</ele>
        <time>2019-04-17T10:52:44Z</time>
      </trkpt>
      <trkpt lat="45.12882" lon="3.16805">
        <ele>978</ele>
        <time>2019-04-17T10:53:44Z</time>
      </trkpt>
      <trkpt lat="45.1289" lon="3.16782">
        <ele>977</ele>
        <time>2019-04-17T10:54:44Z</time>
      </trkpt>
      <trkpt lat="45.12894" lon="3.16763">
        <ele>976</ele>
        <time>2019-04-17T10:55:44Z</time>
      </trkpt>
      <trkpt lat="45.12895" lon="3.16721">
        <ele>975</ele>
        <time>2019-04-17T10:56:44Z</time>
      </trkpt>
      <trkpt lat="45.12893" lon="3.16696">
        <ele>974</ele>
        <time>2019-04-17T10:57:44Z</time>
      </trkpt>
      <trkpt lat="45.12886" lon="3.16679">
        <ele>973</ele>
        <time>2019-04-17T10:58:44Z</time>
      </trkpt>
      <trkpt lat="45.12864" lon="3.16635">
        <ele>969</ele>
        <time>2019-04-17T10:59:44Z</time>
      </trkpt>
      <trkpt lat="45.12861" lon="3.16613">
        <ele>968</ele>
        <time>2019-04-17T11:00:44Z</time>
      </trkpt>
      <trkpt lat="45.12865" lon="3.16584">
        <ele>969</ele>
        <time>2019-04-17T11:01:44Z</time>
      </trkpt>
      <trkpt lat="45.1287" lon="3.16561">
        <ele>967</ele>
        <time>2019-04-17T11:02:44Z</time>
      </trkpt>
      <trkpt lat="45.12877" lon="3.16543">
        <ele>966</ele>
        <time>2019-04-17T11:03:44Z</time>
      </trkpt>
      <trkpt lat="45.12889" lon="3.16526">
        <ele>966</ele>
        <time>2019-04-17T11:04:44Z</time>
      </trkpt>
      <trkpt lat="45.12903" lon="3.16513">
        <ele>967</ele>
        <time>2019-04-17T11:05:44Z</time>
      </trkpt>
      <trkpt lat="45.1297" lon="3.16468">
        <ele>968</ele>
        <time>2019-04-17T11:06:44Z</time>
      </trkpt>
      <trkpt lat="45.1301" lon="3.16439">
        <ele>969</ele>
        <time>2019-04-17T11:07:44Z</time>
      </trkpt>
      <trkpt lat="45.13018" lon="3.16428">
        <ele>969</ele>
        <time>2019-04-17T11:08:44Z</time>
      </trkpt>
      <trkpt lat="45.13026" lon="3.16408">
        <ele>969</ele>
        <time>2019-04-17T11:09:44Z</time>
      </trkpt>
      <trkpt lat="45.13034" lon="3.16376">
        <ele>969</ele>
        <time>2019-04-17T11:10:44Z</time>
      </trkpt>
      <trkpt lat="45.13044" lon="3.16342">
        <ele>970</ele>
        <time>2019-04-17T11:11:44Z</time>
      </trkpt>
      <trkpt lat="45.13046" lon="3.16329">
        <ele>970</ele>
        <time>2019-04-17T11:12:44Z</time>
      </trkpt>
      <trkpt lat="45.13043" lon="3.16314">
        <ele>971</ele>
        <time>2019-04-17T11:13:44Z</time>
      </trkpt>
      <trkpt lat="45.13033" lon="3.16303">
        <ele>971</ele>
        <time>2019-04-17T11:14:44Z</time>
      </trkpt>
      <trkpt lat="45.13015" lon="3.16298">
        <ele>970</ele>
        <time>2019-04-17T11:15:44Z</time>
      </trkpt>
      <trkpt lat="45.12988" lon="3.16296">
        <ele>968</ele>
        <time>2019-04-17T11:16:44Z</time>
      </trkpt>
      <trkpt lat="45.12945" lon="3.16298">
        <ele>965</ele>
        <time>2019-04-17T11:17:44Z</time>
      </trkpt>
      <trkpt lat="45.12922" lon="3.16297">
        <ele>964</ele>
        <time>2019-04-17T11:18:44Z</time>
      </trkpt>
      <trkpt lat="45.12907" lon="3.16293">
        <ele>962</ele>
        <time>2019-04-17T11:19:44Z</time>
      </trkpt>
      <trkpt lat="45.12894" lon="3.16283">
        <ele>961</ele>
        <time>2019-04-17T11:20:44Z</time>
      </trkpt>
      <trkpt lat="45.12886" lon="3.16265">
        <ele>960</ele>
        <time>2019-04-17T11:21:44Z</time>
      </trkpt>
      <trkpt lat="45.12877" lon="3.16199">
        <ele>961</ele>
        <time>2019-04-17T11:22:44Z</time>
      </trkpt>
      <trkpt lat="45.12868" lon="3.16165">
        <ele>961</ele>
        <time>2019-04-17T11:23:44Z</time>
      </trkpt>
      <trkpt lat="45.12864" lon="3.16146">
        <ele>960</ele>
        <time>2019-04-17T11:24:44Z</time>
      </trkpt>
      <trkpt lat="45.12866" lon="3.16129">
        <ele>960</ele>
        <time>2019-04-17T11:25:44Z</time>
      </trkpt>
      <trkpt lat="45.12871" lon="3.16115">
        <ele>960</ele>
        <time>2019-04-17T11:26:44Z</time>
      </trkpt>
      <trkpt lat="45.12881" lon="3.16103">
        <ele>962</ele>
        <time>2019-04-17T11:27:44Z</time>
      </trkpt>
      <trkpt lat="45.1298" lon="3.16008">
        <ele>969</ele>
        <time>2019-04-17T11:28:44Z</time>
      </trkpt>
      <trkpt lat="45.12984" lon="3.15999">
        <ele>969</ele>
        <time>2019-04-17T11:29:44Z</time>
      </trkpt>
      <trkpt lat="45.12986" lon="3.15989">
        <ele>970</ele>
        <time>2019-04-17T11:30:44Z</time>
      </trkpt>
      <trkpt lat="45.12984" lon="3.15977">
        <ele>971</ele>
        <time>2019-04-17T11:31:44Z</time>
      </trkpt>
      <trkpt lat="45.12975" lon="3.15963">
        <ele>971</ele>
        <time>2019-04-17T11:32:44Z</time>
      </trkpt>
      <trkpt lat="45.12949" lon="3.15941">
        <ele>972</ele>
        <time>2019-04-17T11:33:44Z</time>
      </trkpt>
      <trkpt lat="45.12925" lon="3.15929">
        <ele>972</ele>
        <time>2019-04-17T11:34:44Z</time>
      </trkpt>
      <trkpt lat="45.12869" lon="3.15921">
        <ele>966</ele>
        <time>2019-04-17T11:35:44Z</time>
      </trkpt>
      <trkpt lat="45.12854" lon="3.15916">
        <ele>965</ele>
        <time>2019-04-17T11:36:44Z</time>
      </trkpt>
      <trkpt lat="45.12839" lon="3.15904">
        <ele>965</ele>
        <time>2019-04-17T11:37:44Z</time>
      </trkpt>
      <trkpt lat="45.12786" lon="3.15839">
        <ele>962</ele>
        <time>2019-04-17T11:38:44Z</time>
      </trkpt>
      <trkpt lat="45.12777" lon="3.1583">
        <ele>961</ele>
        <time>2019-04-17T11:39:44Z</time>
      </trkpt>
      <trkpt lat="45.12712" lon="3.15792">
        <ele>953</ele>
        <time>2019-04-17T11:40:44Z</time>
      </trkpt>
      <trkpt lat="45.12696" lon="3.15777">
        <ele>952</ele>
        <time>2019-04-17T11:41:44Z</time>
      </trkpt>
      <trkpt lat="45.1269" lon="3.15759">
        <ele>952</ele>
        <time>2019-04-17T11:42:44Z</time>
      </trkpt>
      <trkpt lat="45.12686" lon="3.15737">
        <ele>951</ele>
        <time>2019-04-17T11:43:44Z</time>
      </trkpt>
      <trkpt lat="45.12677" lon="3.15651">
        <ele>949</ele>
        <time>2019-04-17T11:44:44Z</time>
      </trkpt>
      <trkpt lat="45.12676" lon="3.15631">
        <ele>947</ele>
        <time>2019-04-17T11:45:44Z</time>
      </trkpt>
      <trkpt lat="45.12678" lon="3.15614">
        <ele>946</ele>
        <time>2019-04-17T11:46:44Z</time>
      </trkpt>
      <trkpt lat="45.12685" lon="3.15596">
        <ele>946</ele>
        <time>2019-04-17T11:47:44Z</time>
      </trkpt>
      <trkpt lat="45.12695" lon="3.1558">
        <ele>946</ele>
        <time>2019-04-17T11:48:44Z</time>
      </trkpt>
      <trkpt lat="45.12709" lon="3.15563">
        <ele>946</ele>
        <time>2019-04-17T11:49:44Z</time>
      </trkpt>
      <trkpt lat="45.12776" lon="3.15494">
        <ele>946</ele>
        <time>2019-04-17T11:50:44Z</time>
      </trkpt>
      <trkpt lat="45.12783" lon="3.15483">
        <ele>947</ele>
        <time>2019-04-17T11:51:44Z</time>
      </trkpt>
      <trkpt lat="45.12786" lon="3.15472">
        <ele>946</ele>
        <time>2019-04-17T11:52:44Z</time>
      </trkpt>
      <trkpt lat="45.12787" lon="3.15456">
        <ele>945</ele>
        <time>2019-04-17T11:53:44Z</time>
      </trkpt>
      <trkpt lat="45.12779" lon="3.15425">
        <ele>941</ele>
        <time>2019-04-17T11:54:44Z</time>
      </trkpt>
      <trkpt lat="45.12774" lon="3.15418">
        <ele>939</ele>
        <time>2019-04-17T11:55:44Z</time>
      </trkpt>
      <trkpt lat="45.12766" lon="3.15415">
        <ele>939</ele>
        <time>2019-04-17T11:56:44Z</time>
      </trkpt>
      <trkpt lat="45.12754" lon="3.15418">
        <ele>937</ele>
        <time>2019-04-17T11:57:44Z</time>
      </trkpt>
      <trkpt lat="45.12737" lon="3.15428">
        <ele>938</ele>
        <time>2019-04-17T11:58:44Z</time>
      </trkpt>
      <trkpt lat="45.12723" lon="3.15428">
        <ele>939</ele>
        <time>2019-04-17T11:59:44Z</time>
      </trkpt>
      <trkpt lat="45.12696" lon="3.15418">
        <ele>941</ele>
        <time>2019-04-17T12:00:44Z</time>
      </trkpt>
      <trkpt lat="45.12658" lon="3.15408">
        <ele>944</ele>
        <time>2019-04-17T12:01:44Z</time>
      </trkpt>
      <trkpt lat="45.12651" lon="3.15402">
        <ele>944</ele>
        <time>2019-04-17T12:02:44Z</time>
      </trkpt>
      <trkpt lat="45.12645" lon="3.15386">
        <ele>946</ele>
        <time>2019-04-17T12:03:44Z</time>
      </trkpt>
      <trkpt lat="45.12645" lon="3.15344">
        <ele>951</ele>
        <time>2019-04-17T12:04:44Z</time>
      </trkpt>
      <trkpt lat="45.12641" lon="3.15323">
        <ele>953</ele>
        <time>2019-04-17T12:05:44Z</time>
      </trkpt>
      <trkpt lat="45.12616" lon="3.15241">
        <ele>961</ele>
        <time>2019-04-17T12:06:44Z</time>
      </trkpt>
      <trkpt lat="45.12618" lon="3.15231">
        <ele>961</ele>
        <time>2019-04-17T12:07:44Z</time>
      </trkpt>
      <trkpt lat="45.12616" lon="3.15227">
        <ele>961</ele>
        <time>2019-04-17T12:08:44Z</time>
      </trkpt>
      <trkpt lat="45.12624" lon="3.15224">
        <ele>962</ele>
        <time>2019-04-17T12:09:44Z</time>
      </trkpt>
      <trkpt lat="45.12663" lon="3.15191">
        <ele>963</ele>
        <time>2019-04-17T12:10:44Z</time>
      </trkpt>
      <trkpt lat="45.1269" lon="3.15158">
        <ele>964</ele>
        <time>2019-04-17T12:11:44Z</time>
      </trkpt>
      <trkpt lat="45.12712" lon="3.15136">
        <ele>963</ele>
        <time>2019-04-17T12:12:44Z</time>
      </trkpt>
      <trkpt lat="45.12713" lon="3.1513">
        <ele>963</ele>
        <time>2019-04-17T12:13:44Z</time>
      </trkpt>
      <trkpt lat="45.12704" lon="3.15108">
        <ele>963</ele>
        <time>2019-04-17T12:14:44Z</time>
      </trkpt>
      <trkpt lat="45.12699" lon="3.15092">
        <ele>963</ele>
        <time>2019-04-17T12:15:44Z</time>
      </trkpt>
      <trkpt lat="45.12692" lon="3.15038">
        <ele>960</ele>
        <time>2019-04-17T12:16:44Z</time>
      </trkpt>
      <trkpt lat="45.12689" lon="3.15025">
        <ele>960</ele>
        <time>2019-04-17T12:17:44Z</time>
      </trkpt>
      <trkpt lat="45.12669" lon="3.14975">
        <ele>957</ele>
        <time>2019-04-17T12:18:44Z</time>
      </trkpt>
      <trkpt lat="45.12667" lon="3.14964">
        <ele>957</ele>
        <time>2019-04-17T12:19:44Z</time>
      </trkpt>
      <trkpt lat="45.12666" lon="3.14949">
        <ele>956</ele>
        <time>2019-04-17T12:20:44Z</time>
      </trkpt>
      <trkpt lat="45.12668" lon="3.14936">
        <ele>956</ele>
        <time>2019-04-17T12:21:44Z</time>
      </trkpt>
      <trkpt lat="45.12675" lon="3.14922">
        <ele>955</ele>
        <time>2019-04-17T12:22:44Z</time>
      </trkpt>
      <trkpt lat="45.12683" lon="3.14912">
        <ele>954</ele>
        <time>2019-04-17T12:23:44Z</time>
      </trkpt>
      <trkpt lat="45.12772" lon="3.14818">
        <ele>951</ele>
        <time>2019-04-17T12:24:44Z</time>
      </trkpt>
      <trkpt lat="45.12784" lon="3.14807">
        <ele>951</ele>
        <time>2019-04-17T12:25:44Z</time>
      </trkpt>
      <trkpt lat="45.12819" lon="3.14782">
        <ele>951</ele>
        <time>2019-04-17T12:26:44Z</time>
      </trkpt>
      <trkpt lat="45.12836" lon="3.14766">
        <ele>950</ele>
        <time>2019-04-17T12:27:44Z</time>
      </trkpt>
      <trkpt lat="45.12904" lon="3.14686">
        <ele>954</ele>
        <time>2019-04-17T12:28:44Z</time>
      </trkpt>
      <trkpt lat="45.12936" lon="3.1466">
        <ele>955</ele>
        <time>2019-04-17T12:29:44Z</time>
      </trkpt>
      <trkpt lat="45.12945" lon="3.14657">
        <ele>955</ele>
        <time>2019-04-17T12:30:44Z</time>
      </trkpt>
      <trkpt lat="45.12952" lon="3.14639">
        <ele>956</ele>
        <time>2019-04-17T12:31:44Z</time>
      </trkpt>
      <trkpt lat="45.12987" lon="3.14607">
        <ele>957</ele>
        <time>2019-04-17T12:32:44Z</time>
      </trkpt>
      <trkpt lat="45.13066" lon="3.14507">
        <ele>958</ele>
        <time>2019-04-17T12:33:44Z</time>
      </trkpt>
      <trkpt lat="45.13073" lon="3.14497">
        <ele>958</ele>
        <time>2019-04-17T12:34:44Z</time>
      </trkpt>
      <trkpt lat="45.13084" lon="3.14474">
        <ele>958</ele>
        <time>2019-04-17T12:35:44Z</time>
      </trkpt>
      <trkpt lat="45.13216" lon="3.14017">
        <ele>958</ele>
        <time>2019-04-17T12:36:44Z</time>
      </trkpt>
      <trkpt lat="45.1322" lon="3.13988">
        <ele>959</ele>
        <time>2019-04-17T12:37:44Z</time>
      </trkpt>
      <trkpt lat="45.1322" lon="3.13977">
        <ele>960</ele>
        <time>2019-04-17T12:38:44Z</time>
      </trkpt>
      <trkpt lat="45.13212" lon="3.13942">
        <ele>962</ele>
        <time>2019-04-17T12:39:44Z</time>
      </trkpt>
      <trkpt lat="45.13212" lon="3.1393">
        <ele>962</ele>
        <time>2019-04-17T12:40:44Z</time>
      </trkpt>
      <trkpt lat="45.13216" lon="3.13915">
        <ele>962</ele>
        <time>2019-04-17T12:41:44Z</time>
      </trkpt>
      <trkpt lat="45.13225" lon="3.13908">
        <ele>962</ele>
        <time>2019-04-17T12:42:44Z</time>
      </trkpt>
      <trkpt lat="45.13233" lon="3.13909">
        <ele>961</ele>
        <time>2019-04-17T12:43:44Z</time>
      </trkpt>
      <trkpt lat="45.13255" lon="3.13918">
        <ele>959</ele>
        <time>2019-04-17T12:44:44Z</time>
      </trkpt>
      <trkpt lat="45.13267" lon="3.1392">
        <ele>958</ele>
        <time>2019-04-17T12:45:44Z</time>
      </trkpt>
      <trkpt lat="45.13321" lon="3.1392">
        <ele>955</ele>
        <time>2019-04-17T12:46:44Z</time>
      </trkpt>
      <trkpt lat="45.13331" lon="3.13918">
        <ele>954</ele>
        <time>2019-04-17T12:47:44Z</time>
      </trkpt>
      <trkpt lat="45.13347" lon="3.13909">
        <ele>953</ele>
        <time>2019-04-17T12:48:44Z</time>
      </trkpt>
      <trkpt lat="45.13363" lon="3.13888">
        <ele>953</ele>
        <time>2019-04-17T12:49:44Z</time>
      </trkpt>
      <trkpt lat="45.13412" lon="3.13752">
        <ele>952</ele>
        <time>2019-04-17T12:50:44Z</time>
      </trkpt>
      <trkpt lat="45.13415" lon="3.13738">
        <ele>952</ele>
        <time>2019-04-17T12:51:44Z</time>
      </trkpt>
      <trkpt lat="45.13416" lon="3.1371">
        <ele>952</ele>
        <time>2019-04-17T12:52:44Z</time>
      </trkpt>
      <trkpt lat="45.13413" lon="3.13696">
        <ele>952</ele>
        <time>2019-04-17T12:53:44Z</time>
      </trkpt>
      <trkpt lat="45.13407" lon="3.13681">
        <ele>953</ele>
        <time>2019-04-17T12:54:44Z</time>
      </trkpt>
      <trkpt lat="45.13394" lon="3.13663">
        <ele>955</ele>
        <time>2019-04-17T12:55:44Z</time>
      </trkpt>
      <trkpt lat="45.13267" lon="3.13524">
        <ele>960</ele>
        <time>2019-04-17T12:56:44Z</time>
      </trkpt>
      <trkpt lat="45.13255" lon="3.13505">
        <ele>961</ele>
        <time>2019-04-17T12:57:44Z</time>
      </trkpt>
      <trkpt lat="45.13247" lon="3.13483">
        <ele>961</ele>
        <time>2019-04-17T12:58:44Z</time>
      </trkpt>
      <trkpt lat="45.13238" lon="3.13446">
        <ele>962</ele>
        <time>2019-04-17T12:59:44Z</time>
      </trkpt>
      <trkpt lat="45.13236" lon="3.13421">
        <ele>962</ele>
        <time>2019-04-17T13:00:44Z</time>
      </trkpt>
      <trkpt lat="45.13237" lon="3.13403">
        <ele>962</ele>
        <time>2019-04-17T13:01:44Z</time>
      </trkpt>
      <trkpt lat="45.1324" lon="3.13392">
        <ele>962</ele>
        <time>2019-04-17T13:02:44Z</time>
      </trkpt>
      <trkpt lat="45.13245" lon="3.13386">
        <ele>961</ele>
        <time>2019-04-17T13:03:44Z</time>
      </trkpt>
      <trkpt lat="45.13252" lon="3.13383">
        <ele>960</ele>
        <time>2019-04-17T13:04:44Z</time>
      </trkpt>
      <trkpt lat="45.13264" lon="3.13383">
        <ele>960</ele>
        <time>2019-04-17T13:05:44Z</time>
      </trkpt>
      <trkpt lat="45.1327" lon="3.13388">
        <ele>960</ele>
        <time>2019-04-17T13:06:44Z</time>
      </trkpt>
      <trkpt lat="45.13285" lon="3.13425">
        <ele>958</ele>
        <time>2019-04-17T13:07:44Z</time>
      </trkpt>
      <trkpt lat="45.13293" lon="3.13435">
        <ele>957</ele>
        <time>2019-04-17T13:08:44Z</time>
      </trkpt>
      <trkpt lat="45.13309" lon="3.13442">
        <ele>956</ele>
        <time>2019-04-17T13:09:44Z</time>
      </trkpt>
      <trkpt lat="45.13319" lon="3.13441">
        <ele>955</ele>
        <time>2019-04-17T13:10:44Z</time>
      </trkpt>
      <trkpt lat="45.13328" lon="3.13438">
        <ele>955</ele>
        <time>2019-04-17T13:11:44Z</time>
      </trkpt>
      <trkpt lat="45.13346" lon="3.13422">
        <ele>955</ele>
        <time>2019-04-17T13:12:44Z</time>
      </trkpt>
      <trkpt lat="45.13354" lon="3.13408">
        <ele>956</ele>
        <time>2019-04-17T13:13:44Z</time>
      </trkpt>
      <trkpt lat="45.13391" lon="3.13331">
        <ele>960</ele>
        <time>2019-04-17T13:14:44Z</time>
      </trkpt>
      <trkpt lat="45.13407" lon="3.13311">
        <ele>962</ele>
        <time>2019-04-17T13:15:44Z</time>
      </trkpt>
      <trkpt lat="45.13424" lon="3.13301">
        <ele>963</ele>
        <time>2019-04-17T13:16:44Z</time>
      </trkpt>
      <trkpt lat="45.13435" lon="3.13299">
        <ele>964</ele>
        <time>2019-04-17T13:17:44Z</time>
      </trkpt>
      <trkpt lat="45.13466" lon="3.133">
        <ele>964</ele>
        <time>2019-04-17T13:18:44Z</time>
      </trkpt>
      <trkpt lat="45.13526" lon="3.13309">
        <ele>963</ele>
        <time>2019-04-17T13:19:44Z</time>
      </trkpt>
      <trkpt lat="45.13543" lon="3.13305">
        <ele>964</ele>
        <time>2019-04-17T13:20:44Z</time>
      </trkpt>
      <trkpt lat="45.13552" lon="3.13298">
        <ele>964</ele>
        <time>2019-04-17T13:21:44Z</time>
      </trkpt>
      <trkpt lat="45.13571" lon="3.13274">
        <ele>966</ele>
        <time>2019-04-17T13:22:44Z</time>
      </trkpt>
      <trkpt lat="45.13587" lon="3.13243">
        <ele>968</ele>
        <time>2019-04-17T13:23:44Z</time>
      </trkpt>
      <trkpt lat="45.13599" lon="3.13214">
        <ele>969</ele>
        <time>2019-04-17T13:24:44Z</time>
      </trkpt>
      <trkpt lat="45.13612" lon="3.13166">
        <ele>971</ele>
        <time>2019-04-17T13:25:44Z</time>
      </trkpt>
      <trkpt lat="45.13613" lon="3.13148">
        <ele>971</ele>
        <time>2019-04-17T13:26:44Z</time>
      </trkpt>
      <trkpt lat="45.13615" lon="3.13035">
        <ele>976</ele>
        <time>2019-04-17T13:27:44Z</time>
      </trkpt>
      <trkpt lat="45.13617" lon="3.13018">
        <ele>977</ele>
        <time>2019-04-17T13:28:44Z</time>
      </trkpt>
      <trkpt lat="45.13621" lon="3.13004">
        <ele>978</ele>
        <time>2019-04-17T13:29:44Z</time>
      </trkpt>
      <trkpt lat="45.13627" lon="3.1299">
        <ele>979</ele>
        <time>2019-04-17T13:30:44Z</time>
      </trkpt>
      <trkpt lat="45.13647" lon="3.1296">
        <ele>981</ele>
        <time>2019-04-17T13:31:44Z</time>
      </trkpt>
      <trkpt lat="45.13595" lon="3.12943">
        <ele>986</ele>
        <time>2019-04-17T13:32:44Z</time>
      </trkpt>
      <trkpt lat="45.13605" lon="3.12931">
        <ele>987</ele>
        <time>2019-04-17T13:33:44Z</time>
      </trkpt>
      <trkpt lat="45.1361" lon="3.1292">
        <ele>988</ele>
        <time>2019-04-17T13:34:44Z</time>
      </trkpt>
      <trkpt lat="45.13611" lon="3.12907">
        <ele>989</ele>
        <time>2019-04-17T13:35:44Z</time>
      </trkpt>
      <trkpt lat="45.13608" lon="3.12893">
        <ele>990</ele>
        <time>2019-04-17T13:36:44Z</time>
      </trkpt>
      <trkpt lat="45.13603" lon="3.1288">
        <ele>991</ele>
        <time>2019-04-17T13:37:44Z</time>
      </trkpt>
      <trkpt lat="45.1361" lon="3.12871">
        <ele>992</ele>
        <time>2019-04-17T13:38:44Z</time>
      </trkpt>
      <trkpt lat="45.13626" lon="3.12837">
        <ele>994</ele>
        <time>2019-04-17T13:39:44Z</time>
      </trkpt>
      <trkpt lat="45.13642" lon="3.12787">
        <ele>993</ele>
        <time>2019-04-17T13:40:44Z</time>
      </trkpt>
      <trkpt lat="45.13663" lon="3.12653">
        <ele>990</ele>
        <time>2019-04-17T13:41:44Z</time>
      </trkpt>
      <trkpt lat="45.13618" lon="3.12607">
        <ele>990</ele>
        <time>2019-04-17T13:42:44Z</time>
      </trkpt>
      <trkpt lat="45.13603" lon="3.12587">
        <ele>990</ele>
        <time>2019-04-17T13:43:44Z</time>
      </trkpt>
      <trkpt lat="45.13599" lon="3.12578">
        <ele>990</ele>
        <time>2019-04-17T13:44:44Z</time>
      </trkpt>
      <trkpt lat="45.13597" lon="3.12568">
        <ele>990</ele>
        <time>2019-04-17T13:45:44Z</time>
      </trkpt>
      <trkpt lat="45.13598" lon="3.12554">
        <ele>990</ele>
        <time>2019-04-17T13:46:44Z</time>
      </trkpt>
      <trkpt lat="45.13603" lon="3.12519">
        <ele>989</ele>
        <time>2019-04-17T13:47:44Z</time>
      </trkpt>
      <trkpt lat="45.13604" lon="3.12505">
        <ele>988</ele>
        <time>2019-04-17T13:48:44Z</time>
      </trkpt>
      <trkpt lat="45.13599" lon="3.12481">
        <ele>988</ele>
        <time>2019-04-17T13:49:44Z</time>
      </trkpt>
      <trkpt lat="45.13591" lon="3.12467">
        <ele>988</ele>
        <time>2019-04-17T13:50:44Z</time>
      </trkpt>
      <trkpt lat="45.13548" lon="3.12414">
        <ele>989</ele>
        <time>2019-04-17T13:51:44Z</time>
      </trkpt>
      <trkpt lat="45.13535" lon="3.12396">
        <ele>989</ele>
        <time>2019-04-17T13:52:44Z</time>
      </trkpt>
      <trkpt lat="45.13526" lon="3.1238">
        <ele>990</ele>
        <time>2019-04-17T13:53:44Z</time>
      </trkpt>
      <trkpt lat="45.13515" lon="3.12353">
        <ele>990</ele>
        <time>2019-04-17T13:54:44Z</time>
      </trkpt>
      <trkpt lat="45.1351" lon="3.12325">
        <ele>990</ele>
        <time>2019-04-17T13:55:44Z</time>
      </trkpt>
      <trkpt lat="45.13508" lon="3.12232">
        <ele>989</ele>
        <time>2019-04-17T13:56:44Z</time>
      </trkpt>
      <trkpt lat="45.13503" lon="3.12182">
        <ele>990</ele>
        <time>2019-04-17T13:57:44Z</time>
      </trkpt>
      <trkpt lat="45.13498" lon="3.12159">
        <ele>990</ele>
        <time>2019-04-17T13:58:44Z</time>
      </trkpt>
      <trkpt lat="45.13484" lon="3.12106">
        <ele>993</ele>
        <time>2019-04-17T13:59:44Z</time>
      </trkpt>
      <trkpt lat="45.13473" lon="3.12075">
        <ele>994</ele>
        <time>2019-04-17T14:00:44Z</time>
      </trkpt>
      <trkpt lat="45.13463" lon="3.12051">
        <ele>994</ele>
        <time>2019-04-17T14:01:44Z</time>
      </trkpt>
      <trkpt lat="45.13417" lon="3.11967">
        <ele>997</ele>
        <time>2019-04-17T14:02:44Z</time>
      </trkpt>
      <trkpt lat="45.13402" lon="3.11943">
        <ele>998</ele>
        <time>2019-04-17T14:03:44Z</time>
      </trkpt>
      <trkpt lat="45.13341" lon="3.11873">
        <ele>1001</ele>
        <time>2019-04-17T14:04:44Z</time>
      </trkpt>
      <trkpt lat="45.13327" lon="3.1186">
        <ele>1001</ele>
        <time>2019-04-17T14:05:44Z</time>
      </trkpt>
      <trkpt lat="45.13313" lon="3.11851">
        <ele>1001</ele>
        <time>2019-04-17T14:06:44Z</time>
      </trkpt>
      <trkpt lat="45.13287" lon="3.11842">
        <ele>1002</ele>
        <time>2019-04-17T14:07:44Z</time>
      </trkpt>
      <trkpt lat="45.13262" lon="3.11834">
        <ele>1003</ele>
        <time>2019-04-17T14:08:44Z</time>
      </trkpt>
      <trkpt lat="45.13251" lon="3.11833">
        <ele>1004</ele>
        <time>2019-04-17T14:09:44Z</time>
      </trkpt>
      <trkpt lat="45.13232" lon="3.11837">
        <ele>1005</ele>
        <time>2019-04-17T14:10:44Z</time>
      </trkpt>
      <trkpt lat="45.1322" lon="3.11844">
        <ele>1006</ele>
        <time>2019-04-17T14:11:44Z</time>
      </trkpt>
      <trkpt lat="45.1307" lon="3.11979">
        <ele>1014</ele>
        <time>2019-04-17T14:12:44Z</time>
      </trkpt>
      <trkpt lat="45.13062" lon="3.11984">
        <ele>1014</ele>
        <time>2019-04-17T14:13:44Z</time>
      </trkpt>
      <trkpt lat="45.13048" lon="3.11986">
        <ele>1014</ele>
        <time>2019-04-17T14:14:44Z</time>
      </trkpt>
      <trkpt lat="45.1304" lon="3.11983">
        <ele>1014</ele>
        <time>2019-04-17T14:15:44Z</time>
      </trkpt>
      <trkpt lat="45.13031" lon="3.11973">
        <ele>1014</ele>
        <time>2019-04-17T14:16:44Z</time>
      </trkpt>
      <trkpt lat="45.12955" lon="3.11862">
        <ele>1018</ele>
        <time>2019-04-17T14:17:44Z</time>
      </trkpt>
      <trkpt lat="45.12949" lon="3.1185">
        <ele>1019</ele>
        <time>2019-04-17T14:18:44Z</time>
      </trkpt>
      <trkpt lat="45.12944" lon="3.11838">
        <ele>1019</ele>
        <time>2019-04-17T14:19:44Z</time>
      </trkpt>
      <trkpt lat="45.12943" lon="3.11806">
        <ele>1021</ele>
        <time>2019-04-17T14:20:44Z</time>
      </trkpt>
      <trkpt lat="45.12963" lon="3.11492">
        <ele>1042</ele>
        <time>2019-04-17T14:21:44Z</time>
      </trkpt>
      <trkpt lat="45.12963" lon="3.11477">
        <ele>1043</ele>
        <time>2019-04-17T14:22:44Z</time>
      </trkpt>
      <trkpt lat="45.12961" lon="3.11461">
        <ele>1044</ele>
        <time>2019-04-17T14:23:44Z</time>
      </trkpt>
      <trkpt lat="45.12958" lon="3.11445">
        <ele>1046</ele>
        <time>2019-04-17T14:24:44Z</time>
      </trkpt>
      <trkpt lat="45.1295" lon="3.11425">
        <ele>1047</ele>
        <time>2019-04-17T14:25:44Z</time>
      </trkpt>
      <trkpt lat="45.12938" lon="3.11397">
        <ele>1048</ele>
        <time>2019-04-17T14:26:44Z</time>
      </trkpt>
      <trkpt lat="45.12905" lon="3.11329">
        <ele>1052</ele>
        <time>2019-04-17T14:27:44Z</time>
      </trkpt>
      <trkpt lat="45.12897" lon="3.11298">
        <ele>1052</ele>
        <time>2019-04-17T14:28:44Z</time>
      </trkpt>
      <trkpt lat="45.12896" lon="3.11282">
        <ele>1052</ele>
        <time>2019-04-17T14:29:44Z</time>
      </trkpt>
      <trkpt lat="45.12899" lon="3.11263">
        <ele>1052</ele>
        <time>2019-04-17T14:30:44Z</time>
      </trkpt>
      <trkpt lat="45.12928" lon="3.11142">
        <ele>1050</ele>
        <time>2019-04-17T14:31:44Z</time>
      </trkpt>
      <trkpt lat="45.12967" lon="3.10911">
        <ele>1051</ele>
        <time>2019-04-17T14:32:44Z</time>
      </trkpt>
      <trkpt lat="45.12967" lon="3.10876">
        <ele>1051</ele>
        <time>2019-04-17T14:33:44Z</time>
      </trkpt>
      <trkpt lat="45.12965" lon="3.10863">
        <ele>1052</ele>
        <time>2019-04-17T14:34:44Z</time>
      </trkpt>
      <trkpt lat="45.12944" lon="3.10772">
        <ele>1057</ele>
        <time>2019-04-17T14:35:44Z</time>
      </trkpt>
      <trkpt lat="45.12943" lon="3.10759">
        <ele>1057</ele>
        <time>2019-04-17T14:36:44Z</time>
      </trkpt>
      <trkpt lat="45.12947" lon="3.10742">
        <ele>1057</ele>
        <time>2019-04-17T14:37:44Z</time>
      </trkpt>
      <trkpt lat="45.12962" lon="3.10692">
        <ele>1054</ele>
        <time>2019-04-17T14:38:44Z</time>
      </trkpt>
      <trkpt lat="45.12966" lon="3.10661">
        <ele>1053</ele>
        <time>2019-04-17T14:39:44Z</time>
      </trkpt>
      <trkpt lat="45.12964" lon="3.10643">
        <ele>1053</ele>
        <time>2019-04-17T14:40:44Z</time>
      </trkpt>
      <trkpt lat="45.12961" lon="3.10625">
        <ele>1053</ele>
        <time>2019-04-17T14:41:44Z</time>
      </trkpt>
      <trkpt lat="45.12944" lon="3.1058">
        <ele>1054</ele>
        <time>2019-04-17T14:42:44Z</time>
      </trkpt>
      <trkpt lat="45.1291" lon="3.10512">
        <ele>1053</ele>
        <time>2019-04-17T14:43:44Z</time>
      </trkpt>
      <trkpt lat="45.12882" lon="3.10441">
        <ele>1052</ele>
        <time>2019-04-17T14:44:44Z</time>
      </trkpt>
      <trkpt lat="45.12746" lon="3.10057">
        <ele>1053</ele>
        <time>2019-04-17T14:45:44Z</time>
      </trkpt>
      <trkpt lat="45.12737" lon="3.10008">
        <ele>1051</ele>
        <time>2019-04-17T14:46:44Z</time>
      </trkpt>
      <trkpt lat="45.12721" lon="3.09818">
        <ele>1054</ele>
        <time>2019-04-17T14:47:44Z</time>
      </trkpt>
      <trkpt lat="45.1272" lon="3.09806">
        <ele>1055</ele>
        <time>2019-04-17T14:48:44Z</time>
      </trkpt>
      <trkpt lat="45.12722" lon="3.09796">
        <ele>1055</ele>
        <time>2019-04-17T14:49:44Z</time>
      </trkpt>
      <trkpt lat="45.12727" lon="3.0979">
        <ele>1056</ele>
        <time>2019-04-17T14:50:44Z</time>
      </trkpt>
      <trkpt lat="45.12705" lon="3.09756">
        <ele>1057</ele>
        <time>2019-04-17T14:51:44Z</time>
      </trkpt>
      <trkpt lat="45.12644" lon="3.09701">
        <ele>1058</ele>
        <time>2019-04-17T14:52:44Z</time>
      </trkpt>
      <trkpt lat="45.12596" lon="3.09665">
        <ele>1059</ele>
        <time>2019-04-17T14:53:44Z</time>
      </trkpt>
      <trkpt lat="45.12519" lon="3.09597">
        <ele>1064</ele>
        <time>2019-04-17T14:54:44Z</time>
      </trkpt>
      <trkpt lat="45.12109" lon="3.09255">
        <ele>1063</ele>
        <time>2019-04-17T14:55:44Z</time>
      </trkpt>
      <trkpt lat="45.11559" lon="3.08787">
        <ele>1058</ele>
        <time>2019-04-17T14:56:44Z</time>
      </trkpt>
      <trkpt lat="45.11516" lon="3.08764">
        <ele>1057</ele>
        <time>2019-04-17T14:57:44Z</time>
      </trkpt>
      <trkpt lat="45.11475" lon="3.08764">
        <ele>1055</ele>
        <time>2019-04-17T14:58:44Z</time>
      </trkpt>
      <trkpt lat="45.11447" lon="3.08784">
        <ele>1055</ele>
        <time>2019-04-17T14:59:44Z</time>
      </trkpt>
      <trkpt lat="45.11421" lon="3.08791">
        <ele>1054</ele>
        <time>2019-04-17T15:00:44Z</time>
      </trkpt>
      <trkpt lat="45.11391" lon="3.08784">
        <ele>1056</ele>
        <time>2019-04-17T15:01:44Z</time>
      </trkpt>
      <trkpt lat="45.11368" lon="3.08756">
        <ele>1057</ele>
        <time>2019-04-17T15:02:44Z</time>
      </trkpt>
      <trkpt lat="45.1136" lon="3.08702">
        <ele>1054</ele>
        <time>2019-04-17T15:03:44Z</time>
      </trkpt>
      <trkpt lat="45.11351" lon="3.08667">
        <ele>1053</ele>
        <time>2019-04-17T15:04:44Z</time>
      </trkpt>
      <trkpt lat="45.11319" lon="3.08649">
        <ele>1053</ele>
        <time>2019-04-17T15:05:44Z</time>
      </trkpt>
      <trkpt lat="45.1128" lon="3.08657">
        <ele>1052</ele>
        <time>2019-04-17T15:06:44Z</time>
      </trkpt>
      <trkpt lat="45.11222" lon="3.08686">
        <ele>1052</ele>
        <time>2019-04-17T15:07:44Z</time>
      </trkpt>
      <trkpt lat="45.11196" lon="3.08696">
        <ele>1052</ele>
        <time>2019-04-17T15:08:44Z</time>
      </trkpt>
      <trkpt lat="45.11135" lon="3.08712">
        <ele>1050</ele>
        <time>2019-04-17T15:09:44Z</time>
      </trkpt>
      <trkpt lat="45.11064" lon="3.08711">
        <ele>1047</ele>
        <time>2019-04-17T15:10:44Z</time>
      </trkpt>
      <trkpt lat="45.10993" lon="3.087">
        <ele>1046</ele>
        <time>2019-04-17T15:11:44Z</time>
      </trkpt>
      <trkpt lat="45.10886" lon="3.08701">
        <ele>1045</ele>
        <time>2019-04-17T15:12:44Z</time>
      </trkpt>
      <trkpt lat="45.1086" lon="3.08694">
        <ele>1045</ele>
        <time>2019-04-17T15:13:44Z</time>
      </trkpt>
      <trkpt lat="45.10829" lon="3.08666">
        <ele>1044</ele>
        <time>2019-04-17T15:14:44Z</time>
      </trkpt>
      <trkpt lat="45.10812" lon="3.08643">
        <ele>1044</ele>
        <time>2019-04-17T15:15:44Z</time>
      </trkpt>
      <trkpt lat="45.10674" lon="3.08385">
        <ele>1034</ele>
        <time>2019-04-17T15:16:44Z</time>
      </trkpt>
      <trkpt lat="45.10653" lon="3.08332">
        <ele>1034</ele>
        <time>2019-04-17T15:17:44Z</time>
      </trkpt>
      <trkpt lat="45.10644" lon="3.08289">
        <ele>1032</ele>
        <time>2019-04-17T15:18:44Z</time>
      </trkpt>
      <trkpt lat="45.10638" lon="3.08246">
        <ele>1029</ele>
        <time>2019-04-17T15:19:44Z</time>
      </trkpt>
      <trkpt lat="45.10638" lon="3.08206">
        <ele>1029</ele>
        <time>2019-04-17T15:20:44Z</time>
      </trkpt>
      <trkpt lat="45.10641" lon="3.08153">
        <ele>1029</ele>
        <time>2019-04-17T15:21:44Z</time>
      </trkpt>
      <trkpt lat="45.10646" lon="3.08095">
        <ele>1027</ele>
        <time>2019-04-17T15:22:44Z</time>
      </trkpt>
      <trkpt lat="45.10654" lon="3.08045">
        <ele>1025</ele>
        <time>2019-04-17T15:23:44Z</time>
      </trkpt>
      <trkpt lat="45.10652" lon="3.0801">
        <ele>1024</ele>
        <time>2019-04-17T15:24:44Z</time>
      </trkpt>
      <trkpt lat="45.10645" lon="3.07986">
        <ele>1024</ele>
        <time>2019-04-17T15:25:44Z</time>
      </trkpt>
      <trkpt lat="45.1058" lon="3.07899">
        <ele>1019</ele>
        <time>2019-04-17T15:26:44Z</time>
      </trkpt>
      <trkpt lat="45.10566" lon="3.07869">
        <ele>1019</ele>
        <time>2019-04-17T15:27:44Z</time>
      </trkpt>
      <trkpt lat="45.10554" lon="3.07828">
        <ele>1018</ele>
        <time>2019-04-17T15:28:44Z</time>
      </trkpt>
      <trkpt lat="45.10556" lon="3.07755">
        <ele>1015</ele>
        <time>2019-04-17T15:29:44Z</time>
      </trkpt>
      <trkpt lat="45.10558" lon="3.07719">
        <ele>1012</ele>
        <time>2019-04-17T15:30:44Z</time>
      </trkpt>
      <trkpt lat="45.10556" lon="3.07694">
        <ele>1010</ele>
        <time>2019-04-17T15:31:44Z</time>
      </trkpt>
      <trkpt lat="45.10548" lon="3.07663">
        <ele>1009</ele>
        <time>2019-04-17T15:32:44Z</time>
      </trkpt>
      <trkpt lat="45.1053" lon="3.07612">
        <ele>1009</ele>
        <time>2019-04-17T15:33:44Z</time>
      </trkpt>
      <trkpt lat="45.10514" lon="3.07544">
        <ele>1008</ele>
        <time>2019-04-17T15:34:44Z</time>
      </trkpt>
      <trkpt lat="45.10501" lon="3.0744">
        <ele>1002</ele>
        <time>2019-04-17T15:35:44Z</time>
      </trkpt>
      <trkpt lat="45.10495" lon="3.07409">
        <ele>1000</ele>
        <time>2019-04-17T15:36:44Z</time>
      </trkpt>
      <trkpt lat="45.10479" lon="3.07382">
        <ele>998</ele>
        <time>2019-04-17T15:37:44Z</time>
      </trkpt>
      <trkpt lat="45.1031" lon="3.07224">
        <ele>993</ele>
        <time>2019-04-17T15:38:44Z</time>
      </trkpt>
      <trkpt lat="45.1029" lon="3.07193">
        <ele>992</ele>
        <time>2019-04-17T15:39:44Z</time>
      </trkpt>
      <trkpt lat="45.10266" lon="3.07146">
        <ele>990</ele>
        <time>2019-04-17T15:40:44Z</time>
      </trkpt>
      <trkpt lat="45.1023" lon="3.07067">
        <ele>986</ele>
        <time>2019-04-17T15:41:44Z</time>
      </trkpt>
      <trkpt lat="45.10199" lon="3.07034">
        <ele>986</ele>
        <time>2019-04-17T15:42:44Z</time>
      </trkpt>
      <trkpt lat="45.10162" lon="3.07005">
        <ele>986</ele>
        <time>2019-04-17T15:43:44Z</time>
      </trkpt>
      <trkpt lat="45.10135" lon="3.06988">
        <ele>985</ele>
        <time>2019-04-17T15:44:44Z</time>
      </trkpt>
      <trkpt lat="45.10123" lon="3.06985">
        <ele>985</ele>
        <time>2019-04-17T15:45:44Z</time>
      </trkpt>
      <trkpt lat="45.1006" lon="3.06985">
        <ele>986</ele>
        <time>2019-04-17T15:46:44Z</time>
      </trkpt>
      <trkpt lat="45.10027" lon="3.07007">
        <ele>987</ele>
        <time>2019-04-17T15:47:44Z</time>
      </trkpt>
      <trkpt lat="45.10024" lon="3.06974">
        <ele>985</ele>
        <time>2019-04-17T15:48:44Z</time>
      </trkpt>
      <trkpt lat="45.10031" lon="3.06949">
        <ele>983</ele>
        <time>2019-04-17T15:49:44Z</time>
      </trkpt>
      <trkpt lat="45.1005" lon="3.06935">
        <ele>982</ele>
        <time>2019-04-17T15:50:44Z</time>
      </trkpt>
      <trkpt lat="45.10079" lon="3.06925">
        <ele>981</ele>
        <time>2019-04-17T15:51:44Z</time>
      </trkpt>
      <trkpt lat="45.10093" lon="3.06908">
        <ele>979</ele>
        <time>2019-04-17T15:52:44Z</time>
      </trkpt>
      <trkpt lat="45.10102" lon="3.06876">
        <ele>976</ele>
        <time>2019-04-17T15:53:44Z</time>
      </trkpt>
      <trkpt lat="45.10117" lon="3.06853">
        <ele>974</ele>
        <time>2019-04-17T15:54:44Z</time>
      </trkpt>
      <trkpt lat="45.1018" lon="3.06802">
        <ele>969</ele>
        <time>2019-04-17T15:55:44Z</time>
      </trkpt>
      <trkpt lat="45.10218" lon="3.06817">
        <ele>969</ele>
        <time>2019-04-17T15:56:44Z</time>
      </trkpt>
      <trkpt lat="45.10239" lon="3.0682">
        <ele>969</ele>
        <time>2019-04-17T15:57:44Z</time>
      </trkpt>
      <trkpt lat="45.10263" lon="3.06814">
        <ele>968</ele>
        <time>2019-04-17T15:58:44Z</time>
      </trkpt>
      <trkpt lat="45.10279" lon="3.06807">
        <ele>967</ele>
        <time>2019-04-17T15:59:44Z</time>
      </trkpt>
      <trkpt lat="45.10297" lon="3.0679">
        <ele>966</ele>
        <time>2019-04-17T16:00:44Z</time>
      </trkpt>
      <trkpt lat="45.10329" lon="3.06748">
        <ele>963</ele>
        <time>2019-04-17T16:01:44Z</time>
      </trkpt>
      <trkpt lat="45.10505" lon="3.06498">
        <ele>957</ele>
        <time>2019-04-17T16:02:44Z</time>
      </trkpt>
      <trkpt lat="45.10976" lon="3.05823">
        <ele>959</ele>
        <time>2019-04-17T16:03:44Z</time>
      </trkpt>
      <trkpt lat="45.11048" lon="3.05658">
        <ele>964</ele>
        <time>2019-04-17T16:04:44Z</time>
      </trkpt>
      <trkpt lat="45.1107" lon="3.05601">
        <ele>965</ele>
        <time>2019-04-17T16:05:44Z</time>
      </trkpt>
      <trkpt lat="45.11084" lon="3.05545">
        <ele>966</ele>
        <time>2019-04-17T16:06:44Z</time>
      </trkpt>
      <trkpt lat="45.11088" lon="3.05506">
        <ele>965</ele>
        <time>2019-04-17T16:07:44Z</time>
      </trkpt>
      <trkpt lat="45.11086" lon="3.0545">
        <ele>968</ele>
        <time>2019-04-17T16:08:44Z</time>
      </trkpt>
      <trkpt lat="45.1105" lon="3.05276">
        <ele>975</ele>
        <time>2019-04-17T16:09:44Z</time>
      </trkpt>
      <trkpt lat="45.11045" lon="3.05215">
        <ele>976</ele>
        <time>2019-04-17T16:10:44Z</time>
      </trkpt>
      <trkpt lat="45.1105" lon="3.05157">
        <ele>978</ele>
        <time>2019-04-17T16:11:44Z</time>
      </trkpt>
      <trkpt lat="45.11063" lon="3.05108">
        <ele>980</ele>
        <time>2019-04-17T16:12:44Z</time>
      </trkpt>
      <trkpt lat="45.111" lon="3.05016">
        <ele>983</ele>
        <time>2019-04-17T16:13:44Z</time>
      </trkpt>
      <trkpt lat="45.11114" lon="3.04985">
        <ele>982</ele>
        <time>2019-04-17T16:14:44Z</time>
      </trkpt>
      <trkpt lat="45.11136" lon="3.04949">
        <ele>982</ele>
        <time>2019-04-17T16:15:44Z</time>
      </trkpt>
      <trkpt lat="45.11259" lon="3.04902">
        <ele>980</ele>
        <time>2019-04-17T16:16:44Z</time>
      </trkpt>
      <trkpt lat="45.11277" lon="3.04891">
        <ele>980</ele>
        <time>2019-04-17T16:17:44Z</time>
      </trkpt>
      <trkpt lat="45.11327" lon="3.0484">
        <ele>980</ele>
        <time>2019-04-17T16:18:44Z</time>
      </trkpt>
      <trkpt lat="45.11415" lon="3.04756">
        <ele>988</ele>
        <time>2019-04-17T16:19:44Z</time>
      </trkpt>
      <trkpt lat="45.1143" lon="3.04734">
        <ele>990</ele>
        <time>2019-04-17T16:20:44Z</time>
      </trkpt>
      <trkpt lat="45.11437" lon="3.04705">
        <ele>990</ele>
        <time>2019-04-17T16:21:44Z</time>
      </trkpt>
      <trkpt lat="45.11445" lon="3.045">
        <ele>988</ele>
        <time>2019-04-17T16:22:44Z</time>
      </trkpt>
      <trkpt lat="45.11447" lon="3.04311">
        <ele>984</ele>
        <time>2019-04-17T16:23:44Z</time>
      </trkpt>
      <trkpt lat="45.11438" lon="3.04236">
        <ele>985</ele>
        <time>2019-04-17T16:24:44Z</time>
      </trkpt>
      <trkpt lat="45.11384" lon="3.03989">
        <ele>985</ele>
        <time>2019-04-17T16:25:44Z</time>
      </trkpt>
      <trkpt lat="45.11365" lon="3.03834">
        <ele>981</ele>
        <time>2019-04-17T16:26:44Z</time>
      </trkpt>
      <trkpt lat="45.11358" lon="3.03757">
        <ele>977</ele>
        <time>2019-04-17T16:27:44Z</time>
      </trkpt>
      <trkpt lat="45.11358" lon="3.03682">
        <ele>975</ele>
        <time>2019-04-17T16:28:44Z</time>
      </trkpt>
      <trkpt lat="45.11362" lon="3.03628">
        <ele>974</ele>
        <time>2019-04-17T16:29:44Z</time>
      </trkpt>
      <trkpt lat="45.11372" lon="3.03554">
        <ele>973</ele>
        <time>2019-04-17T16:30:44Z</time>
      </trkpt>
      <trkpt lat="45.11389" lon="3.03487">
        <ele>972</ele>
        <time>2019-04-17T16:31:44Z</time>
      </trkpt>
      <trkpt lat="45.11414" lon="3.03422">
        <ele>969</ele>
        <time>2019-04-17T16:32:44Z</time>
      </trkpt>
      <trkpt lat="45.11447" lon="3.03364">
        <ele>967</ele>
        <time>2019-04-17T16:33:44Z</time>
      </trkpt>
      <trkpt lat="45.11487" lon="3.03309">
        <ele>966</ele>
        <time>2019-04-17T16:34:44Z</time>
      </trkpt>
      <trkpt lat="45.11535" lon="3.03257">
        <ele>964</ele>
        <time>2019-04-17T16:35:44Z</time>
      </trkpt>
      <trkpt lat="45.11591" lon="3.03209">
        <ele>962</ele>
        <time>2019-04-17T16:36:44Z</time>
      </trkpt>
      <trkpt lat="45.11764" lon="3.03081">
        <ele>955</ele>
        <time>2019-04-17T16:37:44Z</time>
      </trkpt>
      <trkpt lat="45.11908" lon="3.0298">
        <ele>952</ele>
        <time>2019-04-17T16:38:44Z</time>
      </trkpt>
      <trkpt lat="45.11931" lon="3.0296">
        <ele>952</ele>
        <time>2019-04-17T16:39:44Z</time>
      </trkpt>
      <trkpt lat="45.11945" lon="3.02941">
        <ele>952</ele>
        <time>2019-04-17T16:40:44Z</time>
      </trkpt>
      <trkpt lat="45.1196" lon="3.02911">
        <ele>953</ele>
        <time>2019-04-17T16:41:44Z</time>
      </trkpt>
      <trkpt lat="45.11974" lon="3.02859">
        <ele>955</ele>
        <time>2019-04-17T16:42:44Z</time>
      </trkpt>
      <trkpt lat="45.11993" lon="3.02773">
        <ele>957</ele>
        <time>2019-04-17T16:43:44Z</time>
      </trkpt>
      <trkpt lat="45.12001" lon="3.02744">
        <ele>957</ele>
        <time>2019-04-17T16:44:44Z</time>
      </trkpt>
      <trkpt lat="45.12013" lon="3.02712">
        <ele>957</ele>
        <time>2019-04-17T16:45:44Z</time>
      </trkpt>
      <trkpt lat="45.1203" lon="3.0268">
        <ele>958</ele>
        <time>2019-04-17T16:46:44Z</time>
      </trkpt>
      <trkpt lat="45.12142" lon="3.02516">
        <ele>959</ele>
        <time>2019-04-17T16:47:44Z</time>
      </trkpt>
      <trkpt lat="45.12182" lon="3.02463">
        <ele>961</ele>
        <time>2019-04-17T16:48:44Z</time>
      </trkpt>
      <trkpt lat="45.12303" lon="3.02355">
        <ele>963</ele>
        <time>2019-04-17T16:49:44Z</time>
      </trkpt>
      <trkpt lat="45.12321" lon="3.02331">
        <ele>963</ele>
        <time>2019-04-17T16:50:44Z</time>
      </trkpt>
      <trkpt lat="45.12347" lon="3.02279">
        <ele>961</ele>
        <time>2019-04-17T16:51:44Z</time>
      </trkpt>
      <trkpt lat="45.12383" lon="3.02156">
        <ele>957</ele>
        <time>2019-04-17T16:52:44Z</time>
      </trkpt>
      <trkpt lat="45.12464" lon="3.02047">
        <ele>954</ele>
        <time>2019-04-17T16:53:44Z</time>
      </trkpt>
      <trkpt lat="45.12549" lon="3.01899">
        <ele>950</ele>
        <time>2019-04-17T16:54:44Z</time>
      </trkpt>
      <trkpt lat="45.12566" lon="3.01864">
        <ele>949</ele>
        <time>2019-04-17T16:55:44Z</time>
      </trkpt>
      <trkpt lat="45.12576" lon="3.01816">
        <ele>948</ele>
        <time>2019-04-17T16:56:44Z</time>
      </trkpt>
      <trkpt lat="45.12572" lon="3.01756">
        <ele>945</ele>
        <time>2019-04-17T16:57:44Z</time>
      </trkpt>
      <trkpt lat="45.12557" lon="3.01709">
        <ele>941</ele>
        <time>2019-04-17T16:58:44Z</time>
      </trkpt>
      <trkpt lat="45.12487" lon="3.01609">
        <ele>947</ele>
        <time>2019-04-17T16:59:44Z</time>
      </trkpt>
      <trkpt lat="45.12461" lon="3.01541">
        <ele>946</ele>
        <time>2019-04-17T17:00:44Z</time>
      </trkpt>
      <trkpt lat="45.12448" lon="3.01481">
        <ele>945</ele>
        <time>2019-04-17T17:01:44Z</time>
      </trkpt>
      <trkpt lat="45.12414" lon="3.0121">
        <ele>931</ele>
        <time>2019-04-17T17:02:44Z</time>
      </trkpt>
      <trkpt lat="45.12403" lon="3.0116">
        <ele>926</ele>
        <time>2019-04-17T17:03:44Z</time>
      </trkpt>
      <trkpt lat="45.12337" lon="3.01008">
        <ele>926</ele>
        <time>2019-04-17T17:04:44Z</time>
      </trkpt>
      <trkpt lat="45.12309" lon="3.00898">
        <ele>922</ele>
        <time>2019-04-17T17:05:44Z</time>
      </trkpt>
      <trkpt lat="45.12281" lon="3.00812">
        <ele>921</ele>
        <time>2019-04-17T17:06:44Z</time>
      </trkpt>
      <trkpt lat="45.12248" lon="3.00757">
        <ele>918</ele>
        <time>2019-04-17T17:07:44Z</time>
      </trkpt>
      <trkpt lat="45.12088" lon="3.00578">
        <ele>920</ele>
        <time>2019-04-17T17:08:44Z</time>
      </trkpt>
      <trkpt lat="45.12036" lon="3.00506">
        <ele>913</ele>
        <time>2019-04-17T17:09:44Z</time>
      </trkpt>
      <trkpt lat="45.12008" lon="3.0045">
        <ele>910</ele>
        <time>2019-04-17T17:10:44Z</time>
      </trkpt>
      <trkpt lat="45.11991" lon="3.00387">
        <ele>906</ele>
        <time>2019-04-17T17:11:44Z</time>
      </trkpt>
      <trkpt lat="45.11944" lon="3.00195">
        <ele>900</ele>
        <time>2019-04-17T17:12:44Z</time>
      </trkpt>
      <trkpt lat="45.1193" lon="3.00115">
        <ele>901</ele>
        <time>2019-04-17T17:13:44Z</time>
      </trkpt>
      <trkpt lat="45.11928" lon="3.00071">
        <ele>901</ele>
        <time>2019-04-17T17:14:44Z</time>
      </trkpt>
      <trkpt lat="45.11935" lon="3.00012">
        <ele>901</ele>
        <time>2019-04-17T17:15:44Z</time>
      </trkpt>
      <trkpt lat="45.11962" lon="2.99872">
        <ele>899</ele>
        <time>2019-04-17T17:16:44Z</time>
      </trkpt>
      <trkpt lat="45.11972" lon="2.99836">
        <ele>898</ele>
        <time>2019-04-17T17:17:44Z</time>
      </trkpt>
      <trkpt lat="45.11983" lon="2.99809">
        <ele>897</ele>
        <time>2019-04-17T17:18:44Z</time>
      </trkpt>
      <trkpt lat="45.12031" lon="2.99738">
        <ele>888</ele>
        <time>2019-04-17T17:19:44Z</time>
      </trkpt>
      <trkpt lat="45.12047" lon="2.99703">
        <ele>885</ele>
        <time>2019-04-17T17:20:44Z</time>
      </trkpt>
      <trkpt lat="45.12056" lon="2.99658">
        <ele>885</ele>
        <time>2019-04-17T17:21:44Z</time>
      </trkpt>
      <trkpt lat="45.12057" lon="2.9959">
        <ele>883</ele>
        <time>2019-04-17T17:22:44Z</time>
      </trkpt>
      <trkpt lat="45.12059" lon="2.99538">
        <ele>882</ele>
        <time>2019-04-17T17:23:44Z</time>
      </trkpt>
      <trkpt lat="45.1207" lon="2.99472">
        <ele>879</ele>
        <time>2019-04-17T17:24:44Z</time>
      </trkpt>
      <trkpt lat="45.12141" lon="2.99194">
        <ele>869</ele>
        <time>2019-04-17T17:25:44Z</time>
      </trkpt>
      <trkpt lat="45.12157" lon="2.99166">
        <ele>868</ele>
        <time>2019-04-17T17:26:44Z</time>
      </trkpt>
      <trkpt lat="45.12388" lon="2.98925">
        <ele>853</ele>
        <time>2019-04-17T17:27:44Z</time>
      </trkpt>
      <trkpt lat="45.12411" lon="2.98881">
        <ele>849</ele>
        <time>2019-04-17T17:28:44Z</time>
      </trkpt>
      <trkpt lat="45.1242" lon="2.9884">
        <ele>847</ele>
        <time>2019-04-17T17:29:44Z</time>
      </trkpt>
      <trkpt lat="45.12423" lon="2.98799">
        <ele>844</ele>
        <time>2019-04-17T17:30:44Z</time>
      </trkpt>
      <trkpt lat="45.12338" lon="2.98359">
        <ele>835</ele>
        <time>2019-04-17T17:31:44Z</time>
      </trkpt>
      <trkpt lat="45.12337" lon="2.98274">
        <ele>833</ele>
        <time>2019-04-17T17:32:44Z</time>
      </trkpt>
      <trkpt lat="45.12344" lon="2.98228">
        <ele>831</ele>
        <time>2019-04-17T17:33:44Z</time>
      </trkpt>
      <trkpt lat="45.1237" lon="2.98166">
        <ele>826</ele>
        <time>2019-04-17T17:34:44Z</time>
      </trkpt>
      <trkpt lat="45.12376" lon="2.98143">
        <ele>825</ele>
        <time>2019-04-17T17:35:44Z</time>
      </trkpt>
      <trkpt lat="45.12382" lon="2.98107">
        <ele>824</ele>
        <time>2019-04-17T17:36:44Z</time>
      </trkpt>
      <trkpt lat="45.12386" lon="2.98038">
        <ele>824</ele>
        <time>2019-04-17T17:37:44Z</time>
      </trkpt>
      <trkpt lat="45.12392" lon="2.9801">
        <ele>823</ele>
        <time>2019-04-17T17:38:44Z</time>
      </trkpt>
      <trkpt lat="45.12454" lon="2.97817">
        <ele>816</ele>
        <time>2019-04-17T17:39:44Z</time>
      </trkpt>
      <trkpt lat="45.12465" lon="2.97776">
        <ele>816</ele>
        <time>2019-04-17T17:40:44Z</time>
      </trkpt>
      <trkpt lat="45.1248" lon="2.97705">
        <ele>814</ele>
        <time>2019-04-17T17:41:44Z</time>
      </trkpt>
      <trkpt lat="45.12489" lon="2.97644">
        <ele>814</ele>
        <time>2019-04-17T17:42:44Z</time>
      </trkpt>
      <trkpt lat="45.1248" lon="2.97639">
        <ele>815</ele>
        <time>2019-04-17T17:43:44Z</time>
      </trkpt>
      <trkpt lat="45.12478" lon="2.97632">
        <ele>815</ele>
        <time>2019-04-17T17:44:44Z</time>
      </trkpt>
      <trkpt lat="45.12479" lon="2.9761">
        <ele>815</ele>
        <time>2019-04-17T17:45:44Z</time>
      </trkpt>
      <trkpt lat="45.1247" lon="2.97517">
        <ele>818</ele>
        <time>2019-04-17T17:46:44Z</time>
      </trkpt>
      <trkpt lat="45.12477" lon="2.97454">
        <ele>821</ele>
        <time>2019-04-17T17:47:44Z</time>
      </trkpt>
      <trkpt lat="45.12484" lon="2.97357">
        <ele>824</ele>
        <time>2019-04-17T17:48:44Z</time>
      </trkpt>
      <trkpt lat="45.12482" lon="2.97326">
        <ele>826</ele>
        <time>2019-04-17T17:49:44Z</time>
      </trkpt>
      <trkpt lat="45.12467" lon="2.97185">
        <ele>837</ele>
        <time>2019-04-17T17:50:44Z</time>
      </trkpt>
      <trkpt lat="45.12465" lon="2.97151">
        <ele>839</ele>
        <time>2019-04-17T17:51:44Z</time>
      </trkpt>
      <trkpt lat="45.12469" lon="2.97058">
        <ele>843</ele>
        <time>2019-04-17T17:52:44Z</time>
      </trkpt>
      <trkpt lat="45.12479" lon="2.97014">
        <ele>842</ele>
        <time>2019-04-17T17:53:44Z</time>
      </trkpt>
      <trkpt lat="45.12484" lon="2.96964">
        <ele>842</ele>
        <time>2019-04-17T17:54:44Z</time>
      </trkpt>
      <trkpt lat="45.12484" lon="2.9693">
        <ele>843</ele>
        <time>2019-04-17T17:55:44Z</time>
      </trkpt>
      <trkpt lat="45.12476" lon="2.96893">
        <ele>846</ele>
        <time>2019-04-17T17:56:44Z</time>
      </trkpt>
      <trkpt lat="45.12464" lon="2.96856">
        <ele>848</ele>
        <time>2019-04-17T17:57:44Z</time>
      </trkpt>
      <trkpt lat="45.12449" lon="2.96821">
        <ele>850</ele>
        <time>2019-04-17T17:58:44Z</time>
      </trkpt>
      <trkpt lat="45.1241" lon="2.96772">
        <ele>854</ele>
        <time>2019-04-17T17:59:44Z</time>
      </trkpt>
      <trkpt lat="45.12393" lon="2.96744">
        <ele>854</ele>
        <time>2019-04-17T18:00:44Z</time>
      </trkpt>
      <trkpt lat="45.12367" lon="2.96689">
        <ele>855</ele>
        <time>2019-04-17T18:01:44Z</time>
      </trkpt>
      <trkpt lat="45.12348" lon="2.96646">
        <ele>856</ele>
        <time>2019-04-17T18:02:44Z</time>
      </trkpt>
      <trkpt lat="45.12339" lon="2.96619">
        <ele>857</ele>
        <time>2019-04-17T18:03:44Z</time>
      </trkpt>
      <trkpt lat="45.12314" lon="2.96497">
        <ele>861</ele>
        <time>2019-04-17T18:04:44Z</time>
      </trkpt>
      <trkpt lat="45.12303" lon="2.9646">
        <ele>861</ele>
        <time>2019-04-17T18:05:44Z</time>
      </trkpt>
      <trkpt lat="45.12292" lon="2.96433">
        <ele>862</ele>
        <time>2019-04-17T18:06:44Z</time>
      </trkpt>
      <trkpt lat="45.1225" lon="2.9636">
        <ele>864</ele>
        <time>2019-04-17T18:07:44Z</time>
      </trkpt>
      <trkpt lat="45.12236" lon="2.96341">
        <ele>865</ele>
        <time>2019-04-17T18:08:44Z</time>
      </trkpt>
      <trkpt lat="45.12219" lon="2.9633">
        <ele>867</ele>
        <time>2019-04-17T18:09:44Z</time>
      </trkpt>
      <trkpt lat="45.12197" lon="2.96328">
        <ele>870</ele>
        <time>2019-04-17T18:10:44Z</time>
      </trkpt>
      <trkpt lat="45.12172" lon="2.96322">
        <ele>874</ele>
        <time>2019-04-17T18:11:44Z</time>
      </trkpt>
      <trkpt lat="45.12151" lon="2.9631">
        <ele>874</ele>
        <time>2019-04-17T18:12:44Z</time>
      </trkpt>
      <trkpt lat="45.12135" lon="2.96295">
        <ele>874</ele>
        <time>2019-04-17T18:13:44Z</time>
      </trkpt>
      <trkpt lat="45.12121" lon="2.96272">
        <ele>875</ele>
        <time>2019-04-17T18:14:44Z</time>
      </trkpt>
      <trkpt lat="45.12114" lon="2.9625">
        <ele>875</ele>
        <time>2019-04-17T18:15:44Z</time>
      </trkpt>
      <trkpt lat="45.12102" lon="2.96191">
        <ele>877</ele>
        <time>2019-04-17T18:16:44Z</time>
      </trkpt>
      <trkpt lat="45.12091" lon="2.9617">
        <ele>879</ele>
        <time>2019-04-17T18:17:44Z</time>
      </trkpt>
      <trkpt lat="45.12075" lon="2.96151">
        <ele>881</ele>
        <time>2019-04-17T18:18:44Z</time>
      </trkpt>
      <trkpt lat="45.12049" lon="2.96133">
        <ele>884</ele>
        <time>2019-04-17T18:19:44Z</time>
      </trkpt>
      <trkpt lat="45.12031" lon="2.96115">
        <ele>887</ele>
        <time>2019-04-17T18:20:44Z</time>
      </trkpt>
      <trkpt lat="45.12017" lon="2.96096">
        <ele>889</ele>
        <time>2019-04-17T18:21:44Z</time>
      </trkpt>
      <trkpt lat="45.11988" lon="2.96043">
        <ele>895</ele>
        <time>2019-04-17T18:22:44Z</time>
      </trkpt>
      <trkpt lat="45.11976" lon="2.95918">
        <ele>897</ele>
        <time>2019-04-17T18:23:44Z</time>
      </trkpt>
      <trkpt lat="45.1203" lon="2.95903">
        <ele>891</ele>
        <time>2019-04-17T18:24:44Z</time>
      </trkpt>
      <trkpt lat="45.12055" lon="2.95877">
        <ele>887</ele>
        <time>2019-04-17T18:25:44Z</time>
      </trkpt>
      <trkpt lat="45.12069" lon="2.95832">
        <ele>884</ele>
        <time>2019-04-17T18:26:44Z</time>
      </trkpt>
      <trkpt lat="45.12077" lon="2.95746">
        <ele>880</ele>
        <time>2019-04-17T18:27:44Z</time>
      </trkpt>
      <trkpt lat="45.1209" lon="2.95697">
        <ele>878</ele>
        <time>2019-04-17T18:28:44Z</time>
      </trkpt>
      <trkpt lat="45.12124" lon="2.95666">
        <ele>875</ele>
        <time>2019-04-17T18:29:44Z</time>
      </trkpt>
      <trkpt lat="45.12226" lon="2.95608">
        <ele>865</ele>
        <time>2019-04-17T18:30:44Z</time>
      </trkpt>
      <trkpt lat="45.12249" lon="2.95563">
        <ele>864</ele>
        <time>2019-04-17T18:31:44Z</time>
      </trkpt>
      <trkpt lat="45.12264" lon="2.95526">
        <ele>863</ele>
        <time>2019-04-17T18:32:44Z</time>
      </trkpt>
      <trkpt lat="45.12312" lon="2.95492">
        <ele>860</ele>
        <time>2019-04-17T18:33:44Z</time>
      </trkpt>
      <trkpt lat="45.12325" lon="2.95456">
        <ele>861</ele>
        <time>2019-04-17T18:34:44Z</time>
      </trkpt>
      <trkpt lat="45.12333" lon="2.95378">
        <ele>862</ele>
        <time>2019-04-17T18:35:44Z</time>
      </trkpt>
      <trkpt lat="45.12373" lon="2.9526">
        <ele>859</ele>
        <time>2019-04-17T18:36:44Z</time>
      </trkpt>
      <trkpt lat="45.12372" lon="2.95185">
        <ele>861</ele>
        <time>2019-04-17T18:37:44Z</time>
      </trkpt>
      <trkpt lat="45.12355" lon="2.95081">
        <ele>863</ele>
        <time>2019-04-17T18:38:44Z</time>
      </trkpt>
      <trkpt lat="45.12375" lon="2.94973">
        <ele>861</ele>
        <time>2019-04-17T18:39:44Z</time>
      </trkpt>
      <trkpt lat="45.12371" lon="2.94818">
        <ele>861</ele>
        <time>2019-04-17T18:40:44Z</time>
      </trkpt>
      <trkpt lat="45.12386" lon="2.94775">
        <ele>859</ele>
        <time>2019-04-17T18:41:44Z</time>
      </trkpt>
      <trkpt lat="45.12441" lon="2.94697">
        <ele>855</ele>
        <time>2019-04-17T18:42:44Z</time>
      </trkpt>
      <trkpt lat="45.12453" lon="2.94654">
        <ele>855</ele>
        <time>2019-04-17T18:43:44Z</time>
      </trkpt>
      <trkpt lat="45.12458" lon="2.94544">
        <ele>857</ele>
        <time>2019-04-17T18:44:44Z</time>
      </trkpt>
      <trkpt lat="45.12446" lon="2.94464">
        <ele>859</ele>
        <time>2019-04-17T18:45:44Z</time>
      </trkpt>
      <trkpt lat="45.12417" lon="2.94378">
        <ele>860</ele>
        <time>2019-04-17T18:46:44Z</time>
      </trkpt>
      <trkpt lat="45.12403" lon="2.94311">
        <ele>858</ele>
        <time>2019-04-17T18:47:44Z</time>
      </trkpt>
      <trkpt lat="45.12404" lon="2.94254">
        <ele>856</ele>
        <time>2019-04-17T18:48:44Z</time>
      </trkpt>
      <trkpt lat="45.12439" lon="2.9414">
        <ele>852</ele>
        <time>2019-04-17T18:49:44Z</time>
      </trkpt>
      <trkpt lat="45.12443" lon="2.94084">
        <ele>852</ele>
        <time>2019-04-17T18:50:44Z</time>
      </trkpt>
      <trkpt lat="45.1244" lon="2.93999">
        <ele>849</ele>
        <time>2019-04-17T18:51:44Z</time>
      </trkpt>
      <trkpt lat="45.12448" lon="2.93969">
        <ele>848</ele>
        <time>2019-04-17T18:52:44Z</time>
      </trkpt>
      <trkpt lat="45.12461" lon="2.93935">
        <ele>847</ele>
        <time>2019-04-17T18:53:44Z</time>
      </trkpt>
      <trkpt lat="45.12481" lon="2.93888">
        <ele>850</ele>
        <time>2019-04-17T18:54:44Z</time>
      </trkpt>
      <trkpt lat="45.12492" lon="2.93868">
        <ele>852</ele>
        <time>2019-04-17T18:55:44Z</time>
      </trkpt>
      <trkpt lat="45.12495" lon="2.93858">
        <ele>853</ele>
        <time>2019-04-17T18:56:44Z</time>
      </trkpt>
      <trkpt lat="45.12469" lon="2.93808">
        <ele>854</ele>
        <time>2019-04-17T18:57:44Z</time>
      </trkpt>
      <trkpt lat="45.12469" lon="2.93799">
        <ele>854</ele>
        <time>2019-04-17T18:58:44Z</time>
      </trkpt>
      <trkpt lat="45.12473" lon="2.93792">
        <ele>855</ele>
        <time>2019-04-17T18:59:44Z</time>
      </trkpt>
      <trkpt lat="45.12425" lon="2.93716">
        <ele>855</ele>
        <time>2019-04-17T19:00:44Z</time>
      </trkpt>
      <trkpt lat="45.124" lon="2.93658">
        <ele>855</ele>
        <time>2019-04-17T19:01:44Z</time>
      </trkpt>
      <trkpt lat="45.12311" lon="2.9336">
        <ele>858</ele>
        <time>2019-04-17T19:02:44Z</time>
      </trkpt>
      <trkpt lat="45.12291" lon="2.93267">
        <ele>860</ele>
        <time>2019-04-17T19:03:44Z</time>
      </trkpt>
      <trkpt lat="45.12277" lon="2.93122">
        <ele>860</ele>
        <time>2019-04-17T19:04:44Z</time>
      </trkpt>
      <trkpt lat="45.12263" lon="2.93018">
        <ele>862</ele>
        <time>2019-04-17T19:05:44Z</time>
      </trkpt>
      <trkpt lat="45.1223" lon="2.92881">
        <ele>864</ele>
        <time>2019-04-17T19:06:44Z</time>
      </trkpt>
      <trkpt lat="45.12114" lon="2.9251">
        <ele>868</ele>
        <time>2019-04-17T19:07:44Z</time>
      </trkpt>
      <trkpt lat="45.12073" lon="2.92415">
        <ele>869</ele>
        <time>2019-04-17T19:08:44Z</time>
      </trkpt>
      <trkpt lat="45.12049" lon="2.92377">
        <ele>870</ele>
        <time>2019-04-17T19:09:44Z</time>
      </trkpt>
      <trkpt lat="45.11996" lon="2.92305">
        <ele>873</ele>
        <time>2019-04-17T19:10:44Z</time>
      </trkpt>
      <trkpt lat="45.11943" lon="2.9224">
        <ele>874</ele>
        <time>2019-04-17T19:11:44Z</time>
      </trkpt>
      <trkpt lat="45.11879" lon="2.92145">
        <ele>874</ele>
        <time>2019-04-17T19:12:44Z</time>
      </trkpt>
      <trkpt lat="45.11715" lon="2.91744">
        <ele>879</ele>
        <time>2019-04-17T19:13:44Z</time>
      </trkpt>
      <trkpt lat="45.11668" lon="2.91635">
        <ele>881</ele>
        <time>2019-04-17T19:14:44Z</time>
      </trkpt>
      <trkpt lat="45.11678" lon="2.91614">
        <ele>882</ele>
        <time>2019-04-17T19:15:44Z</time>
      </trkpt>
      <trkpt lat="45.11652" lon="2.91558">
        <ele>884</ele>
        <time>2019-04-17T19:16:44Z</time>
      </trkpt>
      <trkpt lat="45.11597" lon="2.91243">
        <ele>901</ele>
        <time>2019-04-17T19:17:44Z</time>
      </trkpt>
      <trkpt lat="45.11599" lon="2.91197">
        <ele>902</ele>
        <time>2019-04-17T19:18:44Z</time>
      </trkpt>
      <trkpt lat="45.11611" lon="2.91158">
        <ele>906</ele>
        <time>2019-04-17T19:19:44Z</time>
      </trkpt>
      <trkpt lat="45.11624" lon="2.91126">
        <ele>912</ele>
        <time>2019-04-17T19:20:44Z</time>
      </trkpt>
      <trkpt lat="45.11632" lon="2.91091">
        <ele>917</ele>
        <time>2019-04-17T19:21:44Z</time>
      </trkpt>
      <trkpt lat="45.1163" lon="2.91056">
        <ele>921</ele>
        <time>2019-04-17T19:22:44Z</time>
      </trkpt>
      <trkpt lat="45.11605" lon="2.90974">
        <ele>922</ele>
        <time>2019-04-17T19:23:44Z</time>
      </trkpt>
      <trkpt lat="45.11596" lon="2.90914">
        <ele>927</ele>
        <time>2019-04-17T19:24:44Z</time>
      </trkpt>
      <trkpt lat="45.11599" lon="2.90852">
        <ele>933</ele>
        <time>2019-04-17T19:25:44Z</time>
      </trkpt>
      <trkpt lat="45.11593" lon="2.90806">
        <ele>935</ele>
        <time>2019-04-17T19:26:44Z</time>
      </trkpt>
      <trkpt lat="45.11564" lon="2.90737">
        <ele>932</ele>
        <time>2019-04-17T19:27:44Z</time>
      </trkpt>
      <trkpt lat="45.11553" lon="2.90685">
        <ele>932</ele>
        <time>2019-04-17T19:28:44Z</time>
      </trkpt>
      <trkpt lat="45.11554" lon="2.90608">
        <ele>935</ele>
        <time>2019-04-17T19:29:44Z</time>
      </trkpt>
      <trkpt lat="45.1156" lon="2.90588">
        <ele>937</ele>
        <time>2019-04-17T19:30:44Z</time>
      </trkpt>
      <trkpt lat="45.11582" lon="2.90568">
        <ele>942</ele>
        <time>2019-04-17T19:31:44Z</time>
      </trkpt>
      <trkpt lat="45.11606" lon="2.90559">
        <ele>953</ele>
        <time>2019-04-17T19:32:44Z</time>
      </trkpt>
      <trkpt lat="45.11619" lon="2.90562">
        <ele>958</ele>
        <time>2019-04-17T19:33:44Z</time>
      </trkpt>
      <trkpt lat="45.11629" lon="2.90587">
        <ele>960</ele>
        <time>2019-04-17T19:34:44Z</time>
      </trkpt>
      <trkpt lat="45.11639" lon="2.90638">
        <ele>963</ele>
        <time>2019-04-17T19:35:44Z</time>
      </trkpt>
      <trkpt lat="45.11647" lon="2.90732">
        <ele>963</ele>
        <time>2019-04-17T19:36:44Z</time>
      </trkpt>
      <trkpt lat="45.11656" lon="2.90797">
        <ele>961</ele>
        <time>2019-04-17T19:37:44Z</time>
      </trkpt>
      <trkpt lat="45.11719" lon="2.90977">
        <ele>972</ele>
        <time>2019-04-17T19:38:44Z</time>
      </trkpt>
      <trkpt lat="45.11801" lon="2.91076">
        <ele>986</ele>
        <time>2019-04-17T19:39:44Z</time>
      </trkpt>
      <trkpt lat="45.11833" lon="2.91126">
        <ele>988</ele>
        <time>2019-04-17T19:40:44Z</time>
      </trkpt>
      <trkpt lat="45.11864" lon="2.91187">
        <ele>990</ele>
        <time>2019-04-17T19:41:44Z</time>
      </trkpt>
      <trkpt lat="45.11894" lon="2.91238">
        <ele>994</ele>
        <time>2019-04-17T19:42:44Z</time>
      </trkpt>
      <trkpt lat="45.11932" lon="2.91269">
        <ele>1002</ele>
        <time>2019-04-17T19:43:44Z</time>
      </trkpt>
      <trkpt lat="45.11991" lon="2.9134">
        <ele>1006</ele>
        <time>2019-04-17T19:44:44Z</time>
      </trkpt>
      <trkpt lat="45.12036" lon="2.91379">
        <ele>1009</ele>
        <time>2019-04-17T19:45:44Z</time>
      </trkpt>
      <trkpt lat="45.1207" lon="2.91399">
        <ele>1013</ele>
        <time>2019-04-17T19:46:44Z</time>
      </trkpt>
      <trkpt lat="45.12118" lon="2.9141">
        <ele>1017</ele>
        <time>2019-04-17T19:47:44Z</time>
      </trkpt>
      <trkpt lat="45.1216" lon="2.9141">
        <ele>1021</ele>
        <time>2019-04-17T19:48:44Z</time>
      </trkpt>
      <trkpt lat="45.12211" lon="2.91417">
        <ele>1024</ele>
        <time>2019-04-17T19:49:44Z</time>
      </trkpt>
      <trkpt lat="45.1223" lon="2.91422">
        <ele>1024</ele>
        <time>2019-04-17T19:50:44Z</time>
      </trkpt>
      <trkpt lat="45.12251" lon="2.91437">
        <ele>1022</ele>
        <time>2019-04-17T19:51:44Z</time>
      </trkpt>
      <trkpt lat="45.12287" lon="2.91474">
        <ele>1015</ele>
        <time>2019-04-17T19:52:44Z</time>
      </trkpt>
      <trkpt lat="45.12298" lon="2.91481">
        <ele>1014</ele>
        <time>2019-04-17T19:53:44Z</time>
      </trkpt>
      <trkpt lat="45.12353" lon="2.91478">
        <ele>1019</ele>
        <time>2019-04-17T19:54:44Z</time>
      </trkpt>
      <trkpt lat="45.12362" lon="2.91473">
        <ele>1020</ele>
        <time>2019-04-17T19:55:44Z</time>
      </trkpt>
      <trkpt lat="45.12371" lon="2.91462">
        <ele>1022</ele>
        <time>2019-04-17T19:56:44Z</time>
      </trkpt>
      <trkpt lat="45.12374" lon="2.91445">
        <ele>1023</ele>
        <time>2019-04-17T19:57:44Z</time>
      </trkpt>
      <trkpt lat="45.12372" lon="2.91425">
        <ele>1025</ele>
        <time>2019-04-17T19:58:44Z</time>
      </trkpt>
      <trkpt lat="45.12359" lon="2.91345">
        <ele>1028</ele>
        <time>2019-04-17T19:59:44Z</time>
      </trkpt>
      <trkpt lat="45.12362" lon="2.91312">
        <ele>1030</ele>
        <time>2019-04-17T20:00:44Z</time>
      </trkpt>
      <trkpt lat="45.12383" lon="2.91248">
        <ele>1031</ele>
        <time>2019-04-17T20:01:44Z</time>
      </trkpt>
      <trkpt lat="45.12398" lon="2.91156">
        <ele>1033</ele>
        <time>2019-04-17T20:02:44Z</time>
      </trkpt>
      <trkpt lat="45.1241" lon="2.91119">
        <ele>1032</ele>
        <time>2019-04-17T20:03:44Z</time>
      </trkpt>
      <trkpt lat="45.12467" lon="2.90978">
        <ele>1033</ele>
        <time>2019-04-17T20:04:44Z</time>
      </trkpt>
      <trkpt lat="45.12482" lon="2.90891">
        <ele>1034</ele>
        <time>2019-04-17T20:05:44Z</time>
      </trkpt>
      <trkpt lat="45.12485" lon="2.90852">
        <ele>1034</ele>
        <time>2019-04-17T20:06:44Z</time>
      </trkpt>
      <trkpt lat="45.12481" lon="2.90822">
        <ele>1035</ele>
        <time>2019-04-17T20:07:44Z</time>
      </trkpt>
      <trkpt lat="45.12464" lon="2.90772">
        <ele>1036</ele>
        <time>2019-04-17T20:08:44Z</time>
      </trkpt>
      <trkpt lat="45.12424" lon="2.90691">
        <ele>1040</ele>
        <time>2019-04-17T20:09:44Z</time>
      </trkpt>
      <trkpt lat="45.12418" lon="2.90644">
        <ele>1042</ele>
        <time>2019-04-17T20:10:44Z</time>
      </trkpt>
      <trkpt lat="45.12412" lon="2.9055">
        <ele>1047</ele>
        <time>2019-04-17T20:11:44Z</time>
      </trkpt>
      <trkpt lat="45.12422" lon="2.90475">
        <ele>1049</ele>
        <time>2019-04-17T20:12:44Z</time>
      </trkpt>
      <trkpt lat="45.12421" lon="2.90368">
        <ele>1056</ele>
        <time>2019-04-17T20:13:44Z</time>
      </trkpt>
      <trkpt lat="45.12412" lon="2.90268">
        <ele>1058</ele>
        <time>2019-04-17T20:14:44Z</time>
      </trkpt>
      <trkpt lat="45.12392" lon="2.90158">
        <ele>1057</ele>
        <time>2019-04-17T20:15:44Z</time>
      </trkpt>
      <trkpt lat="45.12363" lon="2.90089">
        <ele>1057</ele>
        <time>2019-04-17T20:16:44Z</time>
      </trkpt>
      <trkpt lat="45.12329" lon="2.89955">
        <ele>1058</ele>
        <time>2019-04-17T20:17:44Z</time>
      </trkpt>
      <trkpt lat="45.12307" lon="2.89827">
        <ele>1058</ele>
        <time>2019-04-17T20:18:44Z</time>
      </trkpt>
      <trkpt lat="45.12297" lon="2.89716">
        <ele>1060</ele>
        <time>2019-04-17T20:19:44Z</time>
      </trkpt>
      <trkpt lat="45.12268" lon="2.8961">
        <ele>1061</ele>
        <time>2019-04-17T20:20:44Z</time>
      </trkpt>
      <trkpt lat="45.12258" lon="2.89584">
        <ele>1061</ele>
        <time>2019-04-17T20:21:44Z</time>
      </trkpt>
      <trkpt lat="45.12208" lon="2.89486">
        <ele>1060</ele>
        <time>2019-04-17T20:22:44Z</time>
      </trkpt>
      <trkpt lat="45.1218" lon="2.89394">
        <ele>1061</ele>
        <time>2019-04-17T20:23:44Z</time>
      </trkpt>
      <trkpt lat="45.12166" lon="2.89363">
        <ele>1061</ele>
        <time>2019-04-17T20:24:44Z</time>
      </trkpt>
      <trkpt lat="45.1213" lon="2.89328">
        <ele>1057</ele>
        <time>2019-04-17T20:25:44Z</time>
      </trkpt>
      <trkpt lat="45.12109" lon="2.89289">
        <ele>1055</ele>
        <time>2019-04-17T20:26:44Z</time>
      </trkpt>
      <trkpt lat="45.12097" lon="2.8925">
        <ele>1053</ele>
        <time>2019-04-17T20:27:44Z</time>
      </trkpt>
      <trkpt lat="45.12087" lon="2.89229">
        <ele>1052</ele>
        <time>2019-04-17T20:28:44Z</time>
      </trkpt>
      <trkpt lat="45.12054" lon="2.89183">
        <ele>1048</ele>
        <time>2019-04-17T20:29:44Z</time>
      </trkpt>
      <trkpt lat="45.1203" lon="2.89118">
        <ele>1045</ele>
        <time>2019-04-17T20:30:44Z</time>
      </trkpt>
      <trkpt lat="45.12003" lon="2.89079">
        <ele>1044</ele>
        <time>2019-04-17T20:31:44Z</time>
      </trkpt>
      <trkpt lat="45.11991" lon="2.89049">
        <ele>1041</ele>
        <time>2019-04-17T20:32:44Z</time>
      </trkpt>
      <trkpt lat="45.11982" lon="2.89021">
        <ele>1039</ele>
        <time>2019-04-17T20:33:44Z</time>
      </trkpt>
      <trkpt lat="45.11985" lon="2.88997">
        <ele>1039</ele>
        <time>2019-04-17T20:34:44Z</time>
      </trkpt>
      <trkpt lat="45.12014" lon="2.8887">
        <ele>1037</ele>
        <time>2019-04-17T20:35:44Z</time>
      </trkpt>
      <trkpt lat="45.1203" lon="2.8882">
        <ele>1036</ele>
        <time>2019-04-17T20:36:44Z</time>
      </trkpt>
      <trkpt lat="45.12037" lon="2.88778">
        <ele>1036</ele>
        <time>2019-04-17T20:37:44Z</time>
      </trkpt>
      <trkpt lat="45.1205" lon="2.88746">
        <ele>1036</ele>
        <time>2019-04-17T20:38:44Z</time>
      </trkpt>
      <trkpt lat="45.12076" lon="2.88705">
        <ele>1035</ele>
        <time>2019-04-17T20:39:44Z</time>
      </trkpt>
      <trkpt lat="45.12118" lon="2.88611">
        <ele>1032</ele>
        <time>2019-04-17T20:40:44Z</time>
      </trkpt>
      <trkpt lat="45.12131" lon="2.88577">
        <ele>1031</ele>
        <time>2019-04-17T20:41:44Z</time>
      </trkpt>
      <trkpt lat="45.12155" lon="2.88551">
        <ele>1029</ele>
        <time>2019-04-17T20:42:44Z</time>
      </trkpt>
      <trkpt lat="45.12197" lon="2.88534">
        <ele>1026</ele>
        <time>2019-04-17T20:43:44Z</time>
      </trkpt>
      <trkpt lat="45.1222" lon="2.88544">
        <ele>1025</ele>
        <time>2019-04-17T20:44:44Z</time>
      </trkpt>
      <trkpt lat="45.12253" lon="2.88486">
        <ele>1025</ele>
        <time>2019-04-17T20:45:44Z</time>
      </trkpt>
      <trkpt lat="45.12271" lon="2.88458">
        <ele>1026</ele>
        <time>2019-04-17T20:46:44Z</time>
      </trkpt>
      <trkpt lat="45.12282" lon="2.88436">
        <ele>1028</ele>
        <time>2019-04-17T20:47:44Z</time>
      </trkpt>
      <trkpt lat="45.12343" lon="2.88221">
        <ele>1034</ele>
        <time>2019-04-17T20:48:44Z</time>
      </trkpt>
      <trkpt lat="45.1236" lon="2.88116">
        <ele>1032</ele>
        <time>2019-04-17T20:49:44Z</time>
      </trkpt>
      <trkpt lat="45.1242" lon="2.87866">
        <ele>1030</ele>
        <time>2019-04-17T20:50:44Z</time>
      </trkpt>
      <trkpt lat="45.12424" lon="2.87835">
        <ele>1031</ele>
        <time>2019-04-17T20:51:44Z</time>
      </trkpt>
      <trkpt lat="45.12422" lon="2.87656">
        <ele>1041</ele>
        <time>2019-04-17T20:52:44Z</time>
      </trkpt>
      <trkpt lat="45.12426" lon="2.87627">
        <ele>1040</ele>
        <time>2019-04-17T20:53:44Z</time>
      </trkpt>
      <trkpt lat="45.12436" lon="2.87605">
        <ele>1040</ele>
        <time>2019-04-17T20:54:44Z</time>
      </trkpt>
      <trkpt lat="45.12483" lon="2.87537">
        <ele>1041</ele>
        <time>2019-04-17T20:55:44Z</time>
      </trkpt>
      <trkpt lat="45.12606" lon="2.87218">
        <ele>1041</ele>
        <time>2019-04-17T20:56:44Z</time>
      </trkpt>
      <trkpt lat="45.12627" lon="2.8719">
        <ele>1042</ele>
        <time>2019-04-17T20:57:44Z</time>
      </trkpt>
      <trkpt lat="45.12633" lon="2.8717">
        <ele>1043</ele>
        <time>2019-04-17T20:58:44Z</time>
      </trkpt>
      <trkpt lat="45.12646" lon="2.87094">
        <ele>1049</ele>
        <time>2019-04-17T20:59:44Z</time>
      </trkpt>
      <trkpt lat="45.12649" lon="2.87071">
        <ele>1051</ele>
        <time>2019-04-17T21:00:44Z</time>
      </trkpt>
      <trkpt lat="45.12667" lon="2.87024">
        <ele>1056</ele>
        <time>2019-04-17T21:01:44Z</time>
      </trkpt>
      <trkpt lat="45.12673" lon="2.86981">
        <ele>1060</ele>
        <time>2019-04-17T21:02:44Z</time>
      </trkpt>
      <trkpt lat="45.12704" lon="2.86881">
        <ele>1067</ele>
        <time>2019-04-17T21:03:44Z</time>
      </trkpt>
      <trkpt lat="45.12708" lon="2.86839">
        <ele>1071</ele>
        <time>2019-04-17T21:04:44Z</time>
      </trkpt>
      <trkpt lat="45.12705" lon="2.86804">
        <ele>1073</ele>
        <time>2019-04-17T21:05:44Z</time>
      </trkpt>
      <trkpt lat="45.12692" lon="2.86783">
        <ele>1076</ele>
        <time>2019-04-17T21:06:44Z</time>
      </trkpt>
      <trkpt lat="45.1268" lon="2.86755">
        <ele>1079</ele>
        <time>2019-04-17T21:07:44Z</time>
      </trkpt>
      <trkpt lat="45.12673" lon="2.86574">
        <ele>1091</ele>
        <time>2019-04-17T21:08:44Z</time>
      </trkpt>
      <trkpt lat="45.12662" lon="2.86539">
        <ele>1093</ele>
        <time>2019-04-17T21:09:44Z</time>
      </trkpt>
      <trkpt lat="45.12601" lon="2.86454">
        <ele>1098</ele>
        <time>2019-04-17T21:10:44Z</time>
      </trkpt>
      <trkpt lat="45.12577" lon="2.86411">
        <ele>1102</ele>
        <time>2019-04-17T21:11:44Z</time>
      </trkpt>
      <trkpt lat="45.12568" lon="2.86368">
        <ele>1107</ele>
        <time>2019-04-17T21:12:44Z</time>
      </trkpt>
      <trkpt lat="45.12574" lon="2.86261">
        <ele>1114</ele>
        <time>2019-04-17T21:13:44Z</time>
      </trkpt>
      <trkpt lat="45.12576" lon="2.86207">
        <ele>1116</ele>
        <time>2019-04-17T21:14:44Z</time>
      </trkpt>
      <trkpt lat="45.1256" lon="2.86145">
        <ele>1118</ele>
        <time>2019-04-17T21:15:44Z</time>
      </trkpt>
      <trkpt lat="45.12538" lon="2.85992">
        <ele>1123</ele>
        <time>2019-04-17T21:16:44Z</time>
      </trkpt>
      <trkpt lat="45.12516" lon="2.8593">
        <ele>1125</ele>
        <time>2019-04-17T21:17:44Z</time>
      </trkpt>
      <trkpt lat="45.12499" lon="2.85867">
        <ele>1124</ele>
        <time>2019-04-17T21:18:44Z</time>
      </trkpt>
      <trkpt lat="45.12495" lon="2.85822">
        <ele>1123</ele>
        <time>2019-04-17T21:19:44Z</time>
      </trkpt>
      <trkpt lat="45.125" lon="2.85786">
        <ele>1123</ele>
        <time>2019-04-17T21:20:44Z</time>
      </trkpt>
      <trkpt lat="45.12495" lon="2.85759">
        <ele>1122</ele>
        <time>2019-04-17T21:21:44Z</time>
      </trkpt>
      <trkpt lat="45.12474" lon="2.85712">
        <ele>1122</ele>
        <time>2019-04-17T21:22:44Z</time>
      </trkpt>
      <trkpt lat="45.12476" lon="2.85695">
        <ele>1122</ele>
        <time>2019-04-17T21:23:44Z</time>
      </trkpt>
      <trkpt lat="45.12492" lon="2.85653">
        <ele>1123</ele>
        <time>2019-04-17T21:24:44Z</time>
      </trkpt>
      <trkpt lat="45.12571" lon="2.85456">
        <ele>1124</ele>
        <time>2019-04-17T21:25:44Z</time>
      </trkpt>
      <trkpt lat="45.12647" lon="2.8525">
        <ele>1119</ele>
        <time>2019-04-17T21:26:44Z</time>
      </trkpt>
      <trkpt lat="45.12658" lon="2.85216">
        <ele>1116</ele>
        <time>2019-04-17T21:27:44Z</time>
      </trkpt>
      <trkpt lat="45.12662" lon="2.85168">
        <ele>1112</ele>
        <time>2019-04-17T21:28:44Z</time>
      </trkpt>
      <trkpt lat="45.12698" lon="2.85071">
        <ele>1109</ele>
        <time>2019-04-17T21:29:44Z</time>
      </trkpt>
      <trkpt lat="45.127" lon="2.85028">
        <ele>1109</ele>
        <time>2019-04-17T21:30:44Z</time>
      </trkpt>
      <trkpt lat="45.12694" lon="2.84957">
        <ele>1108</ele>
        <time>2019-04-17T21:31:44Z</time>
      </trkpt>
      <trkpt lat="45.12681" lon="2.84897">
        <ele>1103</ele>
        <time>2019-04-17T21:32:44Z</time>
      </trkpt>
      <trkpt lat="45.12676" lon="2.84861">
        <ele>1098</ele>
        <time>2019-04-17T21:33:44Z</time>
      </trkpt>
      <trkpt lat="45.12691" lon="2.84824">
        <ele>1097</ele>
        <time>2019-04-17T21:34:44Z</time>
      </trkpt>
      <trkpt lat="45.1272" lon="2.84782">
        <ele>1096</ele>
        <time>2019-04-17T21:35:44Z</time>
      </trkpt>
      <trkpt lat="45.12762" lon="2.84736">
        <ele>1099</ele>
        <time>2019-04-17T21:36:44Z</time>
      </trkpt>
      <trkpt lat="45.12762" lon="2.84714">
        <ele>1095</ele>
        <time>2019-04-17T21:37:44Z</time>
      </trkpt>
      <trkpt lat="45.12755" lon="2.84702">
        <ele>1090</ele>
        <time>2019-04-17T21:38:44Z</time>
      </trkpt>
      <trkpt lat="45.12949" lon="2.84486">
        <ele>1109</ele>
        <time>2019-04-17T21:39:44Z</time>
      </trkpt>
      <trkpt lat="45.12992" lon="2.84435">
        <ele>1111</ele>
        <time>2019-04-17T21:40:44Z</time>
      </trkpt>
      <trkpt lat="45.13011" lon="2.84406">
        <ele>1111</ele>
        <time>2019-04-17T21:41:44Z</time>
      </trkpt>
      <trkpt lat="45.13022" lon="2.84383">
        <ele>1112</ele>
        <time>2019-04-17T21:42:44Z</time>
      </trkpt>
      <trkpt lat="45.13114" lon="2.84185">
        <ele>1115</ele>
        <time>2019-04-17T21:43:44Z</time>
      </trkpt>
      <trkpt lat="45.13167" lon="2.84064">
        <ele>1123</ele>
        <time>2019-04-17T21:44:44Z</time>
      </trkpt>
      <trkpt lat="45.13179" lon="2.84029">
        <ele>1125</ele>
        <time>2019-04-17T21:45:44Z</time>
      </trkpt>
      <trkpt lat="45.1319" lon="2.83992">
        <ele>1127</ele>
        <time>2019-04-17T21:46:44Z</time>
      </trkpt>
      <trkpt lat="45.13255" lon="2.83688">
        <ele>1141</ele>
        <time>2019-04-17T21:47:44Z</time>
      </trkpt>
      <trkpt lat="45.13288" lon="2.83556">
        <ele>1147</ele>
        <time>2019-04-17T21:48:44Z</time>
      </trkpt>
      <trkpt lat="45.13371" lon="2.83235">
        <ele>1162</ele>
        <time>2019-04-17T21:49:44Z</time>
      </trkpt>
      <trkpt lat="45.13382" lon="2.83203">
        <ele>1163</ele>
        <time>2019-04-17T21:50:44Z</time>
      </trkpt>
      <trkpt lat="45.13403" lon="2.83151">
        <ele>1165</ele>
        <time>2019-04-17T21:51:44Z</time>
      </trkpt>
      <trkpt lat="45.13424" lon="2.83112">
        <ele>1167</ele>
        <time>2019-04-17T21:52:44Z</time>
      </trkpt>
      <trkpt lat="45.13449" lon="2.83073">
        <ele>1168</ele>
        <time>2019-04-17T21:53:44Z</time>
      </trkpt>
      <trkpt lat="45.13475" lon="2.83042">
        <ele>1170</ele>
        <time>2019-04-17T21:54:44Z</time>
      </trkpt>
      <trkpt lat="45.13505" lon="2.83011">
        <ele>1171</ele>
        <time>2019-04-17T21:55:44Z</time>
      </trkpt>
      <trkpt lat="45.13528" lon="2.82993">
        <ele>1172</ele>
        <time>2019-04-17T21:56:44Z</time>
      </trkpt>
      <trkpt lat="45.13664" lon="2.82897">
        <ele>1173</ele>
        <time>2019-04-17T21:57:44Z</time>
      </trkpt>
      <trkpt lat="45.13702" lon="2.82869">
        <ele>1173</ele>
        <time>2019-04-17T21:58:44Z</time>
      </trkpt>
      <trkpt lat="45.13716" lon="2.82856">
        <ele>1173</ele>
        <time>2019-04-17T21:59:44Z</time>
      </trkpt>
      <trkpt lat="45.13749" lon="2.82821">
        <ele>1176</ele>
        <time>2019-04-17T22:00:44Z</time>
      </trkpt>
      <trkpt lat="45.13869" lon="2.82677">
        <ele>1180</ele>
        <time>2019-04-17T22:01:44Z</time>
      </trkpt>
      <trkpt lat="45.13884" lon="2.82656">
        <ele>1180</ele>
        <time>2019-04-17T22:02:44Z</time>
      </trkpt>
      <trkpt lat="45.13907" lon="2.82614">
        <ele>1181</ele>
        <time>2019-04-17T22:03:44Z</time>
      </trkpt>
      <trkpt lat="45.13931" lon="2.82551">
        <ele>1181</ele>
        <time>2019-04-17T22:04:44Z</time>
      </trkpt>
      <trkpt lat="45.14022" lon="2.82252">
        <ele>1188</ele>
        <time>2019-04-17T22:05:44Z</time>
      </trkpt>
      <trkpt lat="45.1404" lon="2.82206">
        <ele>1189</ele>
        <time>2019-04-17T22:06:44Z</time>
      </trkpt>
      <trkpt lat="45.14048" lon="2.82189">
        <ele>1189</ele>
        <time>2019-04-17T22:07:44Z</time>
      </trkpt>
      <trkpt lat="45.14062" lon="2.82164">
        <ele>1190</ele>
        <time>2019-04-17T22:08:44Z</time>
      </trkpt>
      <trkpt lat="45.14082" lon="2.82135">
        <ele>1192</ele>
        <time>2019-04-17T22:09:44Z</time>
      </trkpt>
      <trkpt lat="45.14579" lon="2.81595">
        <ele>1208</ele>
        <time>2019-04-17T22:10:44Z</time>
      </trkpt>
      <trkpt lat="45.14605" lon="2.8157">
        <ele>1210</ele>
        <time>2019-04-17T22:11:44Z</time>
      </trkpt>
      <trkpt lat="45.14721" lon="2.81468">
        <ele>1209</ele>
        <time>2019-04-17T22:12:44Z</time>
      </trkpt>
      <trkpt lat="45.14742" lon="2.81447">
        <ele>1208</ele>
        <time>2019-04-17T22:13:44Z</time>
      </trkpt>
      <trkpt lat="45.14782" lon="2.81399">
        <ele>1204</ele>
        <time>2019-04-17T22:14:44Z</time>
      </trkpt>
      <trkpt lat="45.14826" lon="2.81341">
        <ele>1202</ele>
        <time>2019-04-17T22:15:44Z</time>
      </trkpt>
      <trkpt lat="45.14863" lon="2.81299">
        <ele>1198</ele>
        <time>2019-04-17T22:16:44Z</time>
      </trkpt>
      <trkpt lat="45.14887" lon="2.81274">
        <ele>1196</ele>
        <time>2019-04-17T22:17:44Z</time>
      </trkpt>
      <trkpt lat="45.14935" lon="2.81234">
        <ele>1193</ele>
        <time>2019-04-17T22:18:44Z</time>
      </trkpt>
      <trkpt lat="45.1497" lon="2.81212">
        <ele>1193</ele>
        <time>2019-04-17T22:19:44Z</time>
      </trkpt>
      <trkpt lat="45.15003" lon="2.812">
        <ele>1193</ele>
        <time>2019-04-17T22:20:44Z</time>
      </trkpt>
      <trkpt lat="45.15039" lon="2.81195">
        <ele>1191</ele>
        <time>2019-04-17T22:21:44Z</time>
      </trkpt>
      <trkpt lat="45.15071" lon="2.81196">
        <ele>1190</ele>
        <time>2019-04-17T22:22:44Z</time>
      </trkpt>
      <trkpt lat="45.15102" lon="2.81204">
        <ele>1188</ele>
        <time>2019-04-17T22:23:44Z</time>
      </trkpt>
      <trkpt lat="45.15138" lon="2.81222">
        <ele>1187</ele>
        <time>2019-04-17T22:24:44Z</time>
      </trkpt>
      <trkpt lat="45.15158" lon="2.81235">
        <ele>1186</ele>
        <time>2019-04-17T22:25:44Z</time>
      </trkpt>
      <trkpt lat="45.15185" lon="2.81259">
        <ele>1184</ele>
        <time>2019-04-17T22:26:44Z</time>
      </trkpt>
      <trkpt lat="45.15209" lon="2.81288">
        <ele>1183</ele>
        <time>2019-04-17T22:27:44Z</time>
      </trkpt>
      <trkpt lat="45.15221" lon="2.8131">
        <ele>1182</ele>
        <time>2019-04-17T22:28:44Z</time>
      </trkpt>
      <trkpt lat="45.15243" lon="2.81352">
        <ele>1180</ele>
        <time>2019-04-17T22:29:44Z</time>
      </trkpt>
      <trkpt lat="45.15265" lon="2.81419">
        <ele>1181</ele>
        <time>2019-04-17T22:30:44Z</time>
      </trkpt>
      <trkpt lat="45.15273" lon="2.81428">
        <ele>1180</ele>
        <time>2019-04-17T22:31:44Z</time>
      </trkpt>
      <trkpt lat="45.15284" lon="2.8146">
        <ele>1180</ele>
        <time>2019-04-17T22:32:44Z</time>
      </trkpt>
      <trkpt lat="45.15288" lon="2.81464">
        <ele>1179</ele>
        <time>2019-04-17T22:33:44Z</time>
      </trkpt>
      <trkpt lat="45.15327" lon="2.8144">
        <ele>1171</ele>
        <time>2019-04-17T22:34:44Z</time>
      </trkpt>
      <trkpt lat="45.15335" lon="2.81427">
        <ele>1169</ele>
        <time>2019-04-17T22:35:44Z</time>
      </trkpt>
      <trkpt lat="45.15338" lon="2.81413">
        <ele>1168</ele>
        <time>2019-04-17T22:36:44Z</time>
      </trkpt>
      <trkpt lat="45.15322" lon="2.81286">
        <ele>1165</ele>
        <time>2019-04-17T22:37:44Z</time>
      </trkpt>
      <trkpt lat="45.1532" lon="2.81248">
        <ele>1164</ele>
        <time>2019-04-17T22:38:44Z</time>
      </trkpt>
      <trkpt lat="45.15321" lon="2.81213">
        <ele>1161</ele>
        <time>2019-04-17T22:39:44Z</time>
      </trkpt>
      <trkpt lat="45.15317" lon="2.81192">
        <ele>1160</ele>
        <time>2019-04-17T22:40:44Z</time>
      </trkpt>
      <trkpt lat="45.15308" lon="2.81173">
        <ele>1160</ele>
        <time>2019-04-17T22:41:44Z</time>
      </trkpt>
      <trkpt lat="45.15301" lon="2.81154">
        <ele>1160</ele>
        <time>2019-04-17T22:42:44Z</time>
      </trkpt>
      <trkpt lat="45.153" lon="2.81144">
        <ele>1160</ele>
        <time>2019-04-17T22:43:44Z</time>
      </trkpt>
      <trkpt lat="45.15298" lon="2.81058">
        <ele>1157</ele>
        <time>2019-04-17T22:44:44Z</time>
      </trkpt>
      <trkpt lat="45.15304" lon="2.8103">
        <ele>1157</ele>
        <time>2019-04-17T22:45:44Z</time>
      </trkpt>
      <trkpt lat="45.15317" lon="2.8101">
        <ele>1154</ele>
        <time>2019-04-17T22:46:44Z</time>
      </trkpt>
      <trkpt lat="45.15329" lon="2.80997">
        <ele>1152</ele>
        <time>2019-04-17T22:47:44Z</time>
      </trkpt>
      <trkpt lat="45.15339" lon="2.8098">
        <ele>1149</ele>
        <time>2019-04-17T22:48:44Z</time>
      </trkpt>
      <trkpt lat="45.15346" lon="2.80963">
        <ele>1147</ele>
        <time>2019-04-17T22:49:44Z</time>
      </trkpt>
      <trkpt lat="45.1535" lon="2.80929">
        <ele>1145</ele>
        <time>2019-04-17T22:50:44Z</time>
      </trkpt>
      <trkpt lat="45.15347" lon="2.80907">
        <ele>1144</ele>
        <time>2019-04-17T22:51:44Z</time>
      </trkpt>
      <trkpt lat="45.15335" lon="2.80858">
        <ele>1142</ele>
        <time>2019-04-17T22:52:44Z</time>
      </trkpt>
      <trkpt lat="45.15329" lon="2.80823">
        <ele>1140</ele>
        <time>2019-04-17T22:53:44Z</time>
      </trkpt>
      <trkpt lat="45.15332" lon="2.80783">
        <ele>1138</ele>
        <time>2019-04-17T22:54:44Z</time>
      </trkpt>
      <trkpt lat="45.15336" lon="2.80759">
        <ele>1136</ele>
        <time>2019-04-17T22:55:44Z</time>
      </trkpt>
      <trkpt lat="45.15356" lon="2.8071">
        <ele>1131</ele>
        <time>2019-04-17T22:56:44Z</time>
      </trkpt>
      <trkpt lat="45.15376" lon="2.80666">
        <ele>1125</ele>
        <time>2019-04-17T22:57:44Z</time>
      </trkpt>
      <trkpt lat="45.15383" lon="2.80647">
        <ele>1123</ele>
        <time>2019-04-17T22:58:44Z</time>
      </trkpt>
      <trkpt lat="45.15387" lon="2.80628">
        <ele>1122</ele>
        <time>2019-04-17T22:59:44Z</time>
      </trkpt>
      <trkpt lat="45.15389" lon="2.80561">
        <ele>1122</ele>
        <time>2019-04-17T23:00:44Z</time>
      </trkpt>
      <trkpt lat="45.15392" lon="2.8054">
        <ele>1122</ele>
        <time>2019-04-17T23:01:44Z</time>
      </trkpt>
      <trkpt lat="45.15398" lon="2.80525">
        <ele>1121</ele>
        <time>2019-04-17T23:02:44Z</time>
      </trkpt>
      <trkpt lat="45.15423" lon="2.80477">
        <ele>1115</ele>
        <time>2019-04-17T23:03:44Z</time>
      </trkpt>
      <trkpt lat="45.1543" lon="2.80445">
        <ele>1112</ele>
        <time>2019-04-17T23:04:44Z</time>
      </trkpt>
      <trkpt lat="45.15437" lon="2.80391">
        <ele>1108</ele>
        <time>2019-04-17T23:05:44Z</time>
      </trkpt>
      <trkpt lat="45.15445" lon="2.80358">
        <ele>1104</ele>
        <time>2019-04-17T23:06:44Z</time>
      </trkpt>
      <trkpt lat="45.15456" lon="2.80322">
        <ele>1100</ele>
        <time>2019-04-17T23:07:44Z</time>
      </trkpt>
      <trkpt lat="45.15459" lon="2.80302">
        <ele>1098</ele>
        <time>2019-04-17T23:08:44Z</time>
      </trkpt>
      <trkpt lat="45.15461" lon="2.80283">
        <ele>1097</ele>
        <time>2019-04-17T23:09:44Z</time>
      </trkpt>
      <trkpt lat="45.15454" lon="2.80219">
        <ele>1096</ele>
        <time>2019-04-17T23:10:44Z</time>
      </trkpt>
      <trkpt lat="45.15455" lon="2.80198">
        <ele>1096</ele>
        <time>2019-04-17T23:11:44Z</time>
      </trkpt>
      <trkpt lat="45.15464" lon="2.80167">
        <ele>1093</ele>
        <time>2019-04-17T23:12:44Z</time>
      </trkpt>
      <trkpt lat="45.1549" lon="2.80121">
        <ele>1086</ele>
        <time>2019-04-17T23:13:44Z</time>
      </trkpt>
      <trkpt lat="45.15496" lon="2.80105">
        <ele>1085</ele>
        <time>2019-04-17T23:14:44Z</time>
      </trkpt>
      <trkpt lat="45.15499" lon="2.8009">
        <ele>1085</ele>
        <time>2019-04-17T23:15:44Z</time>
      </trkpt>
      <trkpt lat="45.155" lon="2.80075">
        <ele>1084</ele>
        <time>2019-04-17T23:16:44Z</time>
      </trkpt>
      <trkpt lat="45.15499" lon="2.80055">
        <ele>1083</ele>
        <time>2019-04-17T23:17:44Z</time>
      </trkpt>
      <trkpt lat="45.15485" lon="2.79996">
        <ele>1082</ele>
        <time>2019-04-17T23:18:44Z</time>
      </trkpt>
      <trkpt lat="45.15483" lon="2.79968">
        <ele>1081</ele>
        <time>2019-04-17T23:19:44Z</time>
      </trkpt>
      <trkpt lat="45.15485" lon="2.79939">
        <ele>1080</ele>
        <time>2019-04-17T23:20:44Z</time>
      </trkpt>
      <trkpt lat="45.15493" lon="2.79907">
        <ele>1077</ele>
        <time>2019-04-17T23:21:44Z</time>
      </trkpt>
      <trkpt lat="45.15552" lon="2.79771">
        <ele>1063</ele>
        <time>2019-04-17T23:22:44Z</time>
      </trkpt>
      <trkpt lat="45.15565" lon="2.7975">
        <ele>1061</ele>
        <time>2019-04-17T23:23:44Z</time>
      </trkpt>
      <trkpt lat="45.15576" lon="2.79738">
        <ele>1060</ele>
        <time>2019-04-17T23:24:44Z</time>
      </trkpt>
      <trkpt lat="45.15589" lon="2.79728">
        <ele>1060</ele>
        <time>2019-04-17T23:25:44Z</time>
      </trkpt>
      <trkpt lat="45.1562" lon="2.7971">
        <ele>1059</ele>
        <time>2019-04-17T23:26:44Z</time>
      </trkpt>
      <trkpt lat="45.15638" lon="2.79702">
        <ele>1060</ele>
        <time>2019-04-17T23:27:44Z</time>
      </trkpt>
      <trkpt lat="45.15654" lon="2.79691">
        <ele>1060</ele>
        <time>2019-04-17T23:28:44Z</time>
      </trkpt>
      <trkpt lat="45.1567" lon="2.79675">
        <ele>1060</ele>
        <time>2019-04-17T23:29:44Z</time>
      </trkpt>
      <trkpt lat="45.15678" lon="2.79661">
        <ele>1059</ele>
        <time>2019-04-17T23:30:44Z</time>
      </trkpt>
      <trkpt lat="45.15686" lon="2.79648">
        <ele>1058</ele>
        <time>2019-04-17T23:31:44Z</time>
      </trkpt>
      <trkpt lat="45.15691" lon="2.79629">
        <ele>1057</ele>
        <time>2019-04-17T23:32:44Z</time>
      </trkpt>
      <trkpt lat="45.15701" lon="2.79566">
        <ele>1055</ele>
        <time>2019-04-17T23:33:44Z</time>
      </trkpt>
      <trkpt lat="45.15724" lon="2.79464">
        <ele>1052</ele>
        <time>2019-04-17T23:34:44Z</time>
      </trkpt>
      <trkpt lat="45.1573" lon="2.79421">
        <ele>1052</ele>
        <time>2019-04-17T23:35:44Z</time>
      </trkpt>
      <trkpt lat="45.1573" lon="2.794">
        <ele>1052</ele>
        <time>2019-04-17T23:36:44Z</time>
      </trkpt>
      <trkpt lat="45.15728" lon="2.79372">
        <ele>1051</ele>
        <time>2019-04-17T23:37:44Z</time>
      </trkpt>
      <trkpt lat="45.15722" lon="2.79341">
        <ele>1051</ele>
        <time>2019-04-17T23:38:44Z</time>
      </trkpt>
      <trkpt lat="45.15721" lon="2.79318">
        <ele>1050</ele>
        <time>2019-04-17T23:39:44Z</time>
      </trkpt>
      <trkpt lat="45.15725" lon="2.79296">
        <ele>1050</ele>
        <time>2019-04-17T23:40:44Z</time>
      </trkpt>
      <trkpt lat="45.15736" lon="2.79274">
        <ele>1049</ele>
        <time>2019-04-17T23:41:44Z</time>
      </trkpt>
      <trkpt lat="45.15756" lon="2.79245">
        <ele>1049</ele>
        <time>2019-04-17T23:42:44Z</time>
      </trkpt>
      <trkpt lat="45.1579" lon="2.79192">
        <ele>1053</ele>
        <time>2019-04-17T23:43:44Z</time>
      </trkpt>
      <trkpt lat="45.15798" lon="2.79171">
        <ele>1054</ele>
        <time>2019-04-17T23:44:44Z</time>
      </trkpt>
      <trkpt lat="45.15806" lon="2.79133">
        <ele>1055</ele>
        <time>2019-04-17T23:45:44Z</time>
      </trkpt>
      <trkpt lat="45.15805" lon="2.7905">
        <ele>1056</ele>
        <time>2019-04-17T23:46:44Z</time>
      </trkpt>
      <trkpt lat="45.15806" lon="2.79015">
        <ele>1057</ele>
        <time>2019-04-17T23:47:44Z</time>
      </trkpt>
      <trkpt lat="45.15809" lon="2.78992">
        <ele>1057</ele>
        <time>2019-04-17T23:48:44Z</time>
      </trkpt>
      <trkpt lat="45.1583" lon="2.78908">
        <ele>1062</ele>
        <time>2019-04-17T23:49:44Z</time>
      </trkpt>
      <trkpt lat="45.15847" lon="2.78848">
        <ele>1066</ele>
        <time>2019-04-17T23:50:44Z</time>
      </trkpt>
      <trkpt lat="45.15849" lon="2.78819">
        <ele>1066</ele>
        <time>2019-04-17T23:51:44Z</time>
      </trkpt>
      <trkpt lat="45.15846" lon="2.78794">
        <ele>1066</ele>
        <time>2019-04-17T23:52:44Z</time>
      </trkpt>
      <trkpt lat="45.15833" lon="2.78728">
        <ele>1066</ele>
        <time>2019-04-17T23:53:44Z</time>
      </trkpt>
      <trkpt lat="45.15823" lon="2.78701">
        <ele>1067</ele>
        <time>2019-04-17T23:54:44Z</time>
      </trkpt>
      <trkpt lat="45.15812" lon="2.78687">
        <ele>1067</ele>
        <time>2019-04-17T23:55:44Z</time>
      </trkpt>
      <trkpt lat="45.1577" lon="2.78659">
        <ele>1065</ele>
        <time>2019-04-17T23:56:44Z</time>
      </trkpt>
      <trkpt lat="45.15675" lon="2.78509">
        <ele>1057</ele>
        <time>2019-04-17T23:57:44Z</time>
      </trkpt>
      <trkpt lat="45.15534" lon="2.78327">
        <ele>1055</ele>
        <time>2019-04-17T23:58:44Z</time>
      </trkpt>
      <trkpt lat="45.155" lon="2.78272">
        <ele>1053</ele>
        <time>2019-04-17T23:59:44Z</time>
      </trkpt>
      <trkpt lat="45.15464" lon="2.78231">
        <ele>1054</ele>
        <time>2019-04-18T00:00:44Z</time>
      </trkpt>
      <trkpt lat="45.15429" lon="2.78185">
        <ele>1056</ele>
        <time>2019-04-18T00:01:44Z</time>
      </trkpt>
      <trkpt lat="45.15409" lon="2.78153">
        <ele>1055</ele>
        <time>2019-04-18T00:02:44Z</time>
      </trkpt>
      <trkpt lat="45.15393" lon="2.78118">
        <ele>1054</ele>
        <time>2019-04-18T00:03:44Z</time>
      </trkpt>
      <trkpt lat="45.15382" lon="2.78088">
        <ele>1052</ele>
        <time>2019-04-18T00:04:44Z</time>
      </trkpt>
      <trkpt lat="45.15374" lon="2.78057">
        <ele>1052</ele>
        <time>2019-04-18T00:05:44Z</time>
      </trkpt>
      <trkpt lat="45.15368" lon="2.7802">
        <ele>1053</ele>
        <time>2019-04-18T00:06:44Z</time>
      </trkpt>
      <trkpt lat="45.15356" lon="2.77909">
        <ele>1059</ele>
        <time>2019-04-18T00:07:44Z</time>
      </trkpt>
      <trkpt lat="45.15349" lon="2.77876">
        <ele>1061</ele>
        <time>2019-04-18T00:08:44Z</time>
      </trkpt>
      <trkpt lat="45.15329" lon="2.77816">
        <ele>1063</ele>
        <time>2019-04-18T00:09:44Z</time>
      </trkpt>
      <trkpt lat="45.15316" lon="2.77797">
        <ele>1065</ele>
        <time>2019-04-18T00:10:44Z</time>
      </trkpt>
      <trkpt lat="45.15195" lon="2.77699">
        <ele>1057</ele>
        <time>2019-04-18T00:11:44Z</time>
      </trkpt>
      <trkpt lat="45.15131" lon="2.77628">
        <ele>1059</ele>
        <time>2019-04-18T00:12:44Z</time>
      </trkpt>
      <trkpt lat="45.15014" lon="2.7752">
        <ele>1062</ele>
        <time>2019-04-18T00:13:44Z</time>
      </trkpt>
      <trkpt lat="45.14989" lon="2.775">
        <ele>1062</ele>
        <time>2019-04-18T00:14:44Z</time>
      </trkpt>
      <trkpt lat="45.14961" lon="2.77484">
        <ele>1064</ele>
        <time>2019-04-18T00:15:44Z</time>
      </trkpt>
      <trkpt lat="45.14914" lon="2.77466">
        <ele>1065</ele>
        <time>2019-04-18T00:16:44Z</time>
      </trkpt>
      <trkpt lat="45.14897" lon="2.77454">
        <ele>1065</ele>
        <time>2019-04-18T00:17:44Z</time>
      </trkpt>
      <trkpt lat="45.14757" lon="2.77329">
        <ele>1068</ele>
        <time>2019-04-18T00:18:44Z</time>
      </trkpt>
      <trkpt lat="45.14707" lon="2.77292">
        <ele>1070</ele>
        <time>2019-04-18T00:19:44Z</time>
      </trkpt>
      <trkpt lat="45.14579" lon="2.77211">
        <ele>1072</ele>
        <time>2019-04-18T00:20:44Z</time>
      </trkpt>
      <trkpt lat="45.14557" lon="2.7719">
        <ele>1071</ele>
        <time>2019-04-18T00:21:44Z</time>
      </trkpt>
      <trkpt lat="45.14532" lon="2.77155">
        <ele>1071</ele>
        <time>2019-04-18T00:22:44Z</time>
      </trkpt>
      <trkpt lat="45.14503" lon="2.77084">
        <ele>1076</ele>
        <time>2019-04-18T00:23:44Z</time>
      </trkpt>
      <trkpt lat="45.14493" lon="2.77068">
        <ele>1078</ele>
        <time>2019-04-18T00:24:44Z</time>
      </trkpt>
      <trkpt lat="45.14482" lon="2.77052">
        <ele>1079</ele>
        <time>2019-04-18T00:25:44Z</time>
      </trkpt>
      <trkpt lat="45.14398" lon="2.76947">
        <ele>1081</ele>
        <time>2019-04-18T00:26:44Z</time>
      </trkpt>
      <trkpt lat="45.14381" lon="2.76922">
        <ele>1081</ele>
        <time>2019-04-18T00:27:44Z</time>
      </trkpt>
      <trkpt lat="45.14291" lon="2.7672">
        <ele>1088</ele>
        <time>2019-04-18T00:28:44Z</time>
      </trkpt>
      <trkpt lat="45.14244" lon="2.76575">
        <ele>1090</ele>
        <time>2019-04-18T00:29:44Z</time>
      </trkpt>
      <trkpt lat="45.14236" lon="2.76545">
        <ele>1090</ele>
        <time>2019-04-18T00:30:44Z</time>
      </trkpt>
      <trkpt lat="45.14232" lon="2.76518">
        <ele>1092</ele>
        <time>2019-04-18T00:31:44Z</time>
      </trkpt>
      <trkpt lat="45.14232" lon="2.76474">
        <ele>1093</ele>
        <time>2019-04-18T00:32:44Z</time>
      </trkpt>
      <trkpt lat="45.14234" lon="2.76401">
        <ele>1094</ele>
        <time>2019-04-18T00:33:44Z</time>
      </trkpt>
      <trkpt lat="45.14241" lon="2.7635">
        <ele>1095</ele>
        <time>2019-04-18T00:34:44Z</time>
      </trkpt>
      <trkpt lat="45.14273" lon="2.76184">
        <ele>1101</ele>
        <time>2019-04-18T00:35:44Z</time>
      </trkpt>
      <trkpt lat="45.1428" lon="2.76133">
        <ele>1103</ele>
        <time>2019-04-18T00:36:44Z</time>
      </trkpt>
      <trkpt lat="45.14282" lon="2.76081">
        <ele>1103</ele>
        <time>2019-04-18T00:37:44Z</time>
      </trkpt>
      <trkpt lat="45.14283" lon="2.75925">
        <ele>1107</ele>
        <time>2019-04-18T00:38:44Z</time>
      </trkpt>
      <trkpt lat="45.14281" lon="2.759">
        <ele>1107</ele>
        <time>2019-04-18T00:39:44Z</time>
      </trkpt>
      <trkpt lat="45.1427" lon="2.75846">
        <ele>1106</ele>
        <time>2019-04-18T00:40:44Z</time>
      </trkpt>
      <trkpt lat="45.14265" lon="2.75802">
        <ele>1106</ele>
        <time>2019-04-18T00:41:44Z</time>
      </trkpt>
      <trkpt lat="45.14261" lon="2.75742">
        <ele>1108</ele>
        <time>2019-04-18T00:42:44Z</time>
      </trkpt>
      <trkpt lat="45.14257" lon="2.75704">
        <ele>1108</ele>
        <time>2019-04-18T00:43:44Z</time>
      </trkpt>
      <trkpt lat="45.14223" lon="2.75596">
        <ele>1104</ele>
        <time>2019-04-18T00:44:44Z</time>
      </trkpt>
      <trkpt lat="45.14214" lon="2.75558">
        <ele>1104</ele>
        <time>2019-04-18T00:45:44Z</time>
      </trkpt>
      <trkpt lat="45.14206" lon="2.75486">
        <ele>1107</ele>
        <time>2019-04-18T00:46:44Z</time>
      </trkpt>
      <trkpt lat="45.142" lon="2.75446">
        <ele>1109</ele>
        <time>2019-04-18T00:47:44Z</time>
      </trkpt>
      <trkpt lat="45.14133" lon="2.75246">
        <ele>1108</ele>
        <time>2019-04-18T00:48:44Z</time>
      </trkpt>
      <trkpt lat="45.14122" lon="2.75201">
        <ele>1109</ele>
        <time>2019-04-18T00:49:44Z</time>
      </trkpt>
      <trkpt lat="45.14102" lon="2.75082">
        <ele>1111</ele>
        <time>2019-04-18T00:50:44Z</time>
      </trkpt>
      <trkpt lat="45.14095" lon="2.75059">
        <ele>1112</ele>
        <time>2019-04-18T00:51:44Z</time>
      </trkpt>
      <trkpt lat="45.14052" lon="2.74997">
        <ele>1111</ele>
        <time>2019-04-18T00:52:44Z</time>
      </trkpt>
      <trkpt lat="45.14043" lon="2.74975">
        <ele>1112</ele>
        <time>2019-04-18T00:53:44Z</time>
      </trkpt>
      <trkpt lat="45.14032" lon="2.74918">
        <ele>1116</ele>
        <time>2019-04-18T00:54:44Z</time>
      </trkpt>
      <trkpt lat="45.14024" lon="2.74901">
        <ele>1117</ele>
        <time>2019-04-18T00:55:44Z</time>
      </trkpt>
      <trkpt lat="45.1401" lon="2.74884">
        <ele>1117</ele>
        <time>2019-04-18T00:56:44Z</time>
      </trkpt>
      <trkpt lat="45.13999" lon="2.74864">
        <ele>1117</ele>
        <time>2019-04-18T00:57:44Z</time>
      </trkpt>
      <trkpt lat="45.13987" lon="2.74831">
        <ele>1119</ele>
        <time>2019-04-18T00:58:44Z</time>
      </trkpt>
      <trkpt lat="45.13975" lon="2.74811">
        <ele>1119</ele>
        <time>2019-04-18T00:59:44Z</time>
      </trkpt>
      <trkpt lat="45.13956" lon="2.74793">
        <ele>1118</ele>
        <time>2019-04-18T01:00:44Z</time>
      </trkpt>
      <trkpt lat="45.13945" lon="2.7478">
        <ele>1117</ele>
        <time>2019-04-18T01:01:44Z</time>
      </trkpt>
      <trkpt lat="45.13933" lon="2.74755">
        <ele>1117</ele>
        <time>2019-04-18T01:02:44Z</time>
      </trkpt>
      <trkpt lat="45.13922" lon="2.74717">
        <ele>1119</ele>
        <time>2019-04-18T01:03:44Z</time>
      </trkpt>
      <trkpt lat="45.13909" lon="2.74696">
        <ele>1119</ele>
        <time>2019-04-18T01:04:44Z</time>
      </trkpt>
      <trkpt lat="45.13881" lon="2.7466">
        <ele>1117</ele>
        <time>2019-04-18T01:05:44Z</time>
      </trkpt>
      <trkpt lat="45.1387" lon="2.74642">
        <ele>1117</ele>
        <time>2019-04-18T01:06:44Z</time>
      </trkpt>
      <trkpt lat="45.13855" lon="2.74594">
        <ele>1118</ele>
        <time>2019-04-18T01:07:44Z</time>
      </trkpt>
      <trkpt lat="45.13841" lon="2.7457">
        <ele>1118</ele>
        <time>2019-04-18T01:08:44Z</time>
      </trkpt>
      <trkpt lat="45.13829" lon="2.74546">
        <ele>1117</ele>
        <time>2019-04-18T01:09:44Z</time>
      </trkpt>
      <trkpt lat="45.13823" lon="2.74518">
        <ele>1119</ele>
        <time>2019-04-18T01:10:44Z</time>
      </trkpt>
      <trkpt lat="45.13812" lon="2.74427">
        <ele>1125</ele>
        <time>2019-04-18T01:11:44Z</time>
      </trkpt>
      <trkpt lat="45.13797" lon="2.74396">
        <ele>1125</ele>
        <time>2019-04-18T01:12:44Z</time>
      </trkpt>
      <trkpt lat="45.13786" lon="2.74379">
        <ele>1124</ele>
        <time>2019-04-18T01:13:44Z</time>
      </trkpt>
      <trkpt lat="45.13775" lon="2.74351">
        <ele>1125</ele>
        <time>2019-04-18T01:14:44Z</time>
      </trkpt>
      <trkpt lat="45.13769" lon="2.74323">
        <ele>1126</ele>
        <time>2019-04-18T01:15:44Z</time>
      </trkpt>
      <trkpt lat="45.13752" lon="2.74188">
        <ele>1136</ele>
        <time>2019-04-18T01:16:44Z</time>
      </trkpt>
      <trkpt lat="45.13742" lon="2.74102">
        <ele>1142</ele>
        <time>2019-04-18T01:17:44Z</time>
      </trkpt>
      <trkpt lat="45.13728" lon="2.74066">
        <ele>1142</ele>
        <time>2019-04-18T01:18:44Z</time>
      </trkpt>
      <trkpt lat="45.13724" lon="2.74052">
        <ele>1143</ele>
        <time>2019-04-18T01:19:44Z</time>
      </trkpt>
      <trkpt lat="45.13724" lon="2.74035">
        <ele>1145</ele>
        <time>2019-04-18T01:20:44Z</time>
      </trkpt>
      <trkpt lat="45.13729" lon="2.74012">
        <ele>1148</ele>
        <time>2019-04-18T01:21:44Z</time>
      </trkpt>
      <trkpt lat="45.13729" lon="2.73996">
        <ele>1150</ele>
        <time>2019-04-18T01:22:44Z</time>
      </trkpt>
      <trkpt lat="45.13723" lon="2.73976">
        <ele>1151</ele>
        <time>2019-04-18T01:23:44Z</time>
      </trkpt>
      <trkpt lat="45.13695" lon="2.73921">
        <ele>1153</ele>
        <time>2019-04-18T01:24:44Z</time>
      </trkpt>
      <trkpt lat="45.13681" lon="2.7385">
        <ele>1158</ele>
        <time>2019-04-18T01:25:44Z</time>
      </trkpt>
      <trkpt lat="45.13637" lon="2.73734">
        <ele>1160</ele>
        <time>2019-04-18T01:26:44Z</time>
      </trkpt>
      <trkpt lat="45.13624" lon="2.73706">
        <ele>1160</ele>
        <time>2019-04-18T01:27:44Z</time>
      </trkpt>
      <trkpt lat="45.1362" lon="2.73691">
        <ele>1160</ele>
        <time>2019-04-18T01:28:44Z</time>
      </trkpt>
      <trkpt lat="45.13619" lon="2.73658">
        <ele>1163</ele>
        <time>2019-04-18T01:29:44Z</time>
      </trkpt>
      <trkpt lat="45.13613" lon="2.73612">
        <ele>1165</ele>
        <time>2019-04-18T01:30:44Z</time>
      </trkpt>
      <trkpt lat="45.13617" lon="2.73562">
        <ele>1170</ele>
        <time>2019-04-18T01:31:44Z</time>
      </trkpt>
      <trkpt lat="45.13615" lon="2.73531">
        <ele>1171</ele>
        <time>2019-04-18T01:32:44Z</time>
      </trkpt>
      <trkpt lat="45.1361" lon="2.7349">
        <ele>1173</ele>
        <time>2019-04-18T01:33:44Z</time>
      </trkpt>
      <trkpt lat="45.13609" lon="2.73423">
        <ele>1175</ele>
        <time>2019-04-18T01:34:44Z</time>
      </trkpt>
      <trkpt lat="45.13611" lon="2.73377">
        <ele>1178</ele>
        <time>2019-04-18T01:35:44Z</time>
      </trkpt>
      <trkpt lat="45.13622" lon="2.73315">
        <ele>1185</ele>
        <time>2019-04-18T01:36:44Z</time>
      </trkpt>
      <trkpt lat="45.13623" lon="2.73299">
        <ele>1186</ele>
        <time>2019-04-18T01:37:44Z</time>
      </trkpt>
      <trkpt lat="45.13621" lon="2.73282">
        <ele>1186</ele>
        <time>2019-04-18T01:38:44Z</time>
      </trkpt>
      <trkpt lat="45.13621" lon="2.73251">
        <ele>1187</ele>
        <time>2019-04-18T01:39:44Z</time>
      </trkpt>
      <trkpt lat="45.13633" lon="2.73187">
        <ele>1197</ele>
        <time>2019-04-18T01:40:44Z</time>
      </trkpt>
      <trkpt lat="45.13632" lon="2.73177">
        <ele>1197</ele>
        <time>2019-04-18T01:41:44Z</time>
      </trkpt>
      <trkpt lat="45.13625" lon="2.73168">
        <ele>1196</ele>
        <time>2019-04-18T01:42:44Z</time>
      </trkpt>
      <trkpt lat="45.13607" lon="2.73135">
        <ele>1197</ele>
        <time>2019-04-18T01:43:44Z</time>
      </trkpt>
      <trkpt lat="45.13593" lon="2.73095">
        <ele>1201</ele>
        <time>2019-04-18T01:44:44Z</time>
      </trkpt>
      <trkpt lat="45.13579" lon="2.73064">
        <ele>1203</ele>
        <time>2019-04-18T01:45:44Z</time>
      </trkpt>
      <trkpt lat="45.1356" lon="2.73031">
        <ele>1205</ele>
        <time>2019-04-18T01:46:44Z</time>
      </trkpt>
      <trkpt lat="45.13545" lon="2.72996">
        <ele>1208</ele>
        <time>2019-04-18T01:47:44Z</time>
      </trkpt>
      <trkpt lat="45.13514" lon="2.72896">
        <ele>1214</ele>
        <time>2019-04-18T01:48:44Z</time>
      </trkpt>
      <trkpt lat="45.1349" lon="2.728">
        <ele>1218</ele>
        <time>2019-04-18T01:49:44Z</time>
      </trkpt>
      <trkpt lat="45.13472" lon="2.72699">
        <ele>1222</ele>
        <time>2019-04-18T01:50:44Z</time>
      </trkpt>
      <trkpt lat="45.13458" lon="2.72598">
        <ele>1224</ele>
        <time>2019-04-18T01:51:44Z</time>
      </trkpt>
      <trkpt lat="45.13445" lon="2.72434">
        <ele>1228</ele>
        <time>2019-04-18T01:52:44Z</time>
      </trkpt>
      <trkpt lat="45.13444" lon="2.72394">
        <ele>1228</ele>
        <time>2019-04-18T01:53:44Z</time>
      </trkpt>
      <trkpt lat="45.13447" lon="2.72376">
        <ele>1229</ele>
        <time>2019-04-18T01:54:44Z</time>
      </trkpt>
      <trkpt lat="45.13453" lon="2.72361">
        <ele>1231</ele>
        <time>2019-04-18T01:55:44Z</time>
      </trkpt>
      <trkpt lat="45.13463" lon="2.72346">
        <ele>1234</ele>
        <time>2019-04-18T01:56:44Z</time>
      </trkpt>
      <trkpt lat="45.13467" lon="2.72332">
        <ele>1235</ele>
        <time>2019-04-18T01:57:44Z</time>
      </trkpt>
      <trkpt lat="45.13466" lon="2.72322">
        <ele>1236</ele>
        <time>2019-04-18T01:58:44Z</time>
      </trkpt>
      <trkpt lat="45.13445" lon="2.72295">
        <ele>1233</ele>
        <time>2019-04-18T01:59:44Z</time>
      </trkpt>
      <trkpt lat="45.13439" lon="2.7228">
        <ele>1233</ele>
        <time>2019-04-18T02:00:44Z</time>
      </trkpt>
      <trkpt lat="45.13437" lon="2.72222">
        <ele>1240</ele>
        <time>2019-04-18T02:01:44Z</time>
      </trkpt>
      <trkpt lat="45.13431" lon="2.722">
        <ele>1242</ele>
        <time>2019-04-18T02:02:44Z</time>
      </trkpt>
      <trkpt lat="45.13381" lon="2.72102">
        <ele>1241</ele>
        <time>2019-04-18T02:03:44Z</time>
      </trkpt>
      <trkpt lat="45.13371" lon="2.72064">
        <ele>1243</ele>
        <time>2019-04-18T02:04:44Z</time>
      </trkpt>
      <trkpt lat="45.13358" lon="2.71921">
        <ele>1253</ele>
        <time>2019-04-18T02:05:44Z</time>
      </trkpt>
      <trkpt lat="45.13342" lon="2.71807">
        <ele>1261</ele>
        <time>2019-04-18T02:06:44Z</time>
      </trkpt>
      <trkpt lat="45.13303" lon="2.71572">
        <ele>1272</ele>
        <time>2019-04-18T02:07:44Z</time>
      </trkpt>
      <trkpt lat="45.13277" lon="2.71393">
        <ele>1281</ele>
        <time>2019-04-18T02:08:44Z</time>
      </trkpt>
      <trkpt lat="45.1325" lon="2.71279">
        <ele>1283</ele>
        <time>2019-04-18T02:09:44Z</time>
      </trkpt>
      <trkpt lat="45.13243" lon="2.71214">
        <ele>1286</ele>
        <time>2019-04-18T02:10:44Z</time>
      </trkpt>
      <trkpt lat="45.13241" lon="2.7117">
        <ele>1289</ele>
        <time>2019-04-18T02:11:44Z</time>
      </trkpt>
      <trkpt lat="45.13241" lon="2.7111">
        <ele>1290</ele>
        <time>2019-04-18T02:12:44Z</time>
      </trkpt>
      <trkpt lat="45.13243" lon="2.71082">
        <ele>1292</ele>
        <time>2019-04-18T02:13:44Z</time>
      </trkpt>
      <trkpt lat="45.13243" lon="2.71058">
        <ele>1294</ele>
        <time>2019-04-18T02:14:44Z</time>
      </trkpt>
      <trkpt lat="45.1324" lon="2.71021">
        <ele>1296</ele>
        <time>2019-04-18T02:15:44Z</time>
      </trkpt>
      <trkpt lat="45.13226" lon="2.70944">
        <ele>1299</ele>
        <time>2019-04-18T02:16:44Z</time>
      </trkpt>
      <trkpt lat="45.13223" lon="2.709">
        <ele>1303</ele>
        <time>2019-04-18T02:17:44Z</time>
      </trkpt>
      <trkpt lat="45.13218" lon="2.70861">
        <ele>1305</ele>
        <time>2019-04-18T02:18:44Z</time>
      </trkpt>
      <trkpt lat="45.13173" lon="2.70674">
        <ele>1310</ele>
        <time>2019-04-18T02:19:44Z</time>
      </trkpt>
      <trkpt lat="45.13157" lon="2.70626">
        <ele>1311</ele>
        <time>2019-04-18T02:20:44Z</time>
      </trkpt>
      <trkpt lat="45.13153" lon="2.70629">
        <ele>1308</ele>
        <time>2019-04-18T02:21:44Z</time>
      </trkpt>
      <trkpt lat="45.13078" lon="2.70426">
        <ele>1316</ele>
        <time>2019-04-18T02:22:44Z</time>
      </trkpt>
      <trkpt lat="45.13078" lon="2.70426">
        <ele>1316</ele>
        <time>2019-04-18T02:23:44Z</time>
      </trkpt>
      <trkpt lat="45.12921" lon="2.70256">
        <ele>1320</ele>
        <time>2019-04-18T02:24:44Z</time>
      </trkpt>
      <trkpt lat="45.12921" lon="2.70256">
        <ele>1320</ele>
        <time>2019-04-18T02:25:44Z</time>
      </trkpt>
      <trkpt lat="45.128" lon="2.70178">
        <ele>1323</ele>
        <time>2019-04-18T02:26:44Z</time>
      </trkpt>
      <trkpt lat="45.12802" lon="2.70168">
        <ele>1327</ele>
        <time>2019-04-18T02:27:44Z</time>
      </trkpt>
      <trkpt lat="45.12784" lon="2.70163">
        <ele>1326</ele>
        <time>2019-04-18T02:28:44Z</time>
      </trkpt>
      <trkpt lat="45.12772" lon="2.70153">
        <ele>1326</ele>
        <time>2019-04-18T02:29:44Z</time>
      </trkpt>
      <trkpt lat="45.12752" lon="2.70132">
        <ele>1329</ele>
        <time>2019-04-18T02:30:44Z</time>
      </trkpt>
      <trkpt lat="45.12722" lon="2.7009">
        <ele>1332</ele>
        <time>2019-04-18T02:31:44Z</time>
      </trkpt>
      <trkpt lat="45.12689" lon="2.7004">
        <ele>1334</ele>
        <time>2019-04-18T02:32:44Z</time>
      </trkpt>
      <trkpt lat="45.12656" lon="2.69977">
        <ele>1338</ele>
        <time>2019-04-18T02:33:44Z</time>
      </trkpt>
      <trkpt lat="45.12586" lon="2.69863">
        <ele>1338</ele>
        <time>2019-04-18T02:34:44Z</time>
      </trkpt>
      <trkpt lat="45.12567" lon="2.69838">
        <ele>1339</ele>
        <time>2019-04-18T02:35:44Z</time>
      </trkpt>
      <trkpt lat="45.12532" lon="2.69807">
        <ele>1339</ele>
        <time>2019-04-18T02:36:44Z</time>
      </trkpt>
      <trkpt lat="45.12482" lon="2.6977">
        <ele>1345</ele>
        <time>2019-04-18T02:37:44Z</time>
      </trkpt>
      <trkpt lat="45.12332" lon="2.69721">
        <ele>1350</ele>
        <time>2019-04-18T02:38:44Z</time>
      </trkpt>
      <trkpt lat="45.12247" lon="2.69672">
        <ele>1353</ele>
        <time>2019-04-18T02:39:44Z</time>
      </trkpt>
      <trkpt lat="45.12179" lon="2.69635">
        <ele>1354</ele>
        <time>2019-04-18T02:40:44Z</time>
      </trkpt>
      <trkpt lat="45.12142" lon="2.69608">
        <ele>1356</ele>
        <time>2019-04-18T02:41:44Z</time>
      </trkpt>
      <trkpt lat="45.12121" lon="2.6959">
        <ele>1357</ele>
        <time>2019-04-18T02:42:44Z</time>
      </trkpt>
      <trkpt lat="45.12088" lon="2.69549">
        <ele>1362</ele>
        <time>2019-04-18T02:43:44Z</time>
      </trkpt>
      <trkpt lat="45.12063" lon="2.69527">
        <ele>1363</ele>
        <time>2019-04-18T02:44:44Z</time>
      </trkpt>
      <trkpt lat="45.12036" lon="2.69513">
        <ele>1362</ele>
        <time>2019-04-18T02:45:44Z</time>
      </trkpt>
      <trkpt lat="45.12011" lon="2.69493">
        <ele>1363</ele>
        <time>2019-04-18T02:46:44Z</time>
      </trkpt>
      <trkpt lat="45.11966" lon="2.69451">
        <ele>1363</ele>
        <time>2019-04-18T02:47:44Z</time>
      </trkpt>
      <trkpt lat="45.1188" lon="2.6939">
        <ele>1361</ele>
        <time>2019-04-18T02:48:44Z</time>
      </trkpt>
      <trkpt lat="45.11768" lon="2.69284">
        <ele>1367</ele>
        <time>2019-04-18T02:49:44Z</time>
      </trkpt>
      <trkpt lat="45.11739" lon="2.69264">
        <ele>1370</ele>
        <time>2019-04-18T02:50:44Z</time>
      </trkpt>
      <trkpt lat="45.11683" lon="2.69232">
        <ele>1371</ele>
        <time>2019-04-18T02:51:44Z</time>
      </trkpt>
      <trkpt lat="45.11651" lon="2.69208">
        <ele>1371</ele>
        <time>2019-04-18T02:52:44Z</time>
      </trkpt>
      <trkpt lat="45.11639" lon="2.69196">
        <ele>1371</ele>
        <time>2019-04-18T02:53:44Z</time>
      </trkpt>
      <trkpt lat="45.116" lon="2.69145">
        <ele>1373</ele>
        <time>2019-04-18T02:54:44Z</time>
      </trkpt>
      <trkpt lat="45.11583" lon="2.69117">
        <ele>1376</ele>
        <time>2019-04-18T02:55:44Z</time>
      </trkpt>
      <trkpt lat="45.11538" lon="2.69072">
        <ele>1378</ele>
        <time>2019-04-18T02:56:44Z</time>
      </trkpt>
      <trkpt lat="45.11428" lon="2.68994">
        <ele>1385</ele>
        <time>2019-04-18T02:57:44Z</time>
      </trkpt>
      <trkpt lat="45.114" lon="2.68961">
        <ele>1388</ele>
        <time>2019-04-18T02:58:44Z</time>
      </trkpt>
      <trkpt lat="45.11391" lon="2.68938">
        <ele>1390</ele>
        <time>2019-04-18T02:59:44Z</time>
      </trkpt>
      <trkpt lat="45.11386" lon="2.68911">
        <ele>1392</ele>
        <time>2019-04-18T03:00:44Z</time>
      </trkpt>
      <trkpt lat="45.11381" lon="2.68805">
        <ele>1396</ele>
        <time>2019-04-18T03:01:44Z</time>
      </trkpt>
      <trkpt lat="45.1138" lon="2.68741">
        <ele>1397</ele>
        <time>2019-04-18T03:02:44Z</time>
      </trkpt>
      <trkpt lat="45.11375" lon="2.68712">
        <ele>1398</ele>
        <time>2019-04-18T03:03:44Z</time>
      </trkpt>
      <trkpt lat="45.11364" lon="2.68684">
        <ele>1401</ele>
        <time>2019-04-18T03:04:44Z</time>
      </trkpt>
      <trkpt lat="45.1134" lon="2.68653">
        <ele>1407</ele>
        <time>2019-04-18T03:05:44Z</time>
      </trkpt>
      <trkpt lat="45.11307" lon="2.68641">
        <ele>1411</ele>
        <time>2019-04-18T03:06:44Z</time>
      </trkpt>
      <trkpt lat="45.1126" lon="2.68637">
        <ele>1417</ele>
        <time>2019-04-18T03:07:44Z</time>
      </trkpt>
      <trkpt lat="45.11234" lon="2.6863">
        <ele>1419</ele>
        <time>2019-04-18T03:08:44Z</time>
      </trkpt>
      <trkpt lat="45.1117" lon="2.68593">
        <ele>1426</ele>
        <time>2019-04-18T03:09:44Z</time>
      </trkpt>
      <trkpt lat="45.11121" lon="2.6856">
        <ele>1427</ele>
        <time>2019-04-18T03:10:44Z</time>
      </trkpt>
      <trkpt lat="45.11095" lon="2.68537">
        <ele>1431</ele>
        <time>2019-04-18T03:11:44Z</time>
      </trkpt>
      <trkpt lat="45.11085" lon="2.68517">
        <ele>1436</ele>
        <time>2019-04-18T03:12:44Z</time>
      </trkpt>
      <trkpt lat="45.11084" lon="2.68504">
        <ele>1439</ele>
        <time>2019-04-18T03:13:44Z</time>
      </trkpt>
      <trkpt lat="45.11084" lon="2.68488">
        <ele>1445</ele>
        <time>2019-04-18T03:14:44Z</time>
      </trkpt>
      <trkpt lat="45.11082" lon="2.68478">
        <ele>1450</ele>
        <time>2019-04-18T03:15:44Z</time>
      </trkpt>
      <trkpt lat="45.11076" lon="2.68464">
        <ele>1455</ele>
        <time>2019-04-18T03:16:44Z</time>
      </trkpt>
      <trkpt lat="45.11037" lon="2.68429">
        <ele>1461</ele>
        <time>2019-04-18T03:17:44Z</time>
      </trkpt>
      <trkpt lat="45.10959" lon="2.68344">
        <ele>1476</ele>
        <time>2019-04-18T03:18:44Z</time>
      </trkpt>
      <trkpt lat="45.10912" lon="2.68312">
        <ele>1479</ele>
        <time>2019-04-18T03:19:44Z</time>
      </trkpt>
      <trkpt lat="45.10906" lon="2.68304">
        <ele>1482</ele>
        <time>2019-04-18T03:20:44Z</time>
      </trkpt>
      <trkpt lat="45.10907" lon="2.68295">
        <ele>1487</ele>
        <time>2019-04-18T03:21:44Z</time>
      </trkpt>
      <trkpt lat="45.10911" lon="2.68292">
        <ele>1489</ele>
        <time>2019-04-18T03:22:44Z</time>
      </trkpt>
      <trkpt lat="45.10916" lon="2.68293">
        <ele>1489</ele>
        <time>2019-04-18T03:23:44Z</time>
      </trkpt>
      <trkpt lat="45.10935" lon="2.68305">
        <ele>1488</ele>
        <time>2019-04-18T03:24:44Z</time>
      </trkpt>
      <trkpt lat="45.10999" lon="2.68335">
        <ele>1491</ele>
        <time>2019-04-18T03:25:44Z</time>
      </trkpt>
      <trkpt lat="45.11009" lon="2.68342">
        <ele>1490</ele>
        <time>2019-04-18T03:26:44Z</time>
      </trkpt>
      <trkpt lat="45.1103" lon="2.68363">
        <ele>1485</ele>
        <time>2019-04-18T03:27:44Z</time>
      </trkpt>
      <trkpt lat="45.11043" lon="2.68371">
        <ele>1485</ele>
        <time>2019-04-18T03:28:44Z</time>
      </trkpt>
      <trkpt lat="45.11082" lon="2.68386">
        <ele>1487</ele>
        <time>2019-04-18T03:29:44Z</time>
      </trkpt>
      <trkpt lat="45.11101" lon="2.68381">
        <ele>1483</ele>
        <time>2019-04-18T03:30:44Z</time>
      </trkpt>
      <trkpt lat="45.11113" lon="2.68374">
        <ele>1482</ele>
        <time>2019-04-18T03:31:44Z</time>
      </trkpt>
      <trkpt lat="45.11128" lon="2.68362">
        <ele>1481</ele>
        <time>2019-04-18T03:32:44Z</time>
      </trkpt>
      <trkpt lat="45.11134" lon="2.68349">
        <ele>1484</ele>
        <time>2019-04-18T03:33:44Z</time>
      </trkpt>
      <trkpt lat="45.11148" lon="2.68304">
        <ele>1491</ele>
        <time>2019-04-18T03:34:44Z</time>
      </trkpt>
      <trkpt lat="45.11152" lon="2.68272">
        <ele>1497</ele>
        <time>2019-04-18T03:35:44Z</time>
      </trkpt>
      <trkpt lat="45.1115" lon="2.68252">
        <ele>1502</ele>
        <time>2019-04-18T03:36:44Z</time>
      </trkpt>
      <trkpt lat="45.11144" lon="2.68233">
        <ele>1509</ele>
        <time>2019-04-18T03:37:44Z</time>
      </trkpt>
      <trkpt lat="45.11144" lon="2.68226">
        <ele>1511</ele>
        <time>2019-04-18T03:38:44Z</time>
      </trkpt>
      <trkpt lat="45.11147" lon="2.68217">
        <ele>1512</ele>
        <time>2019-04-18T03:39:44Z</time>
      </trkpt>
      <trkpt lat="45.11155" lon="2.68206">
        <ele>1512</ele>
        <time>2019-04-18T03:40:44Z</time>
      </trkpt>
      <trkpt lat="45.11186" lon="2.6819">
        <ele>1501</ele>
        <time>2019-04-18T03:41:44Z</time>
      </trkpt>
      <trkpt lat="45.11191" lon="2.68185">
        <ele>1499</ele>
        <time>2019-04-18T03:42:44Z</time>
      </trkpt>
      <trkpt lat="45.11193" lon="2.68173">
        <ele>1501</ele>
        <time>2019-04-18T03:43:44Z</time>
      </trkpt>
      <trkpt lat="45.11195" lon="2.68146">
        <ele>1505</ele>
        <time>2019-04-18T03:44:44Z</time>
      </trkpt>
      <trkpt lat="45.11194" lon="2.6813">
        <ele>1508</ele>
        <time>2019-04-18T03:45:44Z</time>
      </trkpt>
      <trkpt lat="45.11189" lon="2.681">
        <ele>1515</ele>
        <time>2019-04-18T03:46:44Z</time>
      </trkpt>
      <trkpt lat="45.11191" lon="2.6809">
        <ele>1516</ele>
        <time>2019-04-18T03:47:44Z</time>
      </trkpt>
      <trkpt lat="45.11213" lon="2.68042">
        <ele>1506</ele>
        <time>2019-04-18T03:48:44Z</time>
      </trkpt>
      <trkpt lat="45.11216" lon="2.68032">
        <ele>1504</ele>
        <time>2019-04-18T03:49:44Z</time>
      </trkpt>
      <trkpt lat="45.11218" lon="2.68021">
        <ele>1504</ele>
        <time>2019-04-18T03:50:44Z</time>
      </trkpt>
      <trkpt lat="45.11212" lon="2.67968">
        <ele>1512</ele>
        <time>2019-04-18T03:51:44Z</time>
      </trkpt>
      <trkpt lat="45.11209" lon="2.67951">
        <ele>1515</ele>
        <time>2019-04-18T03:52:44Z</time>
      </trkpt>
      <trkpt lat="45.11194" lon="2.67929">
        <ele>1525</ele>
        <time>2019-04-18T03:53:44Z</time>
      </trkpt>
      <trkpt lat="45.11182" lon="2.67904">
        <ele>1533</ele>
        <time>2019-04-18T03:54:44Z</time>
      </trkpt>
      <trkpt lat="45.11178" lon="2.67881">
        <ele>1536</ele>
        <time>2019-04-18T03:55:44Z</time>
      </trkpt>
      <trkpt lat="45.11176" lon="2.6785">
        <ele>1538</ele>
        <time>2019-04-18T03:56:44Z</time>
      </trkpt>
      <trkpt lat="45.11179" lon="2.67793">
        <ele>1542</ele>
        <time>2019-04-18T03:57:44Z</time>
      </trkpt>
      <trkpt lat="45.11184" lon="2.6771">
        <ele>1550</ele>
        <time>2019-04-18T03:58:44Z</time>
      </trkpt>
      <trkpt lat="45.11189" lon="2.67678">
        <ele>1553</ele>
        <time>2019-04-18T03:59:44Z</time>
      </trkpt>
      <trkpt lat="45.11196" lon="2.67657">
        <ele>1555</ele>
        <time>2019-04-18T04:00:44Z</time>
      </trkpt>
      <trkpt lat="45.1122" lon="2.67598">
        <ele>1559</ele>
        <time>2019-04-18T04:01:44Z</time>
      </trkpt>
      <trkpt lat="45.11237" lon="2.67564">
        <ele>1558</ele>
        <time>2019-04-18T04:02:44Z</time>
      </trkpt>
      <trkpt lat="45.11245" lon="2.67545">
        <ele>1558</ele>
        <time>2019-04-18T04:03:44Z</time>
      </trkpt>
      <trkpt lat="45.11259" lon="2.67484">
        <ele>1566</ele>
        <time>2019-04-18T04:04:44Z</time>
      </trkpt>
      <trkpt lat="45.11281" lon="2.67416">
        <ele>1574</ele>
        <time>2019-04-18T04:05:44Z</time>
      </trkpt>
      <trkpt lat="45.1131" lon="2.67354">
        <ele>1576</ele>
        <time>2019-04-18T04:06:44Z</time>
      </trkpt>
      <trkpt lat="45.11338" lon="2.67275">
        <ele>1582</ele>
        <time>2019-04-18T04:07:44Z</time>
      </trkpt>
      <trkpt lat="45.11354" lon="2.67251">
        <ele>1583</ele>
        <time>2019-04-18T04:08:44Z</time>
      </trkpt>
      <trkpt lat="45.11405" lon="2.67194">
        <ele>1576</ele>
        <time>2019-04-18T04:09:44Z</time>
      </trkpt>
      <trkpt lat="45.1141" lon="2.67181">
        <ele>1577</ele>
        <time>2019-04-18T04:10:44Z</time>
      </trkpt>
      <trkpt lat="45.11405" lon="2.67181">
        <ele>1577</ele>
        <time>2019-04-18T04:11:44Z</time>
      </trkpt>
      <trkpt lat="45.11379" lon="2.67197">
        <ele>1577</ele>
        <time>2019-04-18T04:12:44Z</time>
      </trkpt>
      <trkpt lat="45.11405" lon="2.67181">
        <ele>1577</ele>
        <time>2019-04-18T04:13:44Z</time>
      </trkpt>
      <trkpt lat="45.1141" lon="2.67181">
        <ele>1577</ele>
        <time>2019-04-18T04:14:44Z</time>
      </trkpt>
      <trkpt lat="45.11405" lon="2.67194">
        <ele>1576</ele>
        <time>2019-04-18T04:15:44Z</time>
      </trkpt>
      <trkpt lat="45.11354" lon="2.67251">
        <ele>1583</ele>
        <time>2019-04-18T04:16:44Z</time>
      </trkpt>
      <trkpt lat="45.11338" lon="2.67275">
        <ele>1582</ele>
        <time>2019-04-18T04:17:44Z</time>
      </trkpt>
      <trkpt lat="45.1131" lon="2.67354">
        <ele>1576</ele>
        <time>2019-04-18T04:18:44Z</time>
      </trkpt>
      <trkpt lat="45.11281" lon="2.67416">
        <ele>1574</ele>
        <time>2019-04-18T04:19:44Z</time>
      </trkpt>
      <trkpt lat="45.11259" lon="2.67484">
        <ele>1566</ele>
        <time>2019-04-18T04:20:44Z</time>
      </trkpt>
      <trkpt lat="45.11245" lon="2.67545">
        <ele>1558</ele>
        <time>2019-04-18T04:21:44Z</time>
      </trkpt>
      <trkpt lat="45.11237" lon="2.67564">
        <ele>1558</ele>
        <time>2019-04-18T04:22:44Z</time>
      </trkpt>
      <trkpt lat="45.1122" lon="2.67598">
        <ele>1559</ele>
        <time>2019-04-18T04:23:44Z</time>
      </trkpt>
      <trkpt lat="45.11196" lon="2.67657">
        <ele>1555</ele>
        <time>2019-04-18T04:24:44Z</time>
      </trkpt>
      <trkpt lat="45.11189" lon="2.67678">
        <ele>1553</ele>
        <time>2019-04-18T04:25:44Z</time>
      </trkpt>
      <trkpt lat="45.11184" lon="2.6771">
        <ele>1550</ele>
        <time>2019-04-18T04:26:44Z</time>
      </trkpt>
      <trkpt lat="45.11179" lon="2.67793">
        <ele>1542</ele>
        <time>2019-04-18T04:27:44Z</time>
      </trkpt>
      <trkpt lat="45.11176" lon="2.6785">
        <ele>1538</ele>
        <time>2019-04-18T04:28:44Z</time>
      </trkpt>
      <trkpt lat="45.11178" lon="2.67881">
        <ele>1536</ele>
        <time>2019-04-18T04:29:44Z</time>
      </trkpt>
      <trkpt lat="45.11182" lon="2.67904">
        <ele>1533</ele>
        <time>2019-04-18T04:30:44Z</time>
      </trkpt>
      <trkpt lat="45.11194" lon="2.67929">
        <ele>1525</ele>
        <time>2019-04-18T04:31:44Z</time>
      </trkpt>
      <trkpt lat="45.11209" lon="2.67951">
        <ele>1515</ele>
        <time>2019-04-18T04:32:44Z</time>
      </trkpt>
      <trkpt lat="45.11212" lon="2.67968">
        <ele>1512</ele>
        <time>2019-04-18T04:33:44Z</time>
      </trkpt>
      <trkpt lat="45.11218" lon="2.68021">
        <ele>1504</ele>
        <time>2019-04-18T04:34:44Z</time>
      </trkpt>
      <trkpt lat="45.11216" lon="2.68032">
        <ele>1504</ele>
        <time>2019-04-18T04:35:44Z</time>
      </trkpt>
      <trkpt lat="45.11213" lon="2.68042">
        <ele>1506</ele>
        <time>2019-04-18T04:36:44Z</time>
      </trkpt>
      <trkpt lat="45.11191" lon="2.6809">
        <ele>1516</ele>
        <time>2019-04-18T04:37:44Z</time>
      </trkpt>
      <trkpt lat="45.11189" lon="2.681">
        <ele>1515</ele>
        <time>2019-04-18T04:38:44Z</time>
      </trkpt>
      <trkpt lat="45.11194" lon="2.6813">
        <ele>1508</ele>
        <time>2019-04-18T04:39:44Z</time>
      </trkpt>
      <trkpt lat="45.11195" lon="2.68146">
        <ele>1505</ele>
        <time>2019-04-18T04:40:44Z</time>
      </trkpt>
      <trkpt lat="45.11193" lon="2.68173">
        <ele>1501</ele>
        <time>2019-04-18T04:41:44Z</time>
      </trkpt>
      <trkpt lat="45.11191" lon="2.68185">
        <ele>1499</ele>
        <time>2019-04-18T04:42:44Z</time>
      </trkpt>
      <trkpt lat="45.11186" lon="2.6819">
        <ele>1501</ele>
        <time>2019-04-18T04:43:44Z</time>
      </trkpt>
      <trkpt lat="45.11155" lon="2.68206">
        <ele>1512</ele>
        <time>2019-04-18T04:44:44Z</time>
      </trkpt>
      <trkpt lat="45.11147" lon="2.68217">
        <ele>1512</ele>
        <time>2019-04-18T04:45:44Z</time>
      </trkpt>
      <trkpt lat="45.11144" lon="2.68226">
        <ele>1511</ele>
        <time>2019-04-18T04:46:44Z</time>
      </trkpt>
      <trkpt lat="45.11144" lon="2.68233">
        <ele>1509</ele>
        <time>2019-04-18T04:47:44Z</time>
      </trkpt>
      <trkpt lat="45.1115" lon="2.68252">
        <ele>1502</ele>
        <time>2019-04-18T04:48:44Z</time>
      </trkpt>
      <trkpt lat="45.11152" lon="2.68272">
        <ele>1497</ele>
        <time>2019-04-18T04:49:44Z</time>
      </trkpt>
      <trkpt lat="45.11148" lon="2.68304">
        <ele>1491</ele>
        <time>2019-04-18T04:50:44Z</time>
      </trkpt>
      <trkpt lat="45.11134" lon="2.68349">
        <ele>1484</ele>
        <time>2019-04-18T04:51:44Z</time>
      </trkpt>
      <trkpt lat="45.11128" lon="2.68362">
        <ele>1481</ele>
        <time>2019-04-18T04:52:44Z</time>
      </trkpt>
      <trkpt lat="45.11113" lon="2.68374">
        <ele>1482</ele>
        <time>2019-04-18T04:53:44Z</time>
      </trkpt>
      <trkpt lat="45.11101" lon="2.68381">
        <ele>1483</ele>
        <time>2019-04-18T04:54:44Z</time>
      </trkpt>
      <trkpt lat="45.11082" lon="2.68386">
        <ele>1487</ele>
        <time>2019-04-18T04:55:44Z</time>
      </trkpt>
      <trkpt lat="45.11043" lon="2.68371">
        <ele>1485</ele>
        <time>2019-04-18T04:56:44Z</time>
      </trkpt>
      <trkpt lat="45.1103" lon="2.68363">
        <ele>1485</ele>
        <time>2019-04-18T04:57:44Z</time>
      </trkpt>
      <trkpt lat="45.11009" lon="2.68342">
        <ele>1490</ele>
        <time>2019-04-18T04:58:44Z</time>
      </trkpt>
      <trkpt lat="45.10999" lon="2.68335">
        <ele>1491</ele>
        <time>2019-04-18T04:59:44Z</time>
      </trkpt>
      <trkpt lat="45.10935" lon="2.68305">
        <ele>1488</ele>
        <time>2019-04-18T05:00:44Z</time>
      </trkpt>
      <trkpt lat="45.10916" lon="2.68293">
        <ele>1489</ele>
        <time>2019-04-18T05:01:44Z</time>
      </trkpt>
      <trkpt lat="45.10911" lon="2.68292">
        <ele>1489</ele>
        <time>2019-04-18T05:02:44Z</time>
      </trkpt>
      <trkpt lat="45.10907" lon="2.68295">
        <ele>1487</ele>
        <time>2019-04-18T05:03:44Z</time>
      </trkpt>
      <trkpt lat="45.10906" lon="2.68304">
        <ele>1482</ele>
        <time>2019-04-18T05:04:44Z</time>
      </trkpt>
      <trkpt lat="45.10912" lon="2.68312">
        <ele>1479</ele>
        <time>2019-04-18T05:05:44Z</time>
      </trkpt>
      <trkpt lat="45.10959" lon="2.68344">
        <ele>1476</ele>
        <time>2019-04-18T05:06:44Z</time>
      </trkpt>
      <trkpt lat="45.11037" lon="2.68429">
        <ele>1461</ele>
        <time>2019-04-18T05:07:44Z</time>
      </trkpt>
      <trkpt lat="45.11076" lon="2.68464">
        <ele>1455</ele>
        <time>2019-04-18T05:08:44Z</time>
      </trkpt>
      <trkpt lat="45.11082" lon="2.68478">
        <ele>1450</ele>
        <time>2019-04-18T05:09:44Z</time>
      </trkpt>
      <trkpt lat="45.11084" lon="2.68488">
        <ele>1445</ele>
        <time>2019-04-18T05:10:44Z</time>
      </trkpt>
      <trkpt lat="45.11084" lon="2.68504">
        <ele>1439</ele>
        <time>2019-04-18T05:11:44Z</time>
      </trkpt>
      <trkpt lat="45.11085" lon="2.68517">
        <ele>1436</ele>
        <time>2019-04-18T05:12:44Z</time>
      </trkpt>
      <trkpt lat="45.11095" lon="2.68537">
        <ele>1431</ele>
        <time>2019-04-18T05:13:44Z</time>
      </trkpt>
      <trkpt lat="45.11121" lon="2.6856">
        <ele>1427</ele>
        <time>2019-04-18T05:14:44Z</time>
      </trkpt>
      <trkpt lat="45.1117" lon="2.68593">
        <ele>1426</ele>
        <time>2019-04-18T05:15:44Z</time>
      </trkpt>
      <trkpt lat="45.11234" lon="2.6863">
        <ele>1419</ele>
        <time>2019-04-18T05:16:44Z</time>
      </trkpt>
      <trkpt lat="45.1126" lon="2.68637">
        <ele>1417</ele>
        <time>2019-04-18T05:17:44Z</time>
      </trkpt>
      <trkpt lat="45.11307" lon="2.68641">
        <ele>1411</ele>
        <time>2019-04-18T05:18:44Z</time>
      </trkpt>
      <trkpt lat="45.1134" lon="2.68653">
        <ele>1407</ele>
        <time>2019-04-18T05:19:44Z</time>
      </trkpt>
      <trkpt lat="45.11364" lon="2.68684">
        <ele>1401</ele>
        <time>2019-04-18T05:20:44Z</time>
      </trkpt>
      <trkpt lat="45.11375" lon="2.68712">
        <ele>1398</ele>
        <time>2019-04-18T05:21:44Z</time>
      </trkpt>
      <trkpt lat="45.1138" lon="2.68741">
        <ele>1397</ele>
        <time>2019-04-18T05:22:44Z</time>
      </trkpt>
      <trkpt lat="45.11381" lon="2.68805">
        <ele>1396</ele>
        <time>2019-04-18T05:23:44Z</time>
      </trkpt>
      <trkpt lat="45.11386" lon="2.68911">
        <ele>1392</ele>
        <time>2019-04-18T05:24:44Z</time>
      </trkpt>
      <trkpt lat="45.11391" lon="2.68938">
        <ele>1390</ele>
        <time>2019-04-18T05:25:44Z</time>
      </trkpt>
      <trkpt lat="45.114" lon="2.68961">
        <ele>1388</ele>
        <time>2019-04-18T05:26:44Z</time>
      </trkpt>
      <trkpt lat="45.11428" lon="2.68994">
        <ele>1385</ele>
        <time>2019-04-18T05:27:44Z</time>
      </trkpt>
      <trkpt lat="45.11538" lon="2.69072">
        <ele>1378</ele>
        <time>2019-04-18T05:28:44Z</time>
      </trkpt>
      <trkpt lat="45.11583" lon="2.69117">
        <ele>1376</ele>
        <time>2019-04-18T05:29:44Z</time>
      </trkpt>
      <trkpt lat="45.116" lon="2.69145">
        <ele>1373</ele>
        <time>2019-04-18T05:30:44Z</time>
      </trkpt>
      <trkpt lat="45.11639" lon="2.69196">
        <ele>1371</ele>
        <time>2019-04-18T05:31:44Z</time>
      </trkpt>
      <trkpt lat="45.11651" lon="2.69208">
        <ele>1371</ele>
        <time>2019-04-18T05:32:44Z</time>
      </trkpt>
      <trkpt lat="45.11683" lon="2.69232">
        <ele>1371</ele>
        <time>2019-04-18T05:33:44Z</time>
      </trkpt>
      <trkpt lat="45.11739" lon="2.69264">
        <ele>1370</ele>
        <time>2019-04-18T05:34:44Z</time>
      </trkpt>
      <trkpt lat="45.11768" lon="2.69284">
        <ele>1367</ele>
        <time>2019-04-18T05:35:44Z</time>
      </trkpt>
      <trkpt lat="45.1188" lon="2.6939">
        <ele>1361</ele>
        <time>2019-04-18T05:36:44Z</time>
      </trkpt>
      <trkpt lat="45.11966" lon="2.69451">
        <ele>1363</ele>
        <time>2019-04-18T05:37:44Z</time>
      </trkpt>
      <trkpt lat="45.12011" lon="2.69493">
        <ele>1363</ele>
        <time>2019-04-18T05:38:44Z</time>
      </trkpt>
      <trkpt lat="45.12036" lon="2.69513">
        <ele>1362</ele>
        <time>2019-04-18T05:39:44Z</time>
      </trkpt>
      <trkpt lat="45.12063" lon="2.69527">
        <ele>1363</ele>
        <time>2019-04-18T05:40:44Z</time>
      </trkpt>
      <trkpt lat="45.12088" lon="2.69549">
        <ele>1362</ele>
        <time>2019-04-18T05:41:44Z</time>
      </trkpt>
      <trkpt lat="45.12121" lon="2.6959">
        <ele>1357</ele>
        <time>2019-04-18T05:42:44Z</time>
      </trkpt>
      <trkpt lat="45.12142" lon="2.69608">
        <ele>1356</ele>
        <time>2019-04-18T05:43:44Z</time>
      </trkpt>
      <trkpt lat="45.12179" lon="2.69635">
        <ele>1354</ele>
        <time>2019-04-18T05:44:44Z</time>
      </trkpt>
      <trkpt lat="45.12247" lon="2.69672">
        <ele>1353</ele>
        <time>2019-04-18T05:45:44Z</time>
      </trkpt>
      <trkpt lat="45.12332" lon="2.69721">
        <ele>1350</ele>
        <time>2019-04-18T05:46:44Z</time>
      </trkpt>
      <trkpt lat="45.12482" lon="2.6977">
        <ele>1345</ele>
        <time>2019-04-18T05:47:44Z</time>
      </trkpt>
      <trkpt lat="45.12532" lon="2.69807">
        <ele>1339</ele>
        <time>2019-04-18T05:48:44Z</time>
      </trkpt>
      <trkpt lat="45.12567" lon="2.69838">
        <ele>1339</ele>
        <time>2019-04-18T05:49:44Z</time>
      </trkpt>
      <trkpt lat="45.12586" lon="2.69863">
        <ele>1338</ele>
        <time>2019-04-18T05:50:44Z</time>
      </trkpt>
      <trkpt lat="45.12656" lon="2.69977">
        <ele>1338</ele>
        <time>2019-04-18T05:51:44Z</time>
      </trkpt>
      <trkpt lat="45.12689" lon="2.7004">
        <ele>1334</ele>
        <time>2019-04-18T05:52:44Z</time>
      </trkpt>
      <trkpt lat="45.12722" lon="2.7009">
        <ele>1332</ele>
        <time>2019-04-18T05:53:44Z</time>
      </trkpt>
      <trkpt lat="45.12752" lon="2.70132">
        <ele>1329</ele>
        <time>2019-04-18T05:54:44Z</time>
      </trkpt>
      <trkpt lat="45.12772" lon="2.70153">
        <ele>1326</ele>
        <time>2019-04-18T05:55:44Z</time>
      </trkpt>
      <trkpt lat="45.12784" lon="2.70163">
        <ele>1326</ele>
        <time>2019-04-18T05:56:44Z</time>
      </trkpt>
      <trkpt lat="45.12818" lon="2.70175">
        <ele>1327</ele>
        <time>2019-04-18T05:57:44Z</time>
      </trkpt>
      <trkpt lat="45.12868" lon="2.70184">
        <ele>1332</ele>
        <time>2019-04-18T05:58:44Z</time>
      </trkpt>
      <trkpt lat="45.1293" lon="2.70224">
        <ele>1329</ele>
        <time>2019-04-18T05:59:44Z</time>
      </trkpt>
      <trkpt lat="45.12954" lon="2.70234">
        <ele>1328</ele>
        <time>2019-04-18T06:00:44Z</time>
      </trkpt>
      <trkpt lat="45.12999" lon="2.70248">
        <ele>1329</ele>
        <time>2019-04-18T06:01:44Z</time>
      </trkpt>
      <trkpt lat="45.13015" lon="2.7026">
        <ele>1327</ele>
        <time>2019-04-18T06:02:44Z</time>
      </trkpt>
      <trkpt lat="45.13044" lon="2.70274">
        <ele>1325</ele>
        <time>2019-04-18T06:03:44Z</time>
      </trkpt>
      <trkpt lat="45.13051" lon="2.70219">
        <ele>1327</ele>
        <time>2019-04-18T06:04:44Z</time>
      </trkpt>
      <trkpt lat="45.13058" lon="2.7018">
        <ele>1328</ele>
        <time>2019-04-18T06:05:44Z</time>
      </trkpt>
      <trkpt lat="45.1306" lon="2.70149">
        <ele>1325</ele>
        <time>2019-04-18T06:06:44Z</time>
      </trkpt>
      <trkpt lat="45.13056" lon="2.70133">
        <ele>1323</ele>
        <time>2019-04-18T06:07:44Z</time>
      </trkpt>
      <trkpt lat="45.1305" lon="2.70119">
        <ele>1323</ele>
        <time>2019-04-18T06:08:44Z</time>
      </trkpt>
      <trkpt lat="45.13035" lon="2.70105">
        <ele>1324</ele>
        <time>2019-04-18T06:09:44Z</time>
      </trkpt>
      <trkpt lat="45.13013" lon="2.70077">
        <ele>1326</ele>
        <time>2019-04-18T06:10:44Z</time>
      </trkpt>
      <trkpt lat="45.12984" lon="2.70031">
        <ele>1322</ele>
        <time>2019-04-18T06:11:44Z</time>
      </trkpt>
      <trkpt lat="45.12939" lon="2.70001">
        <ele>1325</ele>
        <time>2019-04-18T06:12:44Z</time>
      </trkpt>
      <trkpt lat="45.1289" lon="2.6995">
        <ele>1319</ele>
        <time>2019-04-18T06:13:44Z</time>
      </trkpt>
      <trkpt lat="45.12862" lon="2.69908">
        <ele>1316</ele>
        <time>2019-04-18T06:14:44Z</time>
      </trkpt>
      <trkpt lat="45.12846" lon="2.6987">
        <ele>1311</ele>
        <time>2019-04-18T06:15:44Z</time>
      </trkpt>
      <trkpt lat="45.12825" lon="2.69847">
        <ele>1313</ele>
        <time>2019-04-18T06:16:44Z</time>
      </trkpt>
      <trkpt lat="45.12809" lon="2.69806">
        <ele>1305</ele>
        <time>2019-04-18T06:17:44Z</time>
      </trkpt>
      <trkpt lat="45.12798" lon="2.69788">
        <ele>1302</ele>
        <time>2019-04-18T06:18:44Z</time>
      </trkpt>
      <trkpt lat="45.12754" lon="2.69752">
        <ele>1307</ele>
        <time>2019-04-18T06:19:44Z</time>
      </trkpt>
      <trkpt lat="45.12736" lon="2.69734">
        <ele>1308</ele>
        <time>2019-04-18T06:20:44Z</time>
      </trkpt>
      <trkpt lat="45.12736" lon="2.69722">
        <ele>1304</ele>
        <time>2019-04-18T06:21:44Z</time>
      </trkpt>
      <trkpt lat="45.1274" lon="2.69713">
        <ele>1299</ele>
        <time>2019-04-18T06:22:44Z</time>
      </trkpt>
      <trkpt lat="45.12745" lon="2.69713">
        <ele>1297</ele>
        <time>2019-04-18T06:23:44Z</time>
      </trkpt>
      <trkpt lat="45.1275" lon="2.69716">
        <ele>1297</ele>
        <time>2019-04-18T06:24:44Z</time>
      </trkpt>
      <trkpt lat="45.12768" lon="2.69741">
        <ele>1297</ele>
        <time>2019-04-18T06:25:44Z</time>
      </trkpt>
      <trkpt lat="45.12823" lon="2.69776">
        <ele>1288</ele>
        <time>2019-04-18T06:26:44Z</time>
      </trkpt>
      <trkpt lat="45.12836" lon="2.69792">
        <ele>1289</ele>
        <time>2019-04-18T06:27:44Z</time>
      </trkpt>
      <trkpt lat="45.12843" lon="2.69809">
        <ele>1292</ele>
        <time>2019-04-18T06:28:44Z</time>
      </trkpt>
      <trkpt lat="45.1285" lon="2.69818">
        <ele>1292</ele>
        <time>2019-04-18T06:29:44Z</time>
      </trkpt>
      <trkpt lat="45.12865" lon="2.69819">
        <ele>1285</ele>
        <time>2019-04-18T06:30:44Z</time>
      </trkpt>
      <trkpt lat="45.12925" lon="2.69882">
        <ele>1282</ele>
        <time>2019-04-18T06:31:44Z</time>
      </trkpt>
      <trkpt lat="45.12971" lon="2.69904">
        <ele>1278</ele>
        <time>2019-04-18T06:32:44Z</time>
      </trkpt>
      <trkpt lat="45.13021" lon="2.69912">
        <ele>1266</ele>
        <time>2019-04-18T06:33:44Z</time>
      </trkpt>
      <trkpt lat="45.13069" lon="2.6995">
        <ele>1265</ele>
        <time>2019-04-18T06:34:44Z</time>
      </trkpt>
      <trkpt lat="45.13109" lon="2.69989">
        <ele>1259</ele>
        <time>2019-04-18T06:35:44Z</time>
      </trkpt>
      <trkpt lat="45.13135" lon="2.70027">
        <ele>1256</ele>
        <time>2019-04-18T06:36:44Z</time>
      </trkpt>
      <trkpt lat="45.13158" lon="2.70077">
        <ele>1254</ele>
        <time>2019-04-18T06:37:44Z</time>
      </trkpt>
      <trkpt lat="45.13181" lon="2.70119">
        <ele>1251</ele>
        <time>2019-04-18T06:38:44Z</time>
      </trkpt>
      <trkpt lat="45.13229" lon="2.70225">
        <ele>1252</ele>
        <time>2019-04-18T06:39:44Z</time>
      </trkpt>
      <trkpt lat="45.13253" lon="2.70261">
        <ele>1249</ele>
        <time>2019-04-18T06:40:44Z</time>
      </trkpt>
      <trkpt lat="45.13276" lon="2.70282">
        <ele>1250</ele>
        <time>2019-04-18T06:41:44Z</time>
      </trkpt>
      <trkpt lat="45.13323" lon="2.70302">
        <ele>1241</ele>
        <time>2019-04-18T06:42:44Z</time>
      </trkpt>
      <trkpt lat="45.13361" lon="2.70313">
        <ele>1230</ele>
        <time>2019-04-18T06:43:44Z</time>
      </trkpt>
      <trkpt lat="45.13375" lon="2.70326">
        <ele>1228</ele>
        <time>2019-04-18T06:44:44Z</time>
      </trkpt>
      <trkpt lat="45.13394" lon="2.70356">
        <ele>1228</ele>
        <time>2019-04-18T06:45:44Z</time>
      </trkpt>
      <trkpt lat="45.13398" lon="2.70358">
        <ele>1226</ele>
        <time>2019-04-18T06:46:44Z</time>
      </trkpt>
      <trkpt lat="45.13403" lon="2.70356">
        <ele>1224</ele>
        <time>2019-04-18T06:47:44Z</time>
      </trkpt>
      <trkpt lat="45.13406" lon="2.7035">
        <ele>1221</ele>
        <time>2019-04-18T06:48:44Z</time>
      </trkpt>
      <trkpt lat="45.13406" lon="2.70343">
        <ele>1219</ele>
        <time>2019-04-18T06:49:44Z</time>
      </trkpt>
      <trkpt lat="45.13405" lon="2.70334">
        <ele>1217</ele>
        <time>2019-04-18T06:50:44Z</time>
      </trkpt>
      <trkpt lat="45.13399" lon="2.70322">
        <ele>1216</ele>
        <time>2019-04-18T06:51:44Z</time>
      </trkpt>
      <trkpt lat="45.13358" lon="2.70278">
        <ele>1220</ele>
        <time>2019-04-18T06:52:44Z</time>
      </trkpt>
      <trkpt lat="45.13345" lon="2.70259">
        <ele>1219</ele>
        <time>2019-04-18T06:53:44Z</time>
      </trkpt>
      <trkpt lat="45.13332" lon="2.70226">
        <ele>1218</ele>
        <time>2019-04-18T06:54:44Z</time>
      </trkpt>
      <trkpt lat="45.13318" lon="2.70178">
        <ele>1215</ele>
        <time>2019-04-18T06:55:44Z</time>
      </trkpt>
      <trkpt lat="45.13328" lon="2.70152">
        <ele>1208</ele>
        <time>2019-04-18T06:56:44Z</time>
      </trkpt>
      <trkpt lat="45.13336" lon="2.70126">
        <ele>1202</ele>
        <time>2019-04-18T06:57:44Z</time>
      </trkpt>
      <trkpt lat="45.13327" lon="2.70097">
        <ele>1200</ele>
        <time>2019-04-18T06:58:44Z</time>
      </trkpt>
      <trkpt lat="45.13304" lon="2.70057">
        <ele>1197</ele>
        <time>2019-04-18T06:59:44Z</time>
      </trkpt>
      <trkpt lat="45.13242" lon="2.69983">
        <ele>1196</ele>
        <time>2019-04-18T07:00:44Z</time>
      </trkpt>
      <trkpt lat="45.13235" lon="2.69952">
        <ele>1192</ele>
        <time>2019-04-18T07:01:44Z</time>
      </trkpt>
      <trkpt lat="45.1323" lon="2.69901">
        <ele>1182</ele>
        <time>2019-04-18T07:02:44Z</time>
      </trkpt>
      <trkpt lat="45.13184" lon="2.69848">
        <ele>1187</ele>
        <time>2019-04-18T07:03:44Z</time>
      </trkpt>
      <trkpt lat="45.13158" lon="2.69776">
        <ele>1177</ele>
        <time>2019-04-18T07:04:44Z</time>
      </trkpt>
      <trkpt lat="45.13136" lon="2.69735">
        <ele>1172</ele>
        <time>2019-04-18T07:05:44Z</time>
      </trkpt>
      <trkpt lat="45.13139" lon="2.69725">
        <ele>1169</ele>
        <time>2019-04-18T07:06:44Z</time>
      </trkpt>
      <trkpt lat="45.13144" lon="2.69723">
        <ele>1167</ele>
        <time>2019-04-18T07:07:44Z</time>
      </trkpt>
      <trkpt lat="45.13151" lon="2.69728">
        <ele>1166</ele>
        <time>2019-04-18T07:08:44Z</time>
      </trkpt>
      <trkpt lat="45.13172" lon="2.6977">
        <ele>1170</ele>
        <time>2019-04-18T07:09:44Z</time>
      </trkpt>
      <trkpt lat="45.1322" lon="2.69801">
        <ele>1162</ele>
        <time>2019-04-18T07:10:44Z</time>
      </trkpt>
      <trkpt lat="45.13262" lon="2.69835">
        <ele>1155</ele>
        <time>2019-04-18T07:11:44Z</time>
      </trkpt>
      <trkpt lat="45.13282" lon="2.69844">
        <ele>1152</ele>
        <time>2019-04-18T07:12:44Z</time>
      </trkpt>
      <trkpt lat="45.13399" lon="2.69866">
        <ele>1130</ele>
        <time>2019-04-18T07:13:44Z</time>
      </trkpt>
      <trkpt lat="45.13414" lon="2.69881">
        <ele>1130</ele>
        <time>2019-04-18T07:14:44Z</time>
      </trkpt>
      <trkpt lat="45.13502" lon="2.70018">
        <ele>1127</ele>
        <time>2019-04-18T07:15:44Z</time>
      </trkpt>
      <trkpt lat="45.1351" lon="2.70028">
        <ele>1127</ele>
        <time>2019-04-18T07:16:44Z</time>
      </trkpt>
      <trkpt lat="45.13518" lon="2.70027">
        <ele>1125</ele>
        <time>2019-04-18T07:17:44Z</time>
      </trkpt>
      <trkpt lat="45.13521" lon="2.7002">
        <ele>1123</ele>
        <time>2019-04-18T07:18:44Z</time>
      </trkpt>
      <trkpt lat="45.13502" lon="2.6997">
        <ele>1118</ele>
        <time>2019-04-18T07:19:44Z</time>
      </trkpt>
      <trkpt lat="45.13498" lon="2.69951">
        <ele>1117</ele>
        <time>2019-04-18T07:20:44Z</time>
      </trkpt>
      <trkpt lat="45.13512" lon="2.69893">
        <ele>1107</ele>
        <time>2019-04-18T07:21:44Z</time>
      </trkpt>
      <trkpt lat="45.13516" lon="2.69744">
        <ele>1096</ele>
        <time>2019-04-18T07:22:44Z</time>
      </trkpt>
      <trkpt lat="45.13525" lon="2.69731">
        <ele>1095</ele>
        <time>2019-04-18T07:23:44Z</time>
      </trkpt>
      <trkpt lat="45.13541" lon="2.69729">
        <ele>1094</ele>
        <time>2019-04-18T07:24:44Z</time>
      </trkpt>
      <trkpt lat="45.13561" lon="2.69736">
        <ele>1093</ele>
        <time>2019-04-18T07:25:44Z</time>
      </trkpt>
      <trkpt lat="45.1362" lon="2.69771">
        <ele>1089</ele>
        <time>2019-04-18T07:26:44Z</time>
      </trkpt>
      <trkpt lat="45.13701" lon="2.69794">
        <ele>1082</ele>
        <time>2019-04-18T07:27:44Z</time>
      </trkpt>
      <trkpt lat="45.13733" lon="2.69859">
        <ele>1081</ele>
        <time>2019-04-18T07:28:44Z</time>
      </trkpt>
      <trkpt lat="45.13753" lon="2.69868">
        <ele>1080</ele>
        <time>2019-04-18T07:29:44Z</time>
      </trkpt>
      <trkpt lat="45.1377" lon="2.69857">
        <ele>1077</ele>
        <time>2019-04-18T07:30:44Z</time>
      </trkpt>
      <trkpt lat="45.13803" lon="2.69755">
        <ele>1068</ele>
        <time>2019-04-18T07:31:44Z</time>
      </trkpt>
      <trkpt lat="45.13851" lon="2.69732">
        <ele>1063</ele>
        <time>2019-04-18T07:32:44Z</time>
      </trkpt>
      <trkpt lat="45.14086" lon="2.69675">
        <ele>1048</ele>
        <time>2019-04-18T07:33:44Z</time>
      </trkpt>
      <trkpt lat="45.14127" lon="2.69673">
        <ele>1047</ele>
        <time>2019-04-18T07:34:44Z</time>
      </trkpt>
      <trkpt lat="45.14155" lon="2.69687">
        <ele>1047</ele>
        <time>2019-04-18T07:35:44Z</time>
      </trkpt>
      <trkpt lat="45.14285" lon="2.69803">
        <ele>1044</ele>
        <time>2019-04-18T07:36:44Z</time>
      </trkpt>
      <trkpt lat="45.14404" lon="2.69847">
        <ele>1042</ele>
        <time>2019-04-18T07:37:44Z</time>
      </trkpt>
      <trkpt lat="45.14443" lon="2.69857">
        <ele>1042</ele>
        <time>2019-04-18T07:38:44Z</time>
      </trkpt>
      <trkpt lat="45.14605" lon="2.69853">
        <ele>1041</ele>
        <time>2019-04-18T07:39:44Z</time>
      </trkpt>
      <trkpt lat="45.14665" lon="2.69848">
        <ele>1041</ele>
        <time>2019-04-18T07:40:44Z</time>
      </trkpt>
      <trkpt lat="45.14695" lon="2.69833">
        <ele>1042</ele>
        <time>2019-04-18T07:41:44Z</time>
      </trkpt>
      <trkpt lat="45.14726" lon="2.69815">
        <ele>1045</ele>
        <time>2019-04-18T07:42:44Z</time>
      </trkpt>
      <trkpt lat="45.14746" lon="2.6981">
        <ele>1047</ele>
        <time>2019-04-18T07:43:44Z</time>
      </trkpt>
      <trkpt lat="45.1477" lon="2.69817">
        <ele>1049</ele>
        <time>2019-04-18T07:44:44Z</time>
      </trkpt>
      <trkpt lat="45.14812" lon="2.69848">
        <ele>1050</ele>
        <time>2019-04-18T07:45:44Z</time>
      </trkpt>
      <trkpt lat="45.14882" lon="2.69877">
        <ele>1053</ele>
        <time>2019-04-18T07:46:44Z</time>
      </trkpt>
      <trkpt lat="45.14907" lon="2.69899">
        <ele>1052</ele>
        <time>2019-04-18T07:47:44Z</time>
      </trkpt>
      <trkpt lat="45.14945" lon="2.6994">
        <ele>1050</ele>
        <time>2019-04-18T07:48:44Z</time>
      </trkpt>
      <trkpt lat="45.14965" lon="2.69954">
        <ele>1051</ele>
        <time>2019-04-18T07:49:44Z</time>
      </trkpt>
      <trkpt lat="45.1511" lon="2.7002">
        <ele>1047</ele>
        <time>2019-04-18T07:50:44Z</time>
      </trkpt>
      <trkpt lat="45.15224" lon="2.70117">
        <ele>1044</ele>
        <time>2019-04-18T07:51:44Z</time>
      </trkpt>
      <trkpt lat="45.15269" lon="2.70141">
        <ele>1044</ele>
        <time>2019-04-18T07:52:44Z</time>
      </trkpt>
      <trkpt lat="45.15361" lon="2.70221">
        <ele>1040</ele>
        <time>2019-04-18T07:53:44Z</time>
      </trkpt>
      <trkpt lat="45.15445" lon="2.70238">
        <ele>1040</ele>
        <time>2019-04-18T07:54:44Z</time>
      </trkpt>
      <trkpt lat="45.15467" lon="2.70251">
        <ele>1039</ele>
        <time>2019-04-18T07:55:44Z</time>
      </trkpt>
      <trkpt lat="45.15489" lon="2.70269">
        <ele>1038</ele>
        <time>2019-04-18T07:56:44Z</time>
      </trkpt>
      <trkpt lat="45.15505" lon="2.70269">
        <ele>1039</ele>
        <time>2019-04-18T07:57:44Z</time>
      </trkpt>
      <trkpt lat="45.15568" lon="2.70259">
        <ele>1040</ele>
        <time>2019-04-18T07:58:44Z</time>
      </trkpt>
      <trkpt lat="45.15584" lon="2.70262">
        <ele>1040</ele>
        <time>2019-04-18T07:59:44Z</time>
      </trkpt>
      <trkpt lat="45.15629" lon="2.70285">
        <ele>1039</ele>
        <time>2019-04-18T08:00:44Z</time>
      </trkpt>
      <trkpt lat="45.15688" lon="2.70313">
        <ele>1040</ele>
        <time>2019-04-18T08:01:44Z</time>
      </trkpt>
      <trkpt lat="45.15707" lon="2.70328">
        <ele>1040</ele>
        <time>2019-04-18T08:02:44Z</time>
      </trkpt>
      <trkpt lat="45.15723" lon="2.70347">
        <ele>1040</ele>
        <time>2019-04-18T08:03:44Z</time>
      </trkpt>
      <trkpt lat="45.1573" lon="2.70399">
        <ele>1037</ele>
        <time>2019-04-18T08:04:44Z</time>
      </trkpt>
      <trkpt lat="45.15748" lon="2.70472">
        <ele>1036</ele>
        <time>2019-04-18T08:05:44Z</time>
      </trkpt>
      <trkpt lat="45.15785" lon="2.7051">
        <ele>1038</ele>
        <time>2019-04-18T08:06:44Z</time>
      </trkpt>
      <trkpt lat="45.15822" lon="2.70545">
        <ele>1039</ele>
        <time>2019-04-18T08:07:44Z</time>
      </trkpt>
      <trkpt lat="45.15884" lon="2.70574">
        <ele>1039</ele>
        <time>2019-04-18T08:08:44Z</time>
      </trkpt>
      <trkpt lat="45.1593" lon="2.70591">
        <ele>1038</ele>
        <time>2019-04-18T08:09:44Z</time>
      </trkpt>
      <trkpt lat="45.16025" lon="2.70614">
        <ele>1038</ele>
        <time>2019-04-18T08:10:44Z</time>
      </trkpt>
      <trkpt lat="45.16047" lon="2.70629">
        <ele>1038</ele>
        <time>2019-04-18T08:11:44Z</time>
      </trkpt>
      <trkpt lat="45.16058" lon="2.70676">
        <ele>1037</ele>
        <time>2019-04-18T08:12:44Z</time>
      </trkpt>
      <trkpt lat="45.16077" lon="2.70705">
        <ele>1035</ele>
        <time>2019-04-18T08:13:44Z</time>
      </trkpt>
      <trkpt lat="45.16094" lon="2.70713">
        <ele>1034</ele>
        <time>2019-04-18T08:14:44Z</time>
      </trkpt>
      <trkpt lat="45.16161" lon="2.70699">
        <ele>1034</ele>
        <time>2019-04-18T08:15:44Z</time>
      </trkpt>
      <trkpt lat="45.16204" lon="2.70699">
        <ele>1034</ele>
        <time>2019-04-18T08:16:44Z</time>
      </trkpt>
      <trkpt lat="45.16262" lon="2.70735">
        <ele>1033</ele>
        <time>2019-04-18T08:17:44Z</time>
      </trkpt>
      <trkpt lat="45.163" lon="2.70736">
        <ele>1033</ele>
        <time>2019-04-18T08:18:44Z</time>
      </trkpt>
      <trkpt lat="45.16331" lon="2.70765">
        <ele>1032</ele>
        <time>2019-04-18T08:19:44Z</time>
      </trkpt>
      <trkpt lat="45.16413" lon="2.70799">
        <ele>1028</ele>
        <time>2019-04-18T08:20:44Z</time>
      </trkpt>
      <trkpt lat="45.16445" lon="2.70823">
        <ele>1027</ele>
        <time>2019-04-18T08:21:44Z</time>
      </trkpt>
      <trkpt lat="45.16519" lon="2.70866">
        <ele>1024</ele>
        <time>2019-04-18T08:22:44Z</time>
      </trkpt>
      <trkpt lat="45.16531" lon="2.70878">
        <ele>1024</ele>
        <time>2019-04-18T08:23:44Z</time>
      </trkpt>
      <trkpt lat="45.16535" lon="2.70895">
        <ele>1023</ele>
        <time>2019-04-18T08:24:44Z</time>
      </trkpt>
      <trkpt lat="45.16533" lon="2.70949">
        <ele>1020</ele>
        <time>2019-04-18T08:25:44Z</time>
      </trkpt>
      <trkpt lat="45.1655" lon="2.70995">
        <ele>1018</ele>
        <time>2019-04-18T08:26:44Z</time>
      </trkpt>
      <trkpt lat="45.16563" lon="2.71034">
        <ele>1017</ele>
        <time>2019-04-18T08:27:44Z</time>
      </trkpt>
      <trkpt lat="45.1658" lon="2.71055">
        <ele>1016</ele>
        <time>2019-04-18T08:28:44Z</time>
      </trkpt>
      <trkpt lat="45.1663" lon="2.7109">
        <ele>1017</ele>
        <time>2019-04-18T08:29:44Z</time>
      </trkpt>
      <trkpt lat="45.16648" lon="2.71109">
        <ele>1017</ele>
        <time>2019-04-18T08:30:44Z</time>
      </trkpt>
      <trkpt lat="45.16649" lon="2.71124">
        <ele>1017</ele>
        <time>2019-04-18T08:31:44Z</time>
      </trkpt>
      <trkpt lat="45.16643" lon="2.71151">
        <ele>1016</ele>
        <time>2019-04-18T08:32:44Z</time>
      </trkpt>
      <trkpt lat="45.16645" lon="2.71172">
        <ele>1016</ele>
        <time>2019-04-18T08:33:44Z</time>
      </trkpt>
      <trkpt lat="45.16666" lon="2.71269">
        <ele>1017</ele>
        <time>2019-04-18T08:34:44Z</time>
      </trkpt>
      <trkpt lat="45.16709" lon="2.71352">
        <ele>1021</ele>
        <time>2019-04-18T08:35:44Z</time>
      </trkpt>
      <trkpt lat="45.16739" lon="2.71397">
        <ele>1022</ele>
        <time>2019-04-18T08:36:44Z</time>
      </trkpt>
      <trkpt lat="45.16785" lon="2.71404">
        <ele>1020</ele>
        <time>2019-04-18T08:37:44Z</time>
      </trkpt>
      <trkpt lat="45.16833" lon="2.71428">
        <ele>1019</ele>
        <time>2019-04-18T08:38:44Z</time>
      </trkpt>
      <trkpt lat="45.16868" lon="2.71425">
        <ele>1018</ele>
        <time>2019-04-18T08:39:44Z</time>
      </trkpt>
      <trkpt lat="45.16889" lon="2.714">
        <ele>1016</ele>
        <time>2019-04-18T08:40:44Z</time>
      </trkpt>
      <trkpt lat="45.16912" lon="2.71393">
        <ele>1015</ele>
        <time>2019-04-18T08:41:44Z</time>
      </trkpt>
      <trkpt lat="45.16981" lon="2.71408">
        <ele>1014</ele>
        <time>2019-04-18T08:42:44Z</time>
      </trkpt>
      <trkpt lat="45.17075" lon="2.71426">
        <ele>1011</ele>
        <time>2019-04-18T08:43:44Z</time>
      </trkpt>
      <trkpt lat="45.1712" lon="2.71459">
        <ele>1010</ele>
        <time>2019-04-18T08:44:44Z</time>
      </trkpt>
      <trkpt lat="45.17166" lon="2.71486">
        <ele>1010</ele>
        <time>2019-04-18T08:45:44Z</time>
      </trkpt>
      <trkpt lat="45.1723" lon="2.71515">
        <ele>1006</ele>
        <time>2019-04-18T08:46:44Z</time>
      </trkpt>
      <trkpt lat="45.17305" lon="2.7159">
        <ele>1004</ele>
        <time>2019-04-18T08:47:44Z</time>
      </trkpt>
      <trkpt lat="45.17363" lon="2.71637">
        <ele>999</ele>
        <time>2019-04-18T08:48:44Z</time>
      </trkpt>
      <trkpt lat="45.1743" lon="2.71683">
        <ele>994</ele>
        <time>2019-04-18T08:49:44Z</time>
      </trkpt>
      <trkpt lat="45.17518" lon="2.71747">
        <ele>994</ele>
        <time>2019-04-18T08:50:44Z</time>
      </trkpt>
      <trkpt lat="45.17616" lon="2.71822">
        <ele>991</ele>
        <time>2019-04-18T08:51:44Z</time>
      </trkpt>
      <trkpt lat="45.17677" lon="2.71886">
        <ele>989</ele>
        <time>2019-04-18T08:52:44Z</time>
      </trkpt>
      <trkpt lat="45.17938" lon="2.71954">
        <ele>989</ele>
        <time>2019-04-18T08:53:44Z</time>
      </trkpt>
      <trkpt lat="45.18085" lon="2.7199">
        <ele>993</ele>
        <time>2019-04-18T08:54:44Z</time>
      </trkpt>
      <trkpt lat="45.18202" lon="2.72009">
        <ele>995</ele>
        <time>2019-04-18T08:55:44Z</time>
      </trkpt>
      <trkpt lat="45.18255" lon="2.71984">
        <ele>992</ele>
        <time>2019-04-18T08:56:44Z</time>
      </trkpt>
      <trkpt lat="45.1832" lon="2.71928">
        <ele>988</ele>
        <time>2019-04-18T08:57:44Z</time>
      </trkpt>
      <trkpt lat="45.18431" lon="2.71853">
        <ele>985</ele>
        <time>2019-04-18T08:58:44Z</time>
      </trkpt>
      <trkpt lat="45.18469" lon="2.7181">
        <ele>983</ele>
        <time>2019-04-18T08:59:44Z</time>
      </trkpt>
      <trkpt lat="45.18512" lon="2.71788">
        <ele>983</ele>
        <time>2019-04-18T09:00:44Z</time>
      </trkpt>
      <trkpt lat="45.18565" lon="2.71742">
        <ele>981</ele>
        <time>2019-04-18T09:01:44Z</time>
      </trkpt>
      <trkpt lat="45.18626" lon="2.71684">
        <ele>980</ele>
        <time>2019-04-18T09:02:44Z</time>
      </trkpt>
      <trkpt lat="45.18641" lon="2.71664">
        <ele>979</ele>
        <time>2019-04-18T09:03:44Z</time>
      </trkpt>
      <trkpt lat="45.18655" lon="2.71636">
        <ele>978</ele>
        <time>2019-04-18T09:04:44Z</time>
      </trkpt>
      <trkpt lat="45.18666" lon="2.71621">
        <ele>978</ele>
        <time>2019-04-18T09:05:44Z</time>
      </trkpt>
      <trkpt lat="45.18723" lon="2.71565">
        <ele>977</ele>
        <time>2019-04-18T09:06:44Z</time>
      </trkpt>
      <trkpt lat="45.18736" lon="2.71556">
        <ele>976</ele>
        <time>2019-04-18T09:07:44Z</time>
      </trkpt>
      <trkpt lat="45.18777" lon="2.71541">
        <ele>977</ele>
        <time>2019-04-18T09:08:44Z</time>
      </trkpt>
      <trkpt lat="45.18797" lon="2.71526">
        <ele>977</ele>
        <time>2019-04-18T09:09:44Z</time>
      </trkpt>
      <trkpt lat="45.18786" lon="2.71481">
        <ele>975</ele>
        <time>2019-04-18T09:10:44Z</time>
      </trkpt>
      <trkpt lat="45.18754" lon="2.71398">
        <ele>973</ele>
        <time>2019-04-18T09:11:44Z</time>
      </trkpt>
      <trkpt lat="45.18751" lon="2.7138">
        <ele>972</ele>
        <time>2019-04-18T09:12:44Z</time>
      </trkpt>
      <trkpt lat="45.1875" lon="2.71364">
        <ele>972</ele>
        <time>2019-04-18T09:13:44Z</time>
      </trkpt>
      <trkpt lat="45.18751" lon="2.71342">
        <ele>971</ele>
        <time>2019-04-18T09:14:44Z</time>
      </trkpt>
      <trkpt lat="45.18773" lon="2.71281">
        <ele>969</ele>
        <time>2019-04-18T09:15:44Z</time>
      </trkpt>
      <trkpt lat="45.18781" lon="2.71246">
        <ele>968</ele>
        <time>2019-04-18T09:16:44Z</time>
      </trkpt>
      <trkpt lat="45.18786" lon="2.71198">
        <ele>967</ele>
        <time>2019-04-18T09:17:44Z</time>
      </trkpt>
      <trkpt lat="45.18796" lon="2.7116">
        <ele>966</ele>
        <time>2019-04-18T09:18:44Z</time>
      </trkpt>
      <trkpt lat="45.18798" lon="2.71141">
        <ele>965</ele>
        <time>2019-04-18T09:19:44Z</time>
      </trkpt>
      <trkpt lat="45.18797" lon="2.71112">
        <ele>964</ele>
        <time>2019-04-18T09:20:44Z</time>
      </trkpt>
      <trkpt lat="45.18785" lon="2.71064">
        <ele>963</ele>
        <time>2019-04-18T09:21:44Z</time>
      </trkpt>
      <trkpt lat="45.18787" lon="2.71043">
        <ele>963</ele>
        <time>2019-04-18T09:22:44Z</time>
      </trkpt>
      <trkpt lat="45.18795" lon="2.71027">
        <ele>963</ele>
        <time>2019-04-18T09:23:44Z</time>
      </trkpt>
      <trkpt lat="45.18832" lon="2.70987">
        <ele>961</ele>
        <time>2019-04-18T09:24:44Z</time>
      </trkpt>
      <trkpt lat="45.18835" lon="2.70976">
        <ele>961</ele>
        <time>2019-04-18T09:25:44Z</time>
      </trkpt>
      <trkpt lat="45.18838" lon="2.70914">
        <ele>960</ele>
        <time>2019-04-18T09:26:44Z</time>
      </trkpt>
      <trkpt lat="45.18837" lon="2.7089">
        <ele>960</ele>
        <time>2019-04-18T09:27:44Z</time>
      </trkpt>
      <trkpt lat="45.18826" lon="2.7085">
        <ele>961</ele>
        <time>2019-04-18T09:28:44Z</time>
      </trkpt>
      <trkpt lat="45.18821" lon="2.70813">
        <ele>962</ele>
        <time>2019-04-18T09:29:44Z</time>
      </trkpt>
      <trkpt lat="45.18821" lon="2.70795">
        <ele>963</ele>
        <time>2019-04-18T09:30:44Z</time>
      </trkpt>
      <trkpt lat="45.18829" lon="2.70777">
        <ele>964</ele>
        <time>2019-04-18T09:31:44Z</time>
      </trkpt>
      <trkpt lat="45.18845" lon="2.70773">
        <ele>964</ele>
        <time>2019-04-18T09:32:44Z</time>
      </trkpt>
      <trkpt lat="45.18853" lon="2.70762">
        <ele>964</ele>
        <time>2019-04-18T09:33:44Z</time>
      </trkpt>
      <trkpt lat="45.18864" lon="2.70737">
        <ele>965</ele>
        <time>2019-04-18T09:34:44Z</time>
      </trkpt>
      <trkpt lat="45.1887" lon="2.70695">
        <ele>967</ele>
        <time>2019-04-18T09:35:44Z</time>
      </trkpt>
      <trkpt lat="45.18864" lon="2.70684">
        <ele>968</ele>
        <time>2019-04-18T09:36:44Z</time>
      </trkpt>
      <trkpt lat="45.18843" lon="2.70663">
        <ele>969</ele>
        <time>2019-04-18T09:37:44Z</time>
      </trkpt>
      <trkpt lat="45.18828" lon="2.70651">
        <ele>969</ele>
        <time>2019-04-18T09:38:44Z</time>
      </trkpt>
    </trkseg>
  </trk>
</gpx>